
Distance (Route):
Temperature : 20.2°C
Humidity : 65.6%
Pressure : 0hPa| Receiver | Frames | First received | Last received |
|---|---|---|---|
| IW2NTF | 870 | 2026-09-01 11:02:43 | 2026-09-01 13:20:06 |
| DO3MHA-11 | 406 | 2026-09-01 11:43:14 | 2026-09-01 13:08:48 |
| DB0UT-7 | 106 | 2026-09-01 11:43:55 | 2026-09-01 13:06:22 |
| NBG1-10 | 76 | 2026-09-01 11:53:53 | 2026-09-01 13:04:35 |
| OE5DRO-10 | 63 | 2026-09-01 12:24:58 | 2026-09-01 13:00:04 |
| DL2OL | 46 | 2026-09-01 11:52:39 | 2026-09-01 13:09:13 |
| DF1GD-15 | 35 | 2026-09-01 11:57:23 | 2026-09-01 12:12:29 |
| PG1ADW-2 | 23 | 2026-09-01 12:42:02 | 2026-09-01 12:55:58 |
| DL1ZP-14 | 22 | 2026-09-01 12:44:20 | 2026-09-01 12:57:47 |
| DK5PH-5 | 12 | 2026-09-01 12:46:36 | 2026-09-01 12:55:56 |
| S52SK | 9 | 2026-09-01 12:26:42 | 2026-09-01 12:35:50 |
| OE5DXL-15 | 2 | 2026-09-01 12:46:39 | 2026-09-01 12:49:29 |
| BAUMI2-15 | 1 | 2026-09-01 12:36:35 | 2026-09-01 12:36:35 |
| Receiver | Date | Latitude | Longitude | Direction | Speed | Altitude | Climb | Temperature | Humidity | Pressure | Voltage | Killtimer | Uptime | BKT | XDATA |
|---|---|---|---|---|---|---|---|---|---|---|---|---|---|---|---|
| IW2NTF | 2026-09-01 13:20:06 | 45.64836 | 9.77019 | 337° | 13km/h | 1083m | -12.8m/s | 20.2°C | 65.6% | 0hPa | 2.7V | 08:04:36 | 02:45:00 | 00:00:00 | |
| IW2NTF | 2026-09-01 13:19:58 | 45.64809 | 9.77034 | 335° | 15km/h | 1180m | -11.8m/s | 19.3°C | 68.5% | 0hPa | 2.7V | 08:04:44 | 02:44:52 | 00:00:00 | |
| IW2NTF | 2026-09-01 13:19:52 | 45.64789 | 9.77051 | 326° | 15km/h | 1253m | -12.2m/s | 18.5°C | 71.3% | 0hPa | 2.7V | 08:04:50 | 02:44:46 | 00:00:00 | |
| IW2NTF | 2026-09-01 13:19:46 | 45.64783 | 9.77057 | 326° | 15km/h | 1277m | -12m/s | 18.3°C | 71.7% | 0hPa | 2.7V | 08:04:52 | 02:44:44 | 00:00:00 | |
| IW2NTF | 2026-09-01 13:19:46 | 45.64777 | 9.77063 | 327° | 15km/h | 1301m | -12.1m/s | 18.1°C | 72.7% | 0hPa | 2.7V | 08:04:54 | 02:44:42 | 00:00:00 | |
| IW2NTF | 2026-09-01 13:19:46 | 45.64771 | 9.77069 | 321° | 13km/h | 1325m | -11.7m/s | 17.9°C | 73.5% | 0hPa | 2.6V | 08:04:56 | 02:44:40 | 00:00:00 | |
| IW2NTF | 2026-09-01 13:19:40 | 45.64766 | 9.77076 | 314° | 13km/h | 1348m | -12m/s | 17.7°C | 74.1% | 0hPa | 2.7V | 08:04:58 | 02:44:38 | 00:00:00 | |
| IW2NTF | 2026-09-01 13:19:40 | 45.64761 | 9.77082 | 319° | 11km/h | 1373m | -12.2m/s | 17.4°C | 75.4% | 0hPa | 2.7V | 08:05:00 | 02:44:36 | 00:00:00 | |
| IW2NTF | 2026-09-01 13:19:40 | 45.64757 | 9.77087 | 317° | 11km/h | 1397m | -12.3m/s | 17.2°C | 76.2% | 0hPa | 2.7V | 08:05:02 | 02:44:34 | 00:00:00 | |
| IW2NTF | 2026-09-01 13:19:34 | 45.64753 | 9.77092 | 319° | 9km/h | 1422m | -12.4m/s | 16.9°C | 77.3% | 0hPa | 2.6V | 08:05:04 | 02:44:32 | 00:00:00 | |
| IW2NTF | 2026-09-01 13:19:34 | 45.64749 | 9.77097 | 319° | 9km/h | 1446m | -12.2m/s | 16.8°C | 77.6% | 0hPa | 2.7V | 08:05:06 | 02:44:30 | 00:00:00 | |
| IW2NTF | 2026-09-01 13:19:34 | 45.64745 | 9.77103 | 313° | 13km/h | 1470m | -11.6m/s | 16.6°C | 78.4% | 0hPa | 2.7V | 08:05:08 | 02:44:28 | 00:00:00 | |
| IW2NTF | 2026-09-01 13:19:28 | 45.64740 | 9.77109 | 315° | 13km/h | 1493m | -11.4m/s | 16.3°C | 79.4% | 0hPa | 2.7V | 08:05:10 | 02:44:26 | 00:00:00 | |
| IW2NTF | 2026-09-01 13:19:28 | 45.64736 | 9.77117 | 305° | 15km/h | 1517m | -12m/s | 16.2°C | 78.7% | 0hPa | 2.6V | 08:05:12 | 02:44:24 | 00:00:00 | |
| IW2NTF | 2026-09-01 13:19:28 | 45.64732 | 9.77126 | 307° | 16km/h | 1540m | -11.6m/s | 16°C | 79% | 0hPa | 2.7V | 08:05:14 | 02:44:22 | 00:00:00 | |
| IW2NTF | 2026-09-01 13:19:22 | 45.64726 | 9.77135 | 308° | 16km/h | 1563m | -11.5m/s | 15.9°C | 78.8% | 0hPa | 2.7V | 08:05:16 | 02:44:20 | 00:00:00 | |
| IW2NTF | 2026-09-01 13:19:22 | 45.64721 | 9.77145 | 304° | 16km/h | 1586m | -11.6m/s | 15.7°C | 79.9% | 0hPa | 2.7V | 08:05:18 | 02:44:18 | 00:00:00 | |
| IW2NTF | 2026-09-01 13:19:22 | 45.64717 | 9.77154 | 308° | 15km/h | 1609m | -11.4m/s | 15.5°C | 80.3% | 0hPa | 2.6V | 08:05:20 | 02:44:16 | 00:00:00 | |
| IW2NTF | 2026-09-01 13:19:16 | 45.64712 | 9.77163 | 307° | 15km/h | 1632m | -11.6m/s | 15.4°C | 80.7% | 0hPa | 2.7V | 08:05:22 | 02:44:14 | 00:00:00 | |
| IW2NTF | 2026-09-01 13:19:16 | 45.64707 | 9.77170 | 311° | 13km/h | 1655m | -11.3m/s | 15.3°C | 81.2% | 0hPa | 2.7V | 08:05:24 | 02:44:12 | 00:00:00 | |
| IW2NTF | 2026-09-01 13:19:16 | 45.64703 | 9.77176 | 319° | 13km/h | 1677m | -11.3m/s | 15°C | 82.4% | 0hPa | 2.7V | 08:05:26 | 02:44:10 | 00:00:00 | |
| IW2NTF | 2026-09-01 13:19:10 | 45.64698 | 9.77182 | 325° | 11km/h | 1700m | -11.3m/s | 14.8°C | 83.8% | 0hPa | 2.6V | 08:05:28 | 02:44:08 | 00:00:00 | |
| IW2NTF | 2026-09-01 13:19:10 | 45.64693 | 9.77186 | 331° | 11km/h | 1722m | -11.1m/s | 14.6°C | 85.3% | 0hPa | 2.7V | 08:05:30 | 02:44:06 | 00:00:00 | |
| IW2NTF | 2026-09-01 13:19:10 | 45.64688 | 9.77190 | 331° | 9km/h | 1744m | -10.9m/s | 14.4°C | 85.5% | 0hPa | 2.7V | 08:05:32 | 02:44:04 | 00:00:00 | |
| IW2NTF | 2026-09-01 13:19:04 | 45.64684 | 9.77193 | 330° | 9km/h | 1766m | -11.2m/s | 14.3°C | 85.2% | 0hPa | 2.7V | 08:05:34 | 02:44:02 | 00:00:00 | |
| IW2NTF | 2026-09-01 13:19:04 | 45.64680 | 9.77197 | 322° | 9km/h | 1788m | -10.9m/s | 14.1°C | 86.1% | 0hPa | 2.6V | 08:05:36 | 02:44:00 | 00:00:00 | |
| IW2NTF | 2026-09-01 13:19:04 | 45.64676 | 9.77201 | 328° | 9km/h | 1810m | -11.2m/s | 13.8°C | 87.5% | 0hPa | 2.7V | 08:05:38 | 02:43:58 | 00:00:00 | |
| IW2NTF | 2026-09-01 13:18:58 | 45.64672 | 9.77206 | 321° | 11km/h | 1832m | -11m/s | 13.8°C | 87.4% | 0hPa | 2.7V | 08:05:40 | 02:43:56 | 00:00:00 | |
| IW2NTF | 2026-09-01 13:18:58 | 45.64668 | 9.77211 | 317° | 11km/h | 1854m | -11m/s | 13.6°C | 88% | 0hPa | 2.7V | 08:05:42 | 02:43:54 | 00:00:00 | |
| IW2NTF | 2026-09-01 13:18:58 | 45.64663 | 9.77216 | 321° | 11km/h | 1876m | -11.2m/s | 13.4°C | 88.4% | 0hPa | 2.6V | 08:05:44 | 02:43:52 | 00:00:00 | |
| IW2NTF | 2026-09-01 13:18:52 | 45.64659 | 9.77221 | 314° | 9km/h | 1898m | -10.9m/s | 13.3°C | 88.9% | 0hPa | 2.7V | 08:05:46 | 02:43:50 | 00:00:00 | |
| IW2NTF | 2026-09-01 13:18:52 | 45.64656 | 9.77226 | 311° | 9km/h | 1920m | -11.2m/s | 13.2°C | 89.5% | 0hPa | 2.7V | 08:05:48 | 02:43:48 | 00:00:00 | |
| IW2NTF | 2026-09-01 13:18:52 | 45.64653 | 9.77230 | 313° | 7km/h | 1943m | -11.2m/s | 13.1°C | 90.5% | 0hPa | 2.7V | 08:05:50 | 02:43:46 | 00:00:00 | |
| IW2NTF | 2026-09-01 13:18:46 | 45.64650 | 9.77235 | 299° | 7km/h | 1965m | -11.2m/s | 12.9°C | 91.4% | 0hPa | 2.6V | 08:05:52 | 02:43:44 | 00:00:00 | |
| IW2NTF | 2026-09-01 13:18:46 | 45.64648 | 9.77240 | 318° | 7km/h | 1988m | -11.2m/s | 12.8°C | 92.1% | 0hPa | 2.7V | 08:05:54 | 02:43:42 | 00:00:00 | |
| IW2NTF | 2026-09-01 13:18:46 | 45.64645 | 9.77243 | 327° | 7km/h | 2010m | -11.1m/s | 12.7°C | 93.4% | 0hPa | 2.7V | 08:05:56 | 02:43:40 | 00:00:00 | |
| IW2NTF | 2026-09-01 13:18:40 | 45.64634 | 9.77248 | 346° | 9km/h | 2078m | -11.2m/s | 12.3°C | 94.4% | 0hPa | 2.7V | 08:06:02 | 02:43:34 | 00:00:00 | |
| IW2NTF | 2026-09-01 13:18:34 | 45.64621 | 9.77250 | 3° | 9km/h | 2143m | -11.3m/s | 11.8°C | 96.1% | 0hPa | 2.7V | 08:06:08 | 02:43:28 | 00:00:00 | |
| IW2NTF | 2026-09-01 13:18:26 | 45.64602 | 9.77248 | 5° | 9km/h | 2232m | -10.7m/s | 11.2°C | 92.7% | 0hPa | 2.7V | 08:06:16 | 02:43:20 | 00:00:00 | |
| IW2NTF | 2026-09-01 13:18:20 | 45.64588 | 9.77244 | 8° | 9km/h | 2297m | -11.2m/s | 10.7°C | 92.3% | 0hPa | 2.7V | 08:06:22 | 02:43:14 | 00:00:00 | |
| IW2NTF | 2026-09-01 13:18:14 | 45.64574 | 9.77243 | 359° | 9km/h | 2363m | -11.2m/s | 10.1°C | 94.6% | 0hPa | 2.6V | 08:06:28 | 02:43:08 | 00:00:00 | |
| IW2NTF | 2026-09-01 13:18:08 | 45.64562 | 9.77242 | 4° | 7km/h | 2430m | -11.2m/s | 9.8°C | 89.8% | 0hPa | 2.6V | 08:06:34 | 02:43:02 | 00:00:00 | |
| IW2NTF | 2026-09-01 13:18:02 | 45.64552 | 9.77240 | 14° | 7km/h | 2497m | -11.5m/s | 9.4°C | 88.2% | 0hPa | 2.7V | 08:06:40 | 02:42:56 | 00:00:00 | |
| IW2NTF | 2026-09-01 13:17:54 | 45.64539 | 9.77234 | 19° | 7km/h | 2588m | -11.5m/s | 8.9°C | 84.3% | 0hPa | 2.6V | 08:06:48 | 02:42:48 | 00:00:00 | |
| IW2NTF | 2026-09-01 13:17:48 | 45.64529 | 9.77228 | 22° | 7km/h | 2656m | -11m/s | 8.4°C | 84.1% | 0hPa | 2.6V | 08:06:54 | 02:42:42 | 00:00:00 | |
| IW2NTF | 2026-09-01 13:17:42 | 45.64518 | 9.77221 | 21° | 9km/h | 2719m | -10.2m/s | 7.9°C | 83.9% | 0hPa | 2.6V | 08:07:00 | 02:42:36 | 00:00:00 | |
| IW2NTF | 2026-09-01 13:17:36 | 45.64505 | 9.77212 | 35° | 7km/h | 2784m | -11.8m/s | 7.5°C | 82.1% | 0hPa | 2.6V | 08:07:06 | 02:42:30 | 00:00:00 | |
| IW2NTF | 2026-09-01 13:17:30 | 45.64492 | 9.77202 | 34° | 13km/h | 2858m | -11.9m/s | 7°C | 68.9% | 0hPa | 2.7V | 08:07:12 | 02:42:24 | 00:00:00 | |
| IW2NTF | 2026-09-01 13:17:24 | 45.64478 | 9.77188 | 31° | 11km/h | 2936m | -13.2m/s | 6.2°C | 74.1% | 0hPa | 2.7V | 08:07:18 | 02:42:18 | 00:00:00 | |
| IW2NTF | 2026-09-01 13:17:18 | 45.64465 | 9.77172 | 32° | 13km/h | 3011m | -13.1m/s | 5.6°C | 71.3% | 0hPa | 2.7V | 08:07:24 | 02:42:12 | 00:00:00 | |
| IW2NTF | 2026-09-01 13:17:12 | 45.64450 | 9.77155 | 39° | 13km/h | 3087m | -12.3m/s | 4.9°C | 73.8% | 0hPa | 2.6V | 08:07:30 | 02:42:06 | 00:00:00 | |
| IW2NTF | 2026-09-01 13:17:06 | 45.64434 | 9.77138 | 32° | 13km/h | 3160m | -12.2m/s | 4.2°C | 75.1% | 0hPa | 2.6V | 08:07:36 | 02:42:00 | 00:00:00 | |
| IW2NTF | 2026-09-01 13:17:00 | 45.64417 | 9.77118 | 46° | 16km/h | 3237m | -13m/s | 3.7°C | 66.7% | 0hPa | 2.7V | 08:07:42 | 02:41:54 | 00:00:00 | |
| IW2NTF | 2026-09-01 13:16:54 | 45.64404 | 9.77091 | 57° | 13km/h | 3312m | -13.2m/s | 3.6°C | 31.7% | 0hPa | 2.5V | 08:07:48 | 02:41:48 | 00:00:00 | |
| IW2NTF | 2026-09-01 13:16:48 | 45.64395 | 9.77068 | 66° | 11km/h | 3389m | -12.9m/s | 3°C | 36.2% | 0hPa | 2.5V | 08:07:54 | 02:41:42 | 00:00:00 | |
| IW2NTF | 2026-09-01 13:16:42 | 45.64389 | 9.77043 | 72° | 13km/h | 3466m | -12.8m/s | 2.3°C | 50.4% | 0hPa | 2.5V | 08:08:00 | 02:41:36 | 00:00:00 | |
| IW2NTF | 2026-09-01 13:16:36 | 45.64388 | 9.77009 | 83° | 16km/h | 3542m | -13.4m/s | 2°C | 37.2% | 0hPa | 2.5V | 08:08:06 | 02:41:30 | 00:00:00 | |
| IW2NTF | 2026-09-01 13:16:30 | 45.64390 | 9.76973 | 91° | 16km/h | 3621m | -13m/s | 1.7°C | 23.4% | 0hPa | 2.5V | 08:08:12 | 02:41:24 | 00:00:00 | |
| IW2NTF | 2026-09-01 13:16:24 | 45.64389 | 9.76931 | 83° | 22km/h | 3696m | -12.7m/s | 1.2°C | 47% | 0hPa | 2.5V | 08:08:18 | 02:41:18 | 00:00:00 | |
| IW2NTF | 2026-09-01 13:16:18 | 45.64382 | 9.76888 | 70° | 22km/h | 3772m | -12.7m/s | 1.2°C | 18.8% | 0hPa | 2.6V | 08:08:24 | 02:41:12 | 00:00:00 | |
| IW2NTF | 2026-09-01 13:16:12 | 45.64374 | 9.76838 | 83° | 26km/h | 3851m | -13.3m/s | 0.7°C | 18.1% | 0hPa | 2.6V | 08:08:30 | 02:41:06 | 00:00:00 | |
| IW2NTF | 2026-09-01 13:16:06 | 45.64369 | 9.76777 | 85° | 31km/h | 3929m | -12.9m/s | 0.7°C | 17.7% | 0hPa | 2.6V | 08:08:36 | 02:41:00 | 00:00:00 | |
| IW2NTF | 2026-09-01 13:16:00 | 45.64368 | 9.76701 | 87° | 33km/h | 4008m | -12.9m/s | 0.8°C | 18.9% | 0hPa | 2.6V | 08:08:42 | 02:40:54 | 00:00:00 | |
| IW2NTF | 2026-09-01 13:15:54 | 45.64367 | 9.76626 | 92° | 37km/h | 4086m | -13.7m/s | 0.8°C | 9.5% | 0hPa | 2.6V | 08:08:48 | 02:40:48 | 00:00:00 | |
| IW2NTF | 2026-09-01 13:15:48 | 45.64366 | 9.76545 | 86° | 40km/h | 4164m | -12.4m/s | 0.4°C | 7.3% | 0hPa | 2.6V | 08:08:54 | 02:40:42 | 00:00:00 | |
| IW2NTF | 2026-09-01 13:15:42 | 45.64362 | 9.76459 | 82° | 42km/h | 4243m | -12.5m/s | -0.1°C | 6.1% | 0hPa | 2.6V | 08:09:00 | 02:40:36 | 00:00:00 | |
| IW2NTF | 2026-09-01 13:15:36 | 45.64351 | 9.76363 | 82° | 42km/h | 4320m | -13.4m/s | -0.6°C | 4.8% | 0hPa | 2.6V | 08:09:06 | 02:40:30 | 00:00:00 | |
| IW2NTF | 2026-09-01 13:15:30 | 45.64347 | 9.76268 | 89° | 46km/h | 4398m | -12.6m/s | -1.2°C | 5.1% | 0hPa | 2.5V | 08:09:12 | 02:40:24 | 00:00:00 | |
| IW2NTF | 2026-09-01 13:15:24 | 45.64346 | 9.76175 | 90° | 42km/h | 4479m | -13m/s | -1.9°C | 5% | 0hPa | 2.5V | 08:09:18 | 02:40:18 | 00:00:00 | |
| IW2NTF | 2026-09-01 13:15:18 | 45.64346 | 9.76081 | 83° | 44km/h | 4560m | -13.4m/s | -2.4°C | 3.6% | 0hPa | 2.6V | 08:09:24 | 02:40:12 | 00:00:00 | |
| IW2NTF | 2026-09-01 13:15:12 | 45.64342 | 9.75986 | 88° | 46km/h | 4642m | -13.8m/s | -2.7°C | 3.6% | 0hPa | 2.6V | 08:09:30 | 02:40:06 | 00:00:00 | |
| IW2NTF | 2026-09-01 13:15:06 | 45.64339 | 9.75886 | 85° | 49km/h | 4724m | -14.6m/s | -3.1°C | 3.3% | 0hPa | 2.6V | 08:09:36 | 02:40:00 | 00:00:00 | |
| IW2NTF | 2026-09-01 13:15:00 | 45.64335 | 9.75774 | 90° | 53km/h | 4814m | -15.1m/s | -3.7°C | 3.4% | 0hPa | 2.6V | 08:09:42 | 02:39:54 | 00:00:00 | |
| IW2NTF | 2026-09-01 13:14:54 | 45.64338 | 9.75657 | 91° | 57km/h | 4901m | -15.4m/s | -4.3°C | 3.3% | 0hPa | 2.6V | 08:09:48 | 02:39:48 | 00:00:00 | |
| IW2NTF | 2026-09-01 13:14:48 | 45.64342 | 9.75531 | 95° | 58km/h | 4991m | -13.3m/s | -4.7°C | 3.3% | 0hPa | 2.5V | 08:09:54 | 02:39:42 | 00:00:00 | |
| IW2NTF | 2026-09-01 13:14:40 | 45.64352 | 9.75360 | 91° | 58km/h | 5105m | -15m/s | -5.6°C | 3.9% | 0hPa | 2.6V | 08:10:02 | 02:39:34 | 00:00:00 | |
| IW2NTF | 2026-09-01 13:14:30 | 45.64362 | 9.75142 | 96° | 60km/h | 5247m | -14.1m/s | -6.8°C | 4% | 0hPa | 2.5V | 08:10:12 | 02:39:24 | 00:00:00 | |
| IW2NTF | 2026-09-01 13:14:20 | 45.64377 | 9.74923 | 93° | 62km/h | 5385m | -11.7m/s | -8°C | 4.2% | 0hPa | 2.6V | 08:10:22 | 02:39:14 | 00:00:00 | |
| IW2NTF | 2026-09-01 13:14:10 | 45.64389 | 9.74696 | 92° | 62km/h | 5525m | -15.3m/s | -9.1°C | 4.2% | 0hPa | 2.6V | 08:10:32 | 02:39:04 | 00:00:00 | |
| IW2NTF | 2026-09-01 13:14:00 | 45.64394 | 9.74464 | 91° | 66km/h | 5680m | -15.8m/s | -10.4°C | 4.3% | 0hPa | 2.6V | 08:10:42 | 02:38:54 | 00:00:00 | |
| IW2NTF | 2026-09-01 13:13:50 | 45.64400 | 9.74232 | 95° | 66km/h | 5836m | -15.4m/s | -11.7°C | 5.3% | 0hPa | 2.5V | 08:10:52 | 02:38:44 | 00:00:00 | |
| IW2NTF | 2026-09-01 13:13:40 | 45.64414 | 9.73991 | 92° | 68km/h | 5980m | -14.7m/s | -12.7°C | 5.3% | 0hPa | 2.6V | 08:11:02 | 02:38:34 | 00:00:00 | |
| IW2NTF | 2026-09-01 13:13:30 | 45.64425 | 9.73739 | 90° | 73km/h | 6133m | -14.7m/s | -14°C | 5.2% | 0hPa | 2.5V | 08:11:12 | 02:38:24 | 00:00:00 | |
| IW2NTF | 2026-09-01 13:13:20 | 45.64428 | 9.73485 | 89° | 69km/h | 6284m | -15m/s | -15.2°C | 5.5% | 0hPa | 2.5V | 08:11:22 | 02:38:14 | 00:00:00 | |
| IW2NTF | 2026-09-01 13:13:10 | 45.64428 | 9.73232 | 87° | 73km/h | 6433m | -15.7m/s | -16.2°C | 10.8% | 0hPa | 2.5V | 08:11:32 | 02:38:04 | 00:00:00 | |
| IW2NTF | 2026-09-01 13:13:00 | 45.64426 | 9.72980 | 88° | 69km/h | 6577m | -15.3m/s | -16.7°C | 8.9% | 0hPa | 2.5V | 08:11:42 | 02:37:54 | 00:00:00 | |
| IW2NTF | 2026-09-01 13:12:50 | 45.64416 | 9.72722 | 86° | 75km/h | 6732m | -15.1m/s | -17.4°C | 6.6% | 0hPa | 2.6V | 08:11:52 | 02:37:44 | 00:00:00 | |
| IW2NTF | 2026-09-01 13:12:40 | 45.64404 | 9.72456 | 87° | 75km/h | 6886m | -15.2m/s | -18.4°C | 6.8% | 0hPa | 2.5V | 08:12:02 | 02:37:34 | 00:00:00 | |
| IW2NTF | 2026-09-01 13:12:31 | 45.64393 | 9.72192 | 85° | 71km/h | 7033m | -15.2m/s | -19.7°C | 7.1% | 0hPa | 2.6V | 08:12:12 | 02:37:24 | 00:00:00 | |
| IW2NTF | 2026-09-01 13:12:20 | 45.64386 | 9.71927 | 88° | 73km/h | 7181m | -15.4m/s | -20.4°C | 7.7% | 0hPa | 2.6V | 08:12:22 | 02:37:14 | 00:00:00 | |
| IW2NTF | 2026-09-01 13:12:10 | 45.64374 | 9.71659 | 84° | 77km/h | 7328m | -15.4m/s | -21.3°C | 7.4% | 0hPa | 2.5V | 08:12:32 | 02:37:04 | 00:00:00 | |
| IW2NTF | 2026-09-01 13:12:00 | 45.64362 | 9.71374 | 84° | 84km/h | 7472m | -13m/s | -22.6°C | 9.7% | 0hPa | 2.5V | 08:12:42 | 02:36:54 | 00:00:00 | |
| IW2NTF | 2026-09-01 13:11:50 | 45.64344 | 9.71078 | 85° | 78km/h | 7619m | -15.8m/s | -23.8°C | 12.4% | 0hPa | 2.6V | 08:12:52 | 02:36:44 | 00:00:00 | |
| IW2NTF | 2026-09-01 13:11:34 | 45.64320 | 9.70736 | 84° | 78km/h | 7801m | -16.8m/s | -25.5°C | 13.2% | 0hPa | 2.5V | 08:13:04 | 02:36:32 | 00:00:00 | |
| IW2NTF | 2026-09-01 13:11:24 | 45.64299 | 9.70455 | 83° | 78km/h | 7957m | -16.5m/s | -26.9°C | 12.7% | 0hPa | 2.5V | 08:13:14 | 02:36:22 | 00:00:00 | |
| IW2NTF | 2026-09-01 13:11:18 | 45.64283 | 9.70184 | 84° | 73km/h | 8119m | -16.4m/s | -28.4°C | 11.8% | 0hPa | 2.6V | 08:13:24 | 02:36:12 | 00:00:00 | |
| IW2NTF | 2026-09-01 13:11:08 | 45.64270 | 9.69915 | 91° | 73km/h | 8283m | -16.1m/s | -29.3°C | 6.5% | 0hPa | 2.5V | 08:13:34 | 02:36:02 | 00:00:00 | |
| IW2NTF | 2026-09-01 13:10:54 | 45.64275 | 9.69657 | 89° | 69km/h | 8446m | -16.6m/s | -30.2°C | 6% | 0hPa | 2.6V | 08:13:44 | 02:35:52 | 00:00:00 | |
| IW2NTF | 2026-09-01 13:10:48 | 45.64270 | 9.69403 | 86° | 71km/h | 8604m | -16.6m/s | -31.5°C | 6.7% | 0hPa | 2.5V | 08:13:54 | 02:35:42 | 00:00:00 | |
| IW2NTF | 2026-09-01 13:10:38 | 45.64256 | 9.69143 | 85° | 71km/h | 8759m | -15.2m/s | -32.7°C | 7.8% | 0hPa | 2.5V | 08:14:04 | 02:35:32 | 00:00:00 | |
| IW2NTF | 2026-09-01 13:10:28 | 45.64243 | 9.68888 | 86° | 71km/h | 8911m | -15.4m/s | -33.7°C | 7% | 0hPa | 2.6V | 08:14:14 | 02:35:22 | 00:00:00 | |
| IW2NTF | 2026-09-01 13:10:14 | 45.64235 | 9.68645 | 89° | 62km/h | 9064m | -14.3m/s | -34.1°C | 7.6% | 0hPa | 2.5V | 08:14:24 | 02:35:12 | 00:00:00 | |
| IW2NTF | 2026-09-01 13:10:04 | 45.64239 | 9.68413 | 93° | 66km/h | 9216m | -16.7m/s | -35.1°C | 23.1% | 0hPa | 2.5V | 08:14:34 | 02:35:02 | 00:00:00 | |
| IW2NTF | 2026-09-01 13:09:58 | 45.64255 | 9.68172 | 93° | 69km/h | 9369m | -13.9m/s | -36.4°C | 39.4% | 0hPa | 2.6V | 08:14:44 | 02:34:52 | 00:00:00 | |
| IW2NTF | 2026-09-01 13:09:49 | 45.64268 | 9.67905 | 90° | 77km/h | 9513m | -17m/s | -37.5°C | 40% | 0hPa | 2.6V | 08:14:54 | 02:34:42 | 00:00:00 | |
| IW2NTF | 2026-09-01 13:09:38 | 45.64278 | 9.67630 | 94° | 78km/h | 9670m | -15.7m/s | -38.8°C | 40.1% | 0hPa | 2.5V | 08:15:04 | 02:34:32 | 00:00:00 | |
| IW2NTF | 2026-09-01 13:09:28 | 45.64285 | 9.67347 | 90° | 77km/h | 9832m | -15.1m/s | -40.4°C | 44.4% | 0hPa | 2.5V | 08:15:14 | 02:34:22 | 00:00:00 | |
| IW2NTF | 2026-09-01 13:09:19 | 45.64286 | 9.67061 | 88° | 82km/h | 9987m | -16.1m/s | -41.7°C | 42.3% | 0hPa | 2.6V | 08:15:24 | 02:34:12 | 00:00:00 | |
| DL2OL | 2026-09-01 13:09:13 | 45.64286 | 9.67090 | 90° | 82km/h | 9972m | -15.9m/s | -41.6°C | 37.9% | 0hPa | 2.5V | 00:00:00 | 00:00:00 | 00:00:00 | |
| IW2NTF | 2026-09-01 13:09:08 | 45.64285 | 9.66768 | 89° | 86km/h | 10145m | -15.6m/s | -43.1°C | 43.3% | 0hPa | 2.5V | 08:15:34 | 02:34:02 | 00:00:00 | |
| IW2NTF | 2026-09-01 13:08:58 | 45.64286 | 9.66463 | 88° | 86km/h | 10301m | -17.4m/s | -44.4°C | 42.1% | 0hPa | 2.6V | 08:15:44 | 02:33:52 | 00:00:00 | |
| IW2NTF | 2026-09-01 13:08:48 | 45.64278 | 9.66154 | 88° | 88km/h | 10464m | -15.7m/s | -45.7°C | 39.9% | 0hPa | 2.5V | 08:15:54 | 02:33:42 | 00:00:00 | |
| DO3MHA-11 | 2026-09-01 13:08:48 | 45.64283 | 9.66310 | 89° | 86km/h | 10386m | -16.3m/s | -45.0°C | 39.9% | 0hPa | 2.6V | 00:00:00 | 02:33:47 | 00:00:00 | |
| IW2NTF | 2026-09-01 13:08:38 | 45.64266 | 9.65846 | 87° | 86km/h | 10619m | -15.1m/s | -47.2°C | 41.5% | 0hPa | 2.6V | 08:16:04 | 02:33:32 | 00:00:00 | |
| DO3MHA-11 | 2026-09-01 13:08:38 | 45.64273 | 9.65999 | 87° | 86km/h | 10542m | -15.7m/s | -46.4°C | 40.6% | 0hPa | 2.5V | 00:00:00 | 02:33:37 | 00:00:00 | |
| IW2NTF | 2026-09-01 13:08:28 | 45.64250 | 9.65535 | 86° | 86km/h | 10764m | -14m/s | -48.4°C | 44.6% | 0hPa | 2.5V | 08:16:14 | 02:33:22 | 00:00:00 | |
| DO3MHA-11 | 2026-09-01 13:08:28 | 45.64258 | 9.65691 | 87° | 86km/h | 10693m | -14.4m/s | -47.8°C | 43.7% | 0hPa | 2.5V | 08:16:00 | 02:33:27 | 00:00:00 | |
| DL2OL | 2026-09-01 13:08:26 | 45.64255 | 9.65629 | 87° | 88km/h | 10721m | -14.2m/s | -48.1°C | 39.2% | 0hPa | 2.5V | 00:00:00 | 00:00:00 | 00:00:00 | |
| IW2NTF | 2026-09-01 13:08:18 | 45.64238 | 9.65218 | 86° | 89km/h | 10905m | -13.8m/s | -49.7°C | 43.5% | 0hPa | 2.5V | 08:16:24 | 02:33:12 | 00:00:00 | |
| DO3MHA-11 | 2026-09-01 13:08:18 | 45.64245 | 9.65379 | 88° | 89km/h | 10835m | -14.0m/s | -49.0°C | 44.3% | 0hPa | 2.6V | 00:00:00 | 02:33:17 | 00:00:00 | |
| IW2NTF | 2026-09-01 13:08:08 | 45.64230 | 9.64897 | 89° | 89km/h | 11049m | -14.4m/s | -50.9°C | 43.2% | 0hPa | 2.6V | 08:16:34 | 02:33:02 | 00:00:00 | |
| DO3MHA-11 | 2026-09-01 13:08:08 | 45.64232 | 9.65056 | 88° | 89km/h | 10977m | -14.7m/s | -50.3°C | 43.2% | 0hPa | 2.5V | 00:00:00 | 02:33:07 | 00:00:00 | |
| IW2NTF | 2026-09-01 13:07:58 | 45.64227 | 9.64576 | 89° | 88km/h | 11194m | -14.7m/s | -52.2°C | 44.3% | 0hPa | 2.5V | 08:16:44 | 02:32:52 | 00:00:00 | |
| DO3MHA-11 | 2026-09-01 13:07:58 | 45.64228 | 9.64736 | 90° | 89km/h | 11122m | -14.3m/s | -51.5°C | 44.2% | 0hPa | 2.7V | 00:00:00 | 02:32:57 | 00:00:00 | |
| IW2NTF | 2026-09-01 13:07:48 | 45.64225 | 9.64256 | 89° | 88km/h | 11339m | -14.8m/s | -53.4°C | 42.9% | 0hPa | 2.6V | 08:16:54 | 02:32:42 | 00:00:00 | |
| DO3MHA-11 | 2026-09-01 13:07:48 | 45.64226 | 9.64416 | 90° | 88km/h | 11266m | -14.5m/s | -52.8°C | 44.0% | 0hPa | 2.5V | 00:00:00 | 02:32:47 | 00:00:00 | |
| DL2OL | 2026-09-01 13:07:41 | 45.64225 | 9.64224 | 89° | 88km/h | 11354m | -14.7m/s | -53.5°C | 36.7% | 0hPa | 2.5V | 00:00:00 | 00:00:00 | 00:00:00 | |
| IW2NTF | 2026-09-01 13:07:39 | 45.64217 | 9.63940 | 88° | 88km/h | 11486m | -14.8m/s | -54.5°C | 42.7% | 0hPa | 2.5V | 08:17:04 | 02:32:32 | 00:00:00 | |
| DO3MHA-11 | 2026-09-01 13:07:38 | 45.64222 | 9.64097 | 89° | 88km/h | 11413m | -14.5m/s | -53.9°C | 42.4% | 0hPa | 2.6V | 00:00:00 | 02:32:37 | 00:00:00 | |
| IW2NTF | 2026-09-01 13:07:28 | 45.64209 | 9.63623 | 88° | 88km/h | 11634m | -15m/s | -55.8°C | 42.3% | 0hPa | 2.6V | 08:17:14 | 02:32:22 | 00:00:00 | |
| DO3MHA-11 | 2026-09-01 13:07:28 | 45.64213 | 9.63781 | 88° | 88km/h | 11560m | -14.6m/s | -55.1°C | 42.9% | 0hPa | 2.6V | 00:00:00 | 02:32:27 | 00:00:00 | |
| IW2NTF | 2026-09-01 13:07:18 | 45.64194 | 9.63300 | 87° | 91km/h | 11783m | -15.1m/s | -56.7°C | 42.5% | 0hPa | 2.5V | 08:17:24 | 02:32:12 | 00:00:00 | |
| DO3MHA-11 | 2026-09-01 13:07:18 | 45.64201 | 9.63464 | 86° | 91km/h | 11708m | -14.8m/s | -56.2°C | 42.8% | 0hPa | 2.6V | 00:00:00 | 02:32:17 | 00:00:00 | |
| DO3MHA-11 | 2026-09-01 13:07:08 | 45.64190 | 9.63133 | 91° | 93km/h | 11858m | -15.4m/s | -56.9°C | 41.0% | 0hPa | 2.6V | 00:00:00 | 02:32:07 | 00:00:00 | |
| IW2NTF | 2026-09-01 13:07:07 | 45.64191 | 9.62900 | 88° | 91km/h | 11964m | -15m/s | -57.8°C | 39.7% | 0hPa | 2.6V | 08:17:36 | 02:32:00 | 00:00:00 | |
| DO3MHA-11 | 2026-09-01 13:06:58 | 45.64188 | 9.62800 | 86° | 97km/h | 12010m | -15.2m/s | -57.6°C | 37.4% | 0hPa | 2.5V | 08:17:00 | 02:31:57 | 00:00:00 | |
| IW2NTF | 2026-09-01 13:06:56 | 45.64167 | 9.62559 | 81° | 99km/h | 12116m | -15.2m/s | -58.1°C | 34.6% | 0hPa | 2.6V | 08:17:46 | 02:31:50 | 00:00:00 | |
| DO3MHA-11 | 2026-09-01 13:06:48 | 45.64156 | 9.62450 | 83° | 104km/h | 12162m | -15.1m/s | -58.3°C | 33.5% | 0hPa | 2.5V | 00:00:00 | 02:31:47 | 00:00:00 | |
| IW2NTF | 2026-09-01 13:06:46 | 45.64136 | 9.62188 | 85° | 106km/h | 12268m | -15.1m/s | -58.4°C | 28.4% | 0hPa | 2.5V | 08:17:56 | 02:31:40 | 00:00:00 | |
| DO3MHA-11 | 2026-09-01 13:06:38 | 45.64131 | 9.62074 | 88° | 102km/h | 12314m | -15.1m/s | -58.6°C | 26.9% | 0hPa | 2.6V | 00:00:00 | 02:31:37 | 00:00:00 | |
| IW2NTF | 2026-09-01 13:06:36 | 45.64114 | 9.61815 | 80° | 100km/h | 12422m | -15.6m/s | -57.7°C | 20.8% | 0hPa | 2.6V | 08:18:06 | 02:31:30 | 00:00:00 | |
| DO3MHA-11 | 2026-09-01 13:06:28 | 45.64103 | 9.61706 | 83° | 104km/h | 12469m | -15.4m/s | -57.4°C | 18.7% | 0hPa | 2.5V | 00:00:00 | 02:31:27 | 00:00:00 | |
| IW2NTF | 2026-09-01 13:06:26 | 45.64081 | 9.61446 | 83° | 106km/h | 12578m | -15.7m/s | -57.4°C | 15.4% | 0hPa | 2.5V | 08:18:16 | 02:31:20 | 00:00:00 | |
| DB0UT-7 | 2026-09-01 13:06:22 | 45.64084 | 9.61484 | 84° | 97km/h | 12563m | -15.4m/s | -57.5°C | 16.0% | 0hPa | 2.5V | 00:00:00 | 02:31:21 | 00:00:00 | |
| DO3MHA-11 | 2026-09-01 13:06:18 | 45.64073 | 9.61334 | 85° | 99km/h | 12626m | -15.6m/s | -56.7°C | 13.7% | 0hPa | 2.5V | 00:00:00 | 02:31:17 | 00:00:00 | |
| IW2NTF | 2026-09-01 13:06:16 | 45.64050 | 9.61084 | 81° | 97km/h | 12735m | -15.8m/s | -57.2°C | 12.2% | 0hPa | 2.5V | 08:18:26 | 02:31:10 | 00:00:00 | |
| DO3MHA-11 | 2026-09-01 13:06:08 | 45.64039 | 9.60984 | 81° | 89km/h | 12782m | -15.6m/s | -57.3°C | 11.4% | 0hPa | 2.7V | 00:00:00 | 02:31:07 | 00:00:00 | |
| IW2NTF | 2026-09-01 13:06:06 | 45.64010 | 9.60762 | 77° | 91km/h | 12892m | -15.3m/s | -56.6°C | 9.7% | 0hPa | 2.7V | 08:18:36 | 02:31:00 | 00:00:00 | |
| DO3MHA-11 | 2026-09-01 13:05:58 | 45.63994 | 9.60664 | 77° | 99km/h | 12940m | -15.9m/s | -56.9°C | 9.8% | 0hPa | 2.5V | 00:00:00 | 02:30:57 | 00:00:00 | |
| IW2NTF | 2026-09-01 13:05:56 | 45.63954 | 9.60425 | 77° | 100km/h | 13051m | -16.2m/s | -57.9°C | 9.4% | 0hPa | 2.5V | 08:18:46 | 02:30:50 | 00:00:00 | |
| DB0UT-7 | 2026-09-01 13:05:52 | 45.63960 | 9.60460 | 77° | 102km/h | 13035m | -15.9m/s | -57.8°C | 9.5% | 0hPa | 2.6V | 00:00:00 | 00:00:00 | 00:00:00 | |
| DO3MHA-11 | 2026-09-01 13:05:48 | 45.63937 | 9.60317 | 78° | 108km/h | 13099m | -16.1m/s | -58.2°C | 9.2% | 0hPa | 2.6V | 00:00:00 | 02:30:47 | 00:00:00 | |
| IW2NTF | 2026-09-01 13:05:46 | 45.63904 | 9.60051 | 81° | 108km/h | 13214m | -16.4m/s | -57.6°C | 8% | 0hPa | 2.6V | 08:18:56 | 02:30:40 | 00:00:00 | |
| DO3MHA-11 | 2026-09-01 13:05:38 | 45.63892 | 9.59937 | 81° | 104km/h | 13264m | -16.9m/s | -57.4°C | 7.6% | 0hPa | 2.6V | 00:00:00 | 02:30:37 | 00:00:00 | |
| IW2NTF | 2026-09-01 13:05:36 | 45.63867 | 9.59680 | 84° | 100km/h | 13381m | -17.2m/s | -57°C | 6.7% | 0hPa | 2.6V | 08:19:06 | 02:30:30 | 00:00:00 | |
| DO3MHA-11 | 2026-09-01 13:05:28 | 45.63861 | 9.59573 | 87° | 95km/h | 13433m | -17.0m/s | -57.1°C | 6.8% | 0hPa | 2.5V | 08:19:00 | 02:30:27 | 00:00:00 | |
| IW2NTF | 2026-09-01 13:05:27 | 45.63862 | 9.59332 | 93° | 95km/h | 13552m | -16.9m/s | -57°C | 6.7% | 0hPa | 2.6V | 08:19:16 | 02:30:20 | 00:00:00 | |
| DB0UT-7 | 2026-09-01 13:05:22 | 45.63861 | 9.59366 | 93° | 91km/h | 13536m | -17.0m/s | -56.9°C | 6.6% | 0hPa | 2.5V | 00:00:00 | 02:30:21 | 00:00:00 | |
| DO3MHA-11 | 2026-09-01 13:05:18 | 45.63865 | 9.59228 | 92° | 99km/h | 13604m | -17.3m/s | -57.0°C | 6.7% | 0hPa | 2.5V | 00:00:00 | 02:30:17 | 00:00:00 | |
| IW2NTF | 2026-09-01 13:05:16 | 45.63875 | 9.58977 | 93° | 102km/h | 13726m | -17.5m/s | -56.8°C | 6.3% | 0hPa | 2.5V | 08:19:26 | 02:30:10 | 00:00:00 | |
| DO3MHA-11 | 2026-09-01 13:05:08 | 45.63880 | 9.58871 | 94° | 89km/h | 13778m | -17.4m/s | -56.4°C | 6.0% | 0hPa | 2.6V | 00:00:00 | 02:30:07 | 00:00:00 | |
| IW2NTF | 2026-09-01 13:05:06 | 45.63892 | 9.58644 | 91° | 84km/h | 13902m | -17.6m/s | -55.8°C | 5.5% | 0hPa | 2.6V | 08:19:36 | 02:30:00 | 00:00:00 | |
| IW2NTF | 2026-09-01 13:04:56 | 45.63873 | 9.58344 | 76° | 84km/h | 14082m | -20.3m/s | -55.1°C | 5.2% | 0hPa | 2.7V | 08:19:46 | 02:29:50 | 00:00:00 | |
| DL2OL | 2026-09-01 13:04:56 | 45.63891 | 9.58525 | 89° | 82km/h | 13973m | -17.7m/s | -55.5°C | 2.6% | 0hPa | 2.6V | 00:00:00 | 00:00:00 | 00:00:00 | |
| DB0UT-7 | 2026-09-01 13:04:52 | 45.63878 | 9.58374 | 78° | 84km/h | 14063m | -18.9m/s | -55.0°C | 5.1% | 0hPa | 2.6V | 00:00:00 | 00:00:00 | 00:00:00 | |
| DO3MHA-11 | 2026-09-01 13:04:48 | 45.63859 | 9.58256 | 78° | 84km/h | 14145m | -19.9m/s | -55.3°C | 5.3% | 0hPa | 2.6V | 00:00:00 | 02:29:47 | 00:00:00 | |
| IW2NTF | 2026-09-01 13:04:46 | 45.63825 | 9.58050 | 76° | 80km/h | 14290m | -21.2m/s | -56.5°C | 5.7% | 0hPa | 2.6V | 08:19:56 | 02:29:40 | 00:00:00 | |
| DO3MHA-11 | 2026-09-01 13:04:38 | 45.63808 | 9.57964 | 74° | 84km/h | 14353m | -20.8m/s | -56.6°C | 5.7% | 0hPa | 2.5V | 00:00:00 | 02:29:37 | 00:00:00 | |
| IW2NTF | 2026-09-01 13:04:36 | 45.63781 | 9.57758 | 80° | 86km/h | 14500m | -21.8m/s | -55.8°C | 5.4% | 0hPa | 2.5V | 08:20:06 | 02:29:30 | 00:00:00 | |
| NBG1-10 | 2026-09-01 13:04:35 | 45.63794 | 9.57877 | 80° | 84km/h | 14416m | -20.2m/s | -56.4°C | 5.7% | 0hPa | 2.6V | 00:00:00 | 02:29:34 | 00:00:00 | |
| DO3MHA-11 | 2026-09-01 13:04:28 | 45.63768 | 9.57664 | 78° | 86km/h | 14565m | -21.4m/s | -56.0°C | 5.4% | 0hPa | 2.6V | 00:00:00 | 02:29:27 | 00:00:00 | |
| IW2NTF | 2026-09-01 13:04:26 | 45.63737 | 9.57454 | 76° | 84km/h | 14716m | -21.5m/s | -56.7°C | 5.6% | 0hPa | 2.5V | 08:20:16 | 02:29:20 | 00:00:00 | |
| DB0UT-7 | 2026-09-01 13:04:22 | 45.63742 | 9.57484 | 77° | 78km/h | 14695m | -21.5m/s | -56.6°C | 5.5% | 0hPa | 2.5V | 00:00:00 | 02:29:21 | 00:00:00 | |
| DO3MHA-11 | 2026-09-01 13:04:18 | 45.63721 | 9.57367 | 76° | 82km/h | 14779m | -20.4m/s | -56.6°C | 5.6% | 0hPa | 2.5V | 00:00:00 | 02:29:17 | 00:00:00 | |
| IW2NTF | 2026-09-01 13:04:16 | 45.63688 | 9.57167 | 78° | 82km/h | 14925m | -20.3m/s | -56.6°C | 5.4% | 0hPa | 2.5V | 08:20:26 | 02:29:10 | 00:00:00 | |
| DO3MHA-11 | 2026-09-01 13:04:08 | 45.63675 | 9.57079 | 80° | 77km/h | 14985m | -21.0m/s | -56.8°C | 5.4% | 0hPa | 2.5V | 00:00:00 | 02:29:07 | 00:00:00 | |
| IW2NTF | 2026-09-01 13:04:06 | 45.63647 | 9.56887 | 81° | 73km/h | 15138m | -21.5m/s | -56.7°C | 5.2% | 0hPa | 2.5V | 08:20:36 | 02:29:00 | 00:00:00 | |
| NBG1-10 | 2026-09-01 13:04:02 | 45.63650 | 9.56913 | 80° | 69km/h | 15117m | -22.0m/s | -56.5°C | 5.1% | 0hPa | 2.7V | 00:00:00 | 02:29:01 | 00:00:00 | |
| DO3MHA-11 | 2026-09-01 13:03:58 | 45.63638 | 9.56810 | 79° | 71km/h | 15204m | -21.8m/s | -56.8°C | 5.3% | 0hPa | 2.7V | 08:20:00 | 02:28:57 | 00:00:00 | |
| IW2NTF | 2026-09-01 13:03:57 | 45.63606 | 9.56638 | 76° | 75km/h | 15351m | -21.9m/s | -57°C | 5.2% | 0hPa | 2.6V | 08:20:46 | 02:28:50 | 00:00:00 | |
| DB0UT-7 | 2026-09-01 13:03:52 | 45.63610 | 9.56664 | 77° | 69km/h | 15330m | -20.8m/s | -56.8°C | 5.2% | 0hPa | 2.7V | 08:20:00 | 00:00:00 | 00:00:00 | |
| DO3MHA-11 | 2026-09-01 13:03:48 | 45.63592 | 9.56560 | 77° | 75km/h | 15418m | -22.2m/s | -57.2°C | 5.3% | 0hPa | 2.7V | 00:00:00 | 02:28:47 | 00:00:00 | |
| IW2NTF | 2026-09-01 13:03:44 | 45.63560 | 9.56324 | 82° | 71km/h | 15610m | -20.9m/s | -57.7°C | 5.5% | 0hPa | 2.7V | 08:20:58 | 02:28:38 | 00:00:00 | |
| DO3MHA-11 | 2026-09-01 13:03:38 | 45.63557 | 9.56298 | 82° | 68km/h | 15631m | -21.2m/s | -57.7°C | 5.5% | 0hPa | 2.6V | 00:00:00 | 02:28:37 | 00:00:00 | |
| DL2OL | 2026-09-01 13:03:30 | 45.63542 | 9.56128 | 88° | 68km/h | 15793m | -22.8m/s | -57.6°C | 2.2% | 0hPa | 2.6V | 00:00:00 | 00:00:00 | 00:00:00 | |
| IW2NTF | 2026-09-01 13:03:29 | 45.63535 | 9.56039 | 80° | 58km/h | 15886m | -23.2m/s | -57.8°C | 5.3% | 0hPa | 2.6V | 08:21:10 | 02:28:26 | 00:00:00 | |
| DO3MHA-11 | 2026-09-01 13:03:28 | 45.63538 | 9.56060 | 82° | 60km/h | 15864m | -23.5m/s | -57.7°C | 5.3% | 0hPa | 2.7V | 00:00:00 | 02:28:27 | 00:00:00 | |
| NBG1-10 | 2026-09-01 13:03:25 | 45.63530 | 9.55997 | 80° | 57km/h | 15933m | -23.1m/s | -57.6°C | 5.3% | 0hPa | 2.5V | 00:00:00 | 02:28:24 | 00:00:00 | |
| DB0UT-7 | 2026-09-01 13:03:22 | 45.63521 | 9.55933 | 77° | 57km/h | 16000m | -21.4m/s | -57.7°C | 5.4% | 0hPa | 2.7V | 00:00:00 | 02:28:21 | 00:00:00 | |
| IW2NTF | 2026-09-01 13:03:18 | 45.63501 | 9.55827 | 77° | 62km/h | 16110m | -22.4m/s | -58°C | 5.6% | 0hPa | 2.7V | 08:21:20 | 02:28:16 | 00:00:00 | |
| DO3MHA-11 | 2026-09-01 13:03:18 | 45.63504 | 9.55849 | 76° | 64km/h | 16088m | -22.8m/s | -57.9°C | 5.5% | 0hPa | 2.5V | 00:00:00 | 02:28:17 | 00:00:00 | |
| IW2NTF | 2026-09-01 13:03:09 | 45.63475 | 9.55604 | 81° | 58km/h | 16329m | -22.8m/s | -58.1°C | 5.7% | 0hPa | 2.5V | 08:21:30 | 02:28:06 | 00:00:00 | |
| DO3MHA-11 | 2026-09-01 13:03:08 | 45.63477 | 9.55625 | 81° | 49km/h | 16307m | -21.9m/s | -58.1°C | 5.7% | 0hPa | 2.5V | 00:00:00 | 02:28:07 | 00:00:00 | |
| IW2NTF | 2026-09-01 13:02:58 | 45.63469 | 9.55428 | 85° | 53km/h | 16561m | -21.2m/s | -57.3°C | 5.5% | 0hPa | 2.5V | 08:21:40 | 02:27:56 | 00:00:00 | |
| DO3MHA-11 | 2026-09-01 13:02:58 | 45.63469 | 9.55446 | 87° | 55km/h | 16540m | -21.9m/s | -57.2°C | 5.5% | 0hPa | 2.6V | 00:00:00 | 02:27:57 | 00:00:00 | |
| DB0UT-7 | 2026-09-01 13:02:52 | 45.63460 | 9.55327 | 85° | 49km/h | 16675m | -24.8m/s | -56.7°C | 5.3% | 0hPa | 2.5V | 00:00:00 | 00:00:00 | 00:00:00 | |
| IW2NTF | 2026-09-01 13:02:48 | 45.63456 | 9.55215 | 81° | 49km/h | 16813m | -22m/s | -55.6°C | 4.8% | 0hPa | 2.5V | 08:21:51 | 02:27:45 | 00:00:00 | |
| DO3MHA-11 | 2026-09-01 13:02:48 | 45.63457 | 9.55251 | 88° | 53km/h | 16769m | -22.7m/s | -56.0°C | 5.0% | 0hPa | 2.5V | 00:00:00 | 02:27:47 | 00:00:00 | |
| DL2OL | 2026-09-01 13:02:42 | 45.63449 | 9.55159 | 77° | 51km/h | 16883m | -23.6m/s | -55.9°C | 1.8% | 0hPa | 2.5V | 00:00:00 | 00:00:00 | 00:00:00 | |
| IW2NTF | 2026-09-01 13:02:38 | 45.63436 | 9.55022 | 86° | 55km/h | 17050m | -22.9m/s | -55.6°C | 4.7% | 0hPa | 2.5V | 08:22:01 | 02:27:35 | 00:00:00 | |
| DO3MHA-11 | 2026-09-01 13:02:38 | 45.63439 | 9.55062 | 83° | 51km/h | 17003m | -24.8m/s | -55.4°C | 4.6% | 0hPa | 2.5V | 00:00:00 | 02:27:37 | 00:00:00 | |
| IW2NTF | 2026-09-01 13:02:28 | 45.63437 | 9.54857 | 91° | 33km/h | 17287m | -25.4m/s | -55.5°C | 4.6% | 0hPa | 2.5V | 08:22:11 | 02:27:25 | 00:00:00 | |
| DO3MHA-11 | 2026-09-01 13:02:28 | 45.63436 | 9.54884 | 96° | 35km/h | 17238m | -24.2m/s | -55.2°C | 4.6% | 0hPa | 2.7V | 08:22:00 | 02:27:27 | 00:00:00 | |
| DB0UT-7 | 2026-09-01 13:02:22 | 45.63437 | 9.54808 | 91° | 22km/h | 17388m | -26.7m/s | -56.0°C | 4.9% | 0hPa | 2.5V | 00:00:00 | 02:27:21 | 00:00:00 | |
| NBG1-10 | 2026-09-01 13:02:19 | 45.63438 | 9.54774 | 99° | 22km/h | 17464m | -23.8m/s | -56.3°C | 5.0% | 0hPa | 2.5V | 00:00:00 | 02:27:18 | 00:00:00 | |
| IW2NTF | 2026-09-01 13:02:18 | 45.63443 | 9.54741 | 100° | 38km/h | 17536m | -25.3m/s | -56.6°C | 4.9% | 0hPa | 2.5V | 08:22:21 | 02:27:15 | 00:00:00 | |
| DO3MHA-11 | 2026-09-01 13:02:18 | 45.63439 | 9.54763 | 98° | 33km/h | 17489m | -23.3m/s | -56.3°C | 4.9% | 0hPa | 2.5V | 00:00:00 | 02:27:17 | 00:00:00 | |
| IW2NTF | 2026-09-01 13:02:08 | 45.63470 | 9.54635 | 109° | 11km/h | 17836m | -24.3m/s | -54.7°C | 4.3% | 0hPa | 2.5V | 08:22:33 | 02:27:03 | 00:00:00 | |
| DO3MHA-11 | 2026-09-01 13:02:08 | 45.63464 | 9.54654 | 120° | 13km/h | 17739m | -24.1m/s | -54.5°C | 4.3% | 0hPa | 2.7V | 00:00:00 | 02:27:07 | 00:00:00 | |
| IW2NTF | 2026-09-01 13:01:58 | 45.63453 | 9.54604 | 29° | 22km/h | 18086m | -25.8m/s | -56°C | 4.8% | 0hPa | 2.7V | 08:22:43 | 02:26:53 | 00:00:00 | |
| DO3MHA-11 | 2026-09-01 13:01:58 | 45.63466 | 9.54616 | 15° | 20km/h | 17983m | -25.4m/s | -55.4°C | 4.6% | 0hPa | 2.7V | 00:00:00 | 02:26:57 | 00:00:00 | |
| DB0UT-7 | 2026-09-01 13:01:52 | 45.63441 | 9.54595 | 24° | 31km/h | 18140m | -27.7m/s | -56.1°C | 4.9% | 0hPa | 2.6V | 00:00:00 | 00:00:00 | 00:00:00 | |
| DL2OL | 2026-09-01 13:01:50 | 45.63436 | 9.54591 | 27° | 26km/h | 18168m | -27.8m/s | -56.3°C | 1.8% | 0hPa | 2.6V | 00:00:00 | 00:00:00 | 00:00:00 | |
| IW2NTF | 2026-09-01 13:01:48 | 45.63404 | 9.54536 | 71° | 33km/h | 18354m | -26.6m/s | -55.9°C | 4.8% | 0hPa | 2.6V | 08:22:53 | 02:26:43 | 00:00:00 | |
| DO3MHA-11 | 2026-09-01 13:01:48 | 45.63419 | 9.54573 | 50° | 35km/h | 18250m | -27.1m/s | -56.5°C | 5.1% | 0hPa | 2.5V | 00:00:00 | 02:26:47 | 00:00:00 | |
| NBG1-10 | 2026-09-01 13:01:46 | 45.63411 | 9.54557 | 62° | 26km/h | 18304m | -25.8m/s | -56.3°C | 5.0% | 0hPa | 2.5V | 08:22:00 | 02:26:45 | 00:00:00 | |
| DO3MHA-11 | 2026-09-01 13:01:38 | 45.63391 | 9.54456 | 89° | 29km/h | 18510m | -27.1m/s | -55.3°C | 4.5% | 0hPa | 2.6V | 00:00:00 | 02:26:37 | 00:00:00 | |
| IW2NTF | 2026-09-01 13:01:37 | 45.63386 | 9.54386 | 71° | 26km/h | 18669m | -26.5m/s | -54.8°C | 4.3% | 0hPa | 2.6V | 08:23:05 | 02:26:31 | 00:00:00 | |
| DO3MHA-11 | 2026-09-01 13:01:28 | 45.63376 | 9.54356 | 58° | 27km/h | 18780m | -27.7m/s | -55.0°C | 4.3% | 0hPa | 2.5V | 00:00:00 | 02:26:27 | 00:00:00 | |
| IW2NTF | 2026-09-01 13:01:27 | 45.63350 | 9.54307 | 57° | 26km/h | 18950m | -30m/s | -56°C | 4.7% | 0hPa | 2.5V | 08:23:15 | 02:26:21 | 00:00:00 | |
| DB0UT-7 | 2026-09-01 13:01:22 | 45.63350 | 9.54307 | 58° | 22km/h | 18950m | -29.9m/s | -56.0°C | 4.7% | 0hPa | 2.7V | 00:00:00 | 02:26:21 | 00:00:00 | |
| DO3MHA-11 | 2026-09-01 13:01:18 | 45.63337 | 9.54273 | 68° | 20km/h | 19067m | -27.8m/s | -56.0°C | 4.6% | 0hPa | 2.7V | 00:00:00 | 02:26:17 | 00:00:00 | |
| IW2NTF | 2026-09-01 13:01:17 | 45.63330 | 9.54231 | 68° | 20km/h | 19230m | -26.3m/s | -56.5°C | 4.9% | 0hPa | 2.7V | 08:23:25 | 02:26:11 | 00:00:00 | |
| NBG1-10 | 2026-09-01 13:01:12 | 45.63330 | 9.54230 | 69° | 16km/h | 19230m | -26.2m/s | -56.5°C | 4.9% | 0hPa | 2.6V | 00:00:00 | 02:26:11 | 00:00:00 | |
| IW2NTF | 2026-09-01 13:01:08 | 45.63323 | 9.54159 | 96° | 22km/h | 19509m | -28.9m/s | -56.6°C | 4.9% | 0hPa | 2.6V | 08:23:35 | 02:26:01 | 00:00:00 | |
| DO3MHA-11 | 2026-09-01 13:01:08 | 45.63323 | 9.54203 | 76° | 22km/h | 19336m | -25.7m/s | -56.5°C | 5.0% | 0hPa | 2.5V | 00:00:00 | 02:26:07 | 00:00:00 | |
| DO3MHA-11 | 2026-09-01 13:00:58 | 45.63329 | 9.54129 | 129° | 15km/h | 19627m | -29.9m/s | -56.8°C | 5.1% | 0hPa | 2.5V | 08:23:00 | 02:25:57 | 00:00:00 | |
| IW2NTF | 2026-09-01 13:00:57 | 45.63350 | 9.54107 | 161° | 15km/h | 19799m | -27.9m/s | -56.2°C | 5% | 0hPa | 2.5V | 08:23:45 | 02:25:51 | 00:00:00 | |
| DB0UT-7 | 2026-09-01 13:00:52 | 45.63350 | 9.54107 | 162° | 13km/h | 19799m | -27.9m/s | -56.2°C | 5.0% | 0hPa | 2.5V | 00:00:00 | 00:00:00 | 00:00:00 | |
| IW2NTF | 2026-09-01 13:00:48 | 45.63352 | 9.54080 | 46° | 18km/h | 20080m | -28.8m/s | -56.5°C | 5.3% | 0hPa | 2.7V | 08:23:55 | 02:25:41 | 00:00:00 | |
| NBG1-10 | 2026-09-01 13:00:39 | 45.63343 | 9.54065 | 53° | 13km/h | 20164m | -27.3m/s | -56.6°C | 5.5% | 0hPa | 2.6V | 00:00:00 | 02:25:38 | 00:00:00 | |
| DO3MHA-11 | 2026-09-01 13:00:38 | 45.63340 | 9.54060 | 50° | 13km/h | 20191m | -26.4m/s | -56.5°C | 5.4% | 0hPa | 2.6V | 00:00:00 | 02:25:37 | 00:00:00 | |
| IW2NTF | 2026-09-01 13:00:37 | 45.63323 | 9.54043 | 13° | 7km/h | 20347m | -28.3m/s | -54.5°C | 4.6% | 0hPa | 2.6V | 08:24:05 | 02:25:31 | 00:00:00 | |
| DO3MHA-11 | 2026-09-01 13:00:28 | 45.63317 | 9.54036 | 50° | 15km/h | 20458m | -27.0m/s | -53.3°C | 4.2% | 0hPa | 2.6V | 00:00:00 | 02:25:27 | 00:00:00 | |
| IW2NTF | 2026-09-01 13:00:27 | 45.63306 | 9.54015 | 51° | 16km/h | 20617m | -25.9m/s | -53.4°C | 4% | 0hPa | 2.6V | 08:24:15 | 02:25:21 | 00:00:00 | |
| DB0UT-7 | 2026-09-01 13:00:22 | 45.63306 | 9.54015 | 52° | 18km/h | 20617m | -25.9m/s | -53.3°C | 4.0% | 0hPa | 2.7V | 00:00:00 | 02:25:21 | 00:00:00 | |
| DO3MHA-11 | 2026-09-01 13:00:18 | 45.63293 | 9.53994 | 55° | 13km/h | 20725m | -25.2m/s | -54.1°C | 4.4% | 0hPa | 2.7V | 00:00:00 | 02:25:17 | 00:00:00 | |
| IW2NTF | 2026-09-01 13:00:17 | 45.63279 | 9.53969 | 3° | 11km/h | 20881m | -26.9m/s | -53.7°C | 4.2% | 0hPa | 2.7V | 08:24:25 | 02:25:11 | 00:00:00 | |
| DO3MHA-11 | 2026-09-01 13:00:08 | 45.63270 | 9.53967 | 347° | 18km/h | 20991m | -29.0m/s | -54.3°C | 4.3% | 0hPa | 2.6V | 00:00:00 | 02:25:07 | 00:00:00 | |
| IW2NTF | 2026-09-01 13:00:07 | 45.63244 | 9.53983 | 343° | 18km/h | 21157m | -25.7m/s | -54.8°C | 4.7% | 0hPa | 2.6V | 08:24:35 | 02:25:01 | 00:00:00 | |
| NBG1-10 | 2026-09-01 13:00:06 | 45.63264 | 9.53971 | 335° | 24km/h | 21049m | -28.4m/s | -54.6°C | 4.5% | 0hPa | 2.7V | 00:00:00 | 02:25:05 | 00:00:00 | |
| OE5DRO-10 | 2026-09-01 13:00:04 | 45.63254 | 9.53977 | 334° | 24km/h | 21105m | -26.8m/s | -54.9°C | 4.6% | 0hPa | 2.6V | 00:00:00 | 00:00:00 | 00:00:00 | |
| IW2NTF | 2026-09-01 12:59:58 | 45.63193 | 9.53955 | 37° | 27km/h | 21424m | -28m/s | -54.7°C | 4.7% | 0hPa | 2.6V | 08:24:45 | 02:24:51 | 00:00:00 | |
| DB0UT-7 | 2026-09-01 12:59:52 | 45.63193 | 9.53955 | 38° | 18km/h | 21424m | -27.9m/s | -54.6°C | 4.7% | 0hPa | 2.6V | 00:00:00 | 00:00:00 | 00:00:00 | |
| DO3MHA-11 | 2026-09-01 12:59:48 | 45.63171 | 9.53933 | 48° | 24km/h | 21532m | -28.1m/s | -54.7°C | 4.8% | 0hPa | 2.6V | 00:00:00 | 02:24:47 | 00:00:00 | |
| IW2NTF | 2026-09-01 12:59:47 | 45.63166 | 9.53883 | 83° | 15km/h | 21705m | -26.3m/s | -54.1°C | 4.4% | 0hPa | 2.6V | 08:24:55 | 02:24:41 | 00:00:00 | |
| OE5DRO-10 | 2026-09-01 12:59:44 | 45.63166 | 9.53897 | 89° | 15km/h | 21650m | -29.4m/s | -53.9°C | 4.4% | 0hPa | 2.6V | 00:00:00 | 00:00:00 | 00:00:00 | |
| DO3MHA-11 | 2026-09-01 12:59:38 | 45.63174 | 9.53859 | 128° | 15km/h | 21811m | -24.2m/s | -53.9°C | 4.4% | 0hPa | 2.6V | 00:00:00 | 02:24:37 | 00:00:00 | |
| IW2NTF | 2026-09-01 12:59:37 | 45.63186 | 9.53843 | 170° | 11km/h | 21961m | -23.2m/s | -53.5°C | 4.2% | 0hPa | 2.6V | 08:25:05 | 02:24:31 | 00:00:00 | |
| NBG1-10 | 2026-09-01 12:59:33 | 45.63183 | 9.53843 | 184° | 16km/h | 21937m | -25.3m/s | -53.3°C | 4.2% | 0hPa | 2.7V | 00:00:00 | 02:24:32 | 00:00:00 | |
| DO3MHA-11 | 2026-09-01 12:59:30 | 45.63199 | 9.53836 | 181° | 11km/h | 22047m | -22.8m/s | -53.4°C | 4.2% | 0hPa | 2.7V | 08:25:00 | 02:24:27 | 00:00:00 | |
| IW2NTF | 2026-09-01 12:59:28 | 45.63213 | 9.53847 | 246° | 7km/h | 22191m | -23.4m/s | -53.5°C | 4.2% | 0hPa | 2.7V | 08:25:15 | 02:24:21 | 00:00:00 | |
| DL2OL | 2026-09-01 12:59:27 | 45.63204 | 9.53839 | 211° | 11km/h | 22093m | -24.0m/s | -53.3°C | 1.4% | 0hPa | 2.6V | 00:00:00 | 00:00:00 | 00:00:00 | |
| OE5DRO-10 | 2026-09-01 12:59:25 | 45.63207 | 9.53841 | 207° | 11km/h | 22116m | -23.5m/s | -53.2°C | 4.1% | 0hPa | 2.6V | 00:00:00 | 00:00:00 | 00:00:00 | |
| DB0UT-7 | 2026-09-01 12:59:22 | 45.63212 | 9.53847 | 247° | 18km/h | 22191m | -23.4m/s | -53.4°C | 4.2% | 0hPa | 2.7V | 08:25:00 | 02:24:21 | 00:00:00 | |
| DO3MHA-11 | 2026-09-01 12:59:17 | 45.63209 | 9.53866 | 291° | 24km/h | 22308m | -24.0m/s | -53.7°C | 4.4% | 0hPa | 2.6V | 00:00:00 | 02:24:16 | 00:00:00 | |
| OE5DRO-10 | 2026-09-01 12:59:06 | 45.63153 | 9.53925 | 344° | 13km/h | 22609m | -28.1m/s | -54.2°C | 4.7% | 0hPa | 2.6V | 00:00:00 | 00:00:00 | 00:00:00 | |
| IW2NTF | 2026-09-01 12:59:05 | 45.63128 | 9.53926 | 8° | 18km/h | 22787m | -32.6m/s | -53.5°C | 4.4% | 0hPa | 2.6V | 08:25:37 | 02:23:59 | 00:00:00 | |
| NBG1-10 | 2026-09-01 12:58:58 | 45.63119 | 9.53923 | 11° | 9km/h | 22852m | -31.6m/s | -53.3°C | 4.4% | 0hPa | 2.6V | 00:00:00 | 02:23:57 | 00:00:00 | |
| IW2NTF | 2026-09-01 12:58:56 | 45.63091 | 9.53911 | 54° | 7km/h | 23089m | -29.4m/s | -53.5°C | 4.6% | 0hPa | 2.6V | 08:25:47 | 02:23:49 | 00:00:00 | |
| DB0UT-7 | 2026-09-01 12:58:52 | 45.63096 | 9.53914 | 12° | 7km/h | 23030m | -29.9m/s | -53.5°C | 4.6% | 0hPa | 2.6V | 00:00:00 | 00:00:00 | 00:00:00 | |
| OE5DRO-10 | 2026-09-01 12:58:44 | 45.63080 | 9.53898 | 86° | 5km/h | 23269m | -32.2m/s | -52.6°C | 4.3% | 0hPa | 2.6V | 00:00:00 | 00:00:00 | 00:00:00 | |
| DL2OL | 2026-09-01 12:58:33 | 45.63087 | 9.53897 | 255° | 4km/h | 23595m | -28.9m/s | -51.7°C | 1.3% | 0hPa | 2.6V | 00:00:00 | 00:00:00 | 00:00:00 | |
| IW2NTF | 2026-09-01 12:58:26 | 45.63081 | 9.53916 | 228° | 13km/h | 23950m | -28.7m/s | -50.9°C | 3.9% | 0hPa | 2.6V | 08:26:16 | 02:23:20 | 00:00:00 | |
| OE5DRO-10 | 2026-09-01 12:58:25 | 45.63079 | 9.53904 | 257° | 18km/h | 23836m | -28.6m/s | -51.0°C | 3.9% | 0hPa | 2.7V | 00:00:00 | 00:00:00 | 00:00:00 | |
| DB0UT-7 | 2026-09-01 12:58:22 | 45.63080 | 9.53913 | 250° | 18km/h | 23923m | -27.3m/s | -50.8°C | 3.9% | 0hPa | 2.6V | 00:00:00 | 02:23:21 | 00:00:00 | |
| IW2NTF | 2026-09-01 12:58:16 | 45.63096 | 9.53980 | 238° | 22km/h | 24238m | -28m/s | -50.5°C | 3.9% | 0hPa | 2.6V | 08:26:26 | 02:23:10 | 00:00:00 | |
| IW2NTF | 2026-09-01 12:58:06 | 45.63099 | 9.54048 | 290° | 20km/h | 24527m | -28.5m/s | -50°C | 3.9% | 0hPa | 2.6V | 08:26:36 | 02:23:00 | 00:00:00 | |
| OE5DRO-10 | 2026-09-01 12:58:04 | 45.63102 | 9.54027 | 267° | 18km/h | 24437m | -28.8m/s | -50.2°C | 3.9% | 0hPa | 2.6V | 00:00:00 | 00:00:00 | 00:00:00 | |
| DO3MHA-11 | 2026-09-01 12:57:58 | 45.63093 | 9.54064 | 308° | 16km/h | 24615m | -30.0m/s | -49.8°C | 3.8% | 0hPa | 2.6V | 00:00:00 | 02:22:57 | 00:00:00 | |
| IW2NTF | 2026-09-01 12:57:56 | 45.63066 | 9.54086 | 1° | 13km/h | 24827m | -29.3m/s | -49.1°C | 3.6% | 0hPa | 2.6V | 08:26:46 | 02:22:50 | 00:00:00 | |
| DL1ZP-14 | 2026-09-01 12:57:47 | 45.63053 | 9.54085 | 30° | 11km/h | 24943m | -29.0m/s | -48.4°C | 1.0% | -1.0hPa | 2.7V | 00:00:00 | 00:00:00 | 00:00:00 | |
| IW2NTF | 2026-09-01 12:57:46 | 45.63050 | 9.54077 | 334° | 4km/h | 25114m | -30m/s | -48.5°C | 3.3% | 0hPa | 2.6V | 08:26:56 | 02:22:40 | 00:00:00 | |
| OE5DRO-10 | 2026-09-01 12:57:45 | 45.63050 | 9.54081 | 70° | 7km/h | 25000m | -28.4m/s | -48.4°C | 3.3% | 0hPa | 2.7V | 00:00:00 | 00:00:00 | 00:00:00 | |
| DO3MHA-11 | 2026-09-01 12:57:38 | 45.63049 | 9.54078 | 250° | 15km/h | 25201m | -26.7m/s | -48.8°C | 3.5% | 0hPa | 2.7V | 00:00:00 | 02:22:37 | 00:00:00 | |
| IW2NTF | 2026-09-01 12:57:28 | 45.63010 | 9.54127 | 336° | 15km/h | 25614m | -33.5m/s | -49.2°C | 3.7% | 0hPa | 2.7V | 08:27:13 | 02:22:23 | 00:00:00 | |
| DO3MHA-11 | 2026-09-01 12:57:28 | 45.63029 | 9.54119 | 342° | 16km/h | 25486m | -30.4m/s | -49.1°C | 3.6% | 0hPa | 2.6V | 00:00:00 | 02:22:27 | 00:00:00 | |
| OE5DRO-10 | 2026-09-01 12:57:26 | 45.63018 | 9.54123 | 342° | 16km/h | 25547m | -33.6m/s | -49.1°C | 3.6% | 0hPa | 2.6V | 08:27:00 | 00:00:00 | 00:00:00 | |
| DB0UT-7 | 2026-09-01 12:57:22 | 45.63005 | 9.54130 | 347° | 18km/h | 25676m | -29.3m/s | -49.1°C | 3.7% | 0hPa | 2.7V | 00:00:00 | 02:22:21 | 00:00:00 | |
| NBG1-10 | 2026-09-01 12:57:19 | 45.62993 | 9.54131 | 355° | 18km/h | 25763m | -28.3m/s | -48.8°C | 3.7% | 0hPa | 2.7V | 00:00:00 | 02:22:18 | 00:00:00 | |
| IW2NTF | 2026-09-01 12:57:18 | 45.62976 | 9.54145 | 328° | 16km/h | 25955m | -32.8m/s | -48.5°C | 3.7% | 0hPa | 2.7V | 08:27:24 | 02:22:12 | 00:00:00 | |
| DO3MHA-11 | 2026-09-01 12:57:17 | 45.62986 | 9.54134 | 329° | 16km/h | 25820m | -30.5m/s | -48.5°C | 3.6% | 0hPa | 2.7V | 00:00:00 | 02:22:16 | 00:00:00 | |
| DL1ZP-14 | 2026-09-01 12:57:16 | 45.62946 | 9.54136 | 47° | 20km/h | 26183m | -37.0m/s | -48.2°C | 1.0% | -1.0hPa | 2.7V | 00:00:00 | 00:00:00 | 00:00:00 | |
| IW2NTF | 2026-09-01 12:57:08 | 45.62936 | 9.54117 | 59° | 24km/h | 26303m | -40.1m/s | -47.3°C | 3.2% | 0hPa | 2.7V | 08:27:34 | 02:22:02 | 00:00:00 | |
| DO3MHA-11 | 2026-09-01 12:57:07 | 45.62949 | 9.54142 | 50° | 20km/h | 26148m | -35.5m/s | -48.3°C | 3.6% | 0hPa | 2.7V | 00:00:00 | 02:22:06 | 00:00:00 | |
| IW2NTF | 2026-09-01 12:56:58 | 45.62926 | 9.54051 | 95° | 24km/h | 26680m | -33.7m/s | -47.4°C | 3.3% | 0hPa | 2.7V | 08:27:44 | 02:21:52 | 00:00:00 | |
| DO3MHA-11 | 2026-09-01 12:56:57 | 45.62929 | 9.54081 | 81° | 22km/h | 26538m | -37.6m/s | -46.9°C | 3.1% | 0hPa | 2.6V | 00:00:00 | 02:21:56 | 00:00:00 | |
| DB0UT-7 | 2026-09-01 12:56:52 | 45.62927 | 9.54043 | 100° | 15km/h | 26713m | -32.4m/s | -47.5°C | 3.4% | 0hPa | 2.6V | 00:00:00 | 00:00:00 | 00:00:00 | |
| IW2NTF | 2026-09-01 12:56:48 | 45.62940 | 9.53988 | 159° | 11km/h | 26982m | -30.4m/s | -47.9°C | 3.6% | 0hPa | 2.6V | 08:27:54 | 02:21:42 | 00:00:00 | |
| DL1ZP-14 | 2026-09-01 12:56:45 | 45.62934 | 9.53993 | 133° | 15km/h | 26919m | -31.8m/s | -47.9°C | 1.0% | -1.0hPa | 2.6V | 00:00:00 | 00:00:00 | 00:00:00 | |
| DL2OL | 2026-09-01 12:56:44 | 45.62934 | 9.53992 | 135° | 15km/h | 26919m | -31.8m/s | -47.9°C | 1.1% | 0hPa | 2.6V | 00:00:00 | 00:00:00 | 00:00:00 | |
| IW2NTF | 2026-09-01 12:56:38 | 45.62927 | 9.53969 | 24° | 22km/h | 27278m | -27.5m/s | -46.4°C | 3.2% | 0hPa | 2.6V | 08:28:04 | 02:21:32 | 00:00:00 | |
| DO3MHA-11 | 2026-09-01 12:56:37 | 45.62939 | 9.53975 | 240° | 13km/h | 27163m | -31.3m/s | -47.4°C | 3.6% | 0hPa | 2.7V | 00:00:00 | 02:21:36 | 00:00:00 | |
| OE5DRO-10 | 2026-09-01 12:56:29 | 45.62914 | 9.53962 | 7° | 15km/h | 27409m | -34.7m/s | -45.9°C | 3.1% | 0hPa | 2.7V | 00:00:00 | 00:00:00 | 00:00:00 | |
| IW2NTF | 2026-09-01 12:56:28 | 45.62897 | 9.53936 | 47° | 18km/h | 27615m | -38.1m/s | -46.5°C | 3.3% | 0hPa | 2.6V | 08:28:14 | 02:21:22 | 00:00:00 | |
| DO3MHA-11 | 2026-09-01 12:56:27 | 45.62907 | 9.53956 | 36° | 18km/h | 27475m | -32.5m/s | -45.9°C | 3.1% | 0hPa | 2.7V | 00:00:00 | 02:21:26 | 00:00:00 | |
| DB0UT-7 | 2026-09-01 12:56:22 | 45.62894 | 9.53931 | 58° | 11km/h | 27652m | -35.8m/s | -46.6°C | 3.3% | 0hPa | 2.7V | 00:00:00 | 02:21:21 | 00:00:00 | |
| DO3MHA-11 | 2026-09-01 12:56:17 | 45.62884 | 9.53902 | 81° | 9km/h | 27823m | -35.6m/s | -46.7°C | 3.4% | 0hPa | 2.6V | 00:00:00 | 02:21:16 | 00:00:00 | |
| DL1ZP-14 | 2026-09-01 12:56:14 | 45.62882 | 9.53890 | 58° | 9km/h | 27925m | -33.1m/s | -46.7°C | 1.0% | -1.0hPa | 2.7V | 00:00:00 | 00:00:00 | 00:00:00 | |
| NBG1-10 | 2026-09-01 12:56:13 | 45.62880 | 9.53888 | 38° | 9km/h | 27960m | -36.1m/s | -46.8°C | 3.5% | 0hPa | 2.7V | 00:00:00 | 02:21:12 | 00:00:00 | |
| OE5DRO-10 | 2026-09-01 12:56:09 | 45.62875 | 9.53881 | 47° | 7km/h | 28099m | -34.5m/s | -46.2°C | 3.4% | 0hPa | 2.7V | 00:00:00 | 00:00:00 | 00:00:00 | |
| IW2NTF | 2026-09-01 12:56:08 | 45.62868 | 9.53865 | 136° | 5km/h | 28311m | -34.5m/s | -44.7°C | 3% | 0hPa | 2.7V | 08:30:00 | 02:21:02 | 00:00:00 | |
| DO3MHA-11 | 2026-09-01 12:56:07 | 45.62871 | 9.53875 | 46° | 7km/h | 28170m | -37.8m/s | -45.6°C | 3.3% | 0hPa | 2.7V | 00:00:00 | 02:21:06 | 00:00:00 | |
| IW2NTF | 2026-09-01 12:55:58 | 45.62873 | 9.53842 | 38° | 5km/h | 28694m | -39.4m/s | -44.5°C | 2.9% | 0hPa | 2.7V | 08:30:00 | 02:20:52 | 00:00:00 | |
| PG1ADW-2 | 2026-09-01 12:55:58 | 45.62869 | 9.53850 | 142° | 9km/h | 28497m | -40.3m/s | -44.2°C | 2.8% | 0hPa | 2.7V | 00:00:00 | 02:20:57 | 00:00:00 | |
| DO3MHA-11 | 2026-09-01 12:55:57 | 45.62871 | 9.53848 | 133° | 5km/h | 28537m | -40.1m/s | -44.2°C | 2.8% | 0hPa | 2.7V | 00:00:00 | 02:20:56 | 00:00:00 | |
| DK5PH-5 | 2026-09-01 12:55:56 | 45.62872 | 9.53847 | 152° | 11km/h | 28577m | -40.2m/s | -44.3°C | 2.9% | 0hPa | 2.7V | 00:00:00 | 02:20:55 | 00:00:00 | |
| DB0UT-7 | 2026-09-01 12:55:52 | 45.62872 | 9.53841 | 336° | 11km/h | 28733m | -37.8m/s | -44.5°C | 2.9% | 0hPa | 2.7V | 00:00:00 | 00:00:00 | 00:00:00 | |
| IW2NTF | 2026-09-01 12:55:48 | 45.62851 | 9.53847 | 17° | 9km/h | 29048m | -34.5m/s | -44.9°C | 3.2% | 0hPa | 2.7V | 08:30:00 | 02:20:42 | 00:00:00 | |
| DO3MHA-11 | 2026-09-01 12:55:47 | 45.62865 | 9.53845 | 355° | 15km/h | 28910m | -34.2m/s | -44.7°C | 3.1% | 0hPa | 2.7V | 00:00:00 | 02:20:46 | 00:00:00 | |
| DL1ZP-14 | 2026-09-01 12:55:43 | 45.62851 | 9.53847 | 17° | 7km/h | 29049m | -34.5m/s | -44.9°C | 0.9% | -1.0hPa | 2.7V | 00:00:00 | 00:00:00 | 00:00:00 | |
| NBG1-10 | 2026-09-01 12:55:40 | 45.62844 | 9.53836 | 50° | 20km/h | 29158m | -39.4m/s | -45.0°C | 3.3% | 0hPa | 2.6V | 00:00:00 | 02:20:39 | 00:00:00 | |
| IW2NTF | 2026-09-01 12:55:38 | 45.62834 | 9.53801 | 58° | 9km/h | 29439m | -40.5m/s | -44.6°C | 3.3% | 0hPa | 2.6V | 08:30:00 | 02:20:32 | 00:00:00 | |
| PG1ADW-2 | 2026-09-01 12:55:38 | 45.62837 | 9.53826 | 48° | 13km/h | 29239m | -39.8m/s | -45.3°C | 3.4% | 0hPa | 2.7V | 00:00:00 | 00:00:00 | 00:00:00 | |
| OE5DRO-10 | 2026-09-01 12:55:31 | 45.62829 | 9.53797 | 16° | 15km/h | 29520m | -41.8m/s | -44.3°C | 3.3% | 0hPa | 2.7V | 00:00:00 | 00:00:00 | 00:00:00 | |
| IW2NTF | 2026-09-01 12:55:27 | 45.62809 | 9.53786 | 51° | 11km/h | 29917m | -43.1m/s | -41.5°C | 2.6% | 0hPa | 2.6V | 08:30:00 | 02:20:21 | 00:00:00 | |
| DO3MHA-11 | 2026-09-01 12:55:27 | 45.62820 | 9.53790 | 13° | 13km/h | 29695m | -43.9m/s | -43.1°C | 3.0% | 0hPa | 2.7V | 00:00:00 | 02:20:26 | 00:00:00 | |
| DK5PH-5 | 2026-09-01 12:55:26 | 45.62818 | 9.53790 | 4° | 16km/h | 29740m | -45.5m/s | -42.5°C | 2.9% | 0hPa | 2.7V | 00:00:00 | 02:20:25 | 00:00:00 | |
| DB0UT-7 | 2026-09-01 12:55:22 | 45.62808 | 9.53786 | 52° | 18km/h | 29917m | -43.0m/s | -41.4°C | 2.6% | 0hPa | 2.6V | 00:00:00 | 02:20:21 | 00:00:00 | |
| PG1ADW-2 | 2026-09-01 12:55:18 | 45.62797 | 9.53770 | 32° | 18km/h | 30091m | -43.2m/s | 0°C | 0% | 0hPa | 2.6V | 00:00:00 | 00:00:00 | 00:00:00 | |
| DO3MHA-11 | 2026-09-01 12:55:17 | 45.62793 | 9.53766 | 50° | 26km/h | 30134m | -42.2m/s | -41.6°C | 2.7% | 0hPa | 2.6V | 08:29:00 | 02:20:16 | 00:00:00 | |
| IW2NTF | 2026-09-01 12:55:15 | 45.62785 | 9.53710 | 111° | 26km/h | 30463m | -47.1m/s | -40.7°C | 2.5% | 0hPa | 2.7V | 08:30:00 | 02:20:09 | 00:00:00 | |
| DL1ZP-14 | 2026-09-01 12:55:13 | 45.62782 | 9.53726 | 100° | 18km/h | 30366m | -47.7m/s | -41.2°C | 0.7% | -1.0hPa | 2.6V | 00:00:00 | 00:00:00 | 00:00:00 | |
| OE5DRO-10 | 2026-09-01 12:55:12 | 45.62782 | 9.53725 | 101° | 16km/h | 30366m | -47.7m/s | -41.2°C | 2.6% | 0hPa | 2.6V | 00:00:00 | 00:00:00 | 00:00:00 | |
| DO3MHA-11 | 2026-09-01 12:55:07 | 45.62791 | 9.53684 | 107° | 11km/h | 30602m | -46.0m/s | -41.0°C | 2.6% | 0hPa | 2.6V | 00:00:00 | 02:20:06 | 00:00:00 | |
| IW2NTF | 2026-09-01 12:55:05 | 45.62802 | 9.53663 | 233° | 4km/h | 30912m | -45.4m/s | -41.3°C | 2.8% | 0hPa | 2.6V | 08:30:00 | 02:19:59 | 00:00:00 | |
| NBG1-10 | 2026-09-01 12:55:05 | 45.62796 | 9.53674 | 155° | 16km/h | 30691m | -43.1m/s | -41.5°C | 2.8% | 0hPa | 2.7V | 00:00:00 | 02:20:04 | 00:00:00 | |
| DL2OL | 2026-09-01 12:55:00 | 45.62802 | 9.53663 | 85° | 5km/h | 30867m | -45.0m/s | -41.4°C | 0.8% | 0hPa | 2.6V | 00:00:00 | 00:00:00 | 00:00:00 | |
| PG1ADW-2 | 2026-09-01 12:54:58 | 45.62801 | 9.53665 | 332° | 15km/h | 31002m | -45.1m/s | 0°C | 0% | 0hPa | 2.6V | 00:00:00 | 00:00:00 | 00:00:00 | |
| DO3MHA-11 | 2026-09-01 12:54:57 | 45.62799 | 9.53665 | 16° | 22km/h | 31047m | -45.5m/s | -41.1°C | 2.8% | 0hPa | 2.6V | 00:00:00 | 02:19:56 | 00:00:00 | |
| DK5PH-5 | 2026-09-01 12:54:56 | 45.62797 | 9.53664 | 20° | 16km/h | 31092m | -47.0m/s | -40.9°C | 2.8% | 0hPa | 2.6V | 00:00:00 | 02:19:55 | 00:00:00 | |
| IW2NTF | 2026-09-01 12:54:55 | 45.62771 | 9.53640 | 36° | 29km/h | 31387m | -51m/s | -39.9°C | 2.6% | 0hPa | 2.6V | 08:30:00 | 02:19:49 | 00:00:00 | |
| OE5DRO-10 | 2026-09-01 12:54:53 | 45.62782 | 9.53652 | 32° | 20km/h | 31236m | -50.3m/s | -40.2°C | 2.6% | 0hPa | 2.7V | 00:00:00 | 00:00:00 | 00:00:00 | |
| DB0UT-7 | 2026-09-01 12:54:52 | 45.62778 | 9.53648 | 42° | 18km/h | 31286m | -50.6m/s | -40.1°C | 2.6% | 0hPa | 2.7V | 00:00:00 | 00:00:00 | 08:30:00 | |
| DO3MHA-11 | 2026-09-01 12:54:47 | 45.62754 | 9.53614 | 64° | 20km/h | 31534m | -50.5m/s | -39.2°C | 2.4% | 0hPa | 2.7V | 00:00:00 | 02:19:46 | 00:00:00 | |
| IW2NTF | 2026-09-01 12:54:45 | 45.62747 | 9.53560 | 71° | 24km/h | 31847m | -44.3m/s | -38.4°C | 2.3% | 0hPa | 2.6V | 08:30:00 | 02:19:39 | 00:00:00 | |
| DL1ZP-14 | 2026-09-01 12:54:41 | 45.62749 | 9.53569 | 66° | 29km/h | 31804m | -43.1m/s | -38.4°C | 0.6% | -1.0hPa | 2.7V | 00:00:00 | 00:00:00 | 00:00:00 | |
| DO3MHA-11 | 2026-09-01 12:54:37 | 45.62749 | 9.53551 | 203° | 11km/h | 31977m | -41.8m/s | -38.6°C | 2.4% | 0hPa | 2.7V | 00:00:00 | 02:19:36 | 00:00:00 | |
| PG1ADW-2 | 2026-09-01 12:54:36 | 45.62750 | 9.53552 | 199° | 5km/h | 32018m | -42.2m/s | 0°C | 0% | 0hPa | 2.7V | 00:00:00 | 02:19:35 | 00:00:00 | |
| IW2NTF | 2026-09-01 12:54:35 | 45.62734 | 9.53532 | 33° | 4km/h | 32271m | -42.3m/s | -38°C | 2.3% | 0hPa | 2.7V | 08:30:00 | 02:19:29 | 00:00:00 | |
| OE5DRO-10 | 2026-09-01 12:54:34 | 45.62746 | 9.53547 | 39° | 13km/h | 32098m | -38.1m/s | -38.3°C | 2.3% | 0hPa | 2.6V | 00:00:00 | 00:00:00 | 08:30:00 | |
| NBG1-10 | 2026-09-01 12:54:32 | 45.62737 | 9.53536 | 41° | 13km/h | 32183m | -43.3m/s | -38.1°C | 2.3% | 0hPa | 2.7V | 00:00:00 | 02:19:31 | 00:00:00 | |
| DO3MHA-11 | 2026-09-01 12:54:27 | 45.62728 | 9.53523 | 49° | 13km/h | 32398m | -38.6m/s | -37.8°C | 2.2% | 0hPa | 2.7V | 00:00:00 | 02:19:26 | 00:00:00 | |
| IW2NTF | 2026-09-01 12:54:25 | 45.62733 | 9.53524 | 86° | 7km/h | 32735m | -46.2m/s | -37.3°C | 2.1% | 0hPa | 2.7V | 08:30:00 | 02:19:18 | 00:00:00 | |
| DB0UT-7 | 2026-09-01 12:54:22 | 45.62734 | 9.53522 | 242° | 18km/h | 32606m | -43.0m/s | -37.3°C | 2.0% | 0hPa | 2.6V | 00:00:00 | 02:19:21 | 00:00:00 | |
| DO3MHA-11 | 2026-09-01 12:54:17 | 45.62735 | 9.53524 | 236° | 16km/h | 32823m | -42.4m/s | -37.3°C | 2.1% | 0hPa | 2.6V | 00:00:00 | 02:19:16 | 00:00:00 | |
| OE5DRO-10 | 2026-09-01 12:54:15 | 45.62738 | 9.53540 | 268° | 16km/h | 32906m | -45.3m/s | -37.1°C | 2.1% | 0hPa | 2.7V | 00:00:00 | 00:00:00 | 00:00:00 | |
| DL1ZP-14 | 2026-09-01 12:54:10 | 45.62727 | 9.53518 | 230° | 7km/h | 33117m | -35.0m/s | -37.5°C | 0.6% | -1.0hPa | 2.7V | 00:00:00 | 00:00:00 | 00:00:00 | |
| PG1ADW-2 | 2026-09-01 12:54:09 | 45.62727 | 9.53518 | 231° | 13km/h | 33117m | -34.9m/s | 0°C | 0% | 0hPa | 2.6V | 00:00:00 | 00:00:00 | 00:00:00 | |
| IW2NTF | 2026-09-01 12:54:08 | 45.62724 | 9.53525 | 85° | 20km/h | 33136m | 4.7m/s | -37.5°C | 2.4% | 0hPa | 2.6V | 08:30:00 | 02:19:02 | 00:00:00 | |
| NBG1-10 | 2026-09-01 12:53:59 | 45.62718 | 9.53527 | 296° | 18km/h | 33112m | 5.9m/s | -37.4°C | 2.4% | 0hPa | 2.7V | 00:00:00 | 02:18:58 | 00:00:00 | |
| DK5PH-5 | 2026-09-01 12:53:55 | 45.62706 | 9.53541 | 44° | 18km/h | 33089m | 7.1m/s | -37.6°C | 2.3% | 0hPa | 2.7V | 00:00:00 | 02:18:54 | 00:00:00 | |
| OE5DRO-10 | 2026-09-01 12:53:53 | 45.62700 | 9.53527 | 64° | 18km/h | 33076m | 5.2m/s | -37.8°C | 2.4% | 0hPa | 2.7V | 00:00:00 | 00:00:00 | 00:00:00 | |
| DB0UT-7 | 2026-09-01 12:53:52 | 45.62697 | 9.53519 | 61° | 18km/h | 33071m | 4.8m/s | -37.7°C | 2.4% | 0hPa | 2.7V | 00:00:00 | 00:00:00 | 00:00:00 | |
| PG1ADW-2 | 2026-09-01 12:53:49 | 45.62694 | 9.53516 | 266° | 13km/h | 33053m | 6.7m/s | 0°C | 0% | 0hPa | 2.7V | 00:00:00 | 00:00:00 | 00:00:00 | |
| DL1ZP-14 | 2026-09-01 12:53:39 | 45.62678 | 9.53520 | 228° | 20km/h | 32987m | 5.9m/s | -37.4°C | 0.6% | -1.0hPa | 2.7V | 00:00:00 | 00:00:00 | 00:00:00 | |
| OE5DRO-10 | 2026-09-01 12:53:34 | 45.62675 | 9.53547 | 341° | 18km/h | 32964m | 6.3m/s | -37.2°C | 2.3% | 0hPa | 2.7V | 00:00:00 | 00:00:00 | 00:00:00 | |
| DO3MHA-11 | 2026-09-01 12:53:32 | 45.62666 | 9.53544 | 48° | 20km/h | 32953m | 5.3m/s | -37.3°C | 2.3% | 0hPa | 2.6V | 00:00:00 | 02:18:31 | 00:00:00 | |
| NBG1-10 | 2026-09-01 12:53:26 | 45.62676 | 9.53558 | 263° | 20km/h | 32918m | 5.0m/s | -37.0°C | 2.2% | 0hPa | 2.6V | 00:00:00 | 02:18:25 | 00:00:00 | |
| DK5PH-5 | 2026-09-01 12:53:25 | 45.62676 | 9.53566 | 289° | 20km/h | 32913m | 5.7m/s | -37.0°C | 2.3% | 0hPa | 2.7V | 00:00:00 | 02:18:24 | 00:00:00 | |
| DB0UT-7 | 2026-09-01 12:53:22 | 45.62666 | 9.53572 | 25° | 20km/h | 32894m | 5.3m/s | -36.9°C | 2.2% | 0hPa | 2.7V | 00:00:00 | 02:18:21 | 00:00:00 | |
| DO3MHA-11 | 2026-09-01 12:53:20 | 45.62664 | 9.53569 | 171° | 16km/h | 32884m | 5.4m/s | -37.1°C | 2.2% | 0hPa | 2.7V | 00:00:00 | 02:18:19 | 00:00:00 | |
| PG1ADW-2 | 2026-09-01 12:53:18 | 45.62671 | 9.53572 | 209° | 22km/h | 32872m | 5.6m/s | 0°C | 0% | 0hPa | 2.7V | 00:00:00 | 00:00:00 | 00:00:00 | |
| DL2OL | 2026-09-01 12:53:16 | 45.62680 | 9.53583 | 235° | 24km/h | 32862m | 5.1m/s | -37.2°C | 0.7% | 0hPa | 2.7V | 00:00:00 | 00:00:00 | 00:00:00 | |
| OE5DRO-10 | 2026-09-01 12:53:15 | 45.62683 | 9.53590 | 252° | 22km/h | 32856m | 5.7m/s | -37.3°C | 2.2% | 0hPa | 2.7V | 00:00:00 | 00:00:00 | 00:00:00 | |
| DO3MHA-11 | 2026-09-01 12:53:10 | 45.62673 | 9.53614 | 352° | 20km/h | 32829m | 5.2m/s | -37.7°C | 2.3% | 0hPa | 2.7V | 00:00:00 | 02:18:09 | 08:30:00 | |
| DL1ZP-14 | 2026-09-01 12:53:08 | 45.62685 | 9.53614 | 193° | 31km/h | 32811m | 5.8m/s | -37.5°C | 0.7% | -1.0hPa | 2.6V | 00:00:00 | 00:00:00 | 00:00:00 | |
| DO3MHA-11 | 2026-09-01 12:52:59 | 45.62702 | 9.53655 | 161° | 22km/h | 32768m | 5.2m/s | -37.4°C | 2.3% | 0hPa | 2.6V | 00:00:00 | 02:17:58 | 00:00:00 | |
| PG1ADW-2 | 2026-09-01 12:52:58 | 45.62708 | 9.53654 | 180° | 26km/h | 32762m | 5.2m/s | 0°C | 0% | 0hPa | 2.6V | 00:00:00 | 02:17:57 | 08:30:00 | |
| OE5DRO-10 | 2026-09-01 12:52:56 | 45.62721 | 9.53660 | 218° | 24km/h | 32751m | 6.1m/s | -37.4°C | 2.3% | 0hPa | 2.6V | 00:00:00 | 00:00:00 | 00:00:00 | |
| DK5PH-5 | 2026-09-01 12:52:54 | 45.62729 | 9.53672 | 239° | 20km/h | 32739m | 5.2m/s | -37.4°C | 2.2% | 0hPa | 2.6V | 00:00:00 | 02:17:53 | 00:00:00 | |
| NBG1-10 | 2026-09-01 12:52:53 | 45.62732 | 9.53678 | 231° | 26km/h | 32735m | 4.7m/s | -37.5°C | 2.3% | 0hPa | 2.6V | 00:00:00 | 02:17:52 | 00:00:00 | |
| DB0UT-7 | 2026-09-01 12:52:52 | 45.62736 | 9.53684 | 222° | 26km/h | 32730m | 5.0m/s | -37.4°C | 2.3% | 0hPa | 2.6V | 00:00:00 | 00:00:00 | 00:00:00 | |
| IW2NTF | 2026-09-01 12:52:48 | 45.62749 | 9.53697 | 100° | 16km/h | 32703m | 5.9m/s | -37.7°C | 2.2% | 0hPa | 2.6V | 08:30:00 | 02:17:46 | 00:00:00 | |
| DO3MHA-11 | 2026-09-01 12:52:46 | 45.62751 | 9.53691 | 120° | 26km/h | 32698m | 5.0m/s | -37.6°C | 2.2% | 0hPa | 2.6V | 00:00:00 | 02:17:45 | 00:00:00 | |
| IW2NTF | 2026-09-01 12:52:38 | 45.62786 | 9.53699 | 107° | 46km/h | 32650m | 0.2m/s | -37.6°C | 2.2% | 0hPa | 2.6V | 08:30:00 | 02:17:36 | 00:00:00 | |
| OE5DRO-10 | 2026-09-01 12:52:37 | 45.62786 | 9.53699 | 108° | 27km/h | 32651m | 0.1m/s | -37.6°C | 2.2% | 0hPa | 2.6V | 00:00:00 | 00:00:00 | 00:00:00 | |
| DO3MHA-11 | 2026-09-01 12:52:31 | 45.62793 | 9.53733 | 222° | 29km/h | 32628m | 2.6m/s | -37.5°C | 2.1% | 0hPa | 2.7V | 00:00:00 | 02:17:30 | 00:00:00 | |
| IW2NTF | 2026-09-01 12:52:28 | 45.62806 | 9.53722 | 293° | 7km/h | 32579m | 0.9m/s | -37.5°C | 2.1% | 0hPa | 2.6V | 08:30:00 | 02:17:21 | 00:00:00 | |
| DB0UT-7 | 2026-09-01 12:52:22 | 45.62806 | 9.53721 | 294° | 26km/h | 32579m | 0.9m/s | -37.4°C | 2.1% | 0hPa | 2.6V | 00:00:00 | 02:17:21 | 00:00:00 | |
| OE5DRO-10 | 2026-09-01 12:52:17 | 45.62825 | 9.53673 | 126° | 27km/h | 32552m | 4.0m/s | -37.5°C | 2.2% | 0hPa | 2.6V | 00:00:00 | 00:00:00 | 00:00:00 | |
| IW2NTF | 2026-09-01 12:52:16 | 45.62819 | 9.53690 | 118° | 37km/h | 32513m | 11.2m/s | -37.8°C | 2.2% | 0hPa | 2.6V | 08:30:00 | 02:17:10 | 00:00:00 | |
| DO3MHA-11 | 2026-09-01 12:52:11 | 45.62819 | 9.53690 | 119° | 31km/h | 32513m | 11.2m/s | -37.8°C | 2.2% | 0hPa | 2.7V | 00:00:00 | 02:17:10 | 00:00:00 | |
| NBG1-10 | 2026-09-01 12:52:09 | 45.62827 | 9.53658 | 100° | 29km/h | 32503m | 0.0m/s | -37.9°C | 2.2% | 0hPa | 2.7V | 00:00:00 | 02:17:08 | 00:00:00 | |
| IW2NTF | 2026-09-01 12:52:06 | 45.62819 | 9.53622 | 87° | 38km/h | 32452m | 2.6m/s | -38.4°C | 2.3% | 0hPa | 2.7V | 08:30:00 | 02:16:59 | 00:00:00 | |
| DO3MHA-11 | 2026-09-01 12:52:01 | 45.62818 | 9.53636 | 102° | 29km/h | 32457m | 5.0m/s | -38.3°C | 2.3% | 0hPa | 2.7V | 00:00:00 | 02:17:00 | 00:00:00 | |
| IW2NTF | 2026-09-01 12:51:56 | 45.62778 | 9.53564 | 65° | 38km/h | 32400m | 2.7m/s | -38.6°C | 2.3% | 0hPa | 2.7V | 08:30:00 | 02:16:49 | 00:00:00 | |
| PG1ADW-2 | 2026-09-01 12:51:56 | 45.62803 | 9.53609 | 322° | 26km/h | 32430m | 4.9m/s | 0°C | 0% | 0hPa | 2.6V | 00:00:00 | 00:00:00 | 00:00:00 | |
| DB0UT-7 | 2026-09-01 12:51:52 | 45.62787 | 9.53594 | 67° | 27km/h | 32408m | 6.6m/s | -38.5°C | 2.4% | 0hPa | 2.6V | 00:00:00 | 00:00:00 | 00:00:00 | |
| DO3MHA-11 | 2026-09-01 12:51:51 | 45.62782 | 9.53578 | 68° | 38km/h | 32403m | 3.3m/s | -38.5°C | 2.3% | 0hPa | 2.7V | 00:00:00 | 02:16:50 | 00:00:00 | |
| IW2NTF | 2026-09-01 12:51:45 | 45.62740 | 9.53524 | 86° | 22km/h | 32347m | 4m/s | -38.5°C | 2.3% | 0hPa | 2.7V | 08:30:00 | 02:16:39 | 00:00:00 | |
| DO3MHA-11 | 2026-09-01 12:51:41 | 45.62740 | 9.53535 | 84° | 31km/h | 32351m | 2.9m/s | -38.5°C | 2.3% | 0hPa | 2.7V | 00:00:00 | 02:16:40 | 00:00:00 | |
| OE5DRO-10 | 2026-09-01 12:51:39 | 45.62739 | 9.53520 | 2° | 24km/h | 32342m | 7.5m/s | -38.5°C | 2.3% | 0hPa | 2.7V | 00:00:00 | 00:00:00 | 08:30:00 | |
| NBG1-10 | 2026-09-01 12:51:36 | 45.62727 | 9.53542 | 324° | 26km/h | 32324m | 1.8m/s | -38.4°C | 2.3% | 0hPa | 2.6V | 00:00:00 | 02:16:35 | 08:30:00 | |
| IW2NTF | 2026-09-01 12:51:35 | 45.62701 | 9.53505 | 10° | 13km/h | 32292m | 6m/s | -38.6°C | 2.4% | 0hPa | 2.7V | 08:30:00 | 02:16:29 | 00:00:00 | |
| DO3MHA-11 | 2026-09-01 12:51:31 | 45.62705 | 9.53509 | 60° | 20km/h | 32298m | 3.9m/s | -38.6°C | 2.4% | 0hPa | 2.7V | 00:00:00 | 02:16:30 | 08:30:00 | |
| DL2OL | 2026-09-01 12:51:30 | 45.62704 | 9.53509 | 60° | 22km/h | 32298m | 3.9m/s | -38.6°C | 0.7% | 0hPa | 2.6V | 00:00:00 | 00:00:00 | 00:00:00 | |
| IW2NTF | 2026-09-01 12:51:25 | 45.62656 | 9.53521 | 3° | 18km/h | 32240m | 4.2m/s | -38.8°C | 2.3% | 0hPa | 2.6V | 08:30:00 | 02:16:19 | 00:00:00 | |
| DB0UT-7 | 2026-09-01 12:51:22 | 45.62669 | 9.53517 | 346° | 29km/h | 32249m | 5.0m/s | -38.7°C | 2.3% | 0hPa | 2.7V | 00:00:00 | 02:16:21 | 00:00:00 | |
| DO3MHA-11 | 2026-09-01 12:51:21 | 45.62662 | 9.53520 | 344° | 22km/h | 32244m | 3.9m/s | -38.7°C | 2.3% | 0hPa | 2.7V | 00:00:00 | 02:16:20 | 00:00:00 | |
| IW2NTF | 2026-09-01 12:51:15 | 45.62630 | 9.53518 | 77° | 35km/h | 32186m | 8.7m/s | -39°C | 2.3% | 0hPa | 2.7V | 08:30:00 | 02:16:09 | 00:00:00 | |
| DK5PH-5 | 2026-09-01 12:51:12 | 45.62640 | 9.53528 | 347° | 27km/h | 32198m | 2.2m/s | -38.9°C | 2.3% | 0hPa | 2.7V | 00:00:00 | 02:16:11 | 00:00:00 | |
| DO3MHA-11 | 2026-09-01 12:51:11 | 45.62634 | 9.53527 | 36° | 35km/h | 32194m | 6.5m/s | -39.0°C | 2.3% | 0hPa | 2.7V | 00:00:00 | 02:16:10 | 00:00:00 | |
| IW2NTF | 2026-09-01 12:51:05 | 45.62636 | 9.53481 | 174° | 26km/h | 32134m | 5.4m/s | -39.1°C | 2.3% | 0hPa | 2.7V | 08:30:00 | 02:15:59 | 00:00:00 | |
| DL1ZP-14 | 2026-09-01 12:51:03 | 45.62630 | 9.53486 | 126° | 37km/h | 32138m | 2.4m/s | -39.1°C | 0.7% | -1.0hPa | 2.7V | 00:00:00 | 00:00:00 | 00:00:00 | |
| NBG1-10 | 2026-09-01 12:51:02 | 45.62627 | 9.53500 | 91° | 29km/h | 32142m | 6.1m/s | -39.1°C | 2.3% | 0hPa | 2.7V | 00:00:00 | 02:16:01 | 00:00:00 | |
| DO3MHA-11 | 2026-09-01 12:51:01 | 45.62630 | 9.53486 | 127° | 37km/h | 32138m | 2.4m/s | -39.1°C | 2.4% | 0hPa | 2.7V | 00:00:00 | 02:16:00 | 00:00:00 | |
| IW2NTF | 2026-09-01 12:50:55 | 45.62642 | 9.53465 | 287° | 47km/h | 32075m | 13.8m/s | -39.3°C | 2.4% | 0hPa | 2.7V | 08:30:00 | 02:15:49 | 00:00:00 | |
| DB0UT-7 | 2026-09-01 12:50:52 | 45.62639 | 9.53456 | 159° | 27km/h | 32097m | 2.8m/s | -39.3°C | 2.4% | 0hPa | 2.7V | 00:00:00 | 00:00:00 | 00:00:00 | |
| DO3MHA-11 | 2026-09-01 12:50:47 | 45.62630 | 9.53479 | 60° | 33km/h | 32070m | 8.9m/s | -39.4°C | 2.4% | 0hPa | 2.7V | 00:00:00 | 02:15:46 | 00:00:00 | |
| IW2NTF | 2026-09-01 12:50:39 | 45.62637 | 9.53431 | 95° | 20km/h | 32016m | 10.2m/s | -39.5°C | 2.4% | 0hPa | 2.7V | 08:30:00 | 02:15:37 | 00:00:00 | |
| DK5PH-5 | 2026-09-01 12:50:39 | 45.62637 | 9.53436 | 74° | 26km/h | 32022m | 0.9m/s | -39.4°C | 2.4% | 0hPa | 2.7V | 00:00:00 | 02:15:38 | 00:00:00 | |
| DO3MHA-11 | 2026-09-01 12:50:37 | 45.62639 | 9.53418 | 106° | 42km/h | 32004m | 14.5m/s | -39.4°C | 2.4% | 0hPa | 2.7V | 00:00:00 | 02:15:36 | 00:00:00 | |
| DL1ZP-14 | 2026-09-01 12:50:32 | 45.62640 | 9.53373 | 333° | 18km/h | 31969m | 0.3m/s | -39.4°C | 0.7% | -1.0hPa | 2.7V | 00:00:00 | 00:00:00 | 00:00:00 | |
| IW2NTF | 2026-09-01 12:50:28 | 45.62641 | 9.53328 | 107° | 57km/h | 31945m | 2.8m/s | -39°C | 2.4% | 0hPa | 2.7V | 08:30:00 | 02:15:26 | 00:00:00 | |
| DO3MHA-11 | 2026-09-01 12:50:27 | 45.62640 | 9.53328 | 108° | 31km/h | 31945m | 2.8m/s | -39.0°C | 2.4% | 0hPa | 2.7V | 00:00:00 | 02:15:26 | 00:00:00 | |
| NBG1-10 | 2026-09-01 12:50:26 | 45.62644 | 9.53312 | 104° | 27km/h | 31942m | 2.6m/s | -39.0°C | 2.4% | 0hPa | 2.6V | 00:00:00 | 02:15:25 | 00:00:00 | |
| DB0UT-7 | 2026-09-01 12:50:20 | 45.62636 | 9.53294 | 100° | 27km/h | 31906m | 7.8m/s | -38.9°C | 2.4% | 0hPa | 2.6V | 00:00:00 | 02:15:19 | 08:30:00 | |
| IW2NTF | 2026-09-01 12:50:18 | 45.62639 | 9.53253 | 85° | 37km/h | 31888m | 4.1m/s | -39°C | 2.3% | 0hPa | 2.7V | 08:30:00 | 02:15:16 | 00:00:00 | |
| OE5DRO-10 | 2026-09-01 12:50:18 | 45.62639 | 9.53267 | 96° | 26km/h | 31893m | 4.3m/s | -38.9°C | 2.3% | 0hPa | 2.6V | 00:00:00 | 00:00:00 | 00:00:00 | |
| DO3MHA-11 | 2026-09-01 12:50:13 | 45.62628 | 9.53233 | 337° | 27km/h | 31864m | 4.9m/s | -39.3°C | 2.4% | 0hPa | 2.6V | 00:00:00 | 02:15:12 | 00:00:00 | |
| IW2NTF | 2026-09-01 12:50:12 | 45.62622 | 9.53175 | 79° | 37km/h | 31830m | 4m/s | -39.7°C | 2.5% | 0hPa | 2.6V | 08:30:00 | 02:15:06 | 00:00:00 | |
| DK5PH-5 | 2026-09-01 12:50:09 | 45.62623 | 9.53207 | 90° | 27km/h | 31840m | 6.7m/s | 0°C | 0% | 0hPa | 2.7V | 00:00:00 | 02:15:08 | 00:00:00 | |
| DO3MHA-11 | 2026-09-01 12:50:03 | 45.62614 | 9.53165 | 332° | 29km/h | 31806m | 3.8m/s | -39.5°C | 2.4% | 0hPa | 2.7V | 00:00:00 | 02:15:02 | 00:00:00 | |
| DL1ZP-14 | 2026-09-01 12:50:02 | 45.62599 | 9.53109 | 61° | 44km/h | 31778m | 4.1m/s | -39.7°C | 0.7% | -1.0hPa | 2.7V | 00:00:00 | 00:00:00 | 00:00:00 | |
| IW2NTF | 2026-09-01 12:49:58 | 45.62593 | 9.53098 | 45° | 35km/h | 31773m | 6m/s | -39.6°C | 2.4% | 0hPa | 2.6V | 08:30:00 | 02:14:56 | 00:00:00 | |
| DO3MHA-11 | 2026-09-01 12:49:53 | 45.62571 | 9.53092 | 26° | 31km/h | 31750m | 4.0m/s | -39.5°C | 2.4% | 0hPa | 2.7V | 00:00:00 | 02:14:52 | 08:30:00 | |
| IW2NTF | 2026-09-01 12:49:52 | 45.62532 | 9.53023 | 45° | 35km/h | 31715m | 5.7m/s | -39.8°C | 2.4% | 0hPa | 2.6V | 08:30:00 | 02:14:46 | 00:00:00 | |
| NBG1-10 | 2026-09-01 12:49:52 | 45.62568 | 9.53087 | 55° | 31km/h | 31745m | 5.9m/s | -39.6°C | 2.4% | 0hPa | 2.7V | 00:00:00 | 02:14:51 | 00:00:00 | |
| DB0UT-7 | 2026-09-01 12:49:50 | 45.62557 | 9.53063 | 56° | 40km/h | 31731m | 6.6m/s | -39.8°C | 2.4% | 0hPa | 2.6V | 00:00:00 | 00:00:00 | 00:00:00 | |
| DO3MHA-11 | 2026-09-01 12:49:43 | 45.62522 | 9.53008 | 22° | 38km/h | 31694m | 3.7m/s | -40.0°C | 2.4% | 0hPa | 2.6V | 00:00:00 | 02:14:42 | 00:00:00 | |
| IW2NTF | 2026-09-01 12:49:43 | 45.62469 | 9.52942 | 76° | 27km/h | 31657m | 7.3m/s | -40.1°C | 2.4% | 0hPa | 2.7V | 08:30:00 | 02:14:36 | 00:00:00 | |
| OE5DRO-10 | 2026-09-01 12:49:40 | 45.62491 | 9.52984 | 38° | 42km/h | 31674m | 5.1m/s | -39.8°C | 2.4% | 0hPa | 2.6V | 00:00:00 | 00:00:00 | 00:00:00 | |
| DK5PH-5 | 2026-09-01 12:49:39 | 45.62480 | 9.52969 | 51° | 31km/h | 31669m | 4.0m/s | 0°C | 0% | 0hPa | 2.6V | 00:00:00 | 02:14:38 | 00:00:00 | |
| IW2NTF | 2026-09-01 12:49:33 | 45.62384 | 9.52885 | 16° | 55km/h | 31588m | -1.3m/s | -40.5°C | 2.4% | 0hPa | 2.6V | 08:30:00 | 02:14:24 | 00:00:00 | |
| DO3MHA-11 | 2026-09-01 12:49:33 | 45.62445 | 9.52938 | 11° | 51km/h | 31634m | 5.0m/s | -40.2°C | 2.4% | 0hPa | 2.6V | 00:00:00 | 02:14:32 | 00:00:00 | |
| DL1ZP-14 | 2026-09-01 12:49:30 | 45.62419 | 9.52895 | 85° | 55km/h | 31614m | 5.5m/s | -40.3°C | 0.7% | -1.0hPa | 2.6V | 00:00:00 | 00:00:00 | 00:00:00 | |
| OE5DXL-15 | 2026-09-01 12:49:29 | 45.62419 | 9.52880 | 90° | 26km/h | 31611m | 2.2m/s | 0°C | 0% | 0hPa | 2.7V | 00:00:00 | 02:14:28 | 00:00:00 | |
| DO3MHA-11 | 2026-09-01 12:49:23 | 45.62367 | 9.52860 | 73° | 51km/h | 31577m | 13.4m/s | -40.6°C | 2.5% | 0hPa | 2.7V | 00:00:00 | 02:14:22 | 00:00:00 | |
| OE5DRO-10 | 2026-09-01 12:49:21 | 45.62373 | 9.52828 | 116° | 22km/h | 31565m | -3.8m/s | -40.7°C | 2.5% | 0hPa | 2.7V | 00:00:00 | 00:00:00 | 00:00:00 | |
| DB0UT-7 | 2026-09-01 12:49:20 | 45.62373 | 9.52824 | 15° | 31km/h | 31565m | 3.8m/s | -40.8°C | 2.5% | 0hPa | 2.7V | 00:00:00 | 02:14:19 | 00:00:00 | |
| IW2NTF | 2026-09-01 12:49:16 | 45.62323 | 9.52791 | 355° | 13km/h | 31514m | -2.3m/s | -41°C | 2.6% | 0hPa | 2.7V | 08:30:00 | 02:14:11 | 00:00:00 | |
| DO3MHA-11 | 2026-09-01 12:49:13 | 45.62320 | 9.52794 | 157° | 31km/h | 31512m | -0.7m/s | -41.0°C | 2.6% | 0hPa | 2.7V | 00:00:00 | 02:14:12 | 00:00:00 | |
| IW2NTF | 2026-09-01 12:49:07 | 45.62242 | 9.52768 | 11° | 64km/h | 31441m | 13.5m/s | -40.7°C | 2.5% | 0hPa | 2.7V | 08:30:00 | 02:14:00 | 00:00:00 | |
| DO3MHA-11 | 2026-09-01 12:49:03 | 45.62259 | 9.52775 | 25° | 26km/h | 31460m | 1.7m/s | -40.7°C | 2.5% | 0hPa | 2.7V | 00:00:00 | 02:14:02 | 00:00:00 | |
| OE5DRO-10 | 2026-09-01 12:48:59 | 45.62211 | 9.52760 | 10° | 24km/h | 31433m | 1.3m/s | -40.7°C | 2.6% | 0hPa | 2.7V | 00:00:00 | 00:00:00 | 00:00:00 | |
| IW2NTF | 2026-09-01 12:48:57 | 45.62170 | 9.52745 | 11° | 47km/h | 31378m | 3.6m/s | -40.9°C | 2.6% | 0hPa | 2.7V | 08:30:00 | 02:13:50 | 00:00:00 | |
| DO3MHA-11 | 2026-09-01 12:48:53 | 45.62195 | 9.52752 | 15° | 26km/h | 31391m | 9.6m/s | -40.8°C | 2.6% | 0hPa | 2.6V | 00:00:00 | 02:13:52 | 00:00:00 | |
| DB0UT-7 | 2026-09-01 12:48:48 | 45.62152 | 9.52740 | 337° | 22km/h | 31359m | 7.5m/s | -40.9°C | 2.7% | 0hPa | 2.6V | 00:00:00 | 00:00:00 | 00:00:00 | |
| IW2NTF | 2026-09-01 12:48:45 | 45.62114 | 9.52738 | 6° | 38km/h | 31319m | 4.3m/s | -41°C | 2.6% | 0hPa | 2.7V | 08:30:00 | 02:13:40 | 00:00:00 | |
| DO3MHA-11 | 2026-09-01 12:48:43 | 45.62135 | 9.52741 | 6° | 22km/h | 31329m | 6.2m/s | -40.8°C | 2.6% | 0hPa | 2.6V | 00:00:00 | 02:13:42 | 00:00:00 | |
| OE5DRO-10 | 2026-09-01 12:48:38 | 45.62100 | 9.52735 | 168° | 22km/h | 31301m | 7.1m/s | -40.9°C | 2.6% | 0hPa | 2.6V | 00:00:00 | 00:00:00 | 08:30:00 | |
| IW2NTF | 2026-09-01 12:48:37 | 45.62071 | 9.52750 | 1° | 29km/h | 31261m | 4.2m/s | -41.1°C | 2.6% | 0hPa | 2.6V | 08:30:00 | 02:13:30 | 00:00:00 | |
| PG1ADW-2 | 2026-09-01 12:48:36 | 45.62105 | 9.52735 | 195° | 16km/h | 31289m | 4.2m/s | 0°C | 0% | 0hPa | 2.7V | 00:00:00 | 00:00:00 | 00:00:00 | |
| DK5PH-5 | 2026-09-01 12:48:35 | 45.62104 | 9.52736 | 325° | 16km/h | 31284m | 5.4m/s | 0°C | 0% | 0hPa | 2.7V | 00:00:00 | 02:13:34 | 00:00:00 | |
| DL2OL | 2026-09-01 12:48:34 | 45.62104 | 9.52736 | 325° | 11km/h | 31284m | 5.4m/s | -41.0°C | 0.8% | 0hPa | 2.7V | 00:00:00 | 00:00:00 | 00:00:00 | |
| DO3MHA-11 | 2026-09-01 12:48:33 | 45.62091 | 9.52745 | 343° | 26km/h | 31271m | 6.8m/s | -41.1°C | 2.7% | 0hPa | 2.7V | 00:00:00 | 02:13:32 | 00:00:00 | |
| DL1ZP-14 | 2026-09-01 12:48:29 | 45.62069 | 9.52740 | 155° | 20km/h | 31241m | 5.2m/s | -41.1°C | 0.8% | -1.0hPa | 2.7V | 00:00:00 | 00:00:00 | 00:00:00 | |
| IW2NTF | 2026-09-01 12:48:27 | 45.62046 | 9.52768 | 57° | 11km/h | 31201m | 7.6m/s | -41.3°C | 2.7% | 0hPa | 2.7V | 08:30:00 | 02:13:20 | 00:00:00 | |
| DO3MHA-11 | 2026-09-01 12:48:23 | 45.62057 | 9.52767 | 339° | 16km/h | 31213m | 3.6m/s | -41.3°C | 2.7% | 0hPa | 2.6V | 00:00:00 | 02:13:22 | 08:30:00 | |
| OE5DRO-10 | 2026-09-01 12:48:20 | 45.62049 | 9.52758 | 131° | 15km/h | 31189m | 4.7m/s | -41.2°C | 2.7% | 0hPa | 2.6V | 00:00:00 | 00:00:00 | 00:00:00 | |
| DB0UT-7 | 2026-09-01 12:48:19 | 45.62050 | 9.52756 | 109° | 20km/h | 31184m | 4.9m/s | -41.2°C | 2.7% | 0hPa | 2.6V | 00:00:00 | 02:13:17 | 00:00:00 | |
| NBG1-10 | 2026-09-01 12:48:18 | 45.62049 | 9.52756 | 331° | 18km/h | 31178m | 6.5m/s | -41.3°C | 2.7% | 0hPa | 2.6V | 00:00:00 | 02:13:16 | 00:00:00 | |
| PG1ADW-2 | 2026-09-01 12:48:16 | 45.62047 | 9.52759 | 312° | 18km/h | 31171m | 6.5m/s | 0°C | 0% | 0hPa | 2.6V | 00:00:00 | 02:13:15 | 00:00:00 | |
| DO3MHA-11 | 2026-09-01 12:48:13 | 45.62044 | 9.52775 | 256° | 16km/h | 31153m | 5.2m/s | -41.4°C | 2.7% | 0hPa | 2.6V | 00:00:00 | 02:13:12 | 00:00:00 | |
| DO3MHA-11 | 2026-09-01 12:48:03 | 45.62041 | 9.52778 | 300° | 29km/h | 31099m | 8.1m/s | -41.5°C | 2.6% | 0hPa | 2.6V | 00:00:00 | 02:13:02 | 00:00:00 | |
| DL1ZP-14 | 2026-09-01 12:47:57 | 45.62037 | 9.52777 | 166° | 38km/h | 31064m | -0.3m/s | -41.6°C | 0.8% | -1.0hPa | 2.6V | 00:00:00 | 00:00:00 | 00:00:00 | |
| PG1ADW-2 | 2026-09-01 12:47:56 | 45.62045 | 9.52778 | 217° | 20km/h | 31063m | 3.4m/s | 0°C | 0% | 0hPa | 2.7V | 00:00:00 | 00:00:00 | 00:00:00 | |
| DO3MHA-11 | 2026-09-01 12:47:52 | 45.62034 | 9.52806 | 60° | 33km/h | 31040m | 3.3m/s | -41.6°C | 2.7% | 0hPa | 2.7V | 00:00:00 | 02:12:51 | 00:00:00 | |
| DB0UT-7 | 2026-09-01 12:47:48 | 45.62063 | 9.52785 | 223° | 24km/h | 31017m | 2.3m/s | -41.4°C | 2.6% | 0hPa | 2.6V | 00:00:00 | 00:00:00 | 00:00:00 | |
| NBG1-10 | 2026-09-01 12:47:44 | 45.62045 | 9.52804 | 55° | 22km/h | 30993m | 2.1m/s | -41.5°C | 2.6% | 0hPa | 2.6V | 00:00:00 | 02:12:43 | 00:00:00 | |
| DO3MHA-11 | 2026-09-01 12:47:42 | 45.62053 | 9.52798 | 183° | 31km/h | 30976m | 10.6m/s | -41.5°C | 2.6% | 0hPa | 2.7V | 00:00:00 | 02:12:41 | 00:00:00 | |
| OE5DRO-10 | 2026-09-01 12:47:40 | 45.62071 | 9.52809 | 240° | 22km/h | 30970m | 2.7m/s | -41.6°C | 2.6% | 0hPa | 2.7V | 00:00:00 | 00:00:00 | 00:00:00 | |
| PG1ADW-2 | 2026-09-01 12:47:36 | 45.62056 | 9.52806 | 110° | 24km/h | 30946m | 3.5m/s | 0°C | 0% | 0hPa | 2.7V | 00:00:00 | 00:00:00 | 00:00:00 | |
| DL1ZP-14 | 2026-09-01 12:47:26 | 45.62098 | 9.52813 | 228° | 27km/h | 30881m | -4.8m/s | -41.4°C | 0.7% | -1.0hPa | 2.7V | 00:00:00 | 00:00:00 | 00:00:00 | |
| DO3MHA-11 | 2026-09-01 12:47:20 | 45.62099 | 9.52775 | 110° | 35km/h | 30858m | -0.2m/s | -41.5°C | 2.7% | 0hPa | 2.7V | 00:00:00 | 02:12:19 | 00:00:00 | |
| IW2NTF | 2026-09-01 12:47:16 | 45.62123 | 9.52763 | 95° | 78km/h | 30806m | 12.4m/s | -42°C | 2.6% | 0hPa | 2.7V | 08:30:00 | 02:12:12 | 00:00:00 | |
| DB0UT-7 | 2026-09-01 12:47:16 | 45.62115 | 9.52788 | 174° | 31km/h | 30831m | -4.3m/s | -41.8°C | 2.6% | 0hPa | 2.6V | 00:00:00 | 02:12:15 | 00:00:00 | |
| NBG1-10 | 2026-09-01 12:47:11 | 45.62130 | 9.52723 | 119° | 29km/h | 30803m | 1.0m/s | -42.0°C | 2.7% | 0hPa | 2.6V | 00:00:00 | 02:12:10 | 00:00:00 | |
| DO3MHA-11 | 2026-09-01 12:47:09 | 45.62136 | 9.52714 | 248° | 37km/h | 30784m | 15.3m/s | -42.0°C | 2.7% | 0hPa | 2.6V | 00:00:00 | 02:12:08 | 00:00:00 | |
| IW2NTF | 2026-09-01 12:47:07 | 45.62151 | 9.52701 | 121° | 80km/h | 30755m | 7.6m/s | -41.9°C | 2.7% | 0hPa | 2.6V | 08:30:00 | 02:12:03 | 00:00:00 | |
| DO3MHA-11 | 2026-09-01 12:46:58 | 45.62167 | 9.52667 | 99° | 29km/h | 30724m | 3.4m/s | -41.7°C | 2.8% | 0hPa | 2.6V | 00:00:00 | 02:11:57 | 00:00:00 | |
| IW2NTF | 2026-09-01 12:46:56 | 45.62199 | 9.52599 | 91° | 7km/h | 30685m | 8.8m/s | -41.3°C | 2.7% | 0hPa | 2.6V | 08:30:00 | 02:11:51 | 00:00:00 | |
| DL1ZP-14 | 2026-09-01 12:46:55 | 45.62184 | 9.52628 | 128° | 60km/h | 30701m | 3.6m/s | -41.3°C | -1.0% | -1.0hPa | 2.7V | 00:00:00 | 00:00:00 | 00:00:00 | |
| PG1ADW-2 | 2026-09-01 12:46:54 | 45.62192 | 9.52613 | 129° | 27km/h | 30698m | 3.0m/s | 0°C | 0% | 0hPa | 2.7V | 00:00:00 | 02:11:53 | 00:00:00 | |
| DO3MHA-11 | 2026-09-01 12:46:48 | 45.62201 | 9.52584 | 130° | 27km/h | 30661m | 7.6m/s | -41.1°C | 2.6% | 0hPa | 2.7V | 00:00:00 | 02:11:47 | 08:30:00 | |
| IW2NTF | 2026-09-01 12:46:46 | 45.62228 | 9.52519 | 37° | 13km/h | 30625m | 6.5m/s | -40.8°C | 2.5% | 0hPa | 2.7V | 08:30:00 | 02:11:41 | 00:00:00 | |
| DL2OL | 2026-09-01 12:46:46 | 45.62208 | 9.52573 | 134° | 46km/h | 30654m | 6.7m/s | -41.0°C | 0.8% | 0hPa | 2.6V | 00:00:00 | 00:00:00 | 00:00:00 | |
| DB0UT-7 | 2026-09-01 12:46:43 | 45.62229 | 9.52525 | 86° | 24km/h | 30633m | 6.8m/s | -40.7°C | 2.5% | 0hPa | 2.6V | 00:00:00 | 00:00:00 | 00:00:00 | |
| OE5DXL-15 | 2026-09-01 12:46:39 | 45.62225 | 9.52512 | 118° | 40km/h | 30611m | 5.8m/s | 0°C | 0% | 0hPa | 2.6V | 00:00:00 | 00:00:00 | 00:00:00 | |
| DO3MHA-11 | 2026-09-01 12:46:38 | 45.62229 | 9.52501 | 117° | 35km/h | 30604m | 7.6m/s | -40.9°C | 2.6% | 0hPa | 2.6V | 00:00:00 | 02:11:37 | 00:00:00 | |
| OE5DRO-10 | 2026-09-01 12:46:37 | 45.62234 | 9.52484 | 113° | 38km/h | 30597m | 6.5m/s | -40.9°C | 2.5% | 0hPa | 2.6V | 00:00:00 | 00:00:00 | 00:00:00 | |
| IW2NTF | 2026-09-01 12:46:36 | 45.62246 | 9.52445 | 46° | 5km/h | 30567m | 1.3m/s | -40.8°C | 2.5% | 0hPa | 2.7V | 08:30:00 | 02:11:30 | 00:00:00 | |
| DK5PH-5 | 2026-09-01 12:46:36 | 45.62239 | 9.52464 | 108° | 31km/h | 30592m | 2.7m/s | 0°C | 0% | 0hPa | 2.7V | 00:00:00 | 02:11:35 | 00:00:00 | |
| PG1ADW-2 | 2026-09-01 12:46:31 | 45.62246 | 9.52445 | 47° | 26km/h | 30568m | 1.2m/s | 0°C | 0% | 0hPa | 2.7V | 00:00:00 | 00:00:00 | 08:30:00 | |
| DO3MHA-11 | 2026-09-01 12:46:28 | 45.62243 | 9.52402 | 92° | 44km/h | 30547m | 5.5m/s | -40.8°C | 2.5% | 0hPa | 2.7V | 00:00:00 | 02:11:27 | 00:00:00 | |
| DL1ZP-14 | 2026-09-01 12:46:25 | 45.62250 | 9.52365 | 316° | 16km/h | 30521m | 0.9m/s | -41.0°C | -1.0% | -1.0hPa | 2.7V | 00:00:00 | 00:00:00 | 00:00:00 | |
| IW2NTF | 2026-09-01 12:46:24 | 45.62246 | 9.52301 | 93° | 40km/h | 30492m | 2.3m/s | -40.9°C | 2.4% | 0hPa | 2.7V | 08:30:00 | 02:11:17 | 00:00:00 | |
| DO3MHA-11 | 2026-09-01 12:46:18 | 45.62246 | 9.52301 | 94° | 35km/h | 30493m | 2.2m/s | -40.9°C | 2.4% | 0hPa | 2.7V | 00:00:00 | 02:11:17 | 00:00:00 | |
| DB0UT-7 | 2026-09-01 12:46:13 | 45.62227 | 9.52281 | 83° | 35km/h | 30463m | 5.7m/s | -41.1°C | 2.5% | 0hPa | 2.7V | 00:00:00 | 02:11:12 | 00:00:00 | |
| IW2NTF | 2026-09-01 12:46:12 | 45.62210 | 9.52213 | 7° | 42km/h | 30425m | 4.5m/s | -41.6°C | 2.6% | 0hPa | 2.7V | 08:30:00 | 02:11:06 | 00:00:00 | |
| PG1ADW-2 | 2026-09-01 12:46:10 | 45.62233 | 9.52245 | 84° | 29km/h | 30445m | 3.1m/s | 0°C | 0% | 0hPa | 2.6V | 00:00:00 | 00:00:00 | 00:00:00 | |
| DO3MHA-11 | 2026-09-01 12:46:06 | 45.62203 | 9.52212 | 360° | 27km/h | 30421m | 3.3m/s | -41.7°C | 2.6% | 0hPa | 2.6V | 00:00:00 | 02:11:05 | 00:00:00 | |
| NBG1-10 | 2026-09-01 12:46:04 | 45.62208 | 9.52193 | 101° | 24km/h | 30403m | 3.2m/s | -41.9°C | 2.6% | 0hPa | 2.6V | 00:00:00 | 02:11:02 | 08:30:00 | |
| OE5DRO-10 | 2026-09-01 12:45:59 | 45.62176 | 9.52143 | 10° | 26km/h | 30381m | 2.8m/s | -41.9°C | 2.6% | 0hPa | 2.7V | 00:00:00 | 00:00:00 | 00:00:00 | |
| IW2NTF | 2026-09-01 12:45:57 | 45.62147 | 9.52084 | 356° | 51km/h | 30337m | 0.5m/s | -42.1°C | 2.8% | 0hPa | 2.7V | 08:30:00 | 02:10:51 | 00:00:00 | |
| DL1ZP-14 | 2026-09-01 12:45:53 | 45.62138 | 9.52086 | 344° | 16km/h | 30335m | 4.3m/s | -42.1°C | -1.0% | -1.0hPa | 2.6V | 00:00:00 | 00:00:00 | 00:00:00 | |
| DO3MHA-11 | 2026-09-01 12:45:46 | 45.62132 | 9.52034 | 24° | 44km/h | 30304m | 13.2m/s | -42.1°C | 2.6% | 0hPa | 2.7V | 00:00:00 | 02:10:45 | 00:00:00 | |
| IW2NTF | 2026-09-01 12:45:44 | 45.62095 | 9.51990 | 35° | 40km/h | 30265m | 4.8m/s | -42.1°C | 2.7% | 0hPa | 2.6V | 08:30:00 | 02:10:38 | 00:00:00 | |
| DB0UT-7 | 2026-09-01 12:45:43 | 45.62105 | 9.52045 | 34° | 26km/h | 30290m | 5.0m/s | -42.1°C | 2.7% | 0hPa | 2.6V | 00:00:00 | 00:00:00 | 08:30:00 | |
| OE5DRO-10 | 2026-09-01 12:45:40 | 45.62103 | 9.52002 | 61° | 27km/h | 30267m | -2.9m/s | -42.1°C | 2.7% | 0hPa | 2.7V | 00:00:00 | 00:00:00 | 08:30:00 | |
| DO3MHA-11 | 2026-09-01 12:45:36 | 45.62075 | 9.52003 | 296° | 31km/h | 30242m | -4.0m/s | -42.0°C | 2.7% | 0hPa | 2.7V | 00:00:00 | 02:10:35 | 00:00:00 | |
| IW2NTF | 2026-09-01 12:45:24 | 45.62022 | 9.51950 | 53° | 64km/h | 30165m | 3.8m/s | -42°C | 2.7% | 0hPa | 2.7V | 08:30:00 | 02:10:23 | 00:00:00 | |
| PG1ADW-2 | 2026-09-01 12:45:22 | 45.62009 | 9.51929 | 37° | 20km/h | 30158m | 7.6m/s | 0°C | 0% | 0hPa | 2.7V | 00:00:00 | 00:00:00 | 00:00:00 | |
| OE5DRO-10 | 2026-09-01 12:45:21 | 45.62007 | 9.51930 | 273° | 22km/h | 30148m | 11.9m/s | -41.8°C | 2.7% | 0hPa | 2.7V | 00:00:00 | 00:00:00 | 00:00:00 | |
| DO3MHA-11 | 2026-09-01 12:45:17 | 45.62001 | 9.51937 | 51° | 24km/h | 30115m | 7.8m/s | -41.9°C | 2.7% | 0hPa | 2.7V | 00:00:00 | 02:10:15 | 08:30:00 | |
| IW2NTF | 2026-09-01 12:45:15 | 45.61994 | 9.51925 | 229° | 15km/h | 30081m | 3.1m/s | -41.8°C | 2.6% | 0hPa | 2.7V | 08:30:00 | 02:10:09 | 00:00:00 | |
| DB0UT-7 | 2026-09-01 12:45:12 | 45.61987 | 9.51914 | 228° | 20km/h | 30092m | 8.4m/s | -41.7°C | 2.7% | 0hPa | 2.7V | 00:00:00 | 02:10:11 | 00:00:00 | |
| DO3MHA-11 | 2026-09-01 12:45:06 | 45.61976 | 9.51918 | 23° | 22km/h | 30057m | 3.8m/s | -41.5°C | 2.6% | 0hPa | 2.7V | 00:00:00 | 02:10:05 | 00:00:00 | |
| IW2NTF | 2026-09-01 12:45:04 | 45.61969 | 9.51935 | 30° | 13km/h | 30019m | 6.9m/s | -41.5°C | 2.6% | 0hPa | 2.7V | 08:30:00 | 02:09:58 | 00:00:00 | |
| OE5DRO-10 | 2026-09-01 12:45:01 | 45.61971 | 9.51929 | 256° | 22km/h | 30030m | 3.7m/s | -41.4°C | 2.6% | 0hPa | 2.6V | 00:00:00 | 00:00:00 | 00:00:00 | |
| PG1ADW-2 | 2026-09-01 12:45:00 | 45.61971 | 9.51935 | 294° | 18km/h | 30026m | 4.6m/s | 0°C | 0% | 0hPa | 2.6V | 00:00:00 | 02:09:59 | 00:00:00 | |
| DO3MHA-11 | 2026-09-01 12:44:56 | 45.61961 | 9.51911 | 66° | 24km/h | 30004m | 2.7m/s | -41.6°C | 2.6% | 0hPa | 2.6V | 00:00:00 | 02:09:55 | 00:00:00 | |
| IW2NTF | 2026-09-01 12:44:55 | 45.61955 | 9.51940 | 115° | 40km/h | 29963m | 7.8m/s | -41.9°C | 2.7% | 0hPa | 2.6V | 08:30:00 | 02:09:48 | 00:00:00 | |
| DL1ZP-14 | 2026-09-01 12:44:51 | 45.61951 | 9.51948 | 265° | 9km/h | 29978m | 3.9m/s | 0°C | -1.0% | -1.0hPa | 2.7V | 00:00:00 | 00:00:00 | 00:00:00 | |
| IW2NTF | 2026-09-01 12:44:43 | 45.61956 | 9.51947 | 289° | 7km/h | 29909m | 6m/s | -42°C | 2.6% | 0hPa | 2.7V | 08:30:00 | 02:09:37 | 00:00:00 | |
| NBG1-10 | 2026-09-01 12:44:43 | 45.61938 | 9.51956 | 301° | 18km/h | 29935m | 1.2m/s | -41.8°C | 2.6% | 0hPa | 2.6V | 00:00:00 | 02:09:42 | 00:00:00 | |
| DB0UT-7 | 2026-09-01 12:44:42 | 45.61936 | 9.51960 | 247° | 22km/h | 29930m | 8.2m/s | -41.9°C | 2.6% | 0hPa | 2.6V | 00:00:00 | 00:00:00 | 00:00:00 | |
| PG1ADW-2 | 2026-09-01 12:44:39 | 45.61955 | 9.51947 | 163° | 22km/h | 29912m | -0.6m/s | 0°C | 0% | 0hPa | 2.6V | 00:00:00 | 00:00:00 | 00:00:00 | |
| DO3MHA-11 | 2026-09-01 12:44:36 | 45.61942 | 9.51959 | 336° | 31km/h | 29890m | 7.2m/s | -42.0°C | 2.6% | 0hPa | 2.6V | 00:00:00 | 02:09:35 | 00:00:00 | |
| IW2NTF | 2026-09-01 12:44:32 | 45.61928 | 9.51983 | 351° | 46km/h | 29839m | 3.7m/s | -42.3°C | 2.6% | 0hPa | 2.6V | 08:30:00 | 02:09:26 | 00:00:00 | |
| DO3MHA-11 | 2026-09-01 12:44:26 | 45.61919 | 9.51985 | 345° | 24km/h | 29836m | 2.1m/s | -42.3°C | 2.6% | 0hPa | 2.7V | 00:00:00 | 02:09:25 | 00:00:00 | |
| OE5DRO-10 | 2026-09-01 12:44:21 | 45.61936 | 9.51984 | 140° | 20km/h | 29809m | 4.5m/s | -42.5°C | 2.6% | 0hPa | 2.7V | 00:00:00 | 00:00:00 | 00:00:00 | |
| DL1ZP-14 | 2026-09-01 12:44:20 | 45.61913 | 9.51998 | 332° | 22km/h | 29786m | 2.5m/s | 0°C | -1.0% | -1.0hPa | 2.7V | 00:00:00 | 00:00:00 | 00:00:00 | |
| IW2NTF | 2026-09-01 12:44:19 | 45.61914 | 9.51994 | 137° | 22km/h | 29766m | 5.1m/s | -42.9°C | 2.7% | 0hPa | 2.6V | 08:30:00 | 02:09:13 | 00:00:00 | |
| PG1ADW-2 | 2026-09-01 12:44:17 | 45.61913 | 9.51998 | 333° | 18km/h | 29786m | 2.5m/s | 0°C | 0% | 0hPa | 2.7V | 00:00:00 | 00:00:00 | 00:00:00 | |
| DO3MHA-11 | 2026-09-01 12:44:16 | 45.61910 | 9.52000 | 354° | 18km/h | 29781m | 6.9m/s | -42.8°C | 2.7% | 0hPa | 2.7V | 00:00:00 | 02:09:15 | 00:00:00 | |
| DB0UT-7 | 2026-09-01 12:44:10 | 45.61912 | 9.52001 | 322° | 31km/h | 29744m | 4.9m/s | -43.1°C | 2.7% | 0hPa | 2.7V | 00:00:00 | 02:09:09 | 00:00:00 | |
| IW2NTF | 2026-09-01 12:44:09 | 45.61895 | 9.51984 | 213° | 20km/h | 29710m | 7m/s | -43.7°C | 2.8% | 0hPa | 2.7V | 08:30:00 | 02:09:03 | 00:00:00 | |
| DO3MHA-11 | 2026-09-01 12:44:06 | 45.61891 | 9.51987 | 76° | 27km/h | 29722m | 4.6m/s | -43.5°C | 2.7% | 0hPa | 2.7V | 00:00:00 | 02:09:05 | 00:00:00 | |
| NBG1-10 | 2026-09-01 12:44:03 | 45.61898 | 9.51989 | 243° | 27km/h | 29705m | 4.3m/s | -43.7°C | 2.8% | 0hPa | 2.7V | 00:00:00 | 02:09:02 | 00:00:00 | |
| OE5DRO-10 | 2026-09-01 12:44:02 | 45.61898 | 9.51995 | 314° | 29km/h | 29701m | 3.3m/s | -43.8°C | 2.8% | 0hPa | 2.7V | 00:00:00 | 00:00:00 | 00:00:00 | |
| IW2NTF | 2026-09-01 12:43:54 | 45.61878 | 9.51974 | 318° | 27km/h | 29659m | 3.4m/s | -44.2°C | 2.9% | 0hPa | 2.7V | 08:30:00 | 02:08:53 | 00:00:00 | |
| DO3MHA-11 | 2026-09-01 12:43:46 | 45.61857 | 9.51956 | 11° | 35km/h | 29612m | 8.4m/s | -44.0°C | 2.9% | 0hPa | 2.7V | 00:00:00 | 02:08:45 | 08:30:00 | |
| IW2NTF | 2026-09-01 12:43:44 | 45.61847 | 9.51922 | 127° | 26km/h | 29595m | 5.9m/s | -44.3°C | 2.9% | 0hPa | 2.7V | 08:30:00 | 02:08:42 | 00:00:00 | |
| DB0UT-7 | 2026-09-01 12:43:40 | 45.61856 | 9.51934 | 330° | 26km/h | 29578m | 0.6m/s | -44.2°C | 2.9% | 0hPa | 2.6V | 00:00:00 | 00:00:00 | 00:00:00 | |
| DO3MHA-11 | 2026-09-01 12:43:36 | 45.61844 | 9.51897 | 105° | 29km/h | 29561m | 0.4m/s | -44.2°C | 2.9% | 0hPa | 2.6V | 00:00:00 | 02:08:35 | 00:00:00 | |
| IW2NTF | 2026-09-01 12:43:35 | 45.61842 | 9.51910 | 38° | 13km/h | 29537m | -1.9m/s | -44.3°C | 2.9% | 0hPa | 2.6V | 08:30:00 | 02:08:31 | 00:00:00 | |
| DO3MHA-11 | 2026-09-01 12:43:26 | 45.61834 | 9.51844 | 341° | 29km/h | 29501m | 14.3m/s | -44.6°C | 2.9% | 0hPa | 2.6V | 00:00:00 | 02:08:25 | 00:00:00 | |
| IW2NTF | 2026-09-01 12:43:24 | 45.61831 | 9.51859 | 81° | 27km/h | 29480m | 12.7m/s | -44.5°C | 2.9% | 0hPa | 2.6V | 08:30:00 | 02:08:21 | 00:00:00 | |
| OE5DRO-10 | 2026-09-01 12:43:19 | 45.61819 | 9.51809 | 53° | 24km/h | 29466m | 3.5m/s | -44.4°C | 2.9% | 0hPa | 2.6V | 00:00:00 | 00:00:00 | 00:00:00 | |
| DO3MHA-11 | 2026-09-01 12:43:16 | 45.61818 | 9.51815 | 221° | 27km/h | 29442m | 1.2m/s | -44.5°C | 2.9% | 0hPa | 2.6V | 00:00:00 | 02:08:15 | 00:00:00 | |
| IW2NTF | 2026-09-01 12:43:15 | 45.61810 | 9.51764 | 62° | 35km/h | 29415m | 2.6m/s | -44.7°C | 2.9% | 0hPa | 2.6V | 08:30:00 | 02:08:10 | 00:00:00 | |
| DB0UT-7 | 2026-09-01 12:43:07 | 45.61819 | 9.51753 | 187° | 27km/h | 29391m | 1.9m/s | -44.9°C | 3.0% | 0hPa | 2.6V | 00:00:00 | 02:08:06 | 00:00:00 | |
| DO3MHA-11 | 2026-09-01 12:43:06 | 45.61821 | 9.51752 | 80° | 27km/h | 29388m | 5.0m/s | -44.9°C | 3.0% | 0hPa | 2.6V | 00:00:00 | 02:08:05 | 00:00:00 | |
| IW2NTF | 2026-09-01 12:43:04 | 45.61806 | 9.51694 | 189° | 13km/h | 29353m | 7.5m/s | -45.2°C | 3.1% | 0hPa | 2.6V | 08:30:00 | 02:07:59 | 00:00:00 | |
| OE5DRO-10 | 2026-09-01 12:42:59 | 45.61808 | 9.51698 | 268° | 29km/h | 29347m | 5.9m/s | -45.2°C | 3.0% | 0hPa | 2.6V | 00:00:00 | 00:00:00 | 00:00:00 | |
| DO3MHA-11 | 2026-09-01 12:42:56 | 45.61796 | 9.51700 | 57° | 31km/h | 29332m | 7.5m/s | -45.2°C | 3.0% | 0hPa | 2.6V | 00:00:00 | 02:07:55 | 00:00:00 | |
| NBG1-10 | 2026-09-01 12:42:53 | 45.61793 | 9.51658 | 80° | 26km/h | 29317m | 1.4m/s | -45.3°C | 3.1% | 0hPa | 2.6V | 00:00:00 | 02:07:52 | 00:00:00 | |
| IW2NTF | 2026-09-01 12:42:52 | 45.61774 | 9.51652 | 337° | 47km/h | 29298m | 3.6m/s | -45.2°C | 3.2% | 0hPa | 2.7V | 08:30:00 | 02:07:49 | 00:00:00 | |
| PG1ADW-2 | 2026-09-01 12:42:52 | 45.61790 | 9.51650 | 38° | 16km/h | 29314m | 6.3m/s | 0°C | 0% | 0hPa | 2.6V | 00:00:00 | 00:00:00 | 00:00:00 | |
| DO3MHA-11 | 2026-09-01 12:42:46 | 45.61770 | 9.51632 | 118° | 38km/h | 29277m | 5.1m/s | -45.1°C | 3.1% | 0hPa | 2.6V | 00:00:00 | 02:07:45 | 00:00:00 | |
| IW2NTF | 2026-09-01 12:42:43 | 45.61737 | 9.51599 | 110° | 27km/h | 29244m | 12.1m/s | -45.3°C | 3.2% | 0hPa | 2.7V | 08:30:00 | 02:07:38 | 00:00:00 | |
| OE5DRO-10 | 2026-09-01 12:42:40 | 45.61736 | 9.51604 | 43° | 15km/h | 29253m | 4.9m/s | -45.2°C | 3.1% | 0hPa | 2.6V | 00:00:00 | 00:00:00 | 08:30:00 | |
| DB0UT-7 | 2026-09-01 12:42:37 | 45.61738 | 9.51565 | 64° | 27km/h | 29234m | -1.1m/s | -45.1°C | 3.0% | 0hPa | 2.7V | 00:00:00 | 00:00:00 | 00:00:00 | |
| DO3MHA-11 | 2026-09-01 12:42:36 | 45.61732 | 9.51554 | 37° | 29km/h | 29231m | 6.5m/s | -45.1°C | 3.0% | 0hPa | 2.6V | 00:00:00 | 02:07:35 | 00:00:00 | |
| IW2NTF | 2026-09-01 12:42:32 | 45.61710 | 9.51521 | 35° | 37km/h | 29189m | 1.4m/s | -45°C | 3.1% | 0hPa | 2.6V | 08:30:00 | 02:07:28 | 00:00:00 | |
| DO3MHA-11 | 2026-09-01 12:42:24 | 45.61697 | 9.51530 | 80° | 27km/h | 29159m | 12.0m/s | -44.7°C | 3.0% | 0hPa | 2.6V | 00:00:00 | 02:07:23 | 00:00:00 | |
| IW2NTF | 2026-09-01 12:42:21 | 45.61678 | 9.51510 | 70° | 24km/h | 29114m | 13.1m/s | -44.8°C | 3% | 0hPa | 2.6V | 08:30:00 | 02:07:15 | 00:00:00 | |
| OE5DRO-10 | 2026-09-01 12:42:21 | 45.61676 | 9.51495 | 11° | 24km/h | 29147m | 4.0m/s | -44.7°C | 3.0% | 0hPa | 2.7V | 00:00:00 | 00:00:00 | 00:00:00 | |
| NBG1-10 | 2026-09-01 12:42:17 | 45.61679 | 9.51516 | 104° | 20km/h | 29124m | 4.1m/s | -44.7°C | 3.0% | 0hPa | 2.7V | 00:00:00 | 02:07:16 | 00:00:00 | |
| DO3MHA-11 | 2026-09-01 12:42:14 | 45.61662 | 9.51483 | 36° | 29km/h | 29100m | -0.9m/s | -44.7°C | 3.1% | 0hPa | 2.7V | 00:00:00 | 02:07:13 | 08:30:00 | |
| DO3MHA-11 | 2026-09-01 12:42:04 | 45.61638 | 9.51468 | 309° | 20km/h | 29043m | 7.7m/s | -44.6°C | 3.0% | 0hPa | 2.7V | 00:00:00 | 02:07:03 | 00:00:00 | |
| PG1ADW-2 | 2026-09-01 12:42:02 | 45.61643 | 9.51477 | 200° | 22km/h | 29028m | 5.1m/s | 0°C | 0% | 0hPa | 2.7V | 00:00:00 | 00:00:00 | 00:00:00 | |
| DO3MHA-11 | 2026-09-01 12:41:54 | 45.61624 | 9.51469 | 220° | 20km/h | 28985m | 7.1m/s | -44.5°C | 3.0% | 0hPa | 2.7V | 00:00:00 | 02:06:53 | 00:00:00 | |
| DO3MHA-11 | 2026-09-01 12:41:44 | 45.61608 | 9.51491 | 224° | 22km/h | 28929m | 6.0m/s | -44.5°C | 3.0% | 0hPa | 2.7V | 00:00:00 | 02:06:43 | 00:00:00 | |
| OE5DRO-10 | 2026-09-01 12:41:43 | 45.61612 | 9.51495 | 216° | 22km/h | 28923m | 5.3m/s | 0°C | 0% | 0hPa | 2.6V | 00:00:00 | 00:00:00 | 00:00:00 | |
| IW2NTF | 2026-09-01 12:41:42 | 45.61613 | 9.51504 | 345° | 24km/h | 28908m | 6.4m/s | -44.5°C | 3% | 0hPa | 2.6V | 08:30:00 | 02:06:39 | 00:00:00 | |
| DO3MHA-11 | 2026-09-01 12:41:34 | 45.61610 | 9.51501 | 166° | 29km/h | 28875m | 1.0m/s | -44.3°C | 2.9% | 0hPa | 2.6V | 00:00:00 | 02:06:33 | 00:00:00 | |
| IW2NTF | 2026-09-01 12:41:32 | 45.61601 | 9.51512 | 338° | 47km/h | 28851m | 0.2m/s | -44.5°C | 2.9% | 0hPa | 2.6V | 08:30:00 | 02:06:29 | 00:00:00 | |
| DL2OL | 2026-09-01 12:41:32 | 45.61617 | 9.51499 | 182° | 13km/h | 28873m | 2.9m/s | -44.4°C | 0.9% | 0hPa | 2.6V | 00:00:00 | 00:00:00 | 00:00:00 | |
| DO3MHA-11 | 2026-09-01 12:41:24 | 45.61615 | 9.51485 | 152° | 27km/h | 28825m | 6.2m/s | -44.4°C | 3.1% | 0hPa | 2.6V | 00:00:00 | 02:06:23 | 00:00:00 | |
| IW2NTF | 2026-09-01 12:41:12 | 45.61604 | 9.51483 | 29° | 18km/h | 28753m | 3.4m/s | -44.4°C | 3% | 0hPa | 2.6V | 08:30:00 | 02:06:11 | 00:00:00 | |
| DO3MHA-11 | 2026-09-01 12:41:12 | 45.61604 | 9.51483 | 30° | 26km/h | 28754m | 3.4m/s | -44.4°C | 3.0% | 0hPa | 2.6V | 00:00:00 | 02:06:11 | 00:00:00 | |
| NBG1-10 | 2026-09-01 12:41:11 | 45.61602 | 9.51477 | 88° | 22km/h | 28747m | 9.3m/s | -44.4°C | 2.9% | 0hPa | 2.6V | 00:00:00 | 02:06:10 | 00:00:00 | |
| OE5DRO-10 | 2026-09-01 12:41:03 | 45.61606 | 9.51460 | 85° | 20km/h | 28698m | 6.3m/s | 0°C | 0% | 0hPa | 2.7V | 00:00:00 | 00:00:00 | 00:00:00 | |
| DO3MHA-11 | 2026-09-01 12:41:02 | 45.61608 | 9.51454 | 138° | 18km/h | 28691m | 7.0m/s | -44.5°C | 3.0% | 0hPa | 2.7V | 00:00:00 | 02:06:01 | 00:00:00 | |
| IW2NTF | 2026-09-01 12:40:52 | 45.61638 | 9.51428 | 106° | 44km/h | 28625m | 8.3m/s | -44.8°C | 3.1% | 0hPa | 2.7V | 08:30:00 | 02:05:49 | 00:00:00 | |
| DB0UT-7 | 2026-09-01 12:40:52 | 45.61628 | 9.51442 | 188° | 33km/h | 28635m | 1.9m/s | -44.6°C | 3.1% | 0hPa | 2.6V | 00:00:00 | 02:05:51 | 08:30:00 | |
| OE5DRO-10 | 2026-09-01 12:40:44 | 45.61629 | 9.51412 | 148° | 26km/h | 28590m | 7.0m/s | 0°C | 0% | 0hPa | 2.6V | 00:00:00 | 00:00:00 | 00:00:00 | |
| DO3MHA-11 | 2026-09-01 12:40:42 | 45.61634 | 9.51383 | 65° | 38km/h | 28577m | 4.8m/s | -44.6°C | 2.9% | 0hPa | 2.6V | 00:00:00 | 02:05:41 | 08:30:00 | |
| IW2NTF | 2026-09-01 12:40:40 | 45.61620 | 9.51341 | 59° | 47km/h | 28538m | -3.5m/s | -44.4°C | 3% | 0hPa | 2.6V | 08:30:00 | 02:05:34 | 00:00:00 | |
| DO3MHA-11 | 2026-09-01 12:40:33 | 45.61610 | 9.51329 | 241° | 29km/h | 28518m | 16.0m/s | -44.4°C | 3.0% | 0hPa | 2.7V | 00:00:00 | 02:05:31 | 00:00:00 | |
| IW2NTF | 2026-09-01 12:40:22 | 45.61615 | 9.51298 | 118° | 9km/h | 28457m | 6m/s | -44.6°C | 2.9% | 0hPa | 2.7V | 08:30:00 | 02:05:20 | 00:00:00 | |
| DO3MHA-11 | 2026-09-01 12:40:22 | 45.61612 | 9.51298 | 200° | 31km/h | 28459m | -2.6m/s | -44.6°C | 3.0% | 0hPa | 2.6V | 00:00:00 | 02:05:21 | 00:00:00 | |
| IW2NTF | 2026-09-01 12:40:13 | 45.61601 | 9.51228 | 351° | 31km/h | 28385m | 2.1m/s | -44.8°C | 3% | 0hPa | 2.6V | 08:30:00 | 02:05:09 | 00:00:00 | |
| DO3MHA-11 | 2026-09-01 12:40:12 | 45.61615 | 9.51243 | 85° | 33km/h | 28399m | 9.9m/s | -44.7°C | 3.0% | 0hPa | 2.6V | 00:00:00 | 02:05:11 | 00:00:00 | |
| DL2OL | 2026-09-01 12:40:08 | 45.61597 | 9.51232 | 285° | 16km/h | 28381m | 5.9m/s | -44.8°C | 0.9% | 0hPa | 2.7V | 00:00:00 | 00:00:00 | 00:00:00 | |
| OE5DRO-10 | 2026-09-01 12:40:02 | 45.61599 | 9.51212 | 245° | 18km/h | 28341m | 6.0m/s | 0°C | 0% | 0hPa | 2.7V | 00:00:00 | 00:00:00 | 00:00:00 | |
| IW2NTF | 2026-09-01 12:40:01 | 45.61601 | 9.51190 | 234° | 13km/h | 28298m | 3.5m/s | -45°C | 3% | 0hPa | 2.7V | 08:30:00 | 02:04:54 | 00:00:00 | |
| DO3MHA-11 | 2026-09-01 12:40:01 | 45.61603 | 9.51215 | 177° | 35km/h | 28332m | 11.2m/s | -44.8°C | 2.9% | 0hPa | 2.7V | 00:00:00 | 02:05:00 | 00:00:00 | |
| NBG1-10 | 2026-09-01 12:39:59 | 45.61618 | 9.51194 | 97° | 22km/h | 28321m | 1.3m/s | -44.8°C | 2.9% | 0hPa | 2.7V | 00:00:00 | 02:04:58 | 00:00:00 | |
| DO3MHA-11 | 2026-09-01 12:39:51 | 45.61613 | 9.51157 | 53° | 22km/h | 28277m | 6.3m/s | -45.2°C | 3.0% | 0hPa | 2.7V | 00:00:00 | 02:04:50 | 00:00:00 | |
| IW2NTF | 2026-09-01 12:39:49 | 45.61599 | 9.51140 | 56° | 26km/h | 28232m | 3.1m/s | -45.6°C | 3% | 0hPa | 2.7V | 08:30:00 | 02:04:43 | 00:00:00 | |
| DL2OL | 2026-09-01 12:39:48 | 45.61602 | 9.51162 | 304° | 44km/h | 28258m | 5.1m/s | -45.3°C | 0.9% | 0hPa | 2.7V | 00:00:00 | 00:00:00 | 00:00:00 | |
| OE5DRO-10 | 2026-09-01 12:39:40 | 45.61584 | 9.51151 | 23° | 11km/h | 28209m | 6.6m/s | 0°C | 0% | 0hPa | 2.7V | 00:00:00 | 00:00:00 | 00:00:00 | |
| DO3MHA-11 | 2026-09-01 12:39:39 | 45.61584 | 9.51146 | 96° | 31km/h | 28199m | 11.8m/s | -45.8°C | 3.1% | 0hPa | 2.7V | 00:00:00 | 02:04:38 | 00:00:00 | |
| IW2NTF | 2026-09-01 12:39:37 | 45.61562 | 9.51138 | 34° | 13km/h | 28159m | 11.3m/s | -46°C | 3.1% | 0hPa | 2.7V | 08:30:00 | 02:04:31 | 00:00:00 | |
| IW2NTF | 2026-09-01 12:39:22 | 45.61531 | 9.51122 | 335° | 7km/h | 28076m | 3.2m/s | -46.5°C | 3.2% | 0hPa | 2.6V | 08:30:00 | 02:04:16 | 00:00:00 | |
| DO3MHA-11 | 2026-09-01 12:39:19 | 45.61535 | 9.51101 | 281° | 29km/h | 28079m | 10.8m/s | -46.3°C | 3.2% | 0hPa | 2.7V | 00:00:00 | 02:04:18 | 00:00:00 | |
| OE5DRO-10 | 2026-09-01 12:39:17 | 45.61530 | 9.51122 | 336° | 16km/h | 28077m | 3.2m/s | 0°C | 0% | 0hPa | 2.7V | 00:00:00 | 00:00:00 | 08:30:00 | |
| DB0UT-7 | 2026-09-01 12:39:13 | 45.61519 | 9.51080 | 64° | 29km/h | 28050m | 2.3m/s | -46.5°C | 3.2% | 0hPa | 2.7V | 00:00:00 | 02:04:12 | 00:00:00 | |
| DO3MHA-11 | 2026-09-01 12:39:09 | 45.61524 | 9.51099 | 221° | 20km/h | 28025m | 2.5m/s | -46.6°C | 3.2% | 0hPa | 2.7V | 00:00:00 | 02:04:08 | 08:30:00 | |
| IW2NTF | 2026-09-01 12:39:08 | 45.61512 | 9.51076 | 46° | 46km/h | 28003m | 2.8m/s | -46.6°C | 3.2% | 0hPa | 2.6V | 08:30:00 | 02:04:05 | 00:00:00 | |
| NBG1-10 | 2026-09-01 12:39:01 | 45.61514 | 9.51066 | 288° | 31km/h | 27976m | 4.0m/s | -46.7°C | 3.3% | 0hPa | 2.7V | 00:00:00 | 02:04:00 | 00:00:00 | |
| DO3MHA-11 | 2026-09-01 12:38:59 | 45.61505 | 9.51065 | 10° | 31km/h | 27962m | 7.2m/s | -46.7°C | 3.4% | 0hPa | 2.7V | 00:00:00 | 02:03:58 | 00:00:00 | |
| OE5DRO-10 | 2026-09-01 12:38:57 | 45.61491 | 9.51053 | 68° | 24km/h | 27954m | 4.9m/s | 0°C | 0% | 0hPa | 2.7V | 00:00:00 | 00:00:00 | 00:00:00 | |
| IW2NTF | 2026-09-01 12:38:54 | 45.61183 | 9.50650 | 28° | 13km/h | 27325m | 11.7m/s | -45.7°C | 3.1% | 0hPa | 2.7V | 08:30:00 | 02:02:04 | 00:00:00 | |
| DO3MHA-11 | 2026-09-01 12:38:49 | 45.61485 | 9.51013 | 101° | 44km/h | 27907m | 9.0m/s | -46.5°C | 3.2% | 0hPa | 2.6V | 00:00:00 | 02:03:48 | 00:00:00 | |
| IW2NTF | 2026-09-01 12:38:48 | 45.60256 | 9.51445 | 323° | 27km/h | 23925m | 5.3m/s | -52.5°C | 4.2% | 0hPa | 2.6V | 08:30:00 | 01:51:37 | 00:00:00 | |
| IW2NTF | 2026-09-01 12:38:48 | 45.60279 | 9.51521 | 265° | 33km/h | 23619m | 2.7m/s | -52.7°C | 4.2% | 0hPa | 2.7V | 08:30:00 | 01:50:39 | 00:00:00 | |
| IW2NTF | 2026-09-01 12:38:48 | 45.60302 | 9.51517 | 43° | 22km/h | 23597m | 6.7m/s | -52.7°C | 4.1% | 0hPa | 2.6V | 08:30:00 | 01:50:35 | 00:00:00 | |
| IW2NTF | 2026-09-01 12:38:48 | 45.60292 | 9.51529 | 271° | 40km/h | 23585m | 1.3m/s | -52.8°C | 4.1% | 0hPa | 2.7V | 08:30:00 | 01:50:33 | 00:00:00 | |
| IW2NTF | 2026-09-01 12:38:48 | 45.60303 | 9.51541 | 158° | 38km/h | 23575m | 9.1m/s | -52.9°C | 4.1% | 0hPa | 2.6V | 08:30:00 | 01:50:31 | 00:00:00 | |
| IW2NTF | 2026-09-01 12:38:48 | 45.60315 | 9.51520 | 34° | 26km/h | 23533m | 1.6m/s | -53.3°C | 4.3% | 0hPa | 2.7V | 08:30:00 | 01:50:23 | 00:00:00 | |
| DB0UT-7 | 2026-09-01 12:38:41 | 45.61488 | 9.50953 | 150° | 37km/h | 27861m | 3.8m/s | -46.5°C | 3.3% | 0hPa | 2.6V | 00:00:00 | 00:00:00 | 00:00:00 | |
| DO3MHA-11 | 2026-09-01 12:38:39 | 45.61494 | 9.50952 | 329° | 38km/h | 27851m | 8.6m/s | -46.6°C | 3.3% | 0hPa | 2.7V | 00:00:00 | 02:03:38 | 00:00:00 | |
| DO3MHA-11 | 2026-09-01 12:38:29 | 45.61452 | 9.50869 | 82° | 35km/h | 27792m | 6.2m/s | -46.5°C | 3.3% | 0hPa | 2.7V | 00:00:00 | 02:03:28 | 00:00:00 | |
| OE5DRO-10 | 2026-09-01 12:38:26 | 45.61462 | 9.50846 | 308° | 20km/h | 27774m | 4.4m/s | 0°C | 0% | 0hPa | 2.7V | 00:00:00 | 00:00:00 | 00:00:00 | |
| DO3MHA-11 | 2026-09-01 12:38:19 | 45.61445 | 9.50797 | 292° | 40km/h | 27737m | 5.2m/s | -46.4°C | 3.3% | 0hPa | 2.7V | 00:00:00 | 02:03:18 | 00:00:00 | |
| DO3MHA-11 | 2026-09-01 12:38:09 | 45.61392 | 9.50754 | 51° | 37km/h | 27683m | 1.3m/s | -46.3°C | 3.3% | 0hPa | 2.7V | 00:00:00 | 02:03:08 | 00:00:00 | |
| OE5DRO-10 | 2026-09-01 12:38:05 | 45.61395 | 9.50733 | 325° | 24km/h | 27660m | 3.7m/s | 0°C | 0% | 0hPa | 2.6V | 00:00:00 | 00:00:00 | 00:00:00 | |
| DO3MHA-11 | 2026-09-01 12:37:59 | 45.61365 | 9.50701 | 243° | 29km/h | 27622m | 3.6m/s | -46.2°C | 3.3% | 0hPa | 2.6V | 00:00:00 | 02:02:58 | 00:00:00 | |
| NBG1-10 | 2026-09-01 12:37:51 | 45.61334 | 9.50688 | 336° | 20km/h | 27582m | 0.8m/s | -45.8°C | 3.2% | 0hPa | 2.6V | 00:00:00 | 02:02:50 | 08:30:00 | |
| DO3MHA-11 | 2026-09-01 12:37:49 | 45.61323 | 9.50681 | 52° | 37km/h | 27567m | 10.8m/s | -45.9°C | 3.2% | 0hPa | 2.6V | 00:00:00 | 02:02:48 | 00:00:00 | |
| OE5DRO-10 | 2026-09-01 12:37:43 | 45.61306 | 9.50673 | 350° | 18km/h | 27542m | 3.9m/s | 0°C | 0% | 0hPa | 2.6V | 00:00:00 | 00:00:00 | 00:00:00 | |
| DO3MHA-11 | 2026-09-01 12:37:39 | 45.61290 | 9.50634 | 57° | 24km/h | 27517m | 4.1m/s | -45.7°C | 3.1% | 0hPa | 2.6V | 00:00:00 | 02:02:38 | 08:30:00 | |
| DB0UT-7 | 2026-09-01 12:37:36 | 45.61283 | 9.50654 | 312° | 24km/h | 27498m | -0.4m/s | -45.8°C | 3.2% | 0hPa | 2.6V | 00:00:00 | 02:02:35 | 00:00:00 | |
| DL2OL | 2026-09-01 12:37:33 | 45.61273 | 9.50653 | 54° | 35km/h | 27485m | 12.0m/s | -45.7°C | 1.0% | 0hPa | 2.6V | 00:00:00 | 00:00:00 | 00:00:00 | |
| DO3MHA-11 | 2026-09-01 12:37:27 | 45.61252 | 9.50649 | 42° | 26km/h | 27446m | 11.4m/s | -45.4°C | 3.0% | 0hPa | 2.6V | 00:00:00 | 02:02:26 | 00:00:00 | |
| OE5DRO-10 | 2026-09-01 12:37:18 | 45.61225 | 9.50631 | 73° | 20km/h | 27395m | -2.0m/s | 0°C | 0% | 0hPa | 2.6V | 00:00:00 | 00:00:00 | 00:00:00 | |
| DO3MHA-11 | 2026-09-01 12:37:17 | 45.61223 | 9.50625 | 31° | 24km/h | 27394m | 4.3m/s | -45.7°C | 3.1% | 0hPa | 2.6V | 00:00:00 | 02:02:16 | 00:00:00 | |
| DB0UT-7 | 2026-09-01 12:37:06 | 45.61186 | 9.50650 | 331° | 24km/h | 27332m | 2.6m/s | -45.6°C | 3.1% | 0hPa | 2.6V | 00:00:00 | 00:00:00 | 00:00:00 | |
| OE5DRO-10 | 2026-09-01 12:36:59 | 45.61161 | 9.50640 | 311° | 22km/h | 27290m | -0.2m/s | 0°C | 0% | 0hPa | 2.6V | 00:00:00 | 00:00:00 | 00:00:00 | |
| DO3MHA-11 | 2026-09-01 12:36:56 | 45.61155 | 9.50624 | 83° | 27km/h | 27269m | 0.2m/s | -45.8°C | 3.0% | 0hPa | 2.6V | 00:00:00 | 02:01:55 | 00:00:00 | |
| DO3MHA-11 | 2026-09-01 12:36:43 | 45.61124 | 9.50635 | 304° | 18km/h | 27197m | 3.4m/s | -46.5°C | 3.2% | 0hPa | 2.6V | 00:00:00 | 02:01:42 | 00:00:00 | |
| OE5DRO-10 | 2026-09-01 12:36:39 | 45.61105 | 9.50616 | 26° | 22km/h | 27175m | 2.5m/s | 0°C | 0% | 0hPa | 2.6V | 00:00:00 | 00:00:00 | 00:00:00 | |
| BAUMI2-15 | 2026-09-01 12:36:35 | 45.61108 | 9.50623 | 255° | 20km/h | 27153m | 3.1m/s | 0°C | 0% | 0hPa | 2.6V | 00:00:00 | 02:01:34 | 00:00:00 | |
| DO3MHA-11 | 2026-09-01 12:36:33 | 45.61099 | 9.50629 | 348° | 26km/h | 27142m | 8.0m/s | -46.8°C | 3.2% | 0hPa | 2.6V | 00:00:00 | 02:01:32 | 00:00:00 | |
| DO3MHA-11 | 2026-09-01 12:36:23 | 45.61073 | 9.50633 | 46° | 27km/h | 27093m | 4.7m/s | -47.1°C | 3.4% | 0hPa | 2.6V | 00:00:00 | 02:01:22 | 00:00:00 | |
| DO3MHA-11 | 2026-09-01 12:36:13 | 45.61077 | 9.50602 | 178° | 29km/h | 27036m | 0.3m/s | -47.1°C | 3.3% | 0hPa | 2.6V | 00:00:00 | 02:01:12 | 00:00:00 | |
| DO3MHA-11 | 2026-09-01 12:36:03 | 45.61077 | 9.50596 | 19° | 24km/h | 26980m | 3.7m/s | -47.1°C | 3.3% | 0hPa | 2.6V | 00:00:00 | 02:01:02 | 08:30:00 | |
| DB0UT-7 | 2026-09-01 12:36:01 | 45.61072 | 9.50582 | 117° | 26km/h | 26974m | 8.8m/s | -47.1°C | 3.3% | 0hPa | 2.6V | 00:00:00 | 00:00:00 | 00:00:00 | |
| OE5DRO-10 | 2026-09-01 12:35:58 | 45.61092 | 9.50579 | 174° | 16km/h | 26960m | 3.7m/s | 0°C | 0% | 0hPa | 2.6V | 00:00:00 | 00:00:00 | 08:30:00 | |
| DO3MHA-11 | 2026-09-01 12:35:53 | 45.61085 | 9.50545 | 139° | 24km/h | 26930m | 14.3m/s | -47.3°C | 3.4% | 0hPa | 2.6V | 00:00:00 | 02:00:52 | 00:00:00 | |
| S52SK | 2026-09-01 12:35:50 | 45.61104 | 9.50551 | 188° | 26km/h | 26915m | -4.0m/s | 0°C | 0% | 0hPa | 2.6V | 00:00:00 | 00:00:00 | 00:00:00 | |
| DO3MHA-11 | 2026-09-01 12:35:42 | 45.61119 | 9.50508 | 111° | 24km/h | 26867m | 4.7m/s | -47.2°C | 3.4% | 0hPa | 2.6V | 00:00:00 | 02:00:41 | 00:00:00 | |
| OE5DRO-10 | 2026-09-01 12:35:38 | 45.61106 | 9.50460 | 91° | 22km/h | 26843m | 4.9m/s | 0°C | 0% | 0hPa | 2.6V | 00:00:00 | 00:00:00 | 00:00:00 | |
| DO3MHA-11 | 2026-09-01 12:35:32 | 45.61119 | 9.50432 | 70° | 33km/h | 26804m | 6.8m/s | -47.2°C | 3.3% | 0hPa | 2.6V | 00:00:00 | 02:00:31 | 00:00:00 | |
| DB0UT-7 | 2026-09-01 12:35:30 | 45.61112 | 9.50402 | 79° | 20km/h | 26795m | 4.8m/s | -47.3°C | 3.4% | 0hPa | 2.7V | 00:00:00 | 02:00:29 | 00:00:00 | |
| DL2OL | 2026-09-01 12:35:27 | 45.61112 | 9.50394 | 221° | 7km/h | 26781m | 6.5m/s | -47.3°C | 1.1% | 0hPa | 2.7V | 00:00:00 | 00:00:00 | 00:00:00 | |
| DO3MHA-11 | 2026-09-01 12:35:22 | 45.61100 | 9.50351 | 34° | 29km/h | 26749m | 3.6m/s | -47.3°C | 3.4% | 0hPa | 2.7V | 00:00:00 | 02:00:21 | 00:00:00 | |
| OE5DRO-10 | 2026-09-01 12:35:19 | 45.61101 | 9.50330 | 133° | 20km/h | 26731m | 6.2m/s | 0°C | 0% | 0hPa | 2.7V | 00:00:00 | 00:00:00 | 00:00:00 | |
| DO3MHA-11 | 2026-09-01 12:35:12 | 45.61085 | 9.50279 | 110° | 35km/h | 26693m | 8.8m/s | -47.2°C | 3.4% | 0hPa | 2.7V | 00:00:00 | 02:00:11 | 00:00:00 | |
| DO3MHA-11 | 2026-09-01 12:35:02 | 45.61081 | 9.50239 | 315° | 31km/h | 26636m | 5.2m/s | -47.2°C | 3.3% | 0hPa | 2.7V | 00:00:00 | 02:00:01 | 00:00:00 | |
| OE5DRO-10 | 2026-09-01 12:34:54 | 45.61060 | 9.50219 | 16° | 18km/h | 26592m | 0.9m/s | 0°C | 0% | 0hPa | 2.6V | 00:00:00 | 00:00:00 | 00:00:00 | |
| DO3MHA-11 | 2026-09-01 12:34:52 | 45.61055 | 9.50200 | 101° | 33km/h | 26577m | 10.3m/s | -47.1°C | 3.4% | 0hPa | 2.6V | 00:00:00 | 01:59:51 | 00:00:00 | |
| S52SK | 2026-09-01 12:34:49 | 45.61062 | 9.50176 | 136° | 9km/h | 26572m | 3.0m/s | 0°C | 0% | 0hPa | 2.6V | 00:00:00 | 00:00:00 | 00:00:00 | |
| DO3MHA-11 | 2026-09-01 12:34:42 | 45.61047 | 9.50159 | 261° | 22km/h | 26522m | 7.9m/s | -47.2°C | 3.3% | 0hPa | 2.6V | 00:00:00 | 01:59:41 | 00:00:00 | |
| DL2OL | 2026-09-01 12:34:34 | 45.61031 | 9.50141 | 177° | 4km/h | 26480m | 4.1m/s | -47.3°C | 1.1% | 0hPa | 2.6V | 00:00:00 | 00:00:00 | 00:00:00 | |
| DO3MHA-11 | 2026-09-01 12:34:32 | 45.61021 | 9.50130 | 47° | 29km/h | 26462m | 6.1m/s | -47.3°C | 3.3% | 0hPa | 2.6V | 00:00:00 | 01:59:31 | 08:30:00 | |
| OE5DRO-10 | 2026-09-01 12:34:30 | 45.61010 | 9.50114 | 29° | 18km/h | 26454m | 4.3m/s | 0°C | 0% | 0hPa | 2.6V | 00:00:00 | 00:00:00 | 00:00:00 | |
| DO3MHA-11 | 2026-09-01 12:34:22 | 45.60983 | 9.50077 | 351° | 33km/h | 26412m | 9.1m/s | -47.7°C | 3.4% | 0hPa | 2.6V | 00:00:00 | 01:59:21 | 00:00:00 | |
| S52SK | 2026-09-01 12:34:16 | 45.60962 | 9.50053 | 20° | 49km/h | 26379m | 3.0m/s | 0°C | 0% | 0hPa | 2.6V | 00:00:00 | 00:00:00 | 00:00:00 | |
| DO3MHA-11 | 2026-09-01 12:34:11 | 45.60945 | 9.50043 | 66° | 46km/h | 26350m | 5.8m/s | -47.7°C | 3.4% | 0hPa | 2.6V | 00:00:00 | 01:59:10 | 00:00:00 | |
| OE5DRO-10 | 2026-09-01 12:34:06 | 45.60917 | 9.50040 | 82° | 24km/h | 26326m | 1.7m/s | 0°C | 0% | 0hPa | 2.6V | 00:00:00 | 00:00:00 | 00:00:00 | |
| DO3MHA-11 | 2026-09-01 12:34:01 | 45.60876 | 9.50006 | 322° | 31km/h | 26295m | 12.3m/s | -47.8°C | 3.3% | 0hPa | 2.6V | 00:00:00 | 01:59:00 | 00:00:00 | |
| DO3MHA-11 | 2026-09-01 12:33:51 | 45.60833 | 9.49966 | 34° | 27km/h | 26245m | 5.4m/s | -48.5°C | 3.5% | 0hPa | 2.7V | 00:00:00 | 01:58:50 | 00:00:00 | |
| DO3MHA-11 | 2026-09-01 12:33:39 | 45.60748 | 9.49984 | 261° | 24km/h | 26176m | 12.2m/s | -48.7°C | 3.6% | 0hPa | 2.7V | 00:00:00 | 01:58:38 | 00:00:00 | |
| S52SK | 2026-09-01 12:33:38 | 45.60751 | 9.49980 | 127° | 35km/h | 26167m | 6.5m/s | 0°C | 0% | 0hPa | 2.7V | 00:00:00 | 00:00:00 | 00:00:00 | |
| DO3MHA-11 | 2026-09-01 12:33:29 | 45.60707 | 9.49993 | 350° | 29km/h | 26123m | 6.8m/s | -48.7°C | 3.5% | 0hPa | 2.7V | 00:00:00 | 01:58:28 | 00:00:00 | |
| DO3MHA-11 | 2026-09-01 12:33:18 | 45.60673 | 9.50062 | 62° | 26km/h | 26061m | 9.7m/s | -48.9°C | 3.5% | 0hPa | 2.6V | 00:00:00 | 01:58:17 | 00:00:00 | |
| DO3MHA-11 | 2026-09-01 12:33:08 | 45.60642 | 9.50107 | 269° | 29km/h | 26007m | 11.7m/s | -48.9°C | 3.6% | 0hPa | 2.6V | 00:00:00 | 01:58:07 | 00:00:00 | |
| DO3MHA-11 | 2026-09-01 12:32:58 | 45.60638 | 9.50178 | 272° | 24km/h | 25960m | 2.1m/s | -49.0°C | 3.6% | 0hPa | 2.6V | 00:00:00 | 01:57:57 | 08:30:00 | |
| OE5DRO-10 | 2026-09-01 12:32:54 | 45.60609 | 9.50175 | 345° | 24km/h | 25937m | 1.9m/s | 0°C | 0% | 0hPa | 2.7V | 00:00:00 | 00:00:00 | 00:00:00 | |
| DO3MHA-11 | 2026-09-01 12:32:46 | 45.60585 | 9.50208 | 341° | 22km/h | 25895m | 0.3m/s | -48.9°C | 3.6% | 0hPa | 2.7V | 00:00:00 | 01:57:45 | 00:00:00 | |
| NBG1-10 | 2026-09-01 12:32:42 | 45.60594 | 9.50218 | 254° | 26km/h | 25874m | 0.7m/s | -49.0°C | 3.5% | 0hPa | 2.7V | 00:00:00 | 01:57:41 | 00:00:00 | |
| DO3MHA-11 | 2026-09-01 12:32:35 | 45.60564 | 9.50228 | 256° | 27km/h | 25836m | 1.0m/s | -49.0°C | 3.5% | 0hPa | 2.7V | 00:00:00 | 01:57:34 | 00:00:00 | |
| DB0UT-7 | 2026-09-01 12:32:29 | 45.60551 | 9.50242 | 230° | 29km/h | 25805m | 3.5m/s | -49.4°C | 3.7% | 0hPa | 2.7V | 00:00:00 | 00:00:00 | 08:30:00 | |
| DO3MHA-11 | 2026-09-01 12:32:25 | 45.60526 | 9.50265 | 27° | 27km/h | 25783m | 2.3m/s | -49.6°C | 3.7% | 0hPa | 2.7V | 00:00:00 | 01:57:24 | 00:00:00 | |
| DO3MHA-11 | 2026-09-01 12:32:15 | 45.60504 | 9.50286 | 280° | 27km/h | 25730m | 2.6m/s | -49.7°C | 3.7% | 0hPa | 2.6V | 00:00:00 | 01:57:14 | 00:00:00 | |
| NBG1-10 | 2026-09-01 12:32:08 | 45.60473 | 9.50310 | 287° | 27km/h | 25695m | 2.4m/s | -49.8°C | 3.8% | 0hPa | 2.6V | 00:00:00 | 01:57:07 | 00:00:00 | |
| DO3MHA-11 | 2026-09-01 12:32:05 | 45.60442 | 9.50335 | 8° | 31km/h | 25677m | 0.0m/s | -49.8°C | 3.8% | 0hPa | 2.6V | 00:00:00 | 01:57:04 | 00:00:00 | |
| DL2OL | 2026-09-01 12:32:01 | 45.60433 | 9.50329 | 240° | 33km/h | 25660m | 2.2m/s | -49.8°C | 1.2% | 0hPa | 2.6V | 00:00:00 | 00:00:00 | 00:00:00 | |
| DB0UT-7 | 2026-09-01 12:31:58 | 45.60400 | 9.50354 | 24° | 31km/h | 25639m | 1.0m/s | -49.8°C | 3.8% | 0hPa | 2.6V | 00:00:00 | 01:56:57 | 00:00:00 | |
| DO3MHA-11 | 2026-09-01 12:31:55 | 45.60397 | 9.50373 | 284° | 38km/h | 25621m | 0.7m/s | -49.9°C | 3.8% | 0hPa | 2.6V | 00:00:00 | 01:56:54 | 00:00:00 | |
| DO3MHA-11 | 2026-09-01 12:31:45 | 45.60335 | 9.50438 | 26° | 29km/h | 25564m | 1.9m/s | -49.6°C | 3.8% | 0hPa | 2.6V | 00:00:00 | 01:56:44 | 00:00:00 | |
| DO3MHA-11 | 2026-09-01 12:31:35 | 45.60317 | 9.50522 | 277° | 33km/h | 25510m | 2.9m/s | -49.5°C | 3.8% | 0hPa | 2.6V | 00:00:00 | 01:56:34 | 00:00:00 | |
| DO3MHA-11 | 2026-09-01 12:31:25 | 45.60279 | 9.50598 | 260° | 26km/h | 25455m | 5.3m/s | -49.1°C | 3.7% | 0hPa | 2.6V | 00:00:00 | 01:56:24 | 08:30:00 | |
| DO3MHA-11 | 2026-09-01 12:31:15 | 45.60285 | 9.50684 | 267° | 35km/h | 25399m | 1.5m/s | -48.9°C | 3.7% | 0hPa | 2.7V | 00:00:00 | 01:56:14 | 00:00:00 | |
| DL2OL | 2026-09-01 12:31:08 | 45.60280 | 9.50715 | 249° | 53km/h | 25364m | 3.4m/s | -49.0°C | 1.2% | 0hPa | 2.7V | 00:00:00 | 00:00:00 | 00:00:00 | |
| DO3MHA-11 | 2026-09-01 12:31:05 | 45.60266 | 9.50740 | 128° | 24km/h | 25342m | 5.6m/s | -49.0°C | 3.7% | 0hPa | 2.7V | 00:00:00 | 01:56:04 | 00:00:00 | |
| NBG1-10 | 2026-09-01 12:30:38 | 45.60289 | 9.50820 | 145° | 24km/h | 25190m | 5.5m/s | -48.5°C | 3.6% | 0hPa | 2.7V | 00:00:00 | 01:55:37 | 00:00:00 | |
| DB0UT-7 | 2026-09-01 12:30:12 | 45.60284 | 9.50849 | 64° | 33km/h | 25048m | 2.1m/s | -48.2°C | 3.5% | 0hPa | 2.6V | 00:00:00 | 01:55:11 | 00:00:00 | |
| S52SK | 2026-09-01 12:30:10 | 45.60283 | 9.50837 | 114° | 31km/h | 25042m | 7.7m/s | 0°C | 0% | 0hPa | 2.7V | 00:00:00 | 00:00:00 | 00:00:00 | |
| DL2OL | 2026-09-01 12:30:08 | 45.60293 | 9.50846 | 321° | 24km/h | 25027m | 6.4m/s | -48.2°C | 1.1% | 0hPa | 2.7V | 00:00:00 | 00:00:00 | 00:00:00 | |
| NBG1-10 | 2026-09-01 12:30:05 | 45.60276 | 9.50827 | 94° | 22km/h | 25011m | 2.9m/s | -48.1°C | 3.5% | 0hPa | 2.7V | 00:00:00 | 01:55:04 | 00:00:00 | |
| S52SK | 2026-09-01 12:29:46 | 45.60230 | 9.50832 | 357° | 16km/h | 24910m | 7.7m/s | 0°C | 0% | 0hPa | 2.7V | 00:00:00 | 00:00:00 | 00:00:00 | |
| NBG1-10 | 2026-09-01 12:29:31 | 45.60159 | 9.50864 | 8° | 24km/h | 24820m | 4.4m/s | -48.8°C | 3.5% | 0hPa | 2.7V | 00:00:00 | 01:54:30 | 00:00:00 | |
| S52SK | 2026-09-01 12:29:20 | 45.60116 | 9.50897 | 266° | 37km/h | 24772m | 4.4m/s | 0°C | 0% | 0hPa | 2.7V | 00:00:00 | 00:00:00 | 00:00:00 | |
| DL2OL | 2026-09-01 12:29:03 | 45.60043 | 9.50982 | 186° | 15km/h | 24682m | 9.1m/s | -49.9°C | 1.2% | 0hPa | 2.7V | 00:00:00 | 00:00:00 | 00:00:00 | |
| DB0UT-7 | 2026-09-01 12:28:58 | 45.60030 | 9.51017 | 182° | 31km/h | 24652m | 6.7m/s | -49.6°C | 3.6% | 0hPa | 2.7V | 00:00:00 | 00:00:00 | 00:00:00 | |
| DL2OL | 2026-09-01 12:28:43 | 45.60021 | 9.51078 | 218° | 15km/h | 24577m | 6.3m/s | -49.7°C | 0% | 0hPa | 2.7V | 00:00:00 | 00:00:00 | 00:00:00 | |
| OE5DRO-10 | 2026-09-01 12:28:16 | 45.60041 | 9.51223 | 225° | 31km/h | 24434m | 5.6m/s | 0°C | 0% | 0hPa | 2.7V | 00:00:00 | 00:00:00 | 00:00:00 | |
| S52SK | 2026-09-01 12:28:04 | 45.60079 | 9.51281 | 208° | 38km/h | 24382m | 1.7m/s | 0°C | 0% | 0hPa | 2.7V | 00:00:00 | 00:00:00 | 00:00:00 | |
| NBG1-10 | 2026-09-01 12:27:58 | 45.60101 | 9.51302 | 194° | 35km/h | 24345m | 3.9m/s | -50.9°C | 3.9% | 0hPa | 2.7V | 00:00:00 | 01:52:57 | 08:30:00 | |
| DL2OL | 2026-09-01 12:27:51 | 45.60117 | 9.51323 | 215° | 47km/h | 24315m | 2.1m/s | -51.0°C | 0% | 0hPa | 2.7V | 00:00:00 | 00:00:00 | 00:00:00 | |
| NBG1-10 | 2026-09-01 12:26:51 | 45.60255 | 9.51451 | 290° | 24km/h | 23996m | 4.7m/s | -52.0°C | 4.0% | 0hPa | 2.7V | 00:00:00 | 01:51:50 | 00:00:00 | |
| DL2OL | 2026-09-01 12:26:44 | 45.60263 | 9.51448 | 341° | 27km/h | 23963m | 3.1m/s | -52.3°C | 0% | 0hPa | 2.7V | 00:00:00 | 00:00:00 | 00:00:00 | |
| S52SK | 2026-09-01 12:26:42 | 45.60269 | 9.51467 | 172° | 26km/h | 23947m | 2.3m/s | 0°C | 0% | 0hPa | 2.7V | 00:00:00 | 00:00:00 | 00:00:00 | |
| NBG1-10 | 2026-09-01 12:25:52 | 45.60271 | 9.51512 | 194° | 29km/h | 23677m | 8.3m/s | -52.7°C | 4.2% | 0hPa | 2.7V | 00:00:00 | 01:50:51 | 00:00:00 | |
| IW2NTF | 2026-09-01 12:25:19 | 45.60343 | 9.51501 | 165° | 37km/h | 23450m | 0.3m/s | -53°C | 4.2% | 0hPa | 2.7V | 08:30:00 | 01:50:08 | 00:00:00 | |
| NBG1-10 | 2026-09-01 12:25:11 | 45.60332 | 9.51493 | 303° | 22km/h | 23463m | 7.3m/s | -53.0°C | 4.2% | 0hPa | 2.6V | 00:00:00 | 01:50:10 | 00:00:00 | |
| IW2NTF | 2026-09-01 12:25:10 | 45.60345 | 9.51463 | 28° | 35km/h | 23402m | 9m/s | -53°C | 4.1% | 0hPa | 2.6V | 08:30:00 | 01:49:59 | 00:00:00 | |
| OE5DRO-10 | 2026-09-01 12:24:58 | 45.60331 | 9.51462 | 317° | 18km/h | 23394m | 3.8m/s | 0°C | 0% | 0hPa | 2.6V | 00:00:00 | 00:00:00 | 00:00:00 | |
| IW2NTF | 2026-09-01 12:24:51 | 45.60322 | 9.51448 | 129° | 18km/h | 23345m | 2.1m/s | -53.7°C | 4.4% | 0hPa | 2.6V | 08:30:00 | 01:49:48 | 00:00:00 | |
| IW2NTF | 2026-09-01 12:24:45 | 45.60280 | 9.51405 | 1° | 44km/h | 23294m | 1.1m/s | -54.1°C | 4.4% | 0hPa | 2.6V | 08:30:00 | 01:49:38 | 00:00:00 | |
| IW2NTF | 2026-09-01 12:24:28 | 45.60256 | 9.51404 | 54° | 44km/h | 23237m | 7.9m/s | -54.2°C | 4.5% | 0hPa | 2.5V | 08:30:00 | 01:49:27 | 00:00:00 | |
| IW2NTF | 2026-09-01 12:24:20 | 45.60212 | 9.51414 | 162° | 31km/h | 23182m | 11.4m/s | -54.2°C | 4.5% | 0hPa | 2.7V | 08:30:00 | 01:49:16 | 00:00:00 | |
| IW2NTF | 2026-09-01 12:24:13 | 45.60189 | 9.51409 | 318° | 22km/h | 23137m | 6.7m/s | -54.1°C | 4.5% | 0hPa | 2.6V | 08:30:00 | 01:49:06 | 00:00:00 | |
| NBG1-10 | 2026-09-01 12:24:02 | 45.60156 | 9.51396 | 195° | 26km/h | 23109m | 4.1m/s | -54.1°C | 4.5% | 0hPa | 2.6V | 00:00:00 | 01:49:01 | 00:00:00 | |
| IW2NTF | 2026-09-01 12:24:00 | 45.60123 | 9.51400 | 70° | 22km/h | 23083m | 7m/s | -54°C | 4.5% | 0hPa | 2.6V | 08:30:00 | 01:48:56 | 00:00:00 | |
| DL2OL | 2026-09-01 12:23:57 | 45.60128 | 9.51407 | 28° | 38km/h | 23088m | 4.3m/s | -54.1°C | 0% | 0hPa | 2.7V | 00:00:00 | 00:00:00 | 00:00:00 | |
| IW2NTF | 2026-09-01 12:23:53 | 45.60086 | 9.51421 | 314° | 49km/h | 23035m | 6.9m/s | -53.9°C | 4.4% | 0hPa | 2.7V | 08:30:00 | 01:48:46 | 00:00:00 | |
| DB0UT-7 | 2026-09-01 12:23:49 | 45.60089 | 9.51402 | 199° | 33km/h | 23043m | 1.1m/s | -53.8°C | 4.5% | 0hPa | 2.6V | 00:00:00 | 01:48:48 | 00:00:00 | |
| IW2NTF | 2026-09-01 12:23:39 | 45.60037 | 9.51424 | 237° | 29km/h | 22983m | 0.9m/s | -53.9°C | 4.5% | 0hPa | 2.6V | 08:30:00 | 01:48:36 | 00:00:00 | |
| IW2NTF | 2026-09-01 12:23:33 | 45.59977 | 9.51449 | 58° | 31km/h | 22929m | 2.7m/s | -53.8°C | 4.4% | 0hPa | 2.7V | 08:30:00 | 01:48:26 | 00:00:00 | |
| DB0UT-7 | 2026-09-01 12:23:19 | 45.59940 | 9.51458 | 223° | 33km/h | 22888m | 5.5m/s | -53.6°C | 4.5% | 0hPa | 2.6V | 00:00:00 | 00:00:00 | 00:00:00 | |
| IW2NTF | 2026-09-01 12:23:16 | 45.59904 | 9.51472 | 64° | 22km/h | 22865m | 4.8m/s | -53.6°C | 4.4% | 0hPa | 2.6V | 08:30:00 | 01:48:13 | 00:00:00 | |
| DO3MHA-11 | 2026-09-01 12:23:14 | 45.59904 | 9.51472 | 65° | 26km/h | 22866m | 4.7m/s | -53.6°C | 4.4% | 0hPa | 2.6V | 00:00:00 | 01:48:13 | 00:00:00 | |
| IW2NTF | 2026-09-01 12:23:06 | 45.59844 | 9.51494 | 84° | 15km/h | 22802m | 7.6m/s | -53.7°C | 4.3% | 0hPa | 2.7V | 08:30:00 | 01:48:01 | 00:00:00 | |
| DO3MHA-11 | 2026-09-01 12:23:00 | 45.59847 | 9.51502 | 287° | 26km/h | 22792m | -0.3m/s | -53.6°C | 4.4% | 0hPa | 2.6V | 00:00:00 | 01:47:59 | 00:00:00 | |
| IW2NTF | 2026-09-01 12:22:57 | 45.59811 | 9.51534 | 332° | 24km/h | 22754m | 6.3m/s | -53.9°C | 4.4% | 0hPa | 2.6V | 08:30:00 | 01:47:51 | 00:00:00 | |
| DO3MHA-11 | 2026-09-01 12:22:49 | 45.59785 | 9.51518 | 7° | 27km/h | 22737m | 0.7m/s | -53.7°C | 4.5% | 0hPa | 2.6V | 00:00:00 | 01:47:48 | 00:00:00 | |
| IW2NTF | 2026-09-01 12:22:43 | 45.59744 | 9.51564 | 288° | 16km/h | 22678m | 2.1m/s | -53.7°C | 4.4% | 0hPa | 2.6V | 08:30:00 | 01:47:37 | 00:00:00 | |
| DO3MHA-11 | 2026-09-01 12:22:38 | 45.59744 | 9.51564 | 289° | 26km/h | 22678m | 2.0m/s | -53.6°C | 4.4% | 0hPa | 2.6V | 00:00:00 | 01:47:37 | 00:00:00 | |
| IW2NTF | 2026-09-01 12:22:29 | 45.59681 | 9.51625 | 334° | 49km/h | 22628m | 2m/s | -53.7°C | 4.5% | 0hPa | 2.6V | 08:30:00 | 01:47:27 | 00:00:00 | |
| DO3MHA-11 | 2026-09-01 12:22:28 | 45.59680 | 9.51625 | 335° | 29km/h | 22628m | 1.9m/s | -53.7°C | 4.5% | 0hPa | 2.6V | 00:00:00 | 01:47:27 | 00:00:00 | |
| DL2OL | 2026-09-01 12:22:27 | 45.59670 | 9.51628 | 3° | 37km/h | 22624m | 6.2m/s | -53.8°C | 0% | 0hPa | 2.6V | 00:00:00 | 00:00:00 | 00:00:00 | |
| IW2NTF | 2026-09-01 12:22:22 | 45.59619 | 9.51656 | 259° | 11km/h | 22580m | 2.1m/s | -53.6°C | 4.4% | 0hPa | 2.6V | 08:30:00 | 01:47:17 | 00:00:00 | |
| DO3MHA-11 | 2026-09-01 12:22:18 | 45.59619 | 9.51656 | 260° | 31km/h | 22581m | 2.0m/s | -53.6°C | 4.4% | 0hPa | 2.6V | 00:00:00 | 01:47:17 | 00:00:00 | |
| DB0UT-7 | 2026-09-01 12:22:12 | 45.59581 | 9.51703 | 281° | 33km/h | 22545m | 4.5m/s | -53.4°C | 4.3% | 0hPa | 2.6V | 00:00:00 | 01:47:10 | 08:30:00 | |
| IW2NTF | 2026-09-01 12:22:08 | 45.59544 | 9.51768 | 318° | 51km/h | 22501m | 10.6m/s | -53.7°C | 4.4% | 0hPa | 2.7V | 08:30:00 | 01:47:02 | 00:00:00 | |
| DO3MHA-11 | 2026-09-01 12:22:05 | 45.59551 | 9.51751 | 240° | 27km/h | 22511m | -0.9m/s | -53.4°C | 4.4% | 0hPa | 2.7V | 00:00:00 | 01:47:04 | 08:30:00 | |
| IW2NTF | 2026-09-01 12:21:55 | 45.59487 | 9.51881 | 307° | 37km/h | 22436m | 10.8m/s | -53.8°C | 4.4% | 0hPa | 2.7V | 08:30:00 | 01:46:49 | 00:00:00 | |
| DO3MHA-11 | 2026-09-01 12:21:54 | 45.59486 | 9.51847 | 333° | 27km/h | 22458m | 5.7m/s | -53.6°C | 4.4% | 0hPa | 2.7V | 00:00:00 | 01:46:53 | 00:00:00 | |
| DL2OL | 2026-09-01 12:21:51 | 45.59490 | 9.51870 | 282° | 31km/h | 22443m | 2.3m/s | -53.7°C | 0% | 0hPa | 2.7V | 00:00:00 | 00:00:00 | 00:00:00 | |
| IW2NTF | 2026-09-01 12:21:45 | 45.59441 | 9.51955 | 228° | 27km/h | 22377m | 10.7m/s | -53.6°C | 4.4% | 0hPa | 2.7V | 08:30:00 | 01:46:38 | 00:00:00 | |
| DO3MHA-11 | 2026-09-01 12:21:44 | 45.59468 | 9.51926 | 283° | 24km/h | 22408m | 1.8m/s | -53.5°C | 4.4% | 0hPa | 2.7V | 00:00:00 | 01:46:43 | 00:00:00 | |
| DB0UT-7 | 2026-09-01 12:21:40 | 45.59440 | 9.51948 | 312° | 31km/h | 22386m | 6.9m/s | -53.6°C | 4.4% | 0hPa | 2.7V | 00:00:00 | 00:00:00 | 00:00:00 | |
| IW2NTF | 2026-09-01 12:21:33 | 45.59431 | 9.52013 | 329° | 33km/h | 22320m | 3.9m/s | -53.7°C | 4.3% | 0hPa | 2.7V | 08:30:00 | 01:46:27 | 00:00:00 | |
| DO3MHA-11 | 2026-09-01 12:21:33 | 45.59424 | 9.51996 | 294° | 13km/h | 22349m | 5.9m/s | -53.5°C | 4.3% | 0hPa | 2.7V | 00:00:00 | 01:46:32 | 00:00:00 | |
| DO3MHA-11 | 2026-09-01 12:21:22 | 45.59434 | 9.52030 | 266° | 18km/h | 22292m | 4.1m/s | -53.6°C | 4.5% | 0hPa | 2.7V | 00:00:00 | 01:46:21 | 00:00:00 | |
| IW2NTF | 2026-09-01 12:21:18 | 45.59438 | 9.52055 | 317° | 7km/h | 22273m | 3.9m/s | -53.6°C | 4.4% | 0hPa | 2.7V | 08:30:00 | 01:46:17 | 00:00:00 | |
| IW2NTF | 2026-09-01 12:21:13 | 45.59450 | 9.52055 | 123° | 31km/h | 22221m | 3m/s | -53.6°C | 4.4% | 0hPa | 2.6V | 08:30:00 | 01:46:07 | 00:00:00 | |
| DO3MHA-11 | 2026-09-01 12:21:12 | 45.59455 | 9.52056 | 235° | 37km/h | 22245m | -0.1m/s | -53.4°C | 4.3% | 0hPa | 2.7V | 00:00:00 | 01:46:11 | 00:00:00 | |
| DL2OL | 2026-09-01 12:21:07 | 45.59450 | 9.52055 | 125° | 31km/h | 22222m | 3.1m/s | -53.6°C | 0% | 0hPa | 2.7V | 00:00:00 | 00:00:00 | 00:00:00 | |
| DO3MHA-11 | 2026-09-01 12:21:02 | 45.59465 | 9.52054 | 129° | 42km/h | 22190m | 2.3m/s | -53.5°C | 4.3% | 0hPa | 2.7V | 00:00:00 | 01:46:01 | 00:00:00 | |
| IW2NTF | 2026-09-01 12:20:59 | 45.59480 | 9.52058 | 91° | 38km/h | 22160m | 3.8m/s | -53.7°C | 4.4% | 0hPa | 2.7V | 08:30:00 | 01:45:56 | 00:00:00 | |
| DO3MHA-11 | 2026-09-01 12:20:50 | 45.59504 | 9.52030 | 147° | 47km/h | 22129m | 2.3m/s | -53.8°C | 4.5% | 0hPa | 2.7V | 00:00:00 | 01:45:49 | 00:00:00 | |
| IW2NTF | 2026-09-01 12:20:48 | 45.59517 | 9.52020 | 116° | 51km/h | 22103m | 5.8m/s | -53.8°C | 4.4% | 0hPa | 2.7V | 08:30:00 | 01:45:44 | 00:00:00 | |
| IW2NTF | 2026-09-01 12:20:39 | 45.59552 | 9.51982 | 49° | 31km/h | 22053m | 0.4m/s | -53.7°C | 4.4% | 0hPa | 2.7V | 08:30:00 | 01:45:34 | 00:00:00 | |
| DO3MHA-11 | 2026-09-01 12:20:38 | 45.59549 | 9.51982 | 169° | 40km/h | 22069m | 1.0m/s | -53.7°C | 4.4% | 0hPa | 2.6V | 00:00:00 | 01:45:37 | 00:00:00 | |
| IW2NTF | 2026-09-01 12:20:29 | 45.59589 | 9.51933 | 48° | 37km/h | 21998m | 5.2m/s | -53.6°C | 4.4% | 0hPa | 2.6V | 08:30:00 | 01:45:22 | 00:00:00 | |
| DO3MHA-11 | 2026-09-01 12:20:27 | 45.59577 | 9.51931 | 148° | 42km/h | 22017m | 6.9m/s | -53.6°C | 4.4% | 0hPa | 2.6V | 00:00:00 | 01:45:26 | 08:30:00 | |
| DB0UT-7 | 2026-09-01 12:20:21 | 45.59592 | 9.51908 | 140° | 37km/h | 21991m | 6.5m/s | -53.5°C | 4.4% | 0hPa | 2.6V | 00:00:00 | 01:45:20 | 00:00:00 | |
| IW2NTF | 2026-09-01 12:20:18 | 45.59634 | 9.51883 | 282° | 4km/h | 21950m | 4.2m/s | -53.4°C | 4.2% | 0hPa | 2.6V | 08:30:00 | 01:45:11 | 00:00:00 | |
| DO3MHA-11 | 2026-09-01 12:20:15 | 45.59612 | 9.51881 | 135° | 51km/h | 21963m | 5.5m/s | -53.4°C | 4.2% | 0hPa | 2.7V | 00:00:00 | 01:45:14 | 00:00:00 | |
| IW2NTF | 2026-09-01 12:20:03 | 45.59672 | 9.51794 | 68° | 33km/h | 21887m | 7.3m/s | -53.8°C | 4.3% | 0hPa | 2.7V | 08:30:00 | 01:44:58 | 00:00:00 | |
| DO3MHA-11 | 2026-09-01 12:20:02 | 45.59667 | 9.51799 | 159° | 49km/h | 21901m | 5.9m/s | -53.7°C | 4.4% | 0hPa | 2.6V | 00:00:00 | 01:45:01 | 00:00:00 | |
| DO3MHA-11 | 2026-09-01 12:19:50 | 45.59706 | 9.51694 | 145° | 42km/h | 21845m | 4.3m/s | -54.1°C | 4.4% | 0hPa | 2.6V | 00:00:00 | 01:44:49 | 00:00:00 | |
| IW2NTF | 2026-09-01 12:19:49 | 45.59719 | 9.51665 | 104° | 60km/h | 21818m | 4.2m/s | -54.3°C | 4.5% | 0hPa | 2.6V | 08:30:00 | 01:44:44 | 00:00:00 | |
| IW2NTF | 2026-09-01 12:19:38 | 45.59739 | 9.51540 | 92° | 58km/h | 21755m | 1.6m/s | -54.1°C | 4.6% | 0hPa | 2.7V | 08:30:00 | 01:44:31 | 00:00:00 | |
| DO3MHA-11 | 2026-09-01 12:19:37 | 45.59742 | 9.51584 | 137° | 49km/h | 21779m | 5.6m/s | -54.2°C | 4.6% | 0hPa | 2.7V | 00:00:00 | 01:44:36 | 00:00:00 | |
| DL2OL | 2026-09-01 12:19:27 | 45.59756 | 9.51514 | 42° | 18km/h | 21738m | 4.0m/s | -54.0°C | 0% | 0hPa | 2.7V | 00:00:00 | 00:00:00 | 00:00:00 | |
| DO3MHA-11 | 2026-09-01 12:19:25 | 45.59746 | 9.51462 | 110° | 53km/h | 21724m | 1.6m/s | -53.9°C | 4.5% | 0hPa | 2.7V | 00:00:00 | 01:44:24 | 00:00:00 | |
| DO3MHA-11 | 2026-09-01 12:19:12 | 45.59747 | 9.51312 | 125° | 46km/h | 21656m | 6.7m/s | -53.7°C | 4.3% | 0hPa | 2.7V | 00:00:00 | 01:44:11 | 00:00:00 | |
| DO3MHA-11 | 2026-09-01 12:19:00 | 45.59731 | 9.51189 | 93° | 49km/h | 21599m | 2.4m/s | -53.7°C | 4.2% | 0hPa | 2.6V | 00:00:00 | 01:43:59 | 00:00:00 | |
| IW2NTF | 2026-09-01 12:18:49 | 45.59689 | 9.51079 | 104° | 47km/h | 21533m | 2.4m/s | -54.3°C | 4.4% | 0hPa | 2.6V | 08:30:00 | 01:43:46 | 00:00:00 | |
| DO3MHA-11 | 2026-09-01 12:18:47 | 45.59689 | 9.51079 | 105° | 40km/h | 21533m | 2.4m/s | -54.2°C | 4.4% | 0hPa | 2.7V | 00:00:00 | 01:43:46 | 00:00:00 | |
| DL2OL | 2026-09-01 12:18:40 | 45.59662 | 9.51035 | 99° | 47km/h | 21500m | 3.3m/s | -55.0°C | 0% | 0hPa | 2.7V | 00:00:00 | 00:00:00 | 00:00:00 | |
| IW2NTF | 2026-09-01 12:18:39 | 45.59634 | 9.51006 | 110° | 40km/h | 21466m | 4.3m/s | -54.9°C | 4.8% | 0hPa | 2.7V | 08:30:00 | 01:43:34 | 00:00:00 | |
| DO3MHA-11 | 2026-09-01 12:18:37 | 45.59644 | 9.51028 | 22° | 33km/h | 21480m | 3.5m/s | -55.0°C | 4.8% | 0hPa | 2.6V | 00:00:00 | 01:43:36 | 08:30:00 | |
| NBG1-10 | 2026-09-01 12:18:34 | 45.59637 | 9.50999 | 166° | 26km/h | 21464m | 0.7m/s | -54.8°C | 4.8% | 0hPa | 2.7V | 00:00:00 | 01:43:33 | 00:00:00 | |
| DO3MHA-11 | 2026-09-01 12:18:27 | 45.59606 | 9.50982 | 298° | 24km/h | 21426m | 3.9m/s | -54.5°C | 4.6% | 0hPa | 2.7V | 00:00:00 | 01:43:26 | 00:00:00 | |
| IW2NTF | 2026-09-01 12:18:23 | 45.59554 | 9.50948 | 57° | 37km/h | 21381m | 2.9m/s | -54.2°C | 4.6% | 0hPa | 2.7V | 08:30:00 | 01:43:17 | 00:00:00 | |
| DB0UT-7 | 2026-09-01 12:18:23 | 45.59578 | 9.50964 | 110° | 26km/h | 21406m | 7.7m/s | -54.3°C | 4.7% | 0hPa | 2.7V | 00:00:00 | 01:43:22 | 00:00:00 | |
| DO3MHA-11 | 2026-09-01 12:18:15 | 45.59554 | 9.50943 | 328° | 31km/h | 21367m | 1.0m/s | -53.9°C | 4.5% | 0hPa | 2.7V | 00:00:00 | 01:43:14 | 00:00:00 | |
| IW2NTF | 2026-09-01 12:18:12 | 45.59501 | 9.50911 | 57° | 60km/h | 21315m | 6.6m/s | -53.6°C | 4.2% | 0hPa | 2.7V | 08:30:00 | 01:43:05 | 00:00:00 | |
| DO3MHA-11 | 2026-09-01 12:18:04 | 45.59492 | 9.50886 | 63° | 18km/h | 21308m | 7.0m/s | -53.5°C | 4.2% | 0hPa | 2.6V | 00:00:00 | 01:43:03 | 00:00:00 | |
| NBG1-10 | 2026-09-01 12:18:01 | 45.59486 | 9.50898 | 355° | 20km/h | 21290m | 3.4m/s | -53.4°C | 4.1% | 0hPa | 2.6V | 00:00:00 | 01:43:00 | 00:00:00 | |
| IW2NTF | 2026-09-01 12:17:57 | 45.59467 | 9.50868 | 359° | 13km/h | 21259m | 5.1m/s | -54.2°C | 4.5% | 0hPa | 2.6V | 08:30:00 | 01:42:54 | 00:00:00 | |
| DO3MHA-11 | 2026-09-01 12:17:54 | 45.59463 | 9.50868 | 354° | 20km/h | 21254m | 4.1m/s | -54.2°C | 4.5% | 0hPa | 2.6V | 00:00:00 | 01:42:53 | 00:00:00 | |
| IW2NTF | 2026-09-01 12:17:51 | 45.59431 | 9.50875 | 306° | 49km/h | 21212m | 4.2m/s | -54.3°C | 4.5% | 0hPa | 2.6V | 08:30:00 | 01:42:44 | 00:00:00 | |
| DL2OL | 2026-09-01 12:17:50 | 45.59445 | 9.50873 | 359° | 26km/h | 21240m | 4.1m/s | -54.4°C | 0% | 0hPa | 2.6V | 00:00:00 | 00:00:00 | 00:00:00 | |
| DO3MHA-11 | 2026-09-01 12:17:44 | 45.59422 | 9.50885 | 345° | 31km/h | 21209m | 1.5m/s | -54.4°C | 4.5% | 0hPa | 2.6V | 00:00:00 | 01:42:43 | 00:00:00 | |
| IW2NTF | 2026-09-01 12:17:37 | 45.59376 | 9.50886 | 263° | 16km/h | 21158m | 5.8m/s | -54.3°C | 4.4% | 0hPa | 2.6V | 08:30:00 | 01:42:33 | 00:00:00 | |
| DO3MHA-11 | 2026-09-01 12:17:34 | 45.59375 | 9.50886 | 264° | 22km/h | 21158m | 5.8m/s | -54.2°C | 4.4% | 0hPa | 2.6V | 00:00:00 | 01:42:33 | 00:00:00 | |
| IW2NTF | 2026-09-01 12:17:29 | 45.59332 | 9.50940 | 355° | 22km/h | 21110m | 7.2m/s | -54.5°C | 4.6% | 0hPa | 2.7V | 08:30:00 | 01:42:23 | 00:00:00 | |
| NBG1-10 | 2026-09-01 12:17:28 | 45.59351 | 9.50901 | 301° | 16km/h | 21129m | 3.3m/s | -54.4°C | 4.5% | 0hPa | 2.7V | 00:00:00 | 01:42:27 | 00:00:00 | |
| DO3MHA-11 | 2026-09-01 12:17:24 | 45.59332 | 9.50940 | 356° | 24km/h | 21110m | 7.2m/s | -54.4°C | 4.6% | 0hPa | 2.7V | 00:00:00 | 01:42:23 | 00:00:00 | |
| IW2NTF | 2026-09-01 12:17:17 | 45.59304 | 9.50944 | 212° | 20km/h | 21063m | 5.2m/s | -54.6°C | 4.6% | 0hPa | 2.7V | 08:30:00 | 01:42:13 | 00:00:00 | |
| DO3MHA-11 | 2026-09-01 12:17:14 | 45.59304 | 9.50944 | 213° | 27km/h | 21063m | 5.1m/s | -54.5°C | 4.6% | 0hPa | 2.6V | 00:00:00 | 01:42:13 | 00:00:00 | |
| IW2NTF | 2026-09-01 12:17:02 | 45.59280 | 9.50965 | 187° | 11km/h | 21004m | 3.6m/s | -54.3°C | 4.6% | 0hPa | 2.6V | 08:30:00 | 01:42:01 | 00:00:00 | |
| DO3MHA-11 | 2026-09-01 12:17:02 | 45.59280 | 9.50965 | 188° | 22km/h | 21004m | 3.5m/s | -54.2°C | 4.6% | 0hPa | 2.6V | 00:00:00 | 01:42:01 | 08:30:00 | |
| DL2OL | 2026-09-01 12:17:01 | 45.59280 | 9.50965 | 188° | 11km/h | 21004m | 3.6m/s | -54.3°C | 0% | 0hPa | 2.6V | 00:00:00 | 00:00:00 | 00:00:00 | |
| DB0UT-7 | 2026-09-01 12:16:59 | 45.59269 | 9.50984 | 355° | 29km/h | 20987m | 2.2m/s | -54.2°C | 4.5% | 0hPa | 2.6V | 00:00:00 | 00:00:00 | 00:00:00 | |
| IW2NTF | 2026-09-01 12:16:53 | 45.59254 | 9.50947 | 172° | 20km/h | 20937m | -1.3m/s | -54°C | 4.5% | 0hPa | 2.6V | 08:30:00 | 01:41:48 | 00:00:00 | |
| DO3MHA-11 | 2026-09-01 12:16:52 | 45.59252 | 9.50973 | 26° | 29km/h | 20953m | 0.8m/s | -54.0°C | 4.5% | 0hPa | 2.7V | 00:00:00 | 01:41:51 | 00:00:00 | |
| DO3MHA-11 | 2026-09-01 12:16:42 | 45.59238 | 9.50938 | 256° | 29km/h | 20902m | 2.6m/s | -53.8°C | 4.4% | 0hPa | 2.7V | 00:00:00 | 01:41:41 | 00:00:00 | |
| IW2NTF | 2026-09-01 12:16:37 | 45.59223 | 9.50915 | 282° | 15km/h | 20874m | 4.5m/s | -53.8°C | 4.4% | 0hPa | 2.7V | 08:30:00 | 01:41:35 | 00:00:00 | |
| IW2NTF | 2026-09-01 12:16:31 | 45.59169 | 9.50859 | 137° | 22km/h | 20819m | 5.9m/s | -53.7°C | 4.3% | 0hPa | 2.7V | 08:30:00 | 01:41:24 | 00:00:00 | |
| DB0UT-7 | 2026-09-01 12:16:26 | 45.59168 | 9.50869 | 82° | 29km/h | 20824m | 4.0m/s | -53.7°C | 4.3% | 0hPa | 2.7V | 00:00:00 | 01:41:25 | 00:00:00 | |
| IW2NTF | 2026-09-01 12:16:21 | 45.59119 | 9.50818 | 35° | 64km/h | 20775m | 1.4m/s | -53.9°C | 4.4% | 0hPa | 2.7V | 08:30:00 | 01:41:14 | 00:00:00 | |
| IW2NTF | 2026-09-01 12:16:11 | 45.59071 | 9.50766 | 316° | 18km/h | 20730m | 1.4m/s | -54.1°C | 4.5% | 0hPa | 2.6V | 08:30:00 | 01:41:04 | 00:00:00 | |
| IW2NTF | 2026-09-01 12:16:01 | 45.59017 | 9.50714 | 68° | 31km/h | 20683m | 1.1m/s | -53.8°C | 4.5% | 0hPa | 2.6V | 08:30:00 | 01:40:54 | 00:00:00 | |
| DO3MHA-11 | 2026-09-01 12:15:51 | 45.59005 | 9.50712 | 21° | 33km/h | 20665m | 6.9m/s | -53.7°C | 4.4% | 0hPa | 2.7V | 00:00:00 | 01:40:50 | 00:00:00 | |
| IW2NTF | 2026-09-01 12:15:48 | 45.58979 | 9.50654 | 104° | 22km/h | 20622m | 1.1m/s | -53.5°C | 4.4% | 0hPa | 2.7V | 08:30:00 | 01:40:41 | 00:00:00 | |
| DO3MHA-11 | 2026-09-01 12:15:41 | 45.58980 | 9.50650 | 176° | 26km/h | 20619m | 7.2m/s | -53.4°C | 4.4% | 0hPa | 2.7V | 00:00:00 | 01:40:40 | 00:00:00 | |
| IW2NTF | 2026-09-01 12:15:32 | 45.58949 | 9.50624 | 137° | 38km/h | 20567m | 3.4m/s | -53.3°C | 4.3% | 0hPa | 2.7V | 08:30:00 | 01:40:29 | 00:00:00 | |
| DO3MHA-11 | 2026-09-01 12:15:32 | 45.58946 | 9.50634 | 82° | 31km/h | 20573m | 9.7m/s | -53.3°C | 4.3% | 0hPa | 2.7V | 00:00:00 | 01:40:30 | 08:30:00 | |
| IW2NTF | 2026-09-01 12:15:22 | 45.58929 | 9.50592 | 123° | 27km/h | 20512m | 5.6m/s | -53.4°C | 4.3% | 0hPa | 2.6V | 08:30:00 | 01:40:17 | 00:00:00 | |
| DO3MHA-11 | 2026-09-01 12:15:21 | 45.58936 | 9.50610 | 22° | 27km/h | 20521m | 3.1m/s | -53.3°C | 4.2% | 0hPa | 2.7V | 00:00:00 | 01:40:19 | 00:00:00 | |
| NBG1-10 | 2026-09-01 12:15:20 | 45.58929 | 9.50601 | 65° | 16km/h | 20517m | 5.0m/s | -53.4°C | 4.3% | 0hPa | 2.7V | 00:00:00 | 01:40:18 | 00:00:00 | |
| IW2NTF | 2026-09-01 12:15:11 | 45.58912 | 9.50588 | 13° | 35km/h | 20464m | 1.1m/s | -53.5°C | 4.2% | 0hPa | 2.7V | 08:30:00 | 01:40:07 | 00:00:00 | |
| DO3MHA-11 | 2026-09-01 12:15:10 | 45.58926 | 9.50585 | 293° | 20km/h | 20476m | 6.8m/s | -53.5°C | 4.2% | 0hPa | 2.7V | 00:00:00 | 01:40:09 | 00:00:00 | |
| DB0UT-7 | 2026-09-01 12:15:06 | 45.58906 | 9.50580 | 147° | 20km/h | 20454m | 8.6m/s | -53.4°C | 4.2% | 0hPa | 2.7V | 00:00:00 | 00:00:00 | 00:00:00 | |
| IW2NTF | 2026-09-01 12:15:02 | 45.58902 | 9.50570 | 294° | 5km/h | 20418m | 3.5m/s | -53.6°C | 4.1% | 0hPa | 2.7V | 08:30:00 | 01:39:57 | 00:00:00 | |
| IW2NTF | 2026-09-01 12:14:50 | 45.58863 | 9.50561 | 19° | 7km/h | 20369m | 8.1m/s | -54.6°C | 4.4% | 0hPa | 2.6V | 08:30:00 | 01:39:47 | 00:00:00 | |
| DO3MHA-11 | 2026-09-01 12:14:50 | 45.58875 | 9.50565 | 7° | 18km/h | 20378m | 3.6m/s | -54.3°C | 4.4% | 0hPa | 2.6V | 00:00:00 | 01:39:49 | 00:00:00 | |
| NBG1-10 | 2026-09-01 12:14:46 | 45.58864 | 9.50563 | 336° | 18km/h | 20361m | 2.3m/s | -54.8°C | 4.4% | 0hPa | 2.6V | 00:00:00 | 01:39:45 | 00:00:00 | |
| IW2NTF | 2026-09-01 12:14:40 | 45.58830 | 9.50558 | 10° | 35km/h | 20319m | 5.5m/s | -54.9°C | 4.6% | 0hPa | 2.6V | 08:30:00 | 01:39:37 | 00:00:00 | |
| DB0UT-7 | 2026-09-01 12:14:36 | 45.58817 | 9.50555 | 360° | 18km/h | 20310m | 5.9m/s | -55.0°C | 4.6% | 0hPa | 2.6V | 00:00:00 | 01:39:35 | 00:00:00 | |
| IW2NTF | 2026-09-01 12:14:30 | 45.58786 | 9.50549 | 331° | 9km/h | 20273m | 2.1m/s | -55.3°C | 4.5% | 0hPa | 2.6V | 08:30:00 | 01:39:27 | 00:00:00 | |
| IW2NTF | 2026-09-01 12:14:23 | 45.58731 | 9.50522 | 30° | 20km/h | 20223m | 7.5m/s | -55.3°C | 4.6% | 0hPa | 2.7V | 08:30:00 | 01:39:17 | 00:00:00 | |
| DO3MHA-11 | 2026-09-01 12:14:20 | 45.58745 | 9.50534 | 29° | 24km/h | 20232m | 6.5m/s | -55.1°C | 4.5% | 0hPa | 2.6V | 00:00:00 | 01:39:19 | 00:00:00 | |
| NBG1-10 | 2026-09-01 12:14:12 | 45.58709 | 9.50506 | 25° | 24km/h | 20191m | 5.6m/s | -55.6°C | 4.7% | 0hPa | 2.6V | 00:00:00 | 01:39:11 | 00:00:00 | |
| IW2NTF | 2026-09-01 12:14:10 | 45.58709 | 9.50488 | 50° | 35km/h | 20171m | 8.8m/s | -55.6°C | 4.7% | 0hPa | 2.7V | 08:30:00 | 01:39:07 | 00:00:00 | |
| DO3MHA-11 | 2026-09-01 12:14:10 | 45.58710 | 9.50502 | 150° | 26km/h | 20179m | 0.5m/s | -55.6°C | 4.7% | 0hPa | 2.7V | 00:00:00 | 01:39:09 | 00:00:00 | |
| IW2NTF | 2026-09-01 12:13:59 | 45.58655 | 9.50447 | 107° | 15km/h | 20121m | 5.2m/s | -55.9°C | 4.8% | 0hPa | 2.7V | 08:30:00 | 01:38:57 | 00:00:00 | |
| IW2NTF | 2026-09-01 12:13:49 | 45.58599 | 9.50410 | 351° | 40km/h | 20076m | -0.1m/s | -55.8°C | 4.8% | 0hPa | 2.6V | 08:30:00 | 01:38:47 | 00:00:00 | |
| IW2NTF | 2026-09-01 12:13:40 | 45.58561 | 9.50389 | 81° | 22km/h | 20031m | 1m/s | -55.7°C | 4.9% | 0hPa | 2.7V | 08:30:00 | 01:38:37 | 00:00:00 | |
| DO3MHA-11 | 2026-09-01 12:13:38 | 45.58561 | 9.50388 | 82° | 26km/h | 20031m | 1.0m/s | -55.6°C | 4.9% | 0hPa | 2.7V | 00:00:00 | 01:38:37 | 00:00:00 | |
| DB0UT-7 | 2026-09-01 12:13:37 | 45.58558 | 9.50383 | 23° | 26km/h | 20027m | 6.1m/s | -55.7°C | 4.8% | 0hPa | 2.7V | 00:00:00 | 00:00:00 | 08:30:00 | |
| IW2NTF | 2026-09-01 12:13:29 | 45.58512 | 9.50394 | 259° | 22km/h | 19973m | 7.8m/s | -55.7°C | 4.8% | 0hPa | 2.7V | 08:30:00 | 01:38:27 | 00:00:00 | |
| DO3MHA-11 | 2026-09-01 12:13:26 | 45.58522 | 9.50391 | 110° | 24km/h | 19960m | 1.9m/s | -55.6°C | 4.8% | 0hPa | 2.6V | 00:00:00 | 01:38:25 | 00:00:00 | |
| IW2NTF | 2026-09-01 12:13:20 | 45.58509 | 9.50370 | 9° | 20km/h | 19914m | 8.9m/s | -55.4°C | 4.7% | 0hPa | 2.6V | 08:30:00 | 01:38:17 | 00:00:00 | |
| DO3MHA-11 | 2026-09-01 12:13:16 | 45.58504 | 9.50385 | 248° | 31km/h | 19903m | 0.9m/s | -55.2°C | 4.8% | 0hPa | 2.6V | 00:00:00 | 01:38:15 | 00:00:00 | |
| IW2NTF | 2026-09-01 12:13:09 | 45.58517 | 9.50364 | 80° | 44km/h | 19849m | 6.2m/s | -55°C | 4.7% | 0hPa | 2.6V | 08:30:00 | 01:38:06 | 00:00:00 | |
| DO3MHA-11 | 2026-09-01 12:13:06 | 45.58512 | 9.50354 | 26° | 35km/h | 19845m | 3.2m/s | -55.0°C | 4.6% | 0hPa | 2.6V | 00:00:00 | 01:38:05 | 00:00:00 | |
| IW2NTF | 2026-09-01 12:13:00 | 45.58529 | 9.50361 | 174° | 33km/h | 19794m | 5.1m/s | -54.8°C | 4.5% | 0hPa | 2.6V | 08:30:00 | 01:37:56 | 00:00:00 | |
| DO3MHA-11 | 2026-09-01 12:12:54 | 45.58535 | 9.50332 | 22° | 31km/h | 19778m | 2.6m/s | -54.7°C | 4.4% | 0hPa | 2.7V | 00:00:00 | 01:37:53 | 00:00:00 | |
| IW2NTF | 2026-09-01 12:12:49 | 45.58549 | 9.50334 | 253° | 22km/h | 19739m | 6.2m/s | -54.9°C | 4.5% | 0hPa | 2.7V | 08:30:00 | 01:37:46 | 00:00:00 | |
| IW2NTF | 2026-09-01 12:12:43 | 45.58591 | 9.50308 | 88° | 2km/h | 19684m | 2.2m/s | -55.6°C | 4.7% | 0hPa | 2.6V | 08:30:00 | 01:37:35 | 00:00:00 | |
| NBG1-10 | 2026-09-01 12:12:40 | 45.58577 | 9.50331 | 191° | 26km/h | 19703m | 3.6m/s | -55.2°C | 4.5% | 0hPa | 2.7V | 00:00:00 | 01:37:39 | 00:00:00 | |
| DF1GD-15 | 2026-09-01 12:12:29 | 45.58615 | 9.50289 | 74° | 15km/h | 19653m | 1.2m/s | -55.5°C | 1.7% | 0hPa | 2.7V | 00:00:00 | 00:00:00 | 00:00:00 | |
| IW2NTF | 2026-09-01 12:12:28 | 45.58637 | 9.50280 | 136° | 20km/h | 19635m | 5.3m/s | -55.5°C | 4.7% | 0hPa | 2.7V | 08:30:00 | 01:37:25 | 00:00:00 | |
| DL2OL | 2026-09-01 12:12:22 | 45.58632 | 9.50257 | 103° | 18km/h | 19620m | 4.7m/s | -55.4°C | 0% | 0hPa | 2.6V | 00:00:00 | 00:00:00 | 00:00:00 | |
| IW2NTF | 2026-09-01 12:12:21 | 45.58664 | 9.50202 | 140° | 40km/h | 19572m | 0.1m/s | -55.3°C | 4.7% | 0hPa | 2.6V | 08:30:00 | 01:37:13 | 00:00:00 | |
| DO3MHA-11 | 2026-09-01 12:12:21 | 45.58644 | 9.50247 | 169° | 29km/h | 19609m | 2.3m/s | -55.3°C | 4.7% | 0hPa | 2.7V | 00:00:00 | 01:37:20 | 08:30:00 | |
| DO3MHA-11 | 2026-09-01 12:12:10 | 45.58660 | 9.50171 | 97° | 31km/h | 19554m | 4.4m/s | -55.3°C | 4.7% | 0hPa | 2.6V | 00:00:00 | 01:37:09 | 00:00:00 | |
| NBG1-10 | 2026-09-01 12:12:07 | 45.58676 | 9.50141 | 108° | 26km/h | 19540m | 3.0m/s | -55.2°C | 4.6% | 0hPa | 2.6V | 00:00:00 | 01:37:06 | 00:00:00 | |
| DF1GD-15 | 2026-09-01 12:12:06 | 45.58676 | 9.50141 | 109° | 42km/h | 19540m | 3.1m/s | -55.3°C | 1.7% | 0hPa | 2.6V | 00:00:00 | 00:00:00 | 00:00:00 | |
| IW2NTF | 2026-09-01 12:12:04 | 45.58683 | 9.50090 | 99° | 38km/h | 19512m | 4.2m/s | -55.2°C | 4.6% | 0hPa | 2.6V | 08:30:00 | 01:37:00 | 00:00:00 | |
| DO3MHA-11 | 2026-09-01 12:12:00 | 45.58682 | 9.50078 | 62° | 26km/h | 19507m | 5.6m/s | -55.2°C | 4.6% | 0hPa | 2.6V | 00:00:00 | 01:36:59 | 00:00:00 | |
| IW2NTF | 2026-09-01 12:11:51 | 45.58686 | 9.50023 | 140° | 35km/h | 19461m | 8.1m/s | -55.2°C | 4.7% | 0hPa | 2.6V | 08:30:00 | 01:36:50 | 00:00:00 | |
| DO3MHA-11 | 2026-09-01 12:11:50 | 45.58693 | 9.50013 | 126° | 31km/h | 19456m | 1.5m/s | -55.1°C | 4.7% | 0hPa | 2.6V | 00:00:00 | 01:36:49 | 00:00:00 | |
| DB0UT-7 | 2026-09-01 12:11:47 | 45.58689 | 9.49988 | 15° | 27km/h | 19440m | 2.3m/s | -55.1°C | 4.7% | 0hPa | 2.6V | 00:00:00 | 00:00:00 | 00:00:00 | |
| IW2NTF | 2026-09-01 12:11:46 | 45.58682 | 9.49937 | 97° | 15km/h | 19406m | 6.8m/s | -55.3°C | 4.7% | 0hPa | 2.6V | 08:30:00 | 01:36:38 | 00:00:00 | |
| DF1GD-15 | 2026-09-01 12:11:45 | 45.58685 | 9.49985 | 68° | 15km/h | 19437m | 2.3m/s | -55.2°C | 1.7% | 0hPa | 2.6V | 00:00:00 | 00:00:00 | 00:00:00 | |
| DO3MHA-11 | 2026-09-01 12:11:40 | 45.58684 | 9.49941 | 26° | 26km/h | 19411m | 0.4m/s | -55.2°C | 4.7% | 0hPa | 2.6V | 00:00:00 | 01:36:39 | 00:00:00 | |
| IW2NTF | 2026-09-01 12:11:35 | 45.58679 | 9.49875 | 91° | 22km/h | 19362m | 3.7m/s | -55°C | 4.7% | 0hPa | 2.6V | 08:30:00 | 01:36:29 | 00:00:00 | |
| NBG1-10 | 2026-09-01 12:11:33 | 45.58674 | 9.49901 | 51° | 24km/h | 19377m | 3.9m/s | -55.1°C | 4.7% | 0hPa | 2.6V | 00:00:00 | 01:36:32 | 00:00:00 | |
| DO3MHA-11 | 2026-09-01 12:11:30 | 45.58679 | 9.49875 | 92° | 27km/h | 19362m | 3.6m/s | -55.0°C | 4.7% | 0hPa | 2.6V | 00:00:00 | 01:36:29 | 00:00:00 | |
| DF1GD-15 | 2026-09-01 12:11:25 | 45.58663 | 9.49844 | 99° | 38km/h | 19340m | 3.1m/s | -54.8°C | 1.7% | 0hPa | 2.6V | 00:00:00 | 00:00:00 | 00:00:00 | |
| IW2NTF | 2026-09-01 12:11:22 | 45.58650 | 9.49803 | 89° | 38km/h | 19313m | 3.1m/s | -54.6°C | 4.6% | 0hPa | 2.6V | 08:30:00 | 01:36:18 | 00:00:00 | |
| DO3MHA-11 | 2026-09-01 12:11:18 | 45.58649 | 9.49791 | 76° | 24km/h | 19309m | 4.2m/s | -54.6°C | 4.5% | 0hPa | 2.6V | 00:00:00 | 01:36:17 | 00:00:00 | |
| DB0UT-7 | 2026-09-01 12:11:17 | 45.58647 | 9.49786 | 23° | 22km/h | 19304m | 7.0m/s | -54.5°C | 4.5% | 0hPa | 2.6V | 00:00:00 | 01:36:16 | 00:00:00 | |
| IW2NTF | 2026-09-01 12:11:15 | 45.58630 | 9.49745 | 98° | 24km/h | 19260m | 4.2m/s | -54.3°C | 4.3% | 0hPa | 2.6V | 08:30:00 | 01:36:07 | 00:00:00 | |
| DO3MHA-11 | 2026-09-01 12:11:07 | 45.58629 | 9.49736 | 65° | 22km/h | 19255m | 4.2m/s | -54.2°C | 4.3% | 0hPa | 2.6V | 00:00:00 | 01:36:06 | 00:00:00 | |
| IW2NTF | 2026-09-01 12:10:58 | 45.58598 | 9.49677 | 96° | 27km/h | 19201m | 0.5m/s | -54.8°C | 4.5% | 0hPa | 2.6V | 08:30:00 | 01:35:54 | 00:00:00 | |
| DF1GD-15 | 2026-09-01 12:10:58 | 45.58598 | 9.49696 | 9° | 20km/h | 19216m | 0.6m/s | -54.7°C | 1.6% | 0hPa | 2.7V | 00:00:00 | 00:00:00 | 00:00:00 | |
| DO3MHA-11 | 2026-09-01 12:10:55 | 45.58598 | 9.49677 | 97° | 20km/h | 19201m | 0.5m/s | -54.8°C | 4.5% | 0hPa | 2.7V | 00:00:00 | 01:35:54 | 00:00:00 | |
| IW2NTF | 2026-09-01 12:10:47 | 45.58547 | 9.49634 | 121° | 9km/h | 19141m | 0.4m/s | -55.1°C | 4.7% | 0hPa | 2.7V | 08:30:00 | 01:35:41 | 00:00:00 | |
| DO3MHA-11 | 2026-09-01 12:10:45 | 45.58549 | 9.49644 | 7° | 20km/h | 19156m | 1.9m/s | -55.1°C | 4.6% | 0hPa | 2.6V | 00:00:00 | 01:35:44 | 08:30:00 | |
| IW2NTF | 2026-09-01 12:10:36 | 45.58509 | 9.49596 | 146° | 16km/h | 19093m | 2.1m/s | -54.9°C | 4.6% | 0hPa | 2.6V | 08:30:00 | 01:35:29 | 00:00:00 | |
| DO3MHA-11 | 2026-09-01 12:10:35 | 45.58529 | 9.49614 | 15° | 24km/h | 19114m | 4.4m/s | -54.9°C | 4.6% | 0hPa | 2.6V | 00:00:00 | 01:35:34 | 00:00:00 | |
| DF1GD-15 | 2026-09-01 12:10:31 | 45.58508 | 9.49608 | 44° | 26km/h | 19103m | 5.2m/s | -55.0°C | 1.7% | 0hPa | 2.6V | 00:00:00 | 00:00:00 | 00:00:00 | |
| DO3MHA-11 | 2026-09-01 12:10:25 | 45.58490 | 9.49579 | 106° | 18km/h | 19072m | 5.8m/s | -54.8°C | 4.6% | 0hPa | 2.6V | 00:00:00 | 01:35:24 | 00:00:00 | |
| IW2NTF | 2026-09-01 12:10:24 | 45.58472 | 9.49554 | 101° | 24km/h | 19046m | 5m/s | -54.8°C | 4.6% | 0hPa | 2.6V | 08:30:00 | 01:35:18 | 00:00:00 | |
| IW2NTF | 2026-09-01 12:10:15 | 45.58442 | 9.49501 | 66° | 31km/h | 19002m | 7.1m/s | -54.8°C | 4.6% | 0hPa | 2.6V | 08:30:00 | 01:35:07 | 00:00:00 | |
| DF1GD-15 | 2026-09-01 12:10:11 | 45.58462 | 9.49518 | 36° | 15km/h | 19015m | 7.1m/s | -54.8°C | 1.7% | 0hPa | 2.7V | 00:00:00 | 00:00:00 | 00:00:00 | |
| DO3MHA-11 | 2026-09-01 12:10:05 | 45.58445 | 9.49476 | 53° | 24km/h | 18990m | 6.5m/s | -54.7°C | 4.5% | 0hPa | 2.7V | 00:00:00 | 01:35:04 | 00:00:00 | |
| DO3MHA-11 | 2026-09-01 12:09:55 | 45.58409 | 9.49398 | 62° | 29km/h | 18940m | 2.0m/s | -54.9°C | 4.6% | 0hPa | 2.7V | 00:00:00 | 01:34:53 | 00:00:00 | |
| DF1GD-15 | 2026-09-01 12:09:49 | 45.58384 | 9.49374 | 71° | 37km/h | 18922m | 6.8m/s | -54.9°C | 1.7% | 0hPa | 2.7V | 00:00:00 | 00:00:00 | 00:00:00 | |
| DO3MHA-11 | 2026-09-01 12:09:43 | 45.58355 | 9.49328 | 115° | 20km/h | 18888m | 3.6m/s | -55.3°C | 4.7% | 0hPa | 2.7V | 00:00:00 | 01:34:42 | 00:00:00 | |
| DB0UT-7 | 2026-09-01 12:09:42 | 45.58354 | 9.49325 | 10° | 27km/h | 18885m | 3.3m/s | -55.4°C | 4.7% | 0hPa | 2.7V | 00:00:00 | 01:34:41 | 00:00:00 | |
| DO3MHA-11 | 2026-09-01 12:09:33 | 45.58297 | 9.49276 | 44° | 24km/h | 18841m | 2.7m/s | -55.2°C | 4.7% | 0hPa | 2.7V | 00:00:00 | 01:34:32 | 00:00:00 | |
| DF1GD-15 | 2026-09-01 12:09:24 | 45.58267 | 9.49224 | 65° | 5km/h | 18795m | 2.5m/s | -55.1°C | 1.7% | 0hPa | 2.7V | 00:00:00 | 00:00:00 | 00:00:00 | |
| DO3MHA-11 | 2026-09-01 12:09:23 | 45.58264 | 9.49221 | 32° | 27km/h | 18789m | 7.5m/s | -55.0°C | 4.6% | 0hPa | 2.7V | 00:00:00 | 01:34:22 | 00:00:00 | |
| IW2NTF | 2026-09-01 12:09:14 | 45.58214 | 9.49111 | 88° | 47km/h | 18724m | 2.8m/s | -54.5°C | 4.6% | 0hPa | 2.7V | 08:30:00 | 01:34:08 | 00:00:00 | |
| DL2OL | 2026-09-01 12:09:03 | 45.58199 | 9.49079 | 62° | 55km/h | 18699m | 7.3m/s | -54.3°C | 0% | 0hPa | 2.6V | 00:00:00 | 00:00:00 | 00:00:00 | |
| DO3MHA-11 | 2026-09-01 12:09:02 | 45.58197 | 9.49048 | 110° | 38km/h | 18689m | 6.4m/s | -54.2°C | 4.5% | 0hPa | 2.6V | 00:00:00 | 01:34:01 | 00:00:00 | |
| DF1GD-15 | 2026-09-01 12:09:01 | 45.58197 | 9.49048 | 110° | 27km/h | 18689m | 6.5m/s | -54.3°C | 1.7% | 0hPa | 2.6V | 00:00:00 | 00:00:00 | 00:00:00 | |
| IW2NTF | 2026-09-01 12:08:58 | 45.58183 | 9.49012 | 105° | 46km/h | 18665m | 0.7m/s | -54.1°C | 4.3% | 0hPa | 2.6V | 08:30:00 | 01:33:56 | 00:00:00 | |
| DO3MHA-11 | 2026-09-01 12:08:50 | 45.58186 | 9.48951 | 124° | 35km/h | 18632m | 3.4m/s | -54.0°C | 4.4% | 0hPa | 2.6V | 00:00:00 | 01:33:49 | 00:00:00 | |
| IW2NTF | 2026-09-01 12:08:46 | 45.58179 | 9.48915 | 122° | 51km/h | 18604m | 5.4m/s | -54.3°C | 4.4% | 0hPa | 2.6V | 08:30:00 | 01:33:44 | 00:00:00 | |
| NBG1-10 | 2026-09-01 12:08:43 | 45.58190 | 9.48898 | 132° | 35km/h | 18599m | 4.3m/s | -54.5°C | 4.5% | 0hPa | 2.6V | 00:00:00 | 01:33:42 | 08:30:00 | |
| DO3MHA-11 | 2026-09-01 12:08:39 | 45.58181 | 9.48856 | 122° | 38km/h | 18579m | 5.7m/s | -54.5°C | 4.5% | 0hPa | 2.6V | 00:00:00 | 01:33:38 | 00:00:00 | |
| DF1GD-15 | 2026-09-01 12:08:37 | 45.58188 | 9.48843 | 142° | 37km/h | 18575m | 2.5m/s | -54.6°C | 1.7% | 0hPa | 2.7V | 00:00:00 | 00:00:00 | 00:00:00 | |
| DO3MHA-11 | 2026-09-01 12:08:29 | 45.58185 | 9.48743 | 68° | 44km/h | 18533m | 3.0m/s | -54.8°C | 4.5% | 0hPa | 2.7V | 00:00:00 | 01:33:28 | 00:00:00 | |
| IW2NTF | 2026-09-01 12:08:24 | 45.58191 | 9.48678 | 44° | 44km/h | 18505m | 7.1m/s | -54.8°C | 4.4% | 0hPa | 2.7V | 08:30:00 | 01:33:23 | 00:00:00 | |
| DB0UT-7 | 2026-09-01 12:08:21 | 45.58186 | 9.48628 | 130° | 35km/h | 18490m | 8.6m/s | -54.6°C | 4.4% | 0hPa | 2.7V | 00:00:00 | 01:33:20 | 00:00:00 | |
| DO3MHA-11 | 2026-09-01 12:08:19 | 45.58195 | 9.48615 | 72° | 46km/h | 18479m | 4.5m/s | -54.6°C | 4.4% | 0hPa | 2.7V | 00:00:00 | 01:33:18 | 00:00:00 | |
| IW2NTF | 2026-09-01 12:08:13 | 45.58184 | 9.48494 | 87° | 71km/h | 18435m | 3.3m/s | -55.7°C | 4.6% | 0hPa | 2.7V | 08:30:00 | 01:33:10 | 00:00:00 | |
| DO3MHA-11 | 2026-09-01 12:08:08 | 45.58193 | 9.48454 | 62° | 44km/h | 18419m | 2.9m/s | -55.7°C | 4.7% | 0hPa | 2.6V | 00:00:00 | 01:33:07 | 00:00:00 | |
| IW2NTF | 2026-09-01 12:08:06 | 45.58175 | 9.48362 | 64° | 64km/h | 18377m | 5.5m/s | -56°C | 4.8% | 0hPa | 2.6V | 08:30:00 | 01:32:59 | 00:00:00 | |
| DO3MHA-11 | 2026-09-01 12:07:58 | 45.58173 | 9.48325 | 112° | 40km/h | 18369m | 6.9m/s | -56.1°C | 4.8% | 0hPa | 2.7V | 00:00:00 | 01:32:57 | 00:00:00 | |
| DL2OL | 2026-09-01 12:07:57 | 45.58173 | 9.48325 | 112° | 38km/h | 18369m | 7.0m/s | -56.1°C | 0% | 0hPa | 2.7V | 00:00:00 | 00:00:00 | 00:00:00 | |
| IW2NTF | 2026-09-01 12:07:52 | 45.58152 | 9.48255 | 57° | 46km/h | 18315m | 7m/s | -56.3°C | 4.8% | 0hPa | 2.7V | 08:30:00 | 01:32:47 | 00:00:00 | |
| DB0UT-7 | 2026-09-01 12:07:51 | 45.58164 | 9.48262 | 158° | 22km/h | 18331m | 8.1m/s | -56.2°C | 4.8% | 0hPa | 2.6V | 00:00:00 | 00:00:00 | 00:00:00 | |
| DF1GD-15 | 2026-09-01 12:07:49 | 45.58158 | 9.48263 | 26° | 27km/h | 18321m | 4.1m/s | -56.3°C | 1.8% | 0hPa | 2.6V | 00:00:00 | 00:00:00 | 00:00:00 | |
| DO3MHA-11 | 2026-09-01 12:07:47 | 45.58148 | 9.48239 | 85° | 33km/h | 18310m | 2.1m/s | -56.3°C | 4.8% | 0hPa | 2.6V | 00:00:00 | 01:32:46 | 00:00:00 | |
| IW2NTF | 2026-09-01 12:07:43 | 45.58126 | 9.48177 | 337° | 15km/h | 18267m | 2.5m/s | -56.2°C | 4.9% | 0hPa | 2.6V | 08:30:00 | 01:32:37 | 00:00:00 | |
| DO3MHA-11 | 2026-09-01 12:07:37 | 45.58121 | 9.48176 | 31° | 33km/h | 18265m | 2.9m/s | -56.2°C | 4.9% | 0hPa | 2.6V | 00:00:00 | 01:32:36 | 08:30:00 | |
| IW2NTF | 2026-09-01 12:07:34 | 45.58084 | 9.48100 | 87° | 35km/h | 18223m | 0.8m/s | -56.6°C | 5% | 0hPa | 2.6V | 08:30:00 | 01:32:27 | 00:00:00 | |
| NBG1-10 | 2026-09-01 12:07:34 | 45.58106 | 9.48140 | 74° | 22km/h | 18251m | 2.2m/s | -56.2°C | 4.9% | 0hPa | 2.6V | 00:00:00 | 01:32:33 | 00:00:00 | |
| DO3MHA-11 | 2026-09-01 12:07:27 | 45.58084 | 9.48091 | 84° | 27km/h | 18219m | 6.9m/s | -56.6°C | 5.0% | 0hPa | 2.6V | 00:00:00 | 01:32:26 | 00:00:00 | |
| DF1GD-15 | 2026-09-01 12:07:26 | 45.58084 | 9.48091 | 85° | 13km/h | 18219m | 6.9m/s | -56.6°C | 1.9% | 0hPa | 2.6V | 00:00:00 | 00:00:00 | 00:00:00 | |
| IW2NTF | 2026-09-01 12:07:17 | 45.58059 | 9.48037 | 93° | 31km/h | 18162m | 1.8m/s | -56.5°C | 4.9% | 0hPa | 2.6V | 08:30:00 | 01:32:15 | 00:00:00 | |
| DO3MHA-11 | 2026-09-01 12:07:17 | 45.58060 | 9.48049 | 77° | 20km/h | 18167m | 7.2m/s | -56.5°C | 4.9% | 0hPa | 2.6V | 00:00:00 | 01:32:16 | 00:00:00 | |
| IW2NTF | 2026-09-01 12:07:08 | 45.58050 | 9.48002 | 81° | 22km/h | 18115m | 6.4m/s | -56.4°C | 5% | 0hPa | 2.6V | 08:30:00 | 01:32:05 | 00:00:00 | |
| DO3MHA-11 | 2026-09-01 12:07:07 | 45.58051 | 9.48007 | 53° | 26km/h | 18120m | 1.5m/s | -56.4°C | 5.0% | 0hPa | 2.6V | 00:00:00 | 01:32:06 | 00:00:00 | |
| DF1GD-15 | 2026-09-01 12:07:04 | 45.58051 | 9.47977 | 103° | 29km/h | 18105m | -0.3m/s | -56.4°C | 1.9% | 0hPa | 2.7V | 00:00:00 | 00:00:00 | 00:00:00 | |
| IW2NTF | 2026-09-01 12:07:01 | 45.58059 | 9.47943 | 298° | 4km/h | 18063m | 7.7m/s | -56.3°C | 4.9% | 0hPa | 2.7V | 08:30:00 | 01:31:55 | 00:00:00 | |
| NBG1-10 | 2026-09-01 12:07:00 | 45.58055 | 9.47978 | 140° | 24km/h | 18086m | 5.5m/s | -56.3°C | 4.9% | 0hPa | 2.6V | 00:00:00 | 01:31:59 | 00:00:00 | |
| DO3MHA-11 | 2026-09-01 12:06:57 | 45.58060 | 9.47946 | 80° | 22km/h | 18070m | 4.6m/s | -56.3°C | 4.9% | 0hPa | 2.6V | 00:00:00 | 01:31:56 | 00:00:00 | |
| IW2NTF | 2026-09-01 12:06:52 | 45.58080 | 9.47893 | 90° | 46km/h | 18012m | 1.4m/s | -56°C | 4.9% | 0hPa | 2.6V | 08:30:00 | 01:31:45 | 00:00:00 | |
| DB0UT-7 | 2026-09-01 12:06:51 | 45.58070 | 9.47917 | 95° | 29km/h | 18041m | 4.5m/s | -56.0°C | 5.0% | 0hPa | 2.7V | 00:00:00 | 01:31:50 | 08:30:00 | |
| DO3MHA-11 | 2026-09-01 12:06:46 | 45.58080 | 9.47893 | 91° | 31km/h | 18012m | 1.3m/s | -55.9°C | 4.9% | 0hPa | 2.6V | 00:00:00 | 01:31:45 | 00:00:00 | |
| DF1GD-15 | 2026-09-01 12:06:44 | 45.58081 | 9.47875 | 125° | 7km/h | 18003m | 7.5m/s | -56.0°C | 1.9% | 0hPa | 2.6V | 00:00:00 | 00:00:00 | 00:00:00 | |
| IW2NTF | 2026-09-01 12:06:41 | 45.58096 | 9.47835 | 167° | 37km/h | 17966m | 2.4m/s | -55.7°C | 4.9% | 0hPa | 2.6V | 08:30:00 | 01:31:35 | 00:00:00 | |
| DO3MHA-11 | 2026-09-01 12:06:36 | 45.58096 | 9.47835 | 168° | 37km/h | 17966m | 2.4m/s | -55.7°C | 4.9% | 0hPa | 2.6V | 00:00:00 | 01:31:35 | 00:00:00 | |
| IW2NTF | 2026-09-01 12:06:32 | 45.58120 | 9.47747 | 93° | 2km/h | 17920m | 6.5m/s | -55.6°C | 4.6% | 0hPa | 2.6V | 08:30:00 | 01:31:25 | 00:00:00 | |
| NBG1-10 | 2026-09-01 12:06:27 | 45.58121 | 9.47751 | 58° | 33km/h | 17925m | 0.8m/s | -55.5°C | 4.6% | 0hPa | 2.7V | 00:00:00 | 01:31:26 | 00:00:00 | |
| DO3MHA-11 | 2026-09-01 12:06:26 | 45.58119 | 9.47747 | 94° | 40km/h | 17921m | 6.5m/s | -55.5°C | 4.6% | 0hPa | 2.7V | 00:00:00 | 01:31:25 | 00:00:00 | |
| IW2NTF | 2026-09-01 12:06:22 | 45.58158 | 9.47649 | 87° | 51km/h | 17870m | 0.5m/s | -56°C | 4.7% | 0hPa | 2.7V | 08:30:00 | 01:31:15 | 00:00:00 | |
| DB0UT-7 | 2026-09-01 12:06:21 | 45.58138 | 9.47699 | 71° | 38km/h | 17896m | 3.9m/s | -55.6°C | 4.6% | 0hPa | 2.6V | 00:00:00 | 00:00:00 | 00:00:00 | |
| DO3MHA-11 | 2026-09-01 12:06:17 | 45.58157 | 9.47634 | 90° | 35km/h | 17868m | 3.2m/s | -56.0°C | 4.7% | 0hPa | 2.6V | 00:00:00 | 01:31:14 | 00:00:00 | |
| IW2NTF | 2026-09-01 12:06:06 | 45.58200 | 9.47513 | 82° | 55km/h | 17818m | 4.9m/s | -56.4°C | 4.6% | 0hPa | 2.6V | 08:30:00 | 01:31:03 | 00:00:00 | |
| DO3MHA-11 | 2026-09-01 12:06:05 | 45.58198 | 9.47531 | 115° | 42km/h | 17824m | 5.9m/s | -56.3°C | 4.7% | 0hPa | 2.6V | 00:00:00 | 01:31:04 | 08:30:00 | |
| DF1GD-15 | 2026-09-01 12:06:02 | 45.58199 | 9.47495 | 87° | 42km/h | 17814m | 1.7m/s | -56.5°C | 1.8% | 0hPa | 2.7V | 00:00:00 | 00:00:00 | 00:00:00 | |
| IW2NTF | 2026-09-01 12:06:00 | 45.58229 | 9.47380 | 125° | 40km/h | 17774m | 1.8m/s | -57.2°C | 5.2% | 0hPa | 2.7V | 08:30:00 | 01:30:53 | 00:00:00 | |
| DO3MHA-11 | 2026-09-01 12:05:54 | 45.58229 | 9.47380 | 126° | 47km/h | 17775m | 1.8m/s | -57.2°C | 5.2% | 0hPa | 2.6V | 00:00:00 | 01:30:53 | 00:00:00 | |
| DB0UT-7 | 2026-09-01 12:05:51 | 45.58236 | 9.47326 | 95° | 44km/h | 17763m | 1.6m/s | -57.3°C | 5.3% | 0hPa | 2.6V | 00:00:00 | 01:30:50 | 00:00:00 | |
| IW2NTF | 2026-09-01 12:05:45 | 45.58256 | 9.47219 | 105° | 38km/h | 17730m | 7.3m/s | -57.3°C | 5.2% | 0hPa | 2.6V | 08:30:00 | 01:30:43 | 00:00:00 | |
| DO3MHA-11 | 2026-09-01 12:05:44 | 45.58256 | 9.47219 | 106° | 38km/h | 17730m | 7.3m/s | -57.3°C | 5.2% | 0hPa | 2.6V | 00:00:00 | 01:30:43 | 00:00:00 | |
| DF1GD-15 | 2026-09-01 12:05:41 | 45.58265 | 9.47204 | 132° | 27km/h | 17719m | 1.3m/s | -57.3°C | 2.0% | 0hPa | 2.6V | 00:00:00 | 00:00:00 | 00:00:00 | |
| IW2NTF | 2026-09-01 12:05:40 | 45.58279 | 9.47099 | 87° | 55km/h | 17685m | 3.7m/s | -57°C | 5% | 0hPa | 2.6V | 08:30:00 | 01:30:33 | 00:00:00 | |
| DO3MHA-11 | 2026-09-01 12:05:34 | 45.58279 | 9.47099 | 88° | 35km/h | 17685m | 3.6m/s | -57.0°C | 5.0% | 0hPa | 2.6V | 00:00:00 | 01:30:33 | 00:00:00 | |
| DO3MHA-11 | 2026-09-01 12:05:24 | 45.58297 | 9.46974 | 86° | 44km/h | 17649m | 2.7m/s | -56.9°C | 5.0% | 0hPa | 2.7V | 00:00:00 | 01:30:23 | 00:00:00 | |
| IW2NTF | 2026-09-01 12:05:21 | 45.58297 | 9.46926 | 108° | 49km/h | 17637m | 4.5m/s | -57°C | 5.1% | 0hPa | 2.7V | 08:30:00 | 01:30:20 | 00:00:00 | |
| DF1GD-15 | 2026-09-01 12:05:20 | 45.58297 | 9.46926 | 109° | 49km/h | 17637m | 4.6m/s | -57.0°C | 2.0% | 0hPa | 2.6V | 00:00:00 | 00:00:00 | 00:00:00 | |
| DO3MHA-11 | 2026-09-01 12:05:14 | 45.58317 | 9.46827 | 134° | 44km/h | 17610m | 6.8m/s | -57.4°C | 5.3% | 0hPa | 2.6V | 00:00:00 | 01:30:13 | 00:00:00 | |
| NBG1-10 | 2026-09-01 12:05:12 | 45.58321 | 9.46815 | 78° | 38km/h | 17602m | 3.4m/s | -57.3°C | 5.3% | 0hPa | 2.6V | 00:00:00 | 01:30:11 | 00:00:00 | |
| IW2NTF | 2026-09-01 12:05:11 | 45.58324 | 9.46764 | 117° | 51km/h | 17592m | 4m/s | -57.4°C | 5.3% | 0hPa | 2.7V | 08:30:00 | 01:30:08 | 00:00:00 | |
| DB0UT-7 | 2026-09-01 12:05:06 | 45.58332 | 9.46739 | 65° | 40km/h | 17578m | 5.3m/s | -57.2°C | 5.2% | 0hPa | 2.6V | 00:00:00 | 00:00:00 | 00:00:00 | |
| DO3MHA-11 | 2026-09-01 12:05:03 | 45.58334 | 9.46686 | 118° | 42km/h | 17565m | 5.0m/s | -57.1°C | 5.2% | 0hPa | 2.6V | 00:00:00 | 01:30:02 | 00:00:00 | |
| IW2NTF | 2026-09-01 12:05:02 | 45.58341 | 9.46650 | 88° | 53km/h | 17549m | 8.6m/s | -57.2°C | 5.1% | 0hPa | 2.7V | 08:30:00 | 01:29:58 | 00:00:00 | |
| DF1GD-15 | 2026-09-01 12:04:59 | 45.58341 | 9.46665 | 85° | 29km/h | 17555m | 4.0m/s | -57.1°C | 2.0% | 0hPa | 2.7V | 00:00:00 | 00:00:00 | 00:00:00 | |
| DO3MHA-11 | 2026-09-01 12:04:53 | 45.58346 | 9.46573 | 86° | 42km/h | 17522m | 6.3m/s | -56.9°C | 5.1% | 0hPa | 2.7V | 00:00:00 | 01:29:52 | 00:00:00 | |
| IW2NTF | 2026-09-01 12:04:51 | 45.58355 | 9.46518 | 59° | 20km/h | 17503m | 3.6m/s | -56.8°C | 5.1% | 0hPa | 2.7V | 08:30:00 | 01:29:48 | 00:00:00 | |
| DO3MHA-11 | 2026-09-01 12:04:43 | 45.58356 | 9.46444 | 56° | 46km/h | 17476m | 4.3m/s | -56.8°C | 5.0% | 0hPa | 2.7V | 00:00:00 | 01:29:42 | 00:00:00 | |
| IW2NTF | 2026-09-01 12:04:41 | 45.58356 | 9.46382 | 123° | 27km/h | 17458m | 8m/s | -56.9°C | 5% | 0hPa | 2.7V | 08:30:00 | 01:29:38 | 00:00:00 | |
| DF1GD-15 | 2026-09-01 12:04:38 | 45.58356 | 9.46382 | 124° | 27km/h | 17458m | 8.0m/s | -56.9°C | 1.9% | 0hPa | 2.7V | 00:00:00 | 00:00:00 | 00:00:00 | |
| DB0UT-7 | 2026-09-01 12:04:34 | 45.58356 | 9.46316 | 108° | 49km/h | 17434m | 2.3m/s | -56.7°C | 5.1% | 0hPa | 2.7V | 00:00:00 | 01:29:33 | 00:00:00 | |
| DO3MHA-11 | 2026-09-01 12:04:33 | 45.58360 | 9.46301 | 110° | 47km/h | 17429m | 7.0m/s | -56.7°C | 5.1% | 0hPa | 2.7V | 00:00:00 | 01:29:32 | 08:30:00 | |
| IW2NTF | 2026-09-01 12:04:31 | 45.58357 | 9.46259 | 99° | 62km/h | 17410m | 4.9m/s | -56.8°C | 5.1% | 0hPa | 2.6V | 08:30:00 | 01:29:28 | 00:00:00 | |
| IW2NTF | 2026-09-01 12:04:22 | 45.58359 | 9.46117 | 61° | 47km/h | 17368m | 1.4m/s | -56.5°C | 4.9% | 0hPa | 2.6V | 08:30:00 | 01:29:18 | 00:00:00 | |
| DO3MHA-11 | 2026-09-01 12:04:22 | 45.58364 | 9.46149 | 113° | 55km/h | 17381m | 2.1m/s | -56.5°C | 5.0% | 0hPa | 2.7V | 00:00:00 | 01:29:21 | 00:00:00 | |
| DF1GD-15 | 2026-09-01 12:04:16 | 45.58358 | 9.46077 | 110° | 69km/h | 17357m | 5.2m/s | -56.5°C | 1.9% | 0hPa | 2.7V | 00:00:00 | 00:00:00 | 00:00:00 | |
| DO3MHA-11 | 2026-09-01 12:04:09 | 45.58366 | 9.45947 | 96° | 53km/h | 17323m | 7.0m/s | -56.5°C | 5.0% | 0hPa | 2.7V | 00:00:00 | 01:29:08 | 00:00:00 | |
| IW2NTF | 2026-09-01 12:04:07 | 45.58352 | 9.45901 | 82° | 57km/h | 17309m | 5.3m/s | -56.5°C | 5% | 0hPa | 2.7V | 08:30:00 | 01:29:05 | 00:00:00 | |
| NBG1-10 | 2026-09-01 12:04:04 | 45.58363 | 9.45847 | 101° | 53km/h | 17295m | 4.5m/s | -56.4°C | 5.0% | 0hPa | 2.7V | 00:00:00 | 01:29:02 | 00:00:00 | |
| IW2NTF | 2026-09-01 12:04:01 | 45.58363 | 9.45728 | 69° | 49km/h | 17263m | 7.4m/s | -56.5°C | 4.9% | 0hPa | 2.7V | 08:30:00 | 01:28:55 | 00:00:00 | |
| DO3MHA-11 | 2026-09-01 12:03:57 | 45.58364 | 9.45744 | 96° | 55km/h | 17269m | 4.6m/s | -56.4°C | 4.9% | 0hPa | 2.7V | 00:00:00 | 01:28:56 | 00:00:00 | |
| DF1GD-15 | 2026-09-01 12:03:55 | 45.58362 | 9.45728 | 70° | 49km/h | 17264m | 7.4m/s | -56.5°C | 1.9% | 0hPa | 2.7V | 00:00:00 | 00:00:00 | 00:00:00 | |
| IW2NTF | 2026-09-01 12:03:46 | 45.58355 | 9.45533 | 105° | 49km/h | 17220m | 2.4m/s | -56.3°C | 5.1% | 0hPa | 2.7V | 08:30:00 | 01:28:45 | 00:00:00 | |
| DO3MHA-11 | 2026-09-01 12:03:45 | 45.58356 | 9.45516 | 85° | 58km/h | 17217m | 4.9m/s | -56.2°C | 5.0% | 0hPa | 2.7V | 00:00:00 | 01:28:44 | 00:00:00 | |
| IW2NTF | 2026-09-01 12:03:40 | 45.58337 | 9.45330 | 88° | 60km/h | 17179m | 6.8m/s | -56.2°C | 5% | 0hPa | 2.7V | 08:30:00 | 01:28:35 | 00:00:00 | |
| DF1GD-15 | 2026-09-01 12:03:35 | 45.58337 | 9.45330 | 89° | 60km/h | 17179m | 6.8m/s | -56.2°C | 2.0% | 0hPa | 2.6V | 00:00:00 | 00:00:00 | 00:00:00 | |
| DO3MHA-11 | 2026-09-01 12:03:34 | 45.58343 | 9.45292 | 102° | 55km/h | 17171m | 3.6m/s | -56.1°C | 5.0% | 0hPa | 2.6V | 00:00:00 | 01:28:33 | 00:00:00 | |
| IW2NTF | 2026-09-01 12:03:30 | 45.58329 | 9.45141 | 65° | 73km/h | 17130m | 5.6m/s | -56°C | 4.8% | 0hPa | 2.6V | 08:30:00 | 01:28:25 | 00:00:00 | |
| NBG1-10 | 2026-09-01 12:03:28 | 45.58335 | 9.45177 | 98° | 49km/h | 17143m | 4.2m/s | -56.0°C | 4.9% | 0hPa | 2.6V | 00:00:00 | 01:28:27 | 08:30:00 | |
| DO3MHA-11 | 2026-09-01 12:03:24 | 45.58322 | 9.45089 | 98° | 58km/h | 17121m | 5.2m/s | -55.9°C | 4.8% | 0hPa | 2.7V | 00:00:00 | 01:28:23 | 00:00:00 | |
| IW2NTF | 2026-09-01 12:03:19 | 45.58313 | 9.44946 | 65° | 38km/h | 17086m | 6.6m/s | -56.3°C | 4.8% | 0hPa | 2.6V | 08:30:00 | 01:28:15 | 00:00:00 | |
| DF1GD-15 | 2026-09-01 12:03:16 | 45.58313 | 9.44946 | 66° | 38km/h | 17086m | 6.6m/s | -56.3°C | 1.9% | 0hPa | 2.6V | 00:00:00 | 00:00:00 | 00:00:00 | |
| DO3MHA-11 | 2026-09-01 12:03:14 | 45.58301 | 9.44910 | 68° | 53km/h | 17076m | 3.1m/s | -56.4°C | 4.9% | 0hPa | 2.6V | 00:00:00 | 01:28:13 | 00:00:00 | |
| IW2NTF | 2026-09-01 12:03:12 | 45.58284 | 9.44768 | 107° | 46km/h | 17040m | 4.2m/s | -56.5°C | 5.1% | 0hPa | 2.6V | 08:30:00 | 01:28:05 | 00:00:00 | |
| DB0UT-7 | 2026-09-01 12:03:06 | 45.58284 | 9.44768 | 108° | 46km/h | 17041m | 4.1m/s | -56.5°C | 5.1% | 0hPa | 2.6V | 00:00:00 | 01:28:05 | 00:00:00 | |
| DO3MHA-11 | 2026-09-01 12:03:04 | 45.58283 | 9.44734 | 71° | 49km/h | 17030m | 7.8m/s | -56.5°C | 5.0% | 0hPa | 2.6V | 00:00:00 | 01:28:03 | 00:00:00 | |
| IW2NTF | 2026-09-01 12:03:01 | 45.58250 | 9.44592 | 55° | 64km/h | 16992m | 2.1m/s | -56.8°C | 5.3% | 0hPa | 2.6V | 08:30:00 | 01:27:55 | 00:00:00 | |
| DO3MHA-11 | 2026-09-01 12:02:54 | 45.58242 | 9.44558 | 98° | 49km/h | 16982m | 5.9m/s | -56.8°C | 5.3% | 0hPa | 2.7V | 00:00:00 | 01:27:53 | 08:30:00 | |
| NBG1-10 | 2026-09-01 12:02:52 | 45.58243 | 9.44525 | 79° | 44km/h | 16974m | 5.8m/s | -56.8°C | 5.3% | 0hPa | 2.6V | 00:00:00 | 01:27:51 | 00:00:00 | |
| IW2NTF | 2026-09-01 12:02:51 | 45.58226 | 9.44422 | 82° | 51km/h | 16941m | 5.2m/s | -56.6°C | 5.1% | 0hPa | 2.6V | 08:30:00 | 01:27:45 | 00:00:00 | |
| DO3MHA-11 | 2026-09-01 12:02:44 | 45.58212 | 9.44382 | 58° | 46km/h | 16931m | 1.9m/s | -56.4°C | 5.0% | 0hPa | 2.6V | 00:00:00 | 01:27:43 | 00:00:00 | |
| IW2NTF | 2026-09-01 12:02:41 | 45.58194 | 9.44254 | 103° | 38km/h | 16884m | 5.8m/s | -56.2°C | 5% | 0hPa | 2.6V | 08:30:00 | 01:27:35 | 00:00:00 | |
| DO3MHA-11 | 2026-09-01 12:02:34 | 45.58195 | 9.44227 | 79° | 46km/h | 16875m | 7.0m/s | -56.1°C | 4.9% | 0hPa | 2.7V | 00:00:00 | 01:27:33 | 00:00:00 | |
| DF1GD-15 | 2026-09-01 12:02:33 | 45.58195 | 9.44227 | 80° | 40km/h | 16875m | 7.1m/s | -56.2°C | 2.0% | 0hPa | 2.7V | 00:00:00 | 00:00:00 | 00:00:00 | |
| IW2NTF | 2026-09-01 12:02:32 | 45.58183 | 9.44094 | 79° | 68km/h | 16832m | 3.1m/s | -56.7°C | 5% | 0hPa | 2.7V | 08:30:00 | 01:27:25 | 00:00:00 | |
| DL2OL | 2026-09-01 12:02:27 | 45.58190 | 9.44138 | 85° | 46km/h | 16843m | 7.0m/s | -56.7°C | 0% | 0hPa | 2.6V | 00:00:00 | 00:00:00 | 00:00:00 | |
| DO3MHA-11 | 2026-09-01 12:02:24 | 45.58183 | 9.44056 | 113° | 49km/h | 16821m | 5.1m/s | -56.7°C | 5.1% | 0hPa | 2.6V | 00:00:00 | 01:27:23 | 00:00:00 | |
| IW2NTF | 2026-09-01 12:02:21 | 45.58170 | 9.43921 | 71° | 58km/h | 16781m | 6.8m/s | -56.8°C | 5.1% | 0hPa | 2.6V | 08:30:00 | 01:27:15 | 00:00:00 | |
| NBG1-10 | 2026-09-01 12:02:17 | 45.58173 | 9.43939 | 82° | 51km/h | 16787m | 3.4m/s | -56.7°C | 5.1% | 0hPa | 2.6V | 00:00:00 | 01:27:16 | 00:00:00 | |
| DO3MHA-11 | 2026-09-01 12:02:14 | 45.58159 | 9.43880 | 76° | 53km/h | 16772m | 4.2m/s | -56.8°C | 5.0% | 0hPa | 2.6V | 00:00:00 | 01:27:13 | 00:00:00 | |
| DF1GD-15 | 2026-09-01 12:02:13 | 45.58159 | 9.43880 | 76° | 55km/h | 16772m | 4.3m/s | -56.8°C | 2.1% | 0hPa | 2.6V | 00:00:00 | 00:00:00 | 00:00:00 | |
| DL2OL | 2026-09-01 12:02:08 | 45.58140 | 9.43769 | 68° | 62km/h | 16741m | 4.5m/s | -57.1°C | 0% | 0hPa | 2.6V | 00:00:00 | 00:00:00 | 00:00:00 | |
| IW2NTF | 2026-09-01 12:02:05 | 45.58133 | 9.43696 | 79° | 71km/h | 16721m | 6m/s | -57.2°C | 5.1% | 0hPa | 2.6V | 08:30:00 | 01:27:03 | 00:00:00 | |
| DO3MHA-11 | 2026-09-01 12:02:05 | 45.58133 | 9.43696 | 80° | 57km/h | 16722m | 5.9m/s | -57.2°C | 5.1% | 0hPa | 2.6V | 00:00:00 | 01:27:03 | 00:00:00 | |
| IW2NTF | 2026-09-01 12:01:53 | 45.58093 | 9.43472 | 75° | 73km/h | 16665m | 2m/s | -57.8°C | 5.4% | 0hPa | 2.6V | 08:30:00 | 01:26:51 | 00:00:00 | |
| DF1GD-15 | 2026-09-01 12:01:52 | 45.58097 | 9.43494 | 77° | 55km/h | 16670m | 6.9m/s | -57.9°C | 2.3% | 0hPa | 2.6V | 00:00:00 | 00:00:00 | 00:00:00 | |
| DO3MHA-11 | 2026-09-01 12:01:44 | 45.58077 | 9.43332 | 88° | 40km/h | 16631m | 6.4m/s | -57.9°C | 5.6% | 0hPa | 2.6V | 00:00:00 | 01:26:43 | 00:00:00 | |
| IW2NTF | 2026-09-01 12:01:43 | 45.58079 | 9.43255 | 87° | 62km/h | 16607m | 1m/s | -57.9°C | 5.4% | 0hPa | 2.6V | 08:30:00 | 01:26:38 | 00:00:00 | |
| DO3MHA-11 | 2026-09-01 12:01:34 | 45.58084 | 9.43189 | 87° | 42km/h | 16582m | 5.6m/s | -57.8°C | 5.2% | 0hPa | 2.6V | 00:00:00 | 01:26:33 | 00:00:00 | |
| IW2NTF | 2026-09-01 12:01:33 | 45.58090 | 9.43081 | 84° | 46km/h | 16552m | 2.8m/s | -57.9°C | 5.7% | 0hPa | 2.6V | 08:30:00 | 01:26:26 | 00:00:00 | |
| DF1GD-15 | 2026-09-01 12:01:32 | 45.58083 | 9.43147 | 100° | 46km/h | 16573m | 4.0m/s | -57.9°C | 2.3% | 0hPa | 2.7V | 00:00:00 | 00:00:00 | 00:00:00 | |
| DO3MHA-11 | 2026-09-01 12:01:24 | 45.58095 | 9.43042 | 104° | 46km/h | 16540m | 1.1m/s | -57.7°C | 5.7% | 0hPa | 2.7V | 00:00:00 | 01:26:23 | 08:30:00 | |
| IW2NTF | 2026-09-01 12:01:22 | 45.58107 | 9.42939 | 88° | 53km/h | 16512m | 7.4m/s | -57.8°C | 5.5% | 0hPa | 2.7V | 08:30:00 | 01:26:16 | 00:00:00 | |
| DO3MHA-11 | 2026-09-01 12:01:14 | 45.58097 | 9.42887 | 96° | 46km/h | 16502m | 5.2m/s | -57.7°C | 5.4% | 0hPa | 2.7V | 00:00:00 | 01:26:13 | 00:00:00 | |
| IW2NTF | 2026-09-01 12:01:12 | 45.58105 | 9.42793 | 122° | 40km/h | 16473m | 3.7m/s | -57.8°C | 5.6% | 0hPa | 2.7V | 08:30:00 | 01:26:06 | 00:00:00 | |
| NBG1-10 | 2026-09-01 12:01:11 | 45.58112 | 9.42847 | 100° | 53km/h | 16490m | 3.3m/s | -57.7°C | 5.5% | 0hPa | 2.6V | 00:00:00 | 01:26:10 | 00:00:00 | |
| DL2OL | 2026-09-01 12:01:10 | 45.58112 | 9.42847 | 100° | 53km/h | 16490m | 3.4m/s | -57.8°C | 0% | 0hPa | 2.6V | 00:00:00 | 00:00:00 | 00:00:00 | |
| DB0UT-7 | 2026-09-01 12:01:09 | 45.58106 | 9.42812 | 58° | 49km/h | 16481m | 2.1m/s | -57.8°C | 5.4% | 0hPa | 2.6V | 00:00:00 | 01:26:08 | 00:00:00 | |
| DO3MHA-11 | 2026-09-01 12:01:04 | 45.58112 | 9.42734 | 75° | 46km/h | 16461m | 2.6m/s | -57.8°C | 5.6% | 0hPa | 2.6V | 00:00:00 | 01:26:03 | 00:00:00 | |
| IW2NTF | 2026-09-01 12:01:02 | 45.58112 | 9.42609 | 86° | 44km/h | 16431m | 5.3m/s | -57.7°C | 5.5% | 0hPa | 2.6V | 08:30:00 | 01:25:56 | 00:00:00 | |
| DO3MHA-11 | 2026-09-01 12:00:54 | 45.58116 | 9.42573 | 93° | 51km/h | 16420m | 4.6m/s | -57.6°C | 5.5% | 0hPa | 2.7V | 00:00:00 | 01:25:53 | 00:00:00 | |
| IW2NTF | 2026-09-01 12:00:50 | 45.58107 | 9.42446 | 78° | 68km/h | 16388m | 7.7m/s | -57.4°C | 5.2% | 0hPa | 2.7V | 08:30:00 | 01:25:46 | 00:00:00 | |
| DO3MHA-11 | 2026-09-01 12:00:44 | 45.58103 | 9.42375 | 98° | 57km/h | 16372m | 6.4m/s | -57.2°C | 5.1% | 0hPa | 2.8V | 00:00:00 | 01:25:43 | 00:00:00 | |
| IW2NTF | 2026-09-01 12:00:40 | 45.58097 | 9.42242 | 82° | 38km/h | 16338m | 3.1m/s | -57.7°C | 5.5% | 0hPa | 2.8V | 08:30:00 | 01:25:36 | 00:00:00 | |
| NBG1-10 | 2026-09-01 12:00:38 | 45.58098 | 9.42256 | 93° | 58km/h | 16343m | 5.4m/s | -57.7°C | 5.4% | 0hPa | 2.6V | 00:00:00 | 01:25:37 | 00:00:00 | |
| DO3MHA-11 | 2026-09-01 12:00:34 | 45.58087 | 9.42179 | 77° | 57km/h | 16326m | 2.0m/s | -57.9°C | 5.6% | 0hPa | 2.6V | 00:00:00 | 01:25:33 | 00:00:00 | |
| IW2NTF | 2026-09-01 12:00:33 | 45.58065 | 9.42035 | 73° | 49km/h | 16297m | 5.9m/s | -58°C | 5.7% | 0hPa | 2.6V | 08:30:00 | 01:25:26 | 00:00:00 | |
| DF1GD-15 | 2026-09-01 12:00:29 | 45.58080 | 9.42103 | 88° | 60km/h | 16311m | 5.2m/s | -58.0°C | 2.4% | 0hPa | 2.7V | 00:00:00 | 00:00:00 | 00:00:00 | |
| DO3MHA-11 | 2026-09-01 12:00:24 | 45.58062 | 9.41982 | 84° | 57km/h | 16285m | 5.2m/s | -57.9°C | 5.6% | 0hPa | 2.7V | 00:00:00 | 01:25:23 | 00:00:00 | |
| IW2NTF | 2026-09-01 12:00:22 | 45.58039 | 9.41844 | 75° | 77km/h | 16257m | 2.7m/s | -57.8°C | 5.5% | 0hPa | 2.6V | 08:30:00 | 01:25:16 | 00:00:00 | |
| DO3MHA-11 | 2026-09-01 12:00:14 | 45.58030 | 9.41788 | 86° | 58km/h | 16245m | 1.7m/s | -57.6°C | 5.5% | 0hPa | 2.7V | 00:00:00 | 01:25:13 | 00:00:00 | |
| IW2NTF | 2026-09-01 12:00:13 | 45.58014 | 9.41649 | 82° | 60km/h | 16216m | 4.8m/s | -57.6°C | 5.4% | 0hPa | 2.7V | 08:30:00 | 01:25:06 | 00:00:00 | |
| DL2OL | 2026-09-01 12:00:08 | 45.58015 | 9.41685 | 90° | 44km/h | 16223m | 4.3m/s | -57.6°C | 0% | 0hPa | 2.6V | 00:00:00 | 00:00:00 | 00:00:00 | |
| NBG1-10 | 2026-09-01 12:00:05 | 45.58007 | 9.41600 | 78° | 58km/h | 16209m | 4.4m/s | -57.6°C | 5.5% | 0hPa | 2.6V | 00:00:00 | 01:25:04 | 00:00:00 | |
| DB0UT-7 | 2026-09-01 12:00:04 | 45.58004 | 9.41579 | 81° | 58km/h | 16204m | 5.6m/s | -57.6°C | 5.6% | 0hPa | 2.6V | 00:00:00 | 00:00:00 | 08:30:00 | |
| IW2NTF | 2026-09-01 12:00:02 | 45.57990 | 9.41434 | 82° | 47km/h | 16175m | 2.2m/s | -57.7°C | 5.5% | 0hPa | 2.8V | 08:30:00 | 01:24:56 | 00:00:00 | |
| DO3MHA-11 | 2026-09-01 11:59:55 | 45.57981 | 9.41364 | 76° | 55km/h | 16163m | 1.8m/s | -57.7°C | 5.5% | 0hPa | 2.6V | 00:00:00 | 01:24:53 | 08:30:00 | |
| IW2NTF | 2026-09-01 11:59:53 | 45.57957 | 9.41220 | 71° | 51km/h | 16134m | 5.3m/s | -57.5°C | 5.5% | 0hPa | 2.6V | 08:30:00 | 01:24:46 | 00:00:00 | |
| DO3MHA-11 | 2026-09-01 11:59:44 | 45.57951 | 9.41166 | 86° | 64km/h | 16124m | 5.4m/s | -57.5°C | 5.4% | 0hPa | 2.6V | 00:00:00 | 01:24:43 | 00:00:00 | |
| IW2NTF | 2026-09-01 11:59:40 | 45.57925 | 9.41020 | 78° | 71km/h | 16094m | 2.4m/s | -57.5°C | 5.5% | 0hPa | 2.6V | 08:30:00 | 01:24:36 | 00:00:00 | |
| DO3MHA-11 | 2026-09-01 11:59:34 | 45.57915 | 9.40969 | 74° | 60km/h | 16083m | -0.1m/s | -57.4°C | 5.5% | 0hPa | 2.6V | 00:00:00 | 01:24:33 | 00:00:00 | |
| DB0UT-7 | 2026-09-01 11:59:33 | 45.57912 | 9.40953 | 79° | 57km/h | 16081m | 5.4m/s | -57.5°C | 5.5% | 0hPa | 2.6V | 00:00:00 | 01:24:32 | 00:00:00 | |
| IW2NTF | 2026-09-01 11:59:32 | 45.57887 | 9.40835 | 76° | 53km/h | 16054m | 4.1m/s | -57.5°C | 5.4% | 0hPa | 2.6V | 08:30:00 | 01:24:26 | 00:00:00 | |
| NBG1-10 | 2026-09-01 11:59:32 | 45.57909 | 9.40932 | 80° | 57km/h | 16074m | 8.0m/s | -57.5°C | 5.4% | 0hPa | 2.7V | 00:00:00 | 01:24:31 | 00:00:00 | |
| DF1GD-15 | 2026-09-01 11:59:27 | 45.57890 | 9.40850 | 68° | 35km/h | 16057m | 2.3m/s | -57.5°C | 2.3% | 0hPa | 2.7V | 00:00:00 | 00:00:00 | 00:00:00 | |
| DO3MHA-11 | 2026-09-01 11:59:24 | 45.57877 | 9.40759 | 77° | 57km/h | 16043m | 3.7m/s | -57.3°C | 5.3% | 0hPa | 2.7V | 00:00:00 | 01:24:23 | 00:00:00 | |
| IW2NTF | 2026-09-01 11:59:20 | 45.57854 | 9.40627 | 71° | 42km/h | 16011m | 5.9m/s | -57.3°C | 5.4% | 0hPa | 2.8V | 08:30:00 | 01:24:16 | 00:00:00 | |
| DL2OL | 2026-09-01 11:59:17 | 45.57858 | 9.40644 | 78° | 60km/h | 16016m | 4.8m/s | -57.3°C | 0% | 0hPa | 2.8V | 00:00:00 | 00:00:00 | 00:00:00 | |
| DO3MHA-11 | 2026-09-01 11:59:13 | 45.57839 | 9.40551 | 74° | 55km/h | 15994m | 3.8m/s | -57.1°C | 5.4% | 0hPa | 2.8V | 00:00:00 | 01:24:12 | 00:00:00 | |
| IW2NTF | 2026-09-01 11:59:12 | 45.57814 | 9.40434 | 75° | 62km/h | 15967m | 4m/s | -57°C | 5.4% | 0hPa | 2.8V | 08:30:00 | 01:24:06 | 00:00:00 | |
| DF1GD-15 | 2026-09-01 11:59:07 | 45.57817 | 9.40457 | 80° | 71km/h | 15971m | 3.9m/s | -57.0°C | 2.3% | 0hPa | 2.6V | 00:00:00 | 00:00:00 | 00:00:00 | |
| DB0UT-7 | 2026-09-01 11:59:03 | 45.57798 | 9.40366 | 78° | 62km/h | 15948m | 6.1m/s | -56.9°C | 5.3% | 0hPa | 2.6V | 00:00:00 | 00:00:00 | 00:00:00 | |
| IW2NTF | 2026-09-01 11:59:02 | 45.57771 | 9.40251 | 78° | 73km/h | 15922m | 6.9m/s | -56.7°C | 5.3% | 0hPa | 2.6V | 08:30:00 | 01:23:56 | 00:00:00 | |
| NBG1-10 | 2026-09-01 11:58:59 | 45.57781 | 9.40288 | 60° | 57km/h | 15931m | 1.3m/s | -56.8°C | 5.3% | 0hPa | 2.6V | 00:00:00 | 01:23:58 | 00:00:00 | |
| DO3MHA-11 | 2026-09-01 11:58:53 | 45.57757 | 9.40173 | 62° | 55km/h | 15905m | 1.9m/s | -56.6°C | 5.2% | 0hPa | 2.6V | 00:00:00 | 01:23:52 | 00:00:00 | |
| IW2NTF | 2026-09-01 11:58:52 | 45.57736 | 9.40060 | 72° | 37km/h | 15881m | 1.8m/s | -56.5°C | 5.2% | 0hPa | 2.6V | 08:30:00 | 01:23:46 | 00:00:00 | |
| DF1GD-15 | 2026-09-01 11:58:46 | 45.57736 | 9.40060 | 73° | 37km/h | 15881m | 1.8m/s | -56.5°C | 2.2% | 0hPa | 2.6V | 00:00:00 | 00:00:00 | 00:00:00 | |
| DO3MHA-11 | 2026-09-01 11:58:43 | 45.57728 | 9.39974 | 71° | 64km/h | 15864m | 6.1m/s | -56.4°C | 5.3% | 0hPa | 2.6V | 00:00:00 | 01:23:42 | 00:00:00 | |
| IW2NTF | 2026-09-01 11:58:42 | 45.57703 | 9.39840 | 52° | 46km/h | 15835m | 4.5m/s | -56.3°C | 5.2% | 0hPa | 2.6V | 08:30:00 | 01:23:35 | 00:00:00 | |
| DO3MHA-11 | 2026-09-01 11:58:31 | 45.57689 | 9.39734 | 78° | 60km/h | 15818m | 5.3m/s | -56.1°C | 5.1% | 0hPa | 2.8V | 00:00:00 | 01:23:30 | 00:00:00 | |
| IW2NTF | 2026-09-01 11:58:27 | 45.57660 | 9.39555 | 84° | 49km/h | 15778m | 5m/s | -56.1°C | 5% | 0hPa | 2.8V | 08:30:00 | 01:23:21 | 00:00:00 | |
| NBG1-10 | 2026-09-01 11:58:26 | 45.57676 | 9.39634 | 91° | 64km/h | 15795m | 1.6m/s | -56.0°C | 5.0% | 0hPa | 2.6V | 00:00:00 | 01:23:25 | 08:30:00 | |
| DF1GD-15 | 2026-09-01 11:58:25 | 45.57676 | 9.39634 | 92° | 78km/h | 15795m | 1.7m/s | -56.0°C | 2.2% | 0hPa | 2.7V | 00:00:00 | 00:00:00 | 00:00:00 | |
| DO3MHA-11 | 2026-09-01 11:58:21 | 45.57661 | 9.39534 | 103° | 66km/h | 15773m | 6.6m/s | -56.1°C | 5.1% | 0hPa | 2.7V | 00:00:00 | 01:23:20 | 08:30:00 | |
| DB0UT-7 | 2026-09-01 11:58:14 | 45.57652 | 9.39374 | 94° | 68km/h | 15744m | 3.7m/s | -56.1°C | 5.3% | 0hPa | 2.6V | 00:00:00 | 01:23:13 | 00:00:00 | |
| IW2NTF | 2026-09-01 11:58:11 | 45.57642 | 9.39305 | 77° | 68km/h | 15732m | 1.9m/s | -56.2°C | 5.1% | 0hPa | 2.6V | 08:30:00 | 01:23:10 | 00:00:00 | |
| DF1GD-15 | 2026-09-01 11:58:04 | 45.57633 | 9.39168 | 78° | 78km/h | 15708m | 3.8m/s | -56.3°C | 2.2% | 0hPa | 2.6V | 00:00:00 | 00:00:00 | 00:00:00 | |
| IW2NTF | 2026-09-01 11:58:01 | 45.57620 | 9.39027 | 79° | 77km/h | 15688m | 4.3m/s | -56.5°C | 5.2% | 0hPa | 2.6V | 08:30:00 | 01:22:58 | 00:00:00 | |
| DO3MHA-11 | 2026-09-01 11:58:01 | 45.57631 | 9.39077 | 72° | 68km/h | 15694m | 6.2m/s | -56.4°C | 5.2% | 0hPa | 2.6V | 00:00:00 | 01:23:00 | 00:00:00 | |
| NBG1-10 | 2026-09-01 11:57:53 | 45.57602 | 9.38885 | 80° | 68km/h | 15665m | 6.7m/s | -56.5°C | 5.3% | 0hPa | 2.6V | 00:00:00 | 01:22:52 | 00:00:00 | |
| IW2NTF | 2026-09-01 11:57:51 | 45.57591 | 9.38799 | 66° | 84km/h | 15645m | 5.8m/s | -56.5°C | 5.2% | 0hPa | 2.6V | 08:30:00 | 01:22:48 | 00:00:00 | |
| DO3MHA-11 | 2026-09-01 11:57:51 | 45.57601 | 9.38842 | 86° | 68km/h | 15657m | 4.1m/s | -56.5°C | 5.3% | 0hPa | 2.7V | 00:00:00 | 01:22:50 | 00:00:00 | |
| DB0UT-7 | 2026-09-01 11:57:45 | 45.57575 | 9.38676 | 70° | 71km/h | 15620m | 6.7m/s | -56.6°C | 5.2% | 0hPa | 2.8V | 00:00:00 | 00:00:00 | 00:00:00 | |
| IW2NTF | 2026-09-01 11:57:41 | 45.57561 | 9.38548 | 92° | 51km/h | 15597m | 3.1m/s | -56.7°C | 5.3% | 0hPa | 2.8V | 08:30:00 | 01:22:38 | 00:00:00 | |
| DO3MHA-11 | 2026-09-01 11:57:41 | 45.57559 | 9.38592 | 88° | 64km/h | 15604m | 4.7m/s | -56.6°C | 5.2% | 0hPa | 2.6V | 00:00:00 | 01:22:40 | 00:00:00 | |
| IW2NTF | 2026-09-01 11:57:31 | 45.57528 | 9.38313 | 82° | 66km/h | 15550m | 6.7m/s | -56.8°C | 5.3% | 0hPa | 2.6V | 08:30:00 | 01:22:28 | 00:00:00 | |
| DO3MHA-11 | 2026-09-01 11:57:31 | 45.57537 | 9.38366 | 72° | 69km/h | 15560m | 4.5m/s | -56.7°C | 5.3% | 0hPa | 2.8V | 00:00:00 | 01:22:30 | 00:00:00 | |
| DF1GD-15 | 2026-09-01 11:57:23 | 45.57511 | 9.38199 | 78° | 86km/h | 15529m | 3.0m/s | 0°C | 0% | 0hPa | 2.8V | 00:00:00 | 00:00:00 | 00:00:00 | |
| IW2NTF | 2026-09-01 11:57:21 | 45.57490 | 9.38074 | 70° | 100km/h | 15507m | 2m/s | -57.1°C | 5.4% | 0hPa | 2.8V | 08:30:00 | 01:22:18 | 00:00:00 | |
| DO3MHA-11 | 2026-09-01 11:57:21 | 45.57503 | 9.38129 | 75° | 77km/h | 15518m | 2.4m/s | -56.9°C | 5.5% | 0hPa | 2.6V | 00:00:00 | 01:22:20 | 00:00:00 | |
| NBG1-10 | 2026-09-01 11:57:15 | 45.57478 | 9.37973 | 78° | 73km/h | 15490m | 4.2m/s | -57.2°C | 5.5% | 0hPa | 2.8V | 00:00:00 | 01:22:14 | 00:00:00 | |
| IW2NTF | 2026-09-01 11:57:12 | 45.57453 | 9.37817 | 81° | 57km/h | 15462m | 2.8m/s | -57.2°C | 5.7% | 0hPa | 2.8V | 08:30:00 | 01:22:08 | 00:00:00 | |
| DO3MHA-11 | 2026-09-01 11:57:11 | 45.57456 | 9.37857 | 83° | 73km/h | 15471m | 6.4m/s | -57.2°C | 5.6% | 0hPa | 2.8V | 00:00:00 | 01:22:10 | 00:00:00 | |
| IW2NTF | 2026-09-01 11:57:02 | 45.57417 | 9.37549 | 80° | 68km/h | 15422m | 6.6m/s | -57.2°C | 5.6% | 0hPa | 2.8V | 08:30:00 | 01:21:58 | 00:00:00 | |
| DO3MHA-11 | 2026-09-01 11:57:00 | 45.57421 | 9.37576 | 78° | 71km/h | 15427m | 1.7m/s | -57.1°C | 5.6% | 0hPa | 2.8V | 00:00:00 | 01:21:59 | 00:00:00 | |
| DB0UT-7 | 2026-09-01 11:56:53 | 45.57394 | 9.37399 | 82° | 71km/h | 15397m | 5.0m/s | -57.2°C | 5.7% | 0hPa | 2.8V | 00:00:00 | 01:21:52 | 00:00:00 | |
| IW2NTF | 2026-09-01 11:56:52 | 45.57377 | 9.37312 | 75° | 82km/h | 15378m | 3.6m/s | -57.2°C | 5.7% | 0hPa | 2.8V | 08:30:00 | 01:21:48 | 00:00:00 | |
| DO3MHA-11 | 2026-09-01 11:56:50 | 45.57382 | 9.37338 | 72° | 69km/h | 15383m | 4.6m/s | -57.2°C | 5.7% | 0hPa | 2.6V | 00:00:00 | 01:21:49 | 08:30:00 | |
| IW2NTF | 2026-09-01 11:56:42 | 45.57334 | 9.37070 | 76° | 82km/h | 15337m | 4.4m/s | -57°C | 5.6% | 0hPa | 2.6V | 08:30:00 | 01:21:38 | 00:00:00 | |
| DO3MHA-11 | 2026-09-01 11:56:40 | 45.57338 | 9.37096 | 79° | 71km/h | 15342m | 4.7m/s | -56.9°C | 5.6% | 0hPa | 2.6V | 00:00:00 | 01:21:39 | 00:00:00 | |
| IW2NTF | 2026-09-01 11:56:31 | 45.57292 | 9.36826 | 70° | 77km/h | 15295m | 5.7m/s | -57°C | 5.7% | 0hPa | 2.6V | 08:30:00 | 01:21:28 | 00:00:00 | |
| DO3MHA-11 | 2026-09-01 11:56:30 | 45.57298 | 9.36850 | 72° | 71km/h | 15299m | 3.6m/s | -56.9°C | 5.8% | 0hPa | 2.6V | 00:00:00 | 01:21:29 | 00:00:00 | |
| IW2NTF | 2026-09-01 11:56:21 | 45.57254 | 9.36584 | 82° | 60km/h | 15254m | 2.1m/s | -57.1°C | 5.7% | 0hPa | 2.6V | 08:30:00 | 01:21:18 | 00:00:00 | |
| DB0UT-7 | 2026-09-01 11:56:20 | 45.57256 | 9.36603 | 87° | 71km/h | 15257m | 3.7m/s | -57.1°C | 5.8% | 0hPa | 2.6V | 00:00:00 | 00:00:00 | 00:00:00 | |
| IW2NTF | 2026-09-01 11:56:12 | 45.57225 | 9.36314 | 78° | 55km/h | 15206m | 1.5m/s | -57.4°C | 6% | 0hPa | 2.6V | 08:30:00 | 01:21:07 | 00:00:00 | |
| NBG1-10 | 2026-09-01 11:56:06 | 45.57212 | 9.36231 | 76° | 78km/h | 15195m | 1.2m/s | -57.4°C | 5.9% | 0hPa | 2.6V | 00:00:00 | 01:21:04 | 00:00:00 | |
| IW2NTF | 2026-09-01 11:56:01 | 45.57183 | 9.36048 | 78° | 75km/h | 15167m | 4m/s | -57.5°C | 5.8% | 0hPa | 2.6V | 08:30:00 | 01:20:57 | 00:00:00 | |
| DO3MHA-11 | 2026-09-01 11:56:00 | 45.57192 | 9.36111 | 78° | 78km/h | 15175m | 4.1m/s | -57.4°C | 5.8% | 0hPa | 2.8V | 00:00:00 | 01:20:59 | 00:00:00 | |
| IW2NTF | 2026-09-01 11:55:51 | 45.57144 | 9.35787 | 71° | 73km/h | 15126m | 4.2m/s | -57.7°C | 6.2% | 0hPa | 2.8V | 08:30:00 | 01:20:47 | 00:00:00 | |
| IW2NTF | 2026-09-01 11:55:42 | 45.57101 | 9.35497 | 82° | 77km/h | 15081m | 5.5m/s | -57.8°C | 6.3% | 0hPa | 2.8V | 08:30:00 | 01:20:37 | 00:00:00 | |
| DO3MHA-11 | 2026-09-01 11:55:40 | 45.57106 | 9.35563 | 80° | 82km/h | 15091m | 6.1m/s | -57.8°C | 6.3% | 0hPa | 2.6V | 00:00:00 | 01:20:39 | 00:00:00 | |
| NBG1-10 | 2026-09-01 11:55:32 | 45.57072 | 9.35326 | 73° | 78km/h | 15056m | 5.8m/s | -57.7°C | 6.0% | 0hPa | 2.6V | 00:00:00 | 01:20:31 | 00:00:00 | |
| IW2NTF | 2026-09-01 11:55:31 | 45.57058 | 9.35224 | 85° | 99km/h | 15036m | 4.6m/s | -57.7°C | 6.1% | 0hPa | 2.6V | 08:30:00 | 01:20:27 | 00:00:00 | |
| DO3MHA-11 | 2026-09-01 11:55:30 | 45.57062 | 9.35281 | 78° | 78km/h | 15046m | 1.6m/s | -57.6°C | 6.0% | 0hPa | 2.8V | 00:00:00 | 01:20:29 | 00:00:00 | |
| IW2NTF | 2026-09-01 11:55:22 | 45.57020 | 9.34945 | 83° | 75km/h | 14991m | 4.5m/s | -57.4°C | 6.2% | 0hPa | 2.8V | 08:30:00 | 01:20:17 | 00:00:00 | |
| DB0UT-7 | 2026-09-01 11:55:20 | 45.57025 | 9.34992 | 81° | 78km/h | 15000m | 6.5m/s | -57.4°C | 6.3% | 0hPa | 2.6V | 00:00:00 | 00:00:00 | 00:00:00 | |
| DO3MHA-11 | 2026-09-01 11:55:20 | 45.57025 | 9.34992 | 81° | 78km/h | 15000m | 6.5m/s | -57.4°C | 6.3% | 0hPa | 2.6V | 00:00:00 | 01:20:19 | 08:30:00 | |
| IW2NTF | 2026-09-01 11:55:11 | 45.56989 | 9.34657 | 78° | 64km/h | 14943m | 5.8m/s | -57.2°C | 6% | 0hPa | 2.6V | 08:30:00 | 01:20:07 | 00:00:00 | |
| DO3MHA-11 | 2026-09-01 11:55:10 | 45.56996 | 9.34716 | 83° | 78km/h | 14953m | 3.4m/s | -57.1°C | 6.0% | 0hPa | 2.6V | 00:00:00 | 01:20:09 | 00:00:00 | |
| IW2NTF | 2026-09-01 11:55:01 | 45.56958 | 9.34382 | 79° | 88km/h | 14899m | 3.6m/s | -57.1°C | 6.1% | 0hPa | 2.6V | 08:30:00 | 01:19:57 | 00:00:00 | |
| DO3MHA-11 | 2026-09-01 11:55:00 | 45.56964 | 9.34445 | 84° | 80km/h | 14908m | 4.8m/s | -57.1°C | 6.1% | 0hPa | 2.6V | 00:00:00 | 01:19:59 | 00:00:00 | |
| NBG1-10 | 2026-09-01 11:54:59 | 45.56961 | 9.34414 | 84° | 80km/h | 14904m | 3.7m/s | -57.1°C | 6.1% | 0hPa | 2.6V | 00:00:00 | 01:19:58 | 00:00:00 | |
| DO3MHA-11 | 2026-09-01 11:54:50 | 45.56922 | 9.34165 | 73° | 78km/h | 14860m | 1.6m/s | -56.9°C | 6.1% | 0hPa | 2.6V | 00:00:00 | 01:19:49 | 00:00:00 | |
| DB0UT-7 | 2026-09-01 11:54:46 | 45.56906 | 9.34050 | 79° | 80km/h | 14842m | 6.0m/s | -56.9°C | 6.0% | 0hPa | 2.7V | 00:00:00 | 01:19:45 | 08:30:00 | |
| IW2NTF | 2026-09-01 11:54:44 | 45.56888 | 9.33974 | 76° | 88km/h | 14828m | 4.3m/s | -57°C | 6.1% | 0hPa | 2.6V | 08:30:00 | 01:19:42 | 00:00:00 | |
| DO3MHA-11 | 2026-09-01 11:54:40 | 45.56879 | 9.33887 | 75° | 82km/h | 14814m | 3.4m/s | -56.9°C | 6.2% | 0hPa | 2.6V | 00:00:00 | 01:19:39 | 00:00:00 | |
| IW2NTF | 2026-09-01 11:54:34 | 45.56834 | 9.33663 | 64° | 97km/h | 14779m | 3.5m/s | -57°C | 6.1% | 0hPa | 2.6V | 08:30:00 | 01:19:31 | 00:00:00 | |
| DO3MHA-11 | 2026-09-01 11:54:30 | 45.56816 | 9.33610 | 71° | 84km/h | 14770m | 4.5m/s | -56.9°C | 6.2% | 0hPa | 2.6V | 00:00:00 | 01:19:29 | 00:00:00 | |
| NBG1-10 | 2026-09-01 11:54:26 | 45.56795 | 9.33492 | 67° | 84km/h | 14753m | 4.7m/s | 0°C | 0% | 0hPa | 2.6V | 00:00:00 | 01:19:25 | 00:00:00 | |
| IW2NTF | 2026-09-01 11:54:25 | 45.56766 | 9.33389 | 77° | 93km/h | 14733m | 5.8m/s | -57.2°C | 6.3% | 0hPa | 2.6V | 08:30:00 | 01:19:21 | 00:00:00 | |
| DO3MHA-11 | 2026-09-01 11:54:20 | 45.56755 | 9.33321 | 75° | 82km/h | 14726m | 4.3m/s | -57.2°C | 6.2% | 0hPa | 2.7V | 00:00:00 | 01:19:19 | 00:00:00 | |
| DB0UT-7 | 2026-09-01 11:54:16 | 45.56732 | 9.33214 | 80° | 84km/h | 14708m | 5.7m/s | -57.5°C | 6.3% | 0hPa | 2.7V | 00:00:00 | 00:00:00 | 00:00:00 | |
| IW2NTF | 2026-09-01 11:54:14 | 45.56686 | 9.32976 | 74° | 80km/h | 14671m | 4.2m/s | -57.4°C | 6.6% | 0hPa | 2.7V | 08:30:00 | 01:19:07 | 00:00:00 | |
| DO3MHA-11 | 2026-09-01 11:54:10 | 45.56697 | 9.33038 | 76° | 84km/h | 14681m | 4.3m/s | -57.4°C | 6.5% | 0hPa | 2.6V | 00:00:00 | 01:19:09 | 00:00:00 | |
| IW2NTF | 2026-09-01 11:54:03 | 45.56628 | 9.32679 | 72° | 78km/h | 14629m | 7.3m/s | -57.1°C | 6.3% | 0hPa | 2.6V | 08:30:00 | 01:18:57 | 00:00:00 | |
| DO3MHA-11 | 2026-09-01 11:54:00 | 45.56640 | 9.32746 | 80° | 86km/h | 14636m | 3.8m/s | -57.1°C | 6.5% | 0hPa | 2.8V | 00:00:00 | 01:18:59 | 00:00:00 | |
| DL2OL | 2026-09-01 11:53:55 | 45.56617 | 9.32636 | 70° | 69km/h | 14621m | 1.2m/s | 0°C | 0% | 0hPa | 2.8V | 00:00:00 | 00:00:00 | 00:00:00 | |
| NBG1-10 | 2026-09-01 11:53:53 | 45.56601 | 9.32534 | 81° | 84km/h | 14608m | 0.7m/s | 0°C | 0% | 0hPa | 2.8V | 00:00:00 | 01:18:52 | 00:00:00 | |
| IW2NTF | 2026-09-01 11:53:52 | 45.56580 | 9.32362 | 77° | 108km/h | 14580m | 3.4m/s | -56.8°C | 5.9% | 0hPa | 2.8V | 08:30:00 | 01:18:46 | 00:00:00 | |
| DO3MHA-11 | 2026-09-01 11:53:50 | 45.56590 | 9.32454 | 82° | 82km/h | 14594m | 0.9m/s | -56.8°C | 6.0% | 0hPa | 2.6V | 00:00:00 | 01:18:49 | 08:30:00 | |
| DB0UT-7 | 2026-09-01 11:53:46 | 45.56575 | 9.32327 | 75° | 82km/h | 14577m | 4.8m/s | -56.7°C | 6.0% | 0hPa | 2.8V | 00:00:00 | 01:18:45 | 00:00:00 | |
| IW2NTF | 2026-09-01 11:53:42 | 45.56549 | 9.32076 | 91° | 84km/h | 14536m | 5m/s | -56.9°C | 6.1% | 0hPa | 2.8V | 08:30:00 | 01:18:36 | 00:00:00 | |
| DO3MHA-11 | 2026-09-01 11:53:40 | 45.56551 | 9.32157 | 80° | 80km/h | 14549m | 4.7m/s | -56.7°C | 6.1% | 0hPa | 2.6V | 00:00:00 | 01:18:39 | 00:00:00 | |
| IW2NTF | 2026-09-01 11:53:32 | 45.56522 | 9.31775 | 81° | 69km/h | 14492m | 4m/s | -56.9°C | 6% | 0hPa | 2.6V | 08:30:00 | 01:18:26 | 00:00:00 | |
| DO3MHA-11 | 2026-09-01 11:53:30 | 45.56532 | 9.31868 | 81° | 84km/h | 14505m | 5.0m/s | -57.0°C | 5.9% | 0hPa | 2.6V | 00:00:00 | 01:18:29 | 00:00:00 | |
| IW2NTF | 2026-09-01 11:53:23 | 45.56493 | 9.31480 | 86° | 78km/h | 14448m | 3m/s | -56.9°C | 6.1% | 0hPa | 2.6V | 08:30:00 | 01:18:16 | 00:00:00 | |
| DO3MHA-11 | 2026-09-01 11:53:20 | 45.56500 | 9.31570 | 81° | 82km/h | 14461m | 5.0m/s | -56.9°C | 6.1% | 0hPa | 2.7V | 00:00:00 | 01:18:19 | 00:00:00 | |
| IW2NTF | 2026-09-01 11:53:13 | 45.56448 | 9.31180 | 75° | 73km/h | 14407m | 6.5m/s | -56.7°C | 5.9% | 0hPa | 2.6V | 08:30:00 | 01:18:06 | 00:00:00 | |
| DO3MHA-11 | 2026-09-01 11:53:10 | 45.56466 | 9.31276 | 82° | 86km/h | 14420m | 7.1m/s | -56.7°C | 6.0% | 0hPa | 2.8V | 00:00:00 | 01:18:09 | 00:00:00 | |
| IW2NTF | 2026-09-01 11:53:02 | 45.56400 | 9.30899 | 79° | 100km/h | 14364m | 3.4m/s | -56.6°C | 5.8% | 0hPa | 2.8V | 08:30:00 | 01:17:56 | 00:00:00 | |
| DO3MHA-11 | 2026-09-01 11:53:00 | 45.56419 | 9.30981 | 70° | 80km/h | 14377m | 3.8m/s | -56.5°C | 5.7% | 0hPa | 2.7V | 00:00:00 | 01:17:59 | 00:00:00 | |
| DO3MHA-11 | 2026-09-01 11:52:50 | 45.56362 | 9.30701 | 81° | 82km/h | 14335m | 4.8m/s | -56.6°C | 6.1% | 0hPa | 2.7V | 00:00:00 | 01:17:49 | 00:00:00 | |
| IW2NTF | 2026-09-01 11:52:45 | 45.56320 | 9.30506 | 71° | 68km/h | 14308m | 1.8m/s | -56.6°C | 5.9% | 0hPa | 2.6V | 08:30:00 | 01:17:42 | 00:00:00 | |
| DB0UT-7 | 2026-09-01 11:52:42 | 45.56314 | 9.30480 | 72° | 88km/h | 14305m | 4.9m/s | -56.6°C | 5.9% | 0hPa | 2.6V | 00:00:00 | 00:00:00 | 00:00:00 | |
| DO3MHA-11 | 2026-09-01 11:52:40 | 45.56300 | 9.30411 | 78° | 84km/h | 14298m | 3.3m/s | -56.6°C | 5.9% | 0hPa | 2.8V | 00:00:00 | 01:17:39 | 00:00:00 | |
| DL2OL | 2026-09-01 11:52:39 | 45.56296 | 9.30378 | 83° | 82km/h | 14294m | 5.1m/s | 0°C | 0% | 0hPa | 2.8V | 00:00:00 | 00:00:00 | 00:00:00 | |
| IW2NTF | 2026-09-01 11:52:35 | 45.56260 | 9.30200 | 83° | 71km/h | 14269m | 5.7m/s | -56.5°C | 5.9% | 0hPa | 2.8V | 08:30:00 | 01:17:32 | 00:00:00 | |
| DO3MHA-11 | 2026-09-01 11:52:30 | 45.56243 | 9.30117 | 68° | 91km/h | 14257m | 3.8m/s | -56.5°C | 5.8% | 0hPa | 2.7V | 00:00:00 | 01:17:29 | 00:00:00 | |
| IW2NTF | 2026-09-01 11:52:26 | 45.56193 | 9.29896 | 69° | 91km/h | 14229m | 5.3m/s | -56.2°C | 5.8% | 0hPa | 2.7V | 08:30:00 | 01:17:22 | 00:00:00 | |
| DO3MHA-11 | 2026-09-01 11:52:20 | 45.56177 | 9.29807 | 77° | 89km/h | 14216m | 5.1m/s | -56.1°C | 5.8% | 0hPa | 2.7V | 00:00:00 | 01:17:19 | 08:30:00 | |
| IW2NTF | 2026-09-01 11:52:15 | 45.56127 | 9.29594 | 71° | 113km/h | 14185m | 2.6m/s | -56°C | 5.7% | 0hPa | 2.6V | 08:30:00 | 01:17:12 | 00:00:00 | |
| DB0UT-7 | 2026-09-01 11:52:13 | 45.56119 | 9.29558 | 72° | 78km/h | 14182m | 5.7m/s | -55.9°C | 5.7% | 0hPa | 2.8V | 00:00:00 | 01:17:11 | 00:00:00 | |
| DO3MHA-11 | 2026-09-01 11:52:11 | 45.56109 | 9.29506 | 75° | 84km/h | 14171m | 4.5m/s | -55.8°C | 5.6% | 0hPa | 2.8V | 00:00:00 | 01:17:09 | 00:00:00 | |
| IW2NTF | 2026-09-01 11:52:06 | 45.56065 | 9.29313 | 69° | 82km/h | 14141m | 6.9m/s | -55.7°C | 5.4% | 0hPa | 2.8V | 08:30:00 | 01:17:02 | 00:00:00 | |
| DO3MHA-11 | 2026-09-01 11:52:00 | 45.56047 | 9.29216 | 79° | 80km/h | 14127m | 5.4m/s | -55.7°C | 5.5% | 0hPa | 2.7V | 00:00:00 | 01:16:59 | 00:00:00 | |
| IW2NTF | 2026-09-01 11:51:56 | 45.56020 | 9.29019 | 73° | 73km/h | 14101m | 5m/s | -55.7°C | 5.5% | 0hPa | 2.7V | 08:30:00 | 01:16:52 | 00:00:00 | |
| DO3MHA-11 | 2026-09-01 11:51:50 | 45.56003 | 9.28930 | 84° | 82km/h | 14092m | 3.4m/s | -55.6°C | 5.6% | 0hPa | 2.7V | 00:00:00 | 01:16:49 | 00:00:00 | |
| IW2NTF | 2026-09-01 11:51:46 | 45.55975 | 9.28728 | 87° | 68km/h | 14063m | 3.7m/s | -55.6°C | 5.5% | 0hPa | 2.6V | 08:30:00 | 01:16:42 | 00:00:00 | |
| DB0UT-7 | 2026-09-01 11:51:42 | 45.55974 | 9.28702 | 85° | 88km/h | 14060m | 4.0m/s | -55.5°C | 5.5% | 0hPa | 2.8V | 00:00:00 | 00:00:00 | 00:00:00 | |
| DO3MHA-11 | 2026-09-01 11:51:40 | 45.55966 | 9.28636 | 76° | 88km/h | 14049m | 2.5m/s | -55.5°C | 5.4% | 0hPa | 2.8V | 00:00:00 | 01:16:39 | 00:00:00 | |
| IW2NTF | 2026-09-01 11:51:35 | 45.55944 | 9.28415 | 80° | 89km/h | 14020m | 5.2m/s | -55.5°C | 5.6% | 0hPa | 2.8V | 08:30:00 | 01:16:32 | 00:00:00 | |
| DO3MHA-11 | 2026-09-01 11:51:30 | 45.55938 | 9.28326 | 88° | 88km/h | 14006m | 4.6m/s | -55.4°C | 5.6% | 0hPa | 2.7V | 00:00:00 | 01:16:29 | 00:00:00 | |
| IW2NTF | 2026-09-01 11:51:27 | 45.55922 | 9.28097 | 84° | 102km/h | 13981m | 2.1m/s | -55.5°C | 5.4% | 0hPa | 2.7V | 08:30:00 | 01:16:22 | 00:00:00 | |
| DO3MHA-11 | 2026-09-01 11:51:20 | 45.55912 | 9.28010 | 86° | 89km/h | 13971m | 3.5m/s | -55.4°C | 5.4% | 0hPa | 2.7V | 00:00:00 | 01:16:19 | 00:00:00 | |
| IW2NTF | 2026-09-01 11:51:16 | 45.55901 | 9.27785 | 87° | 99km/h | 13943m | 4.9m/s | -55.4°C | 5.6% | 0hPa | 2.7V | 08:30:00 | 01:16:12 | 00:00:00 | |
| DB0UT-7 | 2026-09-01 11:51:11 | 45.55899 | 9.27686 | 84° | 97km/h | 13931m | 3.9m/s | -55.6°C | 5.7% | 0hPa | 2.7V | 00:00:00 | 01:16:09 | 00:00:00 | |
| DO3MHA-11 | 2026-09-01 11:51:10 | 45.55899 | 9.27686 | 84° | 91km/h | 13931m | 3.9m/s | -55.6°C | 5.7% | 0hPa | 2.8V | 00:00:00 | 01:16:09 | 00:00:00 | |
| IW2NTF | 2026-09-01 11:51:05 | 45.55893 | 9.27464 | 85° | 97km/h | 13902m | 5.6m/s | -55.7°C | 5.7% | 0hPa | 2.8V | 08:30:00 | 01:16:02 | 00:00:00 | |
| DO3MHA-11 | 2026-09-01 11:51:00 | 45.55899 | 9.27357 | 101° | 95km/h | 13888m | 4.4m/s | -55.6°C | 5.8% | 0hPa | 2.7V | 00:00:00 | 01:15:59 | 00:00:00 | |
| IW2NTF | 2026-09-01 11:50:55 | 45.55909 | 9.27127 | 89° | 82km/h | 13858m | 5.5m/s | -55.8°C | 5.7% | 0hPa | 2.7V | 08:30:00 | 01:15:52 | 00:00:00 | |
| DO3MHA-11 | 2026-09-01 11:50:50 | 45.55907 | 9.27014 | 94° | 102km/h | 13843m | 4.3m/s | -55.8°C | 5.8% | 0hPa | 2.7V | 00:00:00 | 01:15:49 | 08:30:00 | |
| IW2NTF | 2026-09-01 11:50:45 | 45.55910 | 9.26761 | 95° | 100km/h | 13813m | 3m/s | -56.5°C | 6.5% | 0hPa | 2.7V | 08:30:00 | 01:15:42 | 00:00:00 | |
| DO3MHA-11 | 2026-09-01 11:50:40 | 45.55911 | 9.26648 | 87° | 97km/h | 13802m | 2.5m/s | -56.6°C | 6.7% | 0hPa | 2.8V | 00:00:00 | 01:15:39 | 00:00:00 | |
| IW2NTF | 2026-09-01 11:50:35 | 45.55904 | 9.26400 | 89° | 77km/h | 13771m | 5.1m/s | -56.6°C | 6.6% | 0hPa | 2.8V | 08:30:00 | 01:15:32 | 00:00:00 | |
| DO3MHA-11 | 2026-09-01 11:50:30 | 45.55907 | 9.26300 | 89° | 99km/h | 13758m | 4.6m/s | -56.5°C | 6.5% | 0hPa | 2.7V | 00:00:00 | 01:15:29 | 00:00:00 | |
| IW2NTF | 2026-09-01 11:50:25 | 45.55903 | 9.26052 | 86° | 93km/h | 13725m | 5m/s | -56.5°C | 6.6% | 0hPa | 2.7V | 08:30:00 | 01:15:22 | 00:00:00 | |
| DO3MHA-11 | 2026-09-01 11:50:20 | 45.55903 | 9.25946 | 96° | 102km/h | 13711m | 4.1m/s | -56.5°C | 6.7% | 0hPa | 2.7V | 00:00:00 | 01:15:19 | 00:00:00 | |
| IW2NTF | 2026-09-01 11:50:15 | 45.55909 | 9.25686 | 92° | 106km/h | 13682m | 4.7m/s | -56.8°C | 7% | 0hPa | 2.7V | 08:30:00 | 01:15:12 | 00:00:00 | |
| DO3MHA-11 | 2026-09-01 11:50:10 | 45.55910 | 9.25584 | 93° | 104km/h | 13668m | 4.9m/s | -57.1°C | 7.4% | 0hPa | 2.8V | 00:00:00 | 01:15:09 | 00:00:00 | |
| IW2NTF | 2026-09-01 11:50:06 | 45.55912 | 9.25320 | 88° | 110km/h | 13639m | 3.3m/s | -57.4°C | 7.5% | 0hPa | 2.8V | 08:30:00 | 01:15:02 | 00:00:00 | |
| DO3MHA-11 | 2026-09-01 11:50:00 | 45.55904 | 9.25215 | 89° | 100km/h | 13625m | 5.0m/s | -57.4°C | 7.4% | 0hPa | 2.7V | 00:00:00 | 01:14:59 | 00:00:00 | |
| IW2NTF | 2026-09-01 11:49:59 | 45.55902 | 9.24967 | 95° | 104km/h | 13593m | 3.8m/s | -57.2°C | 7.8% | 0hPa | 2.7V | 08:30:00 | 01:14:52 | 00:00:00 | |
| DO3MHA-11 | 2026-09-01 11:49:50 | 45.55898 | 9.24856 | 80° | 102km/h | 13580m | 2.7m/s | -57.2°C | 7.9% | 0hPa | 2.7V | 00:00:00 | 01:14:49 | 00:00:00 | |
| IW2NTF | 2026-09-01 11:49:45 | 45.55885 | 9.24603 | 92° | 100km/h | 13550m | 7.1m/s | -57.4°C | 7.9% | 0hPa | 2.7V | 08:30:00 | 01:14:42 | 00:00:00 | |
| DB0UT-7 | 2026-09-01 11:49:40 | 45.55890 | 9.24489 | 83° | 102km/h | 13539m | 6.8m/s | -57.3°C | 8.0% | 0hPa | 2.7V | 00:00:00 | 00:00:00 | 08:30:00 | |
| IW2NTF | 2026-09-01 11:49:35 | 45.55873 | 9.24230 | 71° | 93km/h | 13508m | 3.9m/s | -57.1°C | 7.8% | 0hPa | 2.8V | 08:30:00 | 01:14:32 | 00:00:00 | |
| DO3MHA-11 | 2026-09-01 11:49:30 | 45.55868 | 9.24122 | 96° | 104km/h | 13493m | 2.6m/s | -56.9°C | 8.0% | 0hPa | 2.7V | 00:00:00 | 01:14:29 | 00:00:00 | |
| IW2NTF | 2026-09-01 11:49:25 | 45.55853 | 9.23861 | 81° | 104km/h | 13460m | 4.9m/s | -57.1°C | 8.3% | 0hPa | 2.7V | 08:30:00 | 01:14:22 | 00:00:00 | |
| DO3MHA-11 | 2026-09-01 11:49:20 | 45.55839 | 9.23761 | 87° | 102km/h | 13447m | 4.7m/s | -57.1°C | 8.4% | 0hPa | 2.7V | 00:00:00 | 01:14:19 | 08:30:00 | |
| IW2NTF | 2026-09-01 11:49:14 | 45.55813 | 9.23512 | 87° | 95km/h | 13412m | 3.8m/s | -57.4°C | 8.9% | 0hPa | 2.8V | 08:30:00 | 01:14:12 | 00:00:00 | |
| DB0UT-7 | 2026-09-01 11:49:10 | 45.55797 | 9.23402 | 79° | 106km/h | 13400m | 5.0m/s | -57.4°C | 8.9% | 0hPa | 2.8V | 00:00:00 | 01:14:09 | 00:00:00 | |
| DO3MHA-11 | 2026-09-01 11:49:09 | 45.55793 | 9.23363 | 87° | 108km/h | 13395m | 5.5m/s | -57.4°C | 9.1% | 0hPa | 2.8V | 00:00:00 | 01:14:08 | 00:00:00 | |
| IW2NTF | 2026-09-01 11:49:05 | 45.55769 | 9.23134 | 87° | 113km/h | 13368m | 3.2m/s | -57.6°C | 9.4% | 0hPa | 2.8V | 08:30:00 | 01:14:02 | 00:00:00 | |
| DO3MHA-11 | 2026-09-01 11:48:59 | 45.55748 | 9.22984 | 79° | 106km/h | 13350m | 3.9m/s | -57.5°C | 9.5% | 0hPa | 2.7V | 00:00:00 | 01:13:58 | 00:00:00 | |
| IW2NTF | 2026-09-01 11:48:55 | 45.55721 | 9.22760 | 86° | 95km/h | 13326m | 5.2m/s | -57.5°C | 9.7% | 0hPa | 2.7V | 08:30:00 | 01:13:52 | 00:00:00 | |
| DO3MHA-11 | 2026-09-01 11:48:49 | 45.55699 | 9.22611 | 71° | 102km/h | 13311m | 2.6m/s | -57.6°C | 9.7% | 0hPa | 2.7V | 00:00:00 | 01:13:48 | 00:00:00 | |
| IW2NTF | 2026-09-01 11:48:44 | 45.55666 | 9.22398 | 71° | 102km/h | 13286m | 1.9m/s | -57.9°C | 10.2% | 0hPa | 2.8V | 08:30:00 | 01:13:42 | 00:00:00 | |
| DB0UT-7 | 2026-09-01 11:48:40 | 45.55655 | 9.22290 | 83° | 97km/h | 13273m | 3.8m/s | -57.8°C | 10.4% | 0hPa | 2.7V | 00:00:00 | 00:00:00 | 00:00:00 | |
| DO3MHA-11 | 2026-09-01 11:48:39 | 45.55649 | 9.22255 | 72° | 100km/h | 13268m | 5.8m/s | -57.8°C | 10.3% | 0hPa | 2.7V | 00:00:00 | 01:13:38 | 00:00:00 | |
| IW2NTF | 2026-09-01 11:48:34 | 45.55600 | 9.22017 | 70° | 104km/h | 13238m | 2.7m/s | -57.6°C | 10.3% | 0hPa | 2.7V | 08:30:00 | 01:13:31 | 00:00:00 | |
| DO3MHA-11 | 2026-09-01 11:48:29 | 45.55586 | 9.21911 | 80° | 97km/h | 13225m | 4.9m/s | -57.5°C | 10.1% | 0hPa | 2.8V | 00:00:00 | 01:13:28 | 00:00:00 | |
| IW2NTF | 2026-09-01 11:48:23 | 45.55542 | 9.21675 | 70° | 95km/h | 13194m | 3.1m/s | -57.3°C | 10.6% | 0hPa | 2.8V | 08:30:00 | 01:13:21 | 00:00:00 | |
| DO3MHA-11 | 2026-09-01 11:48:19 | 45.55523 | 9.21573 | 79° | 95km/h | 13183m | 2.9m/s | -57.1°C | 10.7% | 0hPa | 2.7V | 00:00:00 | 01:13:18 | 00:00:00 | |
| IW2NTF | 2026-09-01 11:48:16 | 45.55482 | 9.21340 | 67° | 89km/h | 13153m | 3.3m/s | -57.2°C | 10.3% | 0hPa | 2.8V | 08:30:00 | 01:13:11 | 00:00:00 | |
| DO3MHA-11 | 2026-09-01 11:48:09 | 45.55464 | 9.21239 | 83° | 99km/h | 13140m | 3.8m/s | -57.1°C | 10.7% | 0hPa | 2.8V | 00:00:00 | 01:13:08 | 00:00:00 | |
| IW2NTF | 2026-09-01 11:48:06 | 45.55412 | 9.20971 | 73° | 100km/h | 13107m | 2.4m/s | -57°C | 11.3% | 0hPa | 2.8V | 08:30:00 | 01:13:00 | 00:00:00 | |
| DO3MHA-11 | 2026-09-01 11:47:59 | 45.55401 | 9.20898 | 83° | 95km/h | 13101m | 1.8m/s | -57.0°C | 11.5% | 0hPa | 2.7V | 00:00:00 | 01:12:58 | 00:00:00 | |
| DB0UT-7 | 2026-09-01 11:47:56 | 45.55376 | 9.20803 | 65° | 97km/h | 13088m | 3.0m/s | -57.1°C | 11.4% | 0hPa | 2.7V | 00:00:00 | 01:12:55 | 00:00:00 | |
| IW2NTF | 2026-09-01 11:47:55 | 45.55349 | 9.20637 | 59° | 86km/h | 13068m | 4.4m/s | -57.1°C | 11.2% | 0hPa | 2.8V | 08:30:00 | 01:12:50 | 00:00:00 | |
| DO3MHA-11 | 2026-09-01 11:47:49 | 45.55326 | 9.20575 | 71° | 99km/h | 13062m | 4.1m/s | -57.1°C | 11.5% | 0hPa | 2.7V | 00:00:00 | 01:12:48 | 08:30:00 | |
| IW2NTF | 2026-09-01 11:47:46 | 45.55280 | 9.20298 | 77° | 100km/h | 13029m | 4.3m/s | -56.9°C | 11.9% | 0hPa | 2.8V | 08:30:00 | 01:12:40 | 00:00:00 | |
| DO3MHA-11 | 2026-09-01 11:47:39 | 45.55263 | 9.20235 | 68° | 97km/h | 13022m | 4.0m/s | -56.8°C | 11.8% | 0hPa | 2.7V | 00:00:00 | 01:12:38 | 00:00:00 | |
| IW2NTF | 2026-09-01 11:47:37 | 45.55213 | 9.19969 | 83° | 106km/h | 12988m | 2.9m/s | -56.5°C | 12.1% | 0hPa | 2.7V | 08:30:00 | 01:12:30 | 00:00:00 | |
| DO3MHA-11 | 2026-09-01 11:47:29 | 45.55201 | 9.19899 | 68° | 95km/h | 12980m | 4.7m/s | -56.5°C | 12.1% | 0hPa | 2.7V | 00:00:00 | 01:12:28 | 00:00:00 | |
| IW2NTF | 2026-09-01 11:47:26 | 45.55149 | 9.19640 | 82° | 99km/h | 12948m | 4.9m/s | -56.5°C | 12.3% | 0hPa | 2.7V | 08:30:00 | 01:12:20 | 00:00:00 | |
| DB0UT-7 | 2026-09-01 11:47:26 | 45.55180 | 9.19805 | 82° | 99km/h | 12968m | 4.4m/s | -56.4°C | 12.5% | 0hPa | 2.7V | 00:00:00 | 00:00:00 | 00:00:00 | |
| DO3MHA-11 | 2026-09-01 11:47:19 | 45.55137 | 9.19565 | 72° | 99km/h | 12940m | 5.0m/s | -56.4°C | 12.2% | 0hPa | 2.7V | 00:00:00 | 01:12:18 | 00:00:00 | |
| IW2NTF | 2026-09-01 11:47:17 | 45.55081 | 9.19294 | 74° | 100km/h | 12908m | 4.3m/s | -56.4°C | 13.5% | 0hPa | 2.8V | 08:30:00 | 01:12:10 | 00:00:00 | |
| DO3MHA-11 | 2026-09-01 11:47:09 | 45.55072 | 9.19226 | 81° | 95km/h | 12901m | 3.6m/s | -56.4°C | 13.7% | 0hPa | 2.7V | 00:00:00 | 01:12:08 | 00:00:00 | |
| IW2NTF | 2026-09-01 11:47:06 | 45.55027 | 9.18958 | 72° | 89km/h | 12869m | 3.4m/s | -56.4°C | 13.6% | 0hPa | 2.7V | 08:30:00 | 01:12:00 | 00:00:00 | |
| DO3MHA-11 | 2026-09-01 11:46:59 | 45.55018 | 9.18889 | 86° | 102km/h | 12859m | 4.6m/s | -56.3°C | 13.7% | 0hPa | 2.8V | 00:00:00 | 01:11:58 | 00:00:00 | |
| DB0UT-7 | 2026-09-01 11:46:56 | 45.55005 | 9.18781 | 75° | 102km/h | 12847m | 2.7m/s | -56.2°C | 13.8% | 0hPa | 2.8V | 00:00:00 | 01:11:55 | 00:00:00 | |
| IW2NTF | 2026-09-01 11:46:53 | 45.54983 | 9.18600 | 76° | 100km/h | 12827m | 3.2m/s | -56.2°C | 14.5% | 0hPa | 2.8V | 08:30:00 | 01:11:50 | 00:00:00 | |
| DO3MHA-11 | 2026-09-01 11:46:49 | 45.54974 | 9.18529 | 85° | 99km/h | 12819m | 3.3m/s | -56.2°C | 15.1% | 0hPa | 2.7V | 00:00:00 | 01:11:48 | 00:00:00 | |
| IW2NTF | 2026-09-01 11:46:47 | 45.54946 | 9.18254 | 81° | 106km/h | 12784m | 3.2m/s | -56.2°C | 15.4% | 0hPa | 2.8V | 08:30:00 | 01:11:40 | 00:00:00 | |
| DO3MHA-11 | 2026-09-01 11:46:39 | 45.54945 | 9.18178 | 95° | 100km/h | 12776m | 1.5m/s | -56.1°C | 15.7% | 0hPa | 2.7V | 00:00:00 | 01:11:38 | 00:00:00 | |
| IW2NTF | 2026-09-01 11:46:36 | 45.54921 | 9.17899 | 76° | 106km/h | 12744m | 4.8m/s | -56.2°C | 16.6% | 0hPa | 2.7V | 08:30:00 | 01:11:30 | 00:00:00 | |
| DO3MHA-11 | 2026-09-01 11:46:29 | 45.54910 | 9.17821 | 86° | 102km/h | 12737m | 4.6m/s | -56.3°C | 17.2% | 0hPa | 2.8V | 00:00:00 | 01:11:28 | 00:00:00 | |
| IW2NTF | 2026-09-01 11:46:22 | 45.54898 | 9.17529 | 85° | 99km/h | 12705m | 4.9m/s | -56.4°C | 18.6% | 0hPa | 2.8V | 08:30:00 | 01:11:20 | 00:00:00 | |
| IW2NTF | 2026-09-01 11:46:11 | 45.54867 | 9.17173 | 89° | 100km/h | 12663m | 3m/s | -56.3°C | 20% | 0hPa | 2.8V | 08:30:00 | 01:11:10 | 00:00:00 | |
| DO3MHA-11 | 2026-09-01 11:46:09 | 45.54860 | 9.17100 | 76° | 100km/h | 12655m | 4.1m/s | -56.2°C | 20.1% | 0hPa | 2.8V | 00:00:00 | 01:11:08 | 00:00:00 | |
| DB0UT-7 | 2026-09-01 11:46:07 | 45.54849 | 9.17028 | 84° | 104km/h | 12647m | 4.3m/s | 0°C | 0% | 0hPa | 2.8V | 00:00:00 | 00:00:00 | 00:00:00 | |
| IW2NTF | 2026-09-01 11:46:02 | 45.54824 | 9.16818 | 86° | 104km/h | 12623m | 2.6m/s | -56.2°C | 21.4% | 0hPa | 2.8V | 08:30:00 | 01:11:00 | 00:00:00 | |
| DO3MHA-11 | 2026-09-01 11:45:59 | 45.54816 | 9.16744 | 76° | 106km/h | 12615m | 3.8m/s | -56.2°C | 21.6% | 0hPa | 2.8V | 00:00:00 | 01:10:58 | 00:00:00 | |
| IW2NTF | 2026-09-01 11:45:52 | 45.54787 | 9.16443 | 85° | 106km/h | 12585m | 3m/s | -56.9°C | 26.4% | 0hPa | 2.8V | 08:30:00 | 01:10:50 | 00:00:00 | |
| DO3MHA-11 | 2026-09-01 11:45:50 | 45.54779 | 9.16369 | 76° | 104km/h | 12577m | 3.1m/s | -57.1°C | 26.5% | 0hPa | 2.7V | 00:00:00 | 01:10:48 | 00:00:00 | |
| IW2NTF | 2026-09-01 11:45:42 | 45.54752 | 9.16073 | 91° | 99km/h | 12545m | 3.1m/s | -57.8°C | 28.8% | 0hPa | 2.7V | 08:30:00 | 01:10:40 | 00:00:00 | |
| DO3MHA-11 | 2026-09-01 11:45:39 | 45.54750 | 9.16003 | 82° | 108km/h | 12539m | 4.5m/s | -57.8°C | 29.7% | 0hPa | 2.7V | 00:00:00 | 01:10:38 | 00:00:00 | |
| DB0UT-7 | 2026-09-01 11:45:37 | 45.54738 | 9.15925 | 79° | 106km/h | 12531m | 3.2m/s | 0°C | 0% | 0hPa | 2.7V | 00:00:00 | 01:10:36 | 00:00:00 | |
| IW2NTF | 2026-09-01 11:45:32 | 45.54713 | 9.15660 | 87° | 102km/h | 12501m | 4.2m/s | -57.7°C | 31.7% | 0hPa | 2.7V | 08:30:00 | 01:10:29 | 00:00:00 | |
| DO3MHA-11 | 2026-09-01 11:45:29 | 45.54710 | 9.15624 | 79° | 106km/h | 12495m | 6.6m/s | -57.7°C | 31.0% | 0hPa | 2.7V | 00:00:00 | 01:10:28 | 00:00:00 | |
| IW2NTF | 2026-09-01 11:45:26 | 45.54671 | 9.15272 | 87° | 106km/h | 12457m | 3.1m/s | -57.5°C | 32.8% | 0hPa | 2.7V | 08:30:00 | 01:10:19 | 00:00:00 | |
| DO3MHA-11 | 2026-09-01 11:45:19 | 45.54658 | 9.15166 | 77° | 110km/h | 12447m | 2.8m/s | -57.4°C | 33.5% | 0hPa | 2.7V | 00:00:00 | 01:10:16 | 00:00:00 | |
| IW2NTF | 2026-09-01 11:45:13 | 45.54626 | 9.14895 | 88° | 117km/h | 12415m | 4.9m/s | -57.4°C | 36% | 0hPa | 2.8V | 08:30:00 | 01:10:09 | 00:00:00 | |
| IW2NTF | 2026-09-01 11:45:07 | 45.54587 | 9.14517 | 76° | 122km/h | 12376m | 2.8m/s | -57.7°C | 38.1% | 0hPa | 2.8V | 08:30:00 | 01:09:59 | 00:00:00 | |
| DO3MHA-11 | 2026-09-01 11:44:57 | 45.54584 | 9.14398 | 91° | 108km/h | 12363m | 4.3m/s | 0°C | 0% | 0hPa | 2.7V | 00:00:00 | 01:09:56 | 00:00:00 | |
| IW2NTF | 2026-09-01 11:44:52 | 45.54563 | 9.14140 | 75° | 106km/h | 12329m | 4.8m/s | -58.1°C | 41.3% | 0hPa | 2.7V | 08:30:00 | 01:09:49 | 00:00:00 | |
| DO3MHA-11 | 2026-09-01 11:44:47 | 45.54553 | 9.14015 | 90° | 104km/h | 12315m | 2.3m/s | 0°C | 0% | 0hPa | 2.8V | 00:00:00 | 01:09:46 | 08:30:00 | |
| IW2NTF | 2026-09-01 11:44:46 | 45.54526 | 9.13749 | 75° | 106km/h | 12286m | 5.3m/s | -58.7°C | 47% | 0hPa | 2.8V | 08:30:00 | 01:09:39 | 00:00:00 | |
| DO3MHA-11 | 2026-09-01 11:44:37 | 45.54510 | 9.13644 | 86° | 106km/h | 12273m | 4.8m/s | 0°C | 0% | 0hPa | 2.8V | 00:00:00 | 01:09:36 | 00:00:00 | |
| IW2NTF | 2026-09-01 11:44:31 | 45.54481 | 9.13377 | 81° | 117km/h | 12243m | 3.3m/s | -58.5°C | 45.8% | 0hPa | 2.8V | 08:30:00 | 01:09:29 | 00:00:00 | |
| DO3MHA-11 | 2026-09-01 11:44:27 | 45.54459 | 9.13272 | 78° | 104km/h | 12231m | 2.9m/s | 0°C | 0% | 0hPa | 2.7V | 00:00:00 | 01:09:26 | 00:00:00 | |
| DB0UT-7 | 2026-09-01 11:44:25 | 45.54454 | 9.13195 | 88° | 104km/h | 12223m | 2.9m/s | 0°C | 0% | 0hPa | 2.7V | 00:00:00 | 00:00:00 | 00:00:00 | |
| IW2NTF | 2026-09-01 11:44:23 | 45.54416 | 9.12941 | 76° | 100km/h | 12198m | 5m/s | -58.3°C | 47.7% | 0hPa | 2.7V | 08:30:00 | 01:09:17 | 00:00:00 | |
| DO3MHA-11 | 2026-09-01 11:44:17 | 45.54409 | 9.12904 | 73° | 104km/h | 12194m | 2.4m/s | 0°C | 0% | 0hPa | 2.8V | 00:00:00 | 01:09:16 | 00:00:00 | |
| IW2NTF | 2026-09-01 11:44:14 | 45.54364 | 9.12573 | 86° | 89km/h | 12157m | 1.7m/s | -58.1°C | 45.9% | 0hPa | 2.8V | 08:30:00 | 01:09:07 | 00:00:00 | |
| DO3MHA-11 | 2026-09-01 11:44:08 | 45.54359 | 9.12541 | 74° | 104km/h | 12153m | 5.3m/s | 0°C | 0% | 0hPa | 2.7V | 00:00:00 | 01:09:06 | 00:00:00 | |
| IW2NTF | 2026-09-01 11:44:03 | 45.54299 | 9.12219 | 79° | 122km/h | 12110m | 2.9m/s | -57.7°C | 46.1% | 0hPa | 2.7V | 08:30:00 | 01:08:57 | 00:00:00 | |
| DO3MHA-11 | 2026-09-01 11:43:57 | 45.54292 | 9.12179 | 77° | 100km/h | 12106m | 3.6m/s | 0°C | 0% | 0hPa | 2.8V | 00:00:00 | 01:08:56 | 00:00:00 | |
| DB0UT-7 | 2026-09-01 11:43:55 | 45.54281 | 9.12113 | 81° | 95km/h | 12095m | 4.0m/s | 0°C | 0% | 0hPa | 2.8V | 00:00:00 | 01:08:54 | 00:00:00 | |
| IW2NTF | 2026-09-01 11:43:50 | 45.54245 | 9.11865 | 83° | 113km/h | 12059m | 3.1m/s | -57.5°C | 45.5% | 0hPa | 2.8V | 08:30:00 | 01:08:47 | 00:00:00 | |
| DO3MHA-11 | 2026-09-01 11:43:47 | 45.54240 | 9.11825 | 74° | 95km/h | 12056m | 6.0m/s | 0°C | 0% | 0hPa | 2.7V | 00:00:00 | 01:08:46 | 00:00:00 | |
| IW2NTF | 2026-09-01 11:43:43 | 45.54195 | 9.11507 | 87° | 97km/h | 12017m | 3m/s | -57.4°C | 47.4% | 0hPa | 2.7V | 08:30:00 | 01:08:36 | 00:00:00 | |
| DO3MHA-11 | 2026-09-01 11:43:38 | 45.54195 | 9.11507 | 88° | 89km/h | 12017m | 3.0m/s | 0°C | 0% | 0hPa | 2.8V | 00:00:00 | 01:08:36 | 00:00:00 | |
| IW2NTF | 2026-09-01 11:43:27 | 45.54152 | 9.11162 | 96° | 82km/h | 11969m | -0.3m/s | -57°C | 46.1% | 0hPa | 2.8V | 08:30:00 | 01:08:25 | 00:00:00 | |
| DO3MHA-11 | 2026-09-01 11:43:25 | 45.54152 | 9.11130 | 88° | 89km/h | 11967m | 5.0m/s | 0°C | 0% | 0hPa | 2.8V | 00:00:00 | 01:08:24 | 00:00:00 | |
| IW2NTF | 2026-09-01 11:43:17 | 45.54121 | 9.10838 | 81° | 88km/h | 11927m | 2.9m/s | -57°C | 47.3% | 0hPa | 2.8V | 08:30:00 | 01:08:15 | 00:00:00 | |
| DO3MHA-11 | 2026-09-01 11:43:14 | 45.54124 | 9.10777 | 100° | 97km/h | 11920m | 2.0m/s | 0°C | 0% | 0hPa | 2.7V | 00:00:00 | 01:08:13 | 00:00:00 | |
| IW2NTF | 2026-09-01 11:43:08 | 45.54110 | 9.10509 | 81° | 100km/h | 11891m | 3.2m/s | -57°C | 48.6% | 0hPa | 2.7V | 08:30:00 | 01:08:05 | 00:00:00 | |
| IW2NTF | 2026-09-01 11:42:57 | 45.54100 | 9.10139 | 89° | 111km/h | 11845m | 2.3m/s | -56.8°C | 46.7% | 0hPa | 2.7V | 08:30:00 | 01:07:54 | 00:00:00 | |
| IW2NTF | 2026-09-01 11:42:48 | 45.54086 | 9.09810 | 88° | 100km/h | 11806m | 4.4m/s | -56.6°C | 47.3% | 0hPa | 2.8V | 08:30:00 | 01:07:44 | 00:00:00 | |
| IW2NTF | 2026-09-01 11:42:41 | 45.54085 | 9.09462 | 91° | 95km/h | 11768m | 4.3m/s | -56.5°C | 47.1% | 0hPa | 2.8V | 08:30:00 | 01:07:34 | 00:00:00 | |
| IW2NTF | 2026-09-01 11:42:25 | 45.54079 | 9.09136 | 96° | 89km/h | 11732m | 3.7m/s | -56.2°C | 45.5% | 0hPa | 2.8V | 08:30:00 | 01:07:24 | 00:00:00 | |
| IW2NTF | 2026-09-01 11:42:15 | 45.54079 | 9.08823 | 106° | 86km/h | 11692m | 2.4m/s | -56°C | 44.4% | 0hPa | 2.8V | 08:30:00 | 01:07:14 | 00:00:00 | |
| IW2NTF | 2026-09-01 11:42:06 | 45.54080 | 9.08511 | 79° | 71km/h | 11653m | 2.9m/s | -55.6°C | 41.2% | 0hPa | 2.8V | 08:30:00 | 01:07:04 | 00:00:00 | |
| IW2NTF | 2026-09-01 11:41:56 | 45.54081 | 9.08205 | 90° | 78km/h | 11614m | 4.7m/s | -55.3°C | 41.6% | 0hPa | 2.8V | 08:30:00 | 01:06:54 | 00:00:00 | |
| IW2NTF | 2026-09-01 11:41:46 | 45.54081 | 9.07855 | 81° | 75km/h | 11563m | 1.7m/s | -55°C | 41% | 0hPa | 2.8V | 08:30:00 | 01:06:42 | 00:00:00 | |
| IW2NTF | 2026-09-01 11:41:36 | 45.54084 | 9.07537 | 94° | 73km/h | 11525m | 4.1m/s | -54.6°C | 40.9% | 0hPa | 2.9V | 08:30:00 | 01:06:32 | 00:00:00 | |
| IW2NTF | 2026-09-01 11:41:25 | 45.54092 | 9.07166 | 88° | 82km/h | 11480m | 4m/s | -54.2°C | 40.4% | 0hPa | 2.8V | 08:30:00 | 01:06:20 | 00:00:00 | |
| IW2NTF | 2026-09-01 11:41:16 | 45.54092 | 9.06843 | 92° | 84km/h | 11442m | 2.9m/s | -53.9°C | 42.1% | 0hPa | 2.9V | 08:30:00 | 01:06:10 | 00:00:00 | |
| IW2NTF | 2026-09-01 11:41:06 | 45.54095 | 9.06527 | 91° | 73km/h | 11403m | 3.7m/s | -53.6°C | 42.3% | 0hPa | 2.7V | 08:30:00 | 01:06:00 | 00:00:00 | |
| IW2NTF | 2026-09-01 11:40:55 | 45.54097 | 9.06185 | 88° | 99km/h | 11361m | 2.6m/s | -53.3°C | 43.1% | 0hPa | 2.9V | 08:30:00 | 01:05:49 | 00:00:00 | |
| IW2NTF | 2026-09-01 11:40:46 | 45.54099 | 9.05878 | 93° | 91km/h | 11325m | 4.8m/s | -53°C | 41.7% | 0hPa | 2.9V | 08:30:00 | 01:05:39 | 00:00:00 | |
| IW2NTF | 2026-09-01 11:40:36 | 45.54103 | 9.05571 | 89° | 89km/h | 11285m | 6.3m/s | -52.7°C | 39.9% | 0hPa | 2.9V | 08:30:00 | 01:05:29 | 00:00:00 | |
| IW2NTF | 2026-09-01 11:40:25 | 45.54108 | 9.05267 | 99° | 84km/h | 11241m | 6.3m/s | -52.4°C | 39.6% | 0hPa | 2.8V | 08:30:00 | 01:05:19 | 00:00:00 | |
| IW2NTF | 2026-09-01 11:40:16 | 45.54108 | 9.04957 | 85° | 66km/h | 11201m | 3.4m/s | -52°C | 36.4% | 0hPa | 2.9V | 08:30:00 | 01:05:09 | 00:00:00 | |
| IW2NTF | 2026-09-01 11:40:03 | 45.54114 | 9.04650 | 88° | 93km/h | 11155m | 3.4m/s | -51.6°C | 36.3% | 0hPa | 2.7V | 08:30:00 | 01:04:59 | 00:00:00 | |
| IW2NTF | 2026-09-01 11:39:55 | 45.54118 | 9.04351 | 79° | 93km/h | 11112m | 2.7m/s | -51.2°C | 33.7% | 0hPa | 2.7V | 08:30:00 | 01:04:49 | 00:00:00 | |
| IW2NTF | 2026-09-01 11:39:46 | 45.54126 | 9.04052 | 82° | 77km/h | 11071m | 3.8m/s | -50.9°C | 35.3% | 0hPa | 2.9V | 08:30:00 | 01:04:39 | 00:00:00 | |
| IW2NTF | 2026-09-01 11:39:33 | 45.54128 | 9.03689 | 93° | 93km/h | 11021m | 6m/s | -50.4°C | 34% | 0hPa | 2.7V | 08:30:00 | 01:04:27 | 00:00:00 | |
| IW2NTF | 2026-09-01 11:39:23 | 45.54138 | 9.03384 | 86° | 88km/h | 10976m | 4.7m/s | -50°C | 33.4% | 0hPa | 2.9V | 08:30:00 | 01:04:17 | 00:00:00 | |
| IW2NTF | 2026-09-01 11:39:14 | 45.54145 | 9.03083 | 88° | 75km/h | 10932m | 4.8m/s | -49.6°C | 32.8% | 0hPa | 2.9V | 08:30:00 | 01:04:07 | 00:00:00 | |
| IW2NTF | 2026-09-01 11:39:03 | 45.54147 | 9.02781 | 82° | 78km/h | 10889m | 3.6m/s | -49.3°C | 32.8% | 0hPa | 2.9V | 08:30:00 | 01:03:57 | 00:00:00 | |
| IW2NTF | 2026-09-01 11:38:51 | 45.54157 | 9.02470 | 88° | 68km/h | 10848m | 4.9m/s | -48.9°C | 31.7% | 0hPa | 2.7V | 08:30:00 | 01:03:47 | 00:00:00 | |
| IW2NTF | 2026-09-01 11:38:38 | 45.54165 | 9.02176 | 95° | 82km/h | 10808m | 4.8m/s | -48.5°C | 31.6% | 0hPa | 2.9V | 08:30:00 | 01:03:37 | 00:00:00 | |
| IW2NTF | 2026-09-01 11:38:33 | 45.54167 | 9.01887 | 102° | 89km/h | 10759m | 3.8m/s | -48.2°C | 30.8% | 0hPa | 2.9V | 08:30:00 | 01:03:27 | 00:00:00 | |
| IW2NTF | 2026-09-01 11:38:23 | 45.54178 | 9.01602 | 94° | 95km/h | 10718m | 4.1m/s | -47.8°C | 31% | 0hPa | 2.9V | 08:30:00 | 01:03:17 | 00:00:00 | |
| IW2NTF | 2026-09-01 11:38:13 | 45.54185 | 9.01315 | 87° | 86km/h | 10677m | 3.5m/s | -47.5°C | 32.4% | 0hPa | 2.7V | 08:30:00 | 01:03:07 | 00:00:00 | |
| IW2NTF | 2026-09-01 11:37:56 | 45.54198 | 9.00968 | 89° | 88km/h | 10625m | 3.5m/s | -47°C | 31.2% | 0hPa | 2.8V | 08:30:00 | 01:02:55 | 00:00:00 | |
| IW2NTF | 2026-09-01 11:37:46 | 45.54205 | 9.00679 | 96° | 80km/h | 10582m | 5.5m/s | -46.7°C | 29.9% | 0hPa | 2.9V | 08:30:00 | 01:02:45 | 00:00:00 | |
| IW2NTF | 2026-09-01 11:37:36 | 45.54218 | 9.00356 | 99° | 77km/h | 10535m | 4.1m/s | -46.2°C | 29.4% | 0hPa | 2.9V | 08:30:00 | 01:02:34 | 00:00:00 | |
| IW2NTF | 2026-09-01 11:37:26 | 45.54229 | 9.00060 | 98° | 73km/h | 10492m | 3.9m/s | -45.8°C | 29.7% | 0hPa | 2.7V | 08:30:00 | 01:02:24 | 00:00:00 | |
| IW2NTF | 2026-09-01 11:37:16 | 45.54240 | 8.99760 | 91° | 71km/h | 10457m | 4.3m/s | -45.5°C | 29% | 0hPa | 2.9V | 08:30:00 | 01:02:14 | 00:00:00 | |
| IW2NTF | 2026-09-01 11:37:06 | 45.54268 | 8.99466 | 97° | 97km/h | 10417m | 3.4m/s | -45.1°C | 30.8% | 0hPa | 2.9V | 08:30:00 | 01:02:04 | 00:00:00 | |
| IW2NTF | 2026-09-01 11:36:56 | 45.54268 | 8.99179 | 94° | 73km/h | 10370m | 4.8m/s | -44.7°C | 29.4% | 0hPa | 2.7V | 08:30:00 | 01:01:54 | 00:00:00 | |
| IW2NTF | 2026-09-01 11:36:45 | 45.54280 | 8.98893 | 89° | 91km/h | 10326m | 3.1m/s | -44.4°C | 26.2% | 0hPa | 2.9V | 08:30:00 | 01:01:44 | 00:00:00 | |
| IW2NTF | 2026-09-01 11:36:36 | 45.54290 | 8.98630 | 96° | 78km/h | 10284m | 5.3m/s | -44.1°C | 23.8% | 0hPa | 2.8V | 08:30:00 | 01:01:34 | 00:00:00 | |
| IW2NTF | 2026-09-01 11:36:26 | 45.54302 | 8.98353 | 91° | 71km/h | 10238m | 4.2m/s | -43.8°C | 21.9% | 0hPa | 2.9V | 08:30:00 | 01:01:24 | 00:00:00 | |
| IW2NTF | 2026-09-01 11:36:16 | 45.54318 | 8.98085 | 87° | 69km/h | 10200m | 3.9m/s | -43.4°C | 20.5% | 0hPa | 2.9V | 08:30:00 | 01:01:14 | 00:00:00 | |
| IW2NTF | 2026-09-01 11:36:06 | 45.54336 | 8.97790 | 87° | 80km/h | 10159m | 4.7m/s | -43.1°C | 21.1% | 0hPa | 2.8V | 08:30:00 | 01:01:03 | 00:00:00 | |
| IW2NTF | 2026-09-01 11:35:59 | 45.54352 | 8.97518 | 88° | 53km/h | 10118m | 1.9m/s | -42.7°C | 17.2% | 0hPa | 2.9V | 08:30:00 | 01:00:53 | 00:00:00 | |
| IW2NTF | 2026-09-01 11:35:49 | 45.54367 | 8.97255 | 94° | 64km/h | 10077m | 6.2m/s | -42.4°C | 16.6% | 0hPa | 2.8V | 08:30:00 | 01:00:43 | 00:00:00 | |
| IW2NTF | 2026-09-01 11:35:39 | 45.54385 | 8.96996 | 90° | 71km/h | 10045m | 3.9m/s | -42.1°C | 18.6% | 0hPa | 2.9V | 08:30:00 | 01:00:33 | 00:00:00 | |
| IW2NTF | 2026-09-01 11:35:29 | 45.54414 | 8.96737 | 98° | 80km/h | 10015m | 2.1m/s | -41.8°C | 26% | 0hPa | 2.8V | 08:30:00 | 01:00:23 | 00:00:00 | |
| IW2NTF | 2026-09-01 11:35:19 | 45.54438 | 8.96488 | 110° | 84km/h | 9981m | 1.2m/s | -41.5°C | 30.5% | 0hPa | 2.9V | 08:30:00 | 01:00:13 | 00:00:00 | |
| IW2NTF | 2026-09-01 11:35:08 | 45.54467 | 8.96241 | 104° | 68km/h | 9948m | 2.8m/s | -41.2°C | 29.2% | 0hPa | 2.8V | 08:30:00 | 01:00:03 | 00:00:00 | |
| IW2NTF | 2026-09-01 11:34:59 | 45.54500 | 8.95980 | 104° | 78km/h | 9911m | 2.6m/s | -40.8°C | 28.5% | 0hPa | 2.9V | 08:30:00 | 00:59:53 | 00:00:00 | |
| IW2NTF | 2026-09-01 11:34:49 | 45.54543 | 8.95721 | 92° | 82km/h | 9870m | 5.1m/s | -40.5°C | 30.3% | 0hPa | 2.9V | 08:30:00 | 00:59:43 | 00:00:00 | |
| IW2NTF | 2026-09-01 11:34:39 | 45.54576 | 8.95469 | 105° | 75km/h | 9834m | 4.7m/s | -40.1°C | 33.7% | 0hPa | 2.9V | 08:30:00 | 00:59:33 | 00:00:00 | |
| IW2NTF | 2026-09-01 11:34:30 | 45.54613 | 8.95221 | 105° | 82km/h | 9796m | 2.7m/s | -39.8°C | 34% | 0hPa | 2.9V | 08:30:00 | 00:59:23 | 00:00:00 | |
| IW2NTF | 2026-09-01 11:34:19 | 45.54660 | 8.94977 | 96° | 80km/h | 9762m | 4m/s | -39.5°C | 31.9% | 0hPa | 2.8V | 08:30:00 | 00:59:13 | 00:00:00 | |
| IW2NTF | 2026-09-01 11:34:08 | 45.54712 | 8.94728 | 103° | 49km/h | 9727m | 4.7m/s | -39.1°C | 29.7% | 0hPa | 2.9V | 08:30:00 | 00:59:03 | 00:00:00 | |
| IW2NTF | 2026-09-01 11:33:59 | 45.54746 | 8.94473 | 115° | 62km/h | 9689m | 5.5m/s | -38.8°C | 25.6% | 0hPa | 2.8V | 08:30:00 | 00:58:53 | 00:00:00 | |
| IW2NTF | 2026-09-01 11:33:49 | 45.54790 | 8.94223 | 97° | 78km/h | 9649m | 3.1m/s | -38.4°C | 19.4% | 0hPa | 2.9V | 08:30:00 | 00:58:43 | 00:00:00 | |
| IW2NTF | 2026-09-01 11:33:35 | 45.54834 | 8.93959 | 108° | 78km/h | 9604m | 2.2m/s | -38.3°C | 12.7% | 0hPa | 2.9V | 08:30:00 | 00:58:32 | 00:00:00 | |
| IW2NTF | 2026-09-01 11:33:25 | 45.54879 | 8.93674 | 116° | 60km/h | 9558m | 4.8m/s | -37.9°C | 10.1% | 0hPa | 2.9V | 08:30:00 | 00:58:20 | 00:00:00 | |
| IW2NTF | 2026-09-01 11:33:15 | 45.54912 | 8.93381 | 103° | 71km/h | 9506m | 4.4m/s | -37.6°C | 7.8% | 0hPa | 2.8V | 08:30:00 | 00:58:08 | 00:00:00 | |
| IW2NTF | 2026-09-01 11:33:02 | 45.54941 | 8.93144 | 82° | 51km/h | 9455m | 5.2m/s | -37.4°C | 7.6% | 0hPa | 2.9V | 08:30:00 | 00:57:58 | 00:00:00 | |
| IW2NTF | 2026-09-01 11:32:54 | 45.54953 | 8.92922 | 96° | 53km/h | 9397m | 5.5m/s | -37.2°C | 7.4% | 0hPa | 2.9V | 08:30:00 | 00:57:48 | 00:00:00 | |
| IW2NTF | 2026-09-01 11:32:45 | 45.54957 | 8.92695 | 82° | 57km/h | 9349m | 4.5m/s | -36.8°C | 7.2% | 0hPa | 2.9V | 08:30:00 | 00:57:38 | 00:00:00 | |
| IW2NTF | 2026-09-01 11:32:34 | 45.54971 | 8.92455 | 95° | 71km/h | 9299m | 4.3m/s | -36.4°C | 7.2% | 0hPa | 2.8V | 08:30:00 | 00:57:28 | 00:00:00 | |
| IW2NTF | 2026-09-01 11:32:25 | 45.54982 | 8.92217 | 99° | 55km/h | 9243m | 3.4m/s | -36.1°C | 7.3% | 0hPa | 2.9V | 08:30:00 | 00:57:18 | 00:00:00 | |
| IW2NTF | 2026-09-01 11:32:14 | 45.54985 | 8.91975 | 105° | 68km/h | 9199m | 4.2m/s | -35.8°C | 7.3% | 0hPa | 2.9V | 08:30:00 | 00:57:08 | 00:00:00 | |
| IW2NTF | 2026-09-01 11:32:04 | 45.54988 | 8.91728 | 93° | 62km/h | 9153m | 5.7m/s | -35.6°C | 7.4% | 0hPa | 2.9V | 08:30:00 | 00:56:58 | 00:00:00 | |
| IW2NTF | 2026-09-01 11:31:54 | 45.54996 | 8.91491 | 93° | 73km/h | 9113m | 5.5m/s | -35.4°C | 7.9% | 0hPa | 2.8V | 08:30:00 | 00:56:48 | 00:00:00 | |
| IW2NTF | 2026-09-01 11:31:45 | 45.54993 | 8.91231 | 84° | 71km/h | 9071m | 6.3m/s | -35.3°C | 7.8% | 0hPa | 2.9V | 08:30:00 | 00:56:38 | 00:00:00 | |
| IW2NTF | 2026-09-01 11:31:34 | 45.54991 | 8.90983 | 95° | 58km/h | 9022m | 5.6m/s | -35°C | 7.4% | 0hPa | 2.9V | 08:30:00 | 00:56:28 | 00:00:00 | |
| IW2NTF | 2026-09-01 11:31:24 | 45.54992 | 8.90722 | 95° | 55km/h | 8966m | 5.7m/s | -34.6°C | 7.5% | 0hPa | 2.9V | 08:30:00 | 00:56:18 | 00:00:00 | |
| IW2NTF | 2026-09-01 11:31:14 | 45.54987 | 8.90478 | 85° | 58km/h | 8908m | 6.9m/s | -34.5°C | 8.4% | 0hPa | 2.9V | 08:30:00 | 00:56:08 | 00:00:00 | |
| IW2NTF | 2026-09-01 11:31:04 | 45.54977 | 8.90221 | 81° | 82km/h | 8857m | 5.8m/s | -34.2°C | 7.5% | 0hPa | 2.9V | 08:30:00 | 00:55:58 | 00:00:00 | |
| IW2NTF | 2026-09-01 11:30:54 | 45.54974 | 8.89963 | 93° | 57km/h | 8806m | 4.5m/s | -33.7°C | 7.5% | 0hPa | 2.9V | 08:30:00 | 00:55:48 | 00:00:00 | |
| IW2NTF | 2026-09-01 11:30:45 | 45.54972 | 8.89702 | 90° | 69km/h | 8761m | 6.6m/s | -33.3°C | 7.7% | 0hPa | 2.8V | 08:30:00 | 00:55:38 | 00:00:00 | |
| IW2NTF | 2026-09-01 11:30:35 | 45.54974 | 8.89443 | 82° | 69km/h | 8712m | 5.6m/s | -33.5°C | 18.1% | 0hPa | 2.8V | 08:30:00 | 00:55:28 | 00:00:00 | |
| IW2NTF | 2026-09-01 11:30:24 | 45.54954 | 8.89153 | 91° | 84km/h | 8660m | 2.2m/s | -33.5°C | 29% | 0hPa | 2.9V | 08:30:00 | 00:55:17 | 00:00:00 | |
| IW2NTF | 2026-09-01 11:30:08 | 45.54934 | 8.88851 | 85° | 75km/h | 8605m | 6.7m/s | -33°C | 27.9% | 0hPa | 2.9V | 08:30:00 | 00:55:06 | 00:00:00 | |
| IW2NTF | 2026-09-01 11:30:02 | 45.54925 | 8.88568 | 80° | 71km/h | 8556m | 8.2m/s | -32.5°C | 26.5% | 0hPa | 2.9V | 08:30:00 | 00:54:56 | 00:00:00 | |
| IW2NTF | 2026-09-01 11:29:48 | 45.54908 | 8.88309 | 81° | 84km/h | 8505m | 7m/s | -32°C | 24.8% | 0hPa | 2.9V | 08:30:00 | 00:54:46 | 00:00:00 | |
| IW2NTF | 2026-09-01 11:29:37 | 45.54890 | 8.88039 | 88° | 86km/h | 8448m | 3.3m/s | -31.4°C | 24.2% | 0hPa | 2.9V | 08:30:00 | 00:54:36 | 00:00:00 | |
| IW2NTF | 2026-09-01 11:29:27 | 45.54874 | 8.87764 | 84° | 77km/h | 8386m | 7.3m/s | -30.9°C | 22.4% | 0hPa | 2.9V | 08:30:00 | 00:54:26 | 00:00:00 | |
| IW2NTF | 2026-09-01 11:29:17 | 45.54868 | 8.87479 | 84° | 77km/h | 8322m | 6.3m/s | -30.3°C | 21.9% | 0hPa | 2.9V | 08:30:00 | 00:54:16 | 00:00:00 | |
| IW2NTF | 2026-09-01 11:29:07 | 45.54856 | 8.87211 | 90° | 84km/h | 8258m | 4m/s | -29.7°C | 20.5% | 0hPa | 2.9V | 08:30:00 | 00:54:06 | 00:00:00 | |
| IW2NTF | 2026-09-01 11:28:57 | 45.54838 | 8.86937 | 82° | 88km/h | 8200m | 6.4m/s | -29.1°C | 19.7% | 0hPa | 2.9V | 08:30:00 | 00:53:56 | 00:00:00 | |
| IW2NTF | 2026-09-01 11:28:48 | 45.54832 | 8.86675 | 83° | 77km/h | 8149m | 4.5m/s | -28.6°C | 19.2% | 0hPa | 2.9V | 08:30:00 | 00:53:46 | 00:00:00 | |
| IW2NTF | 2026-09-01 11:28:37 | 45.54820 | 8.86403 | 97° | 71km/h | 8092m | 4.3m/s | -28.1°C | 18.3% | 0hPa | 2.9V | 08:30:00 | 00:53:36 | 00:00:00 | |
| IW2NTF | 2026-09-01 11:28:27 | 45.54813 | 8.86133 | 91° | 86km/h | 8043m | 7.3m/s | -27.6°C | 17.4% | 0hPa | 2.9V | 08:30:00 | 00:53:26 | 00:00:00 | |
| IW2NTF | 2026-09-01 11:28:18 | 45.54809 | 8.85871 | 80° | 82km/h | 7991m | 5.6m/s | -27°C | 15.8% | 0hPa | 2.9V | 08:30:00 | 00:53:16 | 00:00:00 | |
| IW2NTF | 2026-09-01 11:28:07 | 45.54812 | 8.85600 | 94° | 82km/h | 7937m | 6.2m/s | -26.5°C | 13.9% | 0hPa | 2.9V | 08:30:00 | 00:53:06 | 00:00:00 | |
| IW2NTF | 2026-09-01 11:27:57 | 45.54792 | 8.85320 | 86° | 86km/h | 7880m | 5.5m/s | -26°C | 11.7% | 0hPa | 2.9V | 08:30:00 | 00:52:56 | 00:00:00 | |
| IW2NTF | 2026-09-01 11:27:48 | 45.54772 | 8.85025 | 87° | 80km/h | 7825m | 8m/s | -25.5°C | 11% | 0hPa | 2.9V | 08:30:00 | 00:52:46 | 00:00:00 | |
| IW2NTF | 2026-09-01 11:27:38 | 45.54752 | 8.84754 | 78° | 68km/h | 7772m | 5.2m/s | -25.2°C | 12% | 0hPa | 2.9V | 08:30:00 | 00:52:36 | 00:00:00 | |
| IW2NTF | 2026-09-01 11:27:28 | 45.54745 | 8.84480 | 86° | 73km/h | 7720m | 8.4m/s | -24.7°C | 12.3% | 0hPa | 2.9V | 08:30:00 | 00:52:26 | 00:00:00 | |
| IW2NTF | 2026-09-01 11:27:18 | 45.54742 | 8.84203 | 85° | 89km/h | 7656m | 4.7m/s | -24.1°C | 12.3% | 0hPa | 2.8V | 08:30:00 | 00:52:16 | 00:00:00 | |
| IW2NTF | 2026-09-01 11:27:07 | 45.54724 | 8.83920 | 88° | 78km/h | 7588m | 8.3m/s | -23.7°C | 10.7% | 0hPa | 2.9V | 08:30:00 | 00:52:06 | 00:00:00 | |
| IW2NTF | 2026-09-01 11:26:57 | 45.54717 | 8.83630 | 92° | 82km/h | 7533m | 7.1m/s | -23.1°C | 9.5% | 0hPa | 3V | 08:30:00 | 00:51:56 | 00:00:00 | |
| IW2NTF | 2026-09-01 11:26:47 | 45.54707 | 8.83363 | 84° | 71km/h | 7476m | 4m/s | -22.6°C | 9% | 0hPa | 2.9V | 08:30:00 | 00:51:46 | 00:00:00 | |
| IW2NTF | 2026-09-01 11:26:37 | 45.54694 | 8.83093 | 92° | 84km/h | 7417m | 4.1m/s | -22°C | 8.7% | 0hPa | 2.8V | 08:30:00 | 00:51:36 | 00:00:00 | |
| IW2NTF | 2026-09-01 11:26:28 | 45.54690 | 8.82791 | 83° | 75km/h | 7357m | 5.3m/s | -21.7°C | 8.9% | 0hPa | 3V | 08:30:00 | 00:51:25 | 00:00:00 | |
| IW2NTF | 2026-09-01 11:26:17 | 45.54677 | 8.82532 | 92° | 84km/h | 7308m | 5.7m/s | -21.3°C | 8.2% | 0hPa | 2.9V | 08:30:00 | 00:51:15 | 00:00:00 | |
| IW2NTF | 2026-09-01 11:26:08 | 45.54681 | 8.82258 | 94° | 60km/h | 7263m | 6m/s | -20.9°C | 7.4% | 0hPa | 3V | 08:30:00 | 00:51:05 | 00:00:00 | |
| IW2NTF | 2026-09-01 11:25:58 | 45.54685 | 8.81993 | 87° | 78km/h | 7220m | 3.8m/s | -20.5°C | 6.7% | 0hPa | 3V | 08:30:00 | 00:50:55 | 00:00:00 | |
| IW2NTF | 2026-09-01 11:25:47 | 45.54686 | 8.81719 | 94° | 84km/h | 7178m | 5m/s | -20.2°C | 5.6% | 0hPa | 2.9V | 08:30:00 | 00:50:45 | 00:00:00 | |
| IW2NTF | 2026-09-01 11:25:37 | 45.54690 | 8.81456 | 91° | 69km/h | 7127m | 4.5m/s | -19.8°C | 4.9% | 0hPa | 2.8V | 08:30:00 | 00:50:35 | 00:00:00 | |
| IW2NTF | 2026-09-01 11:25:28 | 45.54683 | 8.81209 | 91° | 78km/h | 7074m | 5.1m/s | -19.5°C | 5.3% | 0hPa | 3V | 08:30:00 | 00:50:25 | 00:00:00 | |
| IW2NTF | 2026-09-01 11:25:17 | 45.54679 | 8.80958 | 81° | 64km/h | 7026m | 4.2m/s | -19.2°C | 6.6% | 0hPa | 3V | 08:30:00 | 00:50:15 | 00:00:00 | |
| IW2NTF | 2026-09-01 11:25:08 | 45.54663 | 8.80707 | 85° | 73km/h | 6983m | 4.7m/s | -18.9°C | 6.7% | 0hPa | 3V | 08:30:00 | 00:50:05 | 00:00:00 | |
| IW2NTF | 2026-09-01 11:24:58 | 45.54655 | 8.80441 | 90° | 68km/h | 6942m | 3.1m/s | -18.6°C | 6.8% | 0hPa | 3V | 08:30:00 | 00:49:55 | 00:00:00 | |
| IW2NTF | 2026-09-01 11:24:48 | 45.54637 | 8.80188 | 65° | 82km/h | 6901m | 3m/s | -18.4°C | 6.9% | 0hPa | 3V | 08:30:00 | 00:49:45 | 00:00:00 | |
| IW2NTF | 2026-09-01 11:24:38 | 45.54620 | 8.79932 | 90° | 80km/h | 6853m | 6.1m/s | -18.1°C | 6.8% | 0hPa | 2.8V | 08:30:00 | 00:49:35 | 00:00:00 | |
| IW2NTF | 2026-09-01 11:24:27 | 45.54607 | 8.79683 | 85° | 71km/h | 6806m | 3.4m/s | -18.1°C | 7.6% | 0hPa | 2.8V | 08:30:00 | 00:49:25 | 00:00:00 | |
| IW2NTF | 2026-09-01 11:24:17 | 45.54579 | 8.79430 | 84° | 73km/h | 6744m | 8.3m/s | -17.9°C | 8.1% | 0hPa | 3V | 08:30:00 | 00:49:15 | 00:00:00 | |
| IW2NTF | 2026-09-01 11:24:08 | 45.54567 | 8.79201 | 78° | 77km/h | 6683m | 4.2m/s | -17.5°C | 9.4% | 0hPa | 3V | 08:30:00 | 00:49:05 | 00:00:00 | |
| IW2NTF | 2026-09-01 11:23:57 | 45.54559 | 8.78927 | 73° | 60km/h | 6635m | 4.6m/s | -17.1°C | 9.5% | 0hPa | 3V | 08:30:00 | 00:48:54 | 00:00:00 | |
| IW2NTF | 2026-09-01 11:23:47 | 45.54546 | 8.78685 | 74° | 71km/h | 6598m | 4m/s | -17°C | 12.2% | 0hPa | 3V | 08:30:00 | 00:48:44 | 00:00:00 | |
| IW2NTF | 2026-09-01 11:23:37 | 45.54536 | 8.78451 | 83° | 75km/h | 6556m | 5.4m/s | -16.8°C | 13.5% | 0hPa | 3V | 08:30:00 | 00:48:34 | 00:00:00 | |
| IW2NTF | 2026-09-01 11:23:28 | 45.54520 | 8.78204 | 80° | 78km/h | 6514m | 5.7m/s | -16.5°C | 13.6% | 0hPa | 2.8V | 08:30:00 | 00:48:24 | 00:00:00 | |
| IW2NTF | 2026-09-01 11:23:17 | 45.54508 | 8.77955 | 83° | 60km/h | 6469m | 3.5m/s | -16.1°C | 14.1% | 0hPa | 3V | 08:30:00 | 00:48:14 | 00:00:00 | |
| IW2NTF | 2026-09-01 11:23:08 | 45.54485 | 8.77714 | 74° | 77km/h | 6425m | 6.8m/s | -15.8°C | 14.9% | 0hPa | 3V | 08:30:00 | 00:48:04 | 00:00:00 | |
| IW2NTF | 2026-09-01 11:22:57 | 45.54470 | 8.77425 | 76° | 78km/h | 6362m | 2.8m/s | -15.4°C | 12.9% | 0hPa | 3V | 08:30:00 | 00:47:53 | 00:00:00 | |
| IW2NTF | 2026-09-01 11:22:48 | 45.54447 | 8.77176 | 73° | 80km/h | 6309m | 5m/s | -15°C | 5.9% | 0hPa | 3V | 08:30:00 | 00:47:43 | 00:00:00 | |
| IW2NTF | 2026-09-01 11:22:38 | 45.54424 | 8.76922 | 74° | 49km/h | 6266m | 0.4m/s | -14.6°C | 5.2% | 0hPa | 3V | 08:30:00 | 00:47:33 | 00:00:00 | |
| IW2NTF | 2026-09-01 11:22:27 | 45.54414 | 8.76662 | 88° | 73km/h | 6231m | 3.9m/s | -14.4°C | 5.2% | 0hPa | 2.8V | 08:30:00 | 00:47:23 | 00:00:00 | |
| IW2NTF | 2026-09-01 11:22:18 | 45.54401 | 8.76385 | 85° | 89km/h | 6198m | 5.5m/s | -14.1°C | 5.1% | 0hPa | 3V | 08:30:00 | 00:47:13 | 00:00:00 | |
| IW2NTF | 2026-09-01 11:22:08 | 45.54405 | 8.76120 | 75° | 77km/h | 6141m | 6.3m/s | -13.8°C | 5.2% | 0hPa | 3V | 08:30:00 | 00:47:03 | 00:00:00 | |
| IW2NTF | 2026-09-01 11:21:58 | 45.54388 | 8.75807 | 80° | 71km/h | 6089m | 5.4m/s | -13.3°C | 5.1% | 0hPa | 3V | 08:30:00 | 00:46:52 | 00:00:00 | |
| IW2NTF | 2026-09-01 11:21:47 | 45.54383 | 8.75550 | 84° | 60km/h | 6034m | 4.3m/s | -12.8°C | 4.9% | 0hPa | 3V | 08:30:00 | 00:46:42 | 00:00:00 | |
| IW2NTF | 2026-09-01 11:21:37 | 45.54372 | 8.75280 | 78° | 68km/h | 5978m | 8.3m/s | -12.3°C | 4.7% | 0hPa | 3V | 08:30:00 | 00:46:32 | 00:00:00 | |
| IW2NTF | 2026-09-01 11:21:29 | 45.54376 | 8.75030 | 86° | 66km/h | 5928m | 5.4m/s | -11.9°C | 4.7% | 0hPa | 3V | 08:30:00 | 00:46:22 | 00:00:00 | |
| IW2NTF | 2026-09-01 11:21:18 | 45.54371 | 8.74774 | 95° | 84km/h | 5878m | 3.9m/s | -11.6°C | 5.1% | 0hPa | 3V | 08:30:00 | 00:46:12 | 00:00:00 | |
| IW2NTF | 2026-09-01 11:21:08 | 45.54374 | 8.74520 | 86° | 80km/h | 5828m | 3.8m/s | -11.4°C | 5.2% | 0hPa | 3V | 08:30:00 | 00:46:02 | 00:00:00 | |
| IW2NTF | 2026-09-01 11:21:02 | 45.54366 | 8.74159 | 88° | 77km/h | 5759m | 6.5m/s | -11°C | 5.2% | 0hPa | 3V | 08:30:00 | 00:45:48 | 00:00:00 | |
| IW2NTF | 2026-09-01 11:20:53 | 45.54364 | 8.74015 | 90° | 73km/h | 5733m | 4.6m/s | -10.9°C | 5.6% | 0hPa | 3V | 08:30:00 | 00:45:42 | 00:00:00 | |
| IW2NTF | 2026-09-01 11:20:40 | 45.54358 | 8.73773 | 93° | 55km/h | 5693m | 1.9m/s | -10.7°C | 5.8% | 0hPa | 3V | 08:30:00 | 00:45:32 | 00:00:00 | |
| IW2NTF | 2026-09-01 11:20:25 | 45.54352 | 8.73537 | 86° | 64km/h | 5649m | 5.2m/s | -10.3°C | 5.8% | 0hPa | 3V | 08:30:00 | 00:45:22 | 00:00:00 | |
| IW2NTF | 2026-09-01 11:20:14 | 45.54358 | 8.73323 | 88° | 49km/h | 5604m | 5m/s | -9.9°C | 5.8% | 0hPa | 3V | 08:30:00 | 00:45:12 | 00:00:00 | |
| IW2NTF | 2026-09-01 11:20:05 | 45.54365 | 8.73115 | 72° | 62km/h | 5561m | 4.3m/s | -9.5°C | 5.7% | 0hPa | 3V | 08:30:00 | 00:45:02 | 00:00:00 | |
| IW2NTF | 2026-09-01 11:19:55 | 45.54369 | 8.72898 | 110° | 62km/h | 5521m | 4m/s | -9.2°C | 5.7% | 0hPa | 3V | 08:30:00 | 00:44:52 | 00:00:00 | |
| IW2NTF | 2026-09-01 11:19:48 | 45.54372 | 8.72683 | 91° | 58km/h | 5484m | 5.4m/s | -9°C | 6.2% | 0hPa | 3V | 08:30:00 | 00:44:42 | 00:00:00 | |
| IW2NTF | 2026-09-01 11:19:39 | 45.54379 | 8.72481 | 90° | 57km/h | 5448m | 3.1m/s | -8.6°C | 5.8% | 0hPa | 3V | 08:30:00 | 00:44:32 | 00:00:00 | |
| IW2NTF | 2026-09-01 11:19:29 | 45.54379 | 8.72276 | 93° | 69km/h | 5412m | 2.6m/s | -8.3°C | 6.3% | 0hPa | 3V | 08:30:00 | 00:44:22 | 00:00:00 | |
| IW2NTF | 2026-09-01 11:19:19 | 45.54392 | 8.72071 | 92° | 57km/h | 5375m | 4m/s | -8°C | 5.1% | 0hPa | 3V | 08:30:00 | 00:44:12 | 00:00:00 | |
| IW2NTF | 2026-09-01 11:19:08 | 45.54393 | 8.71860 | 92° | 51km/h | 5334m | 1.7m/s | -7.6°C | 4.3% | 0hPa | 3V | 08:30:00 | 00:44:02 | 00:00:00 | |
| IW2NTF | 2026-09-01 11:18:58 | 45.54397 | 8.71652 | 86° | 58km/h | 5302m | 3.1m/s | -7.4°C | 4.4% | 0hPa | 3V | 08:30:00 | 00:43:52 | 00:00:00 | |
| IW2NTF | 2026-09-01 11:18:48 | 45.54405 | 8.71447 | 112° | 66km/h | 5265m | 3.3m/s | -7.2°C | 4.1% | 0hPa | 3V | 08:30:00 | 00:43:42 | 00:00:00 | |
| IW2NTF | 2026-09-01 11:18:38 | 45.54415 | 8.71250 | 101° | 58km/h | 5199m | 4.3m/s | -6.5°C | 4.4% | 0hPa | 3V | 08:30:00 | 00:43:32 | 00:00:00 | |
| IW2NTF | 2026-09-01 11:18:28 | 45.54425 | 8.71049 | 102° | 49km/h | 5161m | 3.5m/s | -6.2°C | 5.1% | 0hPa | 3V | 08:30:00 | 00:43:22 | 00:00:00 | |
| IW2NTF | 2026-09-01 11:18:19 | 45.54436 | 8.70856 | 88° | 60km/h | 5125m | 6m/s | -5.9°C | 4.2% | 0hPa | 3V | 08:30:00 | 00:43:12 | 00:00:00 | |
| IW2NTF | 2026-09-01 11:18:02 | 45.54444 | 8.70627 | 105° | 53km/h | 5081m | 3.5m/s | -5.5°C | 4.2% | 0hPa | 3V | 08:30:00 | 00:43:01 | 00:00:00 | |
| IW2NTF | 2026-09-01 11:17:53 | 45.54451 | 8.70422 | 103° | 57km/h | 5039m | 7.1m/s | -5.1°C | 4.3% | 0hPa | 3V | 08:30:00 | 00:42:51 | 00:00:00 | |
| IW2NTF | 2026-09-01 11:17:47 | 45.54467 | 8.70213 | 111° | 53km/h | 4987m | 6.3m/s | -4.7°C | 4.4% | 0hPa | 3V | 08:30:00 | 00:42:41 | 00:00:00 | |
| IW2NTF | 2026-09-01 11:17:42 | 45.54467 | 8.70098 | 91° | 55km/h | 4958m | 6.2m/s | -4.5°C | 4.1% | 0hPa | 3V | 08:30:00 | 00:42:35 | 00:00:00 | |
| IW2NTF | 2026-09-01 11:17:36 | 45.54466 | 8.69976 | 78° | 51km/h | 4929m | 3.5m/s | -4.3°C | 4% | 0hPa | 3V | 08:30:00 | 00:42:29 | 00:00:00 | |
| IW2NTF | 2026-09-01 11:17:29 | 45.54469 | 8.69846 | 89° | 49km/h | 4899m | 5.9m/s | -4.1°C | 4.2% | 0hPa | 3V | 08:30:00 | 00:42:23 | 00:00:00 | |
| IW2NTF | 2026-09-01 11:17:22 | 45.54466 | 8.69724 | 93° | 55km/h | 4873m | 5m/s | -3.8°C | 4.2% | 0hPa | 3V | 08:30:00 | 00:42:17 | 00:00:00 | |
| IW2NTF | 2026-09-01 11:17:17 | 45.54464 | 8.69615 | 84° | 58km/h | 4851m | 6.1m/s | -3.6°C | 4.2% | 0hPa | 3V | 08:30:00 | 00:42:11 | 00:00:00 | |
| IW2NTF | 2026-09-01 11:17:11 | 45.54466 | 8.69491 | 97° | 53km/h | 4825m | 5.1m/s | -3.4°C | 4.2% | 0hPa | 3V | 08:30:00 | 00:42:05 | 00:00:00 | |
| IW2NTF | 2026-09-01 11:17:05 | 45.54465 | 8.69377 | 91° | 55km/h | 4797m | 5.4m/s | -3.2°C | 3.8% | 0hPa | 3V | 08:30:00 | 00:41:59 | 00:00:00 | |
| IW2NTF | 2026-09-01 11:17:00 | 45.54455 | 8.69262 | 87° | 60km/h | 4764m | 6.8m/s | -3.1°C | 3.7% | 0hPa | 3V | 08:30:00 | 00:41:53 | 00:00:00 | |
| IW2NTF | 2026-09-01 11:16:53 | 45.54456 | 8.69139 | 75° | 49km/h | 4730m | 5.2m/s | -2.9°C | 3.7% | 0hPa | 3V | 08:30:00 | 00:41:47 | 00:00:00 | |
| IW2NTF | 2026-09-01 11:16:47 | 45.54455 | 8.69054 | 84° | 46km/h | 4698m | 6.9m/s | -2.8°C | 3.7% | 0hPa | 3V | 08:30:00 | 00:41:41 | 00:00:00 | |
| IW2NTF | 2026-09-01 11:16:42 | 45.54458 | 8.68935 | 113° | 53km/h | 4667m | 6.7m/s | -2.6°C | 3.7% | 0hPa | 3V | 08:30:00 | 00:41:35 | 00:00:00 | |
| IW2NTF | 2026-09-01 11:16:32 | 45.54465 | 8.68825 | 75° | 42km/h | 4635m | 4m/s | -2.4°C | 3.2% | 0hPa | 3V | 08:30:00 | 00:41:29 | 00:00:00 | |
| IW2NTF | 2026-09-01 11:16:24 | 45.54470 | 8.68721 | 96° | 55km/h | 4613m | 4m/s | -2.1°C | 3.1% | 0hPa | 3V | 08:30:00 | 00:41:23 | 00:00:00 | |
| IW2NTF | 2026-09-01 11:16:24 | 45.54476 | 8.68635 | 81° | 57km/h | 4593m | 4.2m/s | -2°C | 3% | 0hPa | 3V | 08:30:00 | 00:41:18 | 00:00:00 | |
| IW2NTF | 2026-09-01 11:16:18 | 45.54480 | 8.68534 | 81° | 42km/h | 4569m | 5.3m/s | -1.8°C | 3% | 0hPa | 3V | 08:30:00 | 00:41:12 | 00:00:00 | |
| IW2NTF | 2026-09-01 11:16:13 | 45.54484 | 8.68429 | 101° | 49km/h | 4542m | 6.7m/s | -1.6°C | 2.9% | 0hPa | 3V | 08:30:00 | 00:41:06 | 00:00:00 | |
| IW2NTF | 2026-09-01 11:16:06 | 45.54483 | 8.68316 | 76° | 58km/h | 4507m | 6.1m/s | -1.3°C | 3.1% | 0hPa | 3V | 08:30:00 | 00:41:00 | 00:00:00 | |
| IW2NTF | 2026-09-01 11:16:00 | 45.54484 | 8.68198 | 96° | 55km/h | 4468m | 4.6m/s | -1.1°C | 4% | 0hPa | 3V | 08:30:00 | 00:40:53 | 00:00:00 | |
| IW2NTF | 2026-09-01 11:15:49 | 45.54490 | 8.68106 | 85° | 40km/h | 4444m | 5.1m/s | -0.9°C | 3.9% | 0hPa | 3V | 08:30:00 | 00:40:47 | 00:00:00 | |
| IW2NTF | 2026-09-01 11:15:49 | 45.54490 | 8.68014 | 97° | 49km/h | 4418m | 5.5m/s | -0.7°C | 3.7% | 0hPa | 3V | 08:30:00 | 00:40:41 | 00:00:00 | |
| IW2NTF | 2026-09-01 11:15:42 | 45.54491 | 8.67922 | 101° | 58km/h | 4390m | 3.6m/s | -0.5°C | 3.5% | 0hPa | 3V | 08:30:00 | 00:40:35 | 00:00:00 | |
| IW2NTF | 2026-09-01 11:15:36 | 45.54492 | 8.67829 | 88° | 51km/h | 4363m | 3.7m/s | -0.4°C | 3.7% | 0hPa | 3V | 08:30:00 | 00:40:29 | 00:00:00 | |
| IW2NTF | 2026-09-01 11:15:30 | 45.54475 | 8.67733 | 73° | 46km/h | 4329m | 8.4m/s | -0.3°C | 3.9% | 0hPa | 3V | 08:30:00 | 00:40:23 | 00:00:00 | |
| IW2NTF | 2026-09-01 11:15:24 | 45.54478 | 8.67655 | 98° | 46km/h | 4294m | 5.8m/s | 0°C | 4.1% | 0hPa | 3V | 08:30:00 | 00:40:17 | 00:00:00 | |
| IW2NTF | 2026-09-01 11:15:18 | 45.54465 | 8.67566 | 69° | 38km/h | 4268m | 5.6m/s | 0.2°C | 4.1% | 0hPa | 3V | 08:30:00 | 00:40:11 | 00:00:00 | |
| IW2NTF | 2026-09-01 11:15:11 | 45.54463 | 8.67491 | 109° | 29km/h | 4232m | 5.7m/s | 0.5°C | 4.1% | 0hPa | 3V | 08:30:00 | 00:40:05 | 00:00:00 | |
| IW2NTF | 2026-09-01 11:15:05 | 45.54463 | 8.67422 | 107° | 31km/h | 4188m | 6.3m/s | 0.9°C | 4.3% | 0hPa | 3V | 08:30:00 | 00:39:59 | 00:00:00 | |
| IW2NTF | 2026-09-01 11:15:00 | 45.54461 | 8.67348 | 58° | 40km/h | 4158m | 6.7m/s | 1.1°C | 3.9% | 0hPa | 3V | 08:30:00 | 00:39:53 | 00:00:00 | |
| IW2NTF | 2026-09-01 11:14:53 | 45.54448 | 8.67271 | 71° | 33km/h | 4130m | 3.8m/s | 1.3°C | 4.4% | 0hPa | 3V | 08:30:00 | 00:39:47 | 00:00:00 | |
| IW2NTF | 2026-09-01 11:14:47 | 45.54441 | 8.67198 | 66° | 27km/h | 4100m | 4.2m/s | 1.6°C | 5.1% | 0hPa | 3V | 08:30:00 | 00:39:41 | 00:00:00 | |
| IW2NTF | 2026-09-01 11:14:35 | 45.54422 | 8.67121 | 81° | 49km/h | 4058m | 5.8m/s | 1.7°C | 5.1% | 0hPa | 3V | 08:30:00 | 00:39:34 | 00:00:00 | |
| IW2NTF | 2026-09-01 11:14:35 | 45.54414 | 8.67065 | 84° | 44km/h | 4033m | 3.8m/s | 1.9°C | 5.7% | 0hPa | 3V | 08:30:00 | 00:39:29 | 00:00:00 | |
| IW2NTF | 2026-09-01 11:14:30 | 45.54404 | 8.66982 | 54° | 31km/h | 4004m | 3.4m/s | 2°C | 7.3% | 0hPa | 3V | 08:30:00 | 00:39:23 | 00:00:00 | |
| IW2NTF | 2026-09-01 11:14:23 | 45.54405 | 8.66897 | 100° | 46km/h | 3981m | 4.5m/s | 2.2°C | 6.5% | 0hPa | 3V | 08:30:00 | 00:39:17 | 00:00:00 | |
| IW2NTF | 2026-09-01 11:14:18 | 45.54406 | 8.66829 | 109° | 37km/h | 3954m | 2.9m/s | 2.3°C | 7% | 0hPa | 3V | 08:30:00 | 00:39:11 | 00:00:00 | |
| IW2NTF | 2026-09-01 11:14:10 | 45.54408 | 8.66753 | 90° | 29km/h | 3925m | 3.9m/s | 2.5°C | 7.2% | 0hPa | 3V | 08:30:00 | 00:39:05 | 00:00:00 | |
| IW2NTF | 2026-09-01 11:14:05 | 45.54404 | 8.66685 | 90° | 35km/h | 3911m | 1.9m/s | 2.6°C | 7.2% | 0hPa | 3V | 08:30:00 | 00:38:59 | 00:00:00 | |
| IW2NTF | 2026-09-01 11:14:00 | 45.54414 | 8.66617 | 88° | 20km/h | 3900m | 3m/s | 2.7°C | 7.1% | 0hPa | 3V | 08:30:00 | 00:38:53 | 00:00:00 | |
| IW2NTF | 2026-09-01 11:13:54 | 45.54412 | 8.66555 | 87° | 26km/h | 3886m | 1.6m/s | 2.9°C | 6.8% | 0hPa | 3V | 08:30:00 | 00:38:47 | 00:00:00 | |
| IW2NTF | 2026-09-01 11:13:48 | 45.54422 | 8.66486 | 82° | 27km/h | 3869m | 3.4m/s | 3°C | 6.7% | 0hPa | 3V | 08:30:00 | 00:38:41 | 00:00:00 | |
| IW2NTF | 2026-09-01 11:13:41 | 45.54420 | 8.66422 | 62° | 22km/h | 3853m | 4.6m/s | 3°C | 7% | 0hPa | 3V | 08:30:00 | 00:38:35 | 00:00:00 | |
| IW2NTF | 2026-09-01 11:13:35 | 45.54424 | 8.66349 | 108° | 29km/h | 3824m | 5.2m/s | 3.1°C | 7.8% | 0hPa | 3V | 08:30:00 | 00:38:29 | 00:00:00 | |
| IW2NTF | 2026-09-01 11:13:29 | 45.54430 | 8.66275 | 55° | 15km/h | 3798m | 5.1m/s | 3.3°C | 7.8% | 0hPa | 3V | 08:30:00 | 00:38:23 | 00:00:00 | |
| IW2NTF | 2026-09-01 11:13:23 | 45.54434 | 8.66213 | 115° | 38km/h | 3774m | 4.5m/s | 3.5°C | 8% | 0hPa | 3V | 08:30:00 | 00:38:17 | 00:00:00 | |
| IW2NTF | 2026-09-01 11:13:17 | 45.54425 | 8.66147 | 60° | 27km/h | 3745m | 3.4m/s | 3.7°C | 8.3% | 0hPa | 3V | 08:30:00 | 00:38:11 | 00:00:00 | |
| IW2NTF | 2026-09-01 11:13:11 | 45.54420 | 8.66087 | 89° | 37km/h | 3721m | 2.6m/s | 3.9°C | 8.6% | 0hPa | 3V | 08:30:00 | 00:38:05 | 00:00:00 | |
| IW2NTF | 2026-09-01 11:13:05 | 45.54425 | 8.66045 | 105° | 16km/h | 3701m | 4.2m/s | 4°C | 8.7% | 0hPa | 3V | 08:30:00 | 00:37:59 | 00:00:00 | |
| IW2NTF | 2026-09-01 11:12:59 | 45.54429 | 8.65973 | 61° | 37km/h | 3675m | 5.2m/s | 4.1°C | 9.6% | 0hPa | 3V | 08:30:00 | 00:37:53 | 00:00:00 | |
| IW2NTF | 2026-09-01 11:12:52 | 45.54412 | 8.65908 | 63° | 40km/h | 3651m | 3.7m/s | 3.7°C | 10.9% | 0hPa | 3V | 08:30:00 | 00:37:46 | 00:00:00 | |
| IW2NTF | 2026-09-01 11:12:47 | 45.54403 | 8.65850 | 107° | 26km/h | 3629m | 3m/s | 3.6°C | 10.9% | 0hPa | 3V | 08:30:00 | 00:37:40 | 00:00:00 | |
| IW2NTF | 2026-09-01 11:12:41 | 45.54390 | 8.65794 | 91° | 27km/h | 3609m | 2.4m/s | 3.6°C | 12.1% | 0hPa | 3V | 08:30:00 | 00:37:34 | 00:00:00 | |
| IW2NTF | 2026-09-01 11:12:35 | 45.54393 | 8.65735 | 107° | 16km/h | 3583m | 4m/s | 3.7°C | 12.6% | 0hPa | 3V | 08:30:00 | 00:37:28 | 00:00:00 | |
| IW2NTF | 2026-09-01 11:12:28 | 45.54384 | 8.65703 | 81° | 26km/h | 3554m | 7.1m/s | 3.8°C | 13.7% | 0hPa | 3V | 08:30:00 | 00:37:22 | 00:00:00 | |
| IW2NTF | 2026-09-01 11:12:22 | 45.54368 | 8.65654 | 72° | 20km/h | 3525m | 4.4m/s | 4°C | 14.4% | 0hPa | 3V | 08:30:00 | 00:37:16 | 00:00:00 | |
| IW2NTF | 2026-09-01 11:12:17 | 45.54363 | 8.65621 | 6° | 20km/h | 3496m | 5.1m/s | 3.8°C | 16.2% | 0hPa | 3V | 08:30:00 | 00:37:10 | 00:00:00 | |
| IW2NTF | 2026-09-01 11:12:11 | 45.54355 | 8.65580 | 116° | 29km/h | 3458m | 5.4m/s | 3.7°C | 18.8% | 0hPa | 3V | 08:30:00 | 00:37:04 | 00:00:00 | |
| IW2NTF | 2026-09-01 11:12:04 | 45.54352 | 8.65554 | 57° | 16km/h | 3414m | 9.5m/s | 4.2°C | 18% | 0hPa | 3V | 08:30:00 | 00:36:58 | 00:00:00 | |
| IW2NTF | 2026-09-01 11:11:58 | 45.54344 | 8.65501 | 89° | 7km/h | 3365m | 6.7m/s | 3.8°C | 33.6% | 0hPa | 3V | 08:30:00 | 00:36:52 | 00:00:00 | |
| IW2NTF | 2026-09-01 11:11:52 | 45.54317 | 8.65479 | 53° | 33km/h | 3324m | 5.6m/s | 4.3°C | 27.9% | 0hPa | 3V | 08:30:00 | 00:36:46 | 00:00:00 | |
| IW2NTF | 2026-09-01 11:11:47 | 45.54294 | 8.65450 | 15° | 26km/h | 3288m | 7.1m/s | 4.6°C | 31.6% | 0hPa | 3V | 08:30:00 | 00:36:40 | 00:00:00 | |
| IW2NTF | 2026-09-01 11:11:40 | 45.54256 | 8.65402 | 44° | 35km/h | 3256m | 3.8m/s | 5°C | 24.4% | 0hPa | 3V | 08:30:00 | 00:36:34 | 00:00:00 | |
| IW2NTF | 2026-09-01 11:11:35 | 45.54228 | 8.65349 | 61° | 20km/h | 3227m | 5m/s | 4.2°C | 54.5% | 0hPa | 3V | 08:30:00 | 00:36:28 | 00:00:00 | |
| IW2NTF | 2026-09-01 11:11:28 | 45.54194 | 8.65323 | 63° | 18km/h | 3195m | 3.2m/s | 3.7°C | 71.5% | 0hPa | 3V | 08:30:00 | 00:36:22 | 00:00:00 | |
| IW2NTF | 2026-09-01 11:11:22 | 45.54154 | 8.65313 | 352° | 11km/h | 3172m | 0.9m/s | 4.3°C | 64.8% | 0hPa | 3V | 08:30:00 | 00:36:16 | 00:00:00 | |
| IW2NTF | 2026-09-01 11:11:16 | 45.54139 | 8.65297 | 304° | 7km/h | 3156m | 1.4m/s | 4.4°C | 63% | 0hPa | 3V | 08:30:00 | 00:36:10 | 00:00:00 | |
| IW2NTF | 2026-09-01 11:11:11 | 45.54107 | 8.65293 | 27° | 31km/h | 3146m | 2.6m/s | 4.3°C | 65.8% | 0hPa | 3V | 08:30:00 | 00:36:04 | 00:00:00 | |
| IW2NTF | 2026-09-01 11:11:04 | 45.54060 | 8.65284 | 13° | 22km/h | 3114m | 3.4m/s | 5.2°C | 50.2% | 0hPa | 3V | 08:30:00 | 00:35:57 | 00:00:00 | |
| IW2NTF | 2026-09-01 11:10:58 | 45.54029 | 8.65296 | 354° | 29km/h | 3097m | 4.7m/s | 5.6°C | 44.6% | 0hPa | 3V | 08:30:00 | 00:35:51 | 00:00:00 | |
| IW2NTF | 2026-09-01 11:10:51 | 45.53994 | 8.65282 | 24° | 26km/h | 3072m | 4.8m/s | 5.8°C | 46.6% | 0hPa | 3V | 08:30:00 | 00:35:45 | 00:00:00 | |
| IW2NTF | 2026-09-01 11:10:43 | 45.53948 | 8.65268 | 346° | 13km/h | 3037m | 4.5m/s | 5.7°C | 52.8% | 0hPa | 3V | 08:30:00 | 00:35:37 | 00:00:00 | |
| IW2NTF | 2026-09-01 11:10:37 | 45.53942 | 8.65262 | 63° | 13km/h | 3029m | 0.5m/s | 5.2°C | 62.3% | 0hPa | 3V | 08:30:00 | 00:35:31 | 00:00:00 | |
| IW2NTF | 2026-09-01 11:10:31 | 45.53918 | 8.65256 | 332° | 16km/h | 3011m | 3.5m/s | 5.3°C | 63.1% | 0hPa | 3V | 08:30:00 | 00:35:25 | 00:00:00 | |
| IW2NTF | 2026-09-01 11:10:26 | 45.53907 | 8.65241 | 35° | 29km/h | 3007m | -2.2m/s | 5.5°C | 60.5% | 0hPa | 3V | 08:30:00 | 00:35:19 | 00:00:00 | |
| IW2NTF | 2026-09-01 11:10:20 | 45.53884 | 8.65264 | 343° | 13km/h | 3007m | 3.6m/s | 5.6°C | 65.1% | 0hPa | 3V | 08:30:00 | 00:35:13 | 00:00:00 | |
| IW2NTF | 2026-09-01 11:10:13 | 45.53880 | 8.65252 | 24° | 20km/h | 2982m | 4.2m/s | 6°C | 46.4% | 0hPa | 3V | 08:30:00 | 00:35:07 | 00:00:00 | |
| IW2NTF | 2026-09-01 11:10:07 | 45.53865 | 8.65262 | 108° | 27km/h | 2951m | 7.1m/s | 6.1°C | 52.1% | 0hPa | 3V | 08:30:00 | 00:35:01 | 00:00:00 | |
| IW2NTF | 2026-09-01 11:10:01 | 45.53870 | 8.65248 | 30° | 18km/h | 2916m | 5.1m/s | 6.6°C | 45.9% | 0hPa | 3V | 08:30:00 | 00:34:55 | 00:00:00 | |
| IW2NTF | 2026-09-01 11:09:55 | 45.53860 | 8.65231 | 182° | 13km/h | 2898m | 3.2m/s | 6.6°C | 49.8% | 0hPa | 3V | 08:30:00 | 00:34:49 | 00:00:00 | |
| IW2NTF | 2026-09-01 11:09:50 | 45.53847 | 8.65215 | 9° | 7km/h | 2867m | 7.1m/s | 7.2°C | 42.1% | 0hPa | 3V | 08:30:00 | 00:34:43 | 00:00:00 | |
| IW2NTF | 2026-09-01 11:09:43 | 45.53839 | 8.65199 | 243° | 11km/h | 2840m | 2.5m/s | 7°C | 52.1% | 0hPa | 3V | 08:30:00 | 00:34:37 | 00:00:00 | |
| IW2NTF | 2026-09-01 11:09:37 | 45.53808 | 8.65189 | 0° | 29km/h | 2826m | 2.8m/s | 6.7°C | 63.8% | 0hPa | 3V | 08:30:00 | 00:34:31 | 00:00:00 | |
| IW2NTF | 2026-09-01 11:09:32 | 45.53778 | 8.65183 | 351° | 9km/h | 2814m | -0.4m/s | 6.5°C | 70.8% | 0hPa | 3V | 08:30:00 | 00:34:25 | 00:00:00 | |
| IW2NTF | 2026-09-01 11:09:26 | 45.53757 | 8.65186 | 97° | 15km/h | 2807m | 1.6m/s | 7.2°C | 58.1% | 0hPa | 3V | 08:30:00 | 00:34:19 | 00:00:00 | |
| IW2NTF | 2026-09-01 11:09:20 | 45.53754 | 8.65189 | 3° | 24km/h | 2781m | 5.3m/s | 7.7°C | 44.3% | 0hPa | 3V | 08:30:00 | 00:34:13 | 00:00:00 | |
| IW2NTF | 2026-09-01 11:09:13 | 45.53732 | 8.65205 | 201° | 15km/h | 2753m | 6.7m/s | 8°C | 43% | 0hPa | 3V | 08:30:00 | 00:34:07 | 00:00:00 | |
| IW2NTF | 2026-09-01 11:09:07 | 45.53727 | 8.65202 | 34° | 20km/h | 2719m | 5.2m/s | 8.5°C | 35.7% | 0hPa | 3V | 08:30:00 | 00:34:01 | 00:00:00 | |
| IW2NTF | 2026-09-01 11:09:01 | 45.53712 | 8.65183 | 151° | 13km/h | 2692m | 3.7m/s | 8.3°C | 36.8% | 0hPa | 3V | 08:30:00 | 00:33:55 | 00:00:00 | |
| IW2NTF | 2026-09-01 11:08:51 | 45.53707 | 8.65191 | 31° | 15km/h | 2659m | 5.1m/s | 8.1°C | 44.4% | 0hPa | 3V | 08:30:00 | 00:33:49 | 00:00:00 | |
| IW2NTF | 2026-09-01 11:08:51 | 45.53700 | 8.65200 | 228° | 20km/h | 2643m | 2.2m/s | 8°C | 50.9% | 0hPa | 3V | 08:30:00 | 00:33:44 | 00:00:00 | |
| IW2NTF | 2026-09-01 11:08:45 | 45.53715 | 8.65197 | 147° | 2km/h | 2623m | 4.3m/s | 7.8°C | 56.2% | 0hPa | 3V | 08:30:00 | 00:33:38 | 00:00:00 | |
| IW2NTF | 2026-09-01 11:08:38 | 45.53700 | 8.65192 | 121° | 15km/h | 2599m | 2.7m/s | 7.8°C | 57.3% | 0hPa | 3V | 08:30:00 | 00:33:32 | 00:00:00 | |
| IW2NTF | 2026-09-01 11:08:32 | 45.53705 | 8.65198 | 302° | 22km/h | 2580m | 5.1m/s | 8°C | 54.8% | 0hPa | 3V | 08:30:00 | 00:33:26 | 00:00:00 | |
| IW2NTF | 2026-09-01 11:08:27 | 45.53680 | 8.65219 | 315° | 20km/h | 2564m | 2.3m/s | 7.4°C | 53.8% | 0hPa | 3V | 08:30:00 | 00:33:20 | 00:00:00 | |
| IW2NTF | 2026-09-01 11:08:20 | 45.53663 | 8.65243 | 8° | 26km/h | 2548m | 4.2m/s | 7°C | 60.2% | 0hPa | 3V | 08:30:00 | 00:33:14 | 00:00:00 | |
| IW2NTF | 2026-09-01 11:08:15 | 45.53659 | 8.65244 | 247° | 11km/h | 2524m | 3.9m/s | 7.2°C | 82.5% | 0hPa | 3V | 08:30:00 | 00:33:08 | 00:00:00 | |
| IW2NTF | 2026-09-01 11:08:08 | 45.53644 | 8.65285 | 321° | 37km/h | 2500m | 3.6m/s | 8.7°C | 0% | 0hPa | 3V | 08:30:00 | 00:33:02 | 00:00:00 | |
| IW2NTF | 2026-09-01 11:08:02 | 45.53630 | 8.65302 | 286° | 20km/h | 2476m | 4.1m/s | 8.5°C | 0% | 0hPa | 3V | 08:30:00 | 00:32:56 | 00:00:00 | |
| IW2NTF | 2026-09-01 11:07:56 | 45.53615 | 8.65336 | 348° | 24km/h | 2448m | 5.5m/s | 8.2°C | 99.3% | 0hPa | 3V | 08:30:00 | 00:32:50 | 00:00:00 | |
| IW2NTF | 2026-09-01 11:07:50 | 45.53590 | 8.65325 | 355° | 13km/h | 2422m | 6.4m/s | 8.3°C | 95.6% | 0hPa | 3V | 08:30:00 | 00:32:44 | 00:00:00 | |
| IW2NTF | 2026-09-01 11:07:45 | 45.53592 | 8.65332 | 178° | 7km/h | 2380m | 6.2m/s | 8.6°C | 92.6% | 0hPa | 3V | 08:30:00 | 00:32:38 | 00:00:00 | |
| IW2NTF | 2026-09-01 11:07:39 | 45.53571 | 8.65362 | 324° | 29km/h | 2343m | 6.6m/s | 9.3°C | 99% | 0hPa | 3V | 08:30:00 | 00:32:32 | 00:00:00 | |
| IW2NTF | 2026-09-01 11:07:31 | 45.53555 | 8.65407 | 117° | 5km/h | 2305m | 7.1m/s | 10.3°C | 0% | 0hPa | 3V | 08:30:00 | 00:32:26 | 00:00:00 | |
| IW2NTF | 2026-09-01 11:07:26 | 45.53531 | 8.65405 | 321° | 31km/h | 2261m | 5.7m/s | 11°C | 0% | 0hPa | 3V | 08:30:00 | 00:32:20 | 00:00:00 | |
| IW2NTF | 2026-09-01 11:07:20 | 45.53522 | 8.65410 | 289° | 11km/h | 2218m | 8.9m/s | 11.1°C | 0% | 0hPa | 3V | 08:30:00 | 00:32:14 | 00:00:00 | |
| IW2NTF | 2026-09-01 11:07:14 | 45.53514 | 8.65406 | 14° | 9km/h | 2178m | 6.6m/s | 11.2°C | 0% | 0hPa | 3V | 08:30:00 | 00:32:08 | 00:00:00 | |
| IW2NTF | 2026-09-01 11:07:08 | 45.53496 | 8.65433 | 350° | 26km/h | 2147m | 3.3m/s | 11.3°C | 99.5% | 0hPa | 3V | 08:30:00 | 00:32:02 | 00:00:00 | |
| IW2NTF | 2026-09-01 11:07:02 | 45.53479 | 8.65456 | 204° | 5km/h | 2115m | 4.9m/s | 11.3°C | 99.9% | 0hPa | 3V | 08:30:00 | 00:31:56 | 00:00:00 | |
| IW2NTF | 2026-09-01 11:06:57 | 45.53462 | 8.65443 | 44° | 13km/h | 2081m | 6.7m/s | 11.4°C | 0% | 0hPa | 3V | 08:30:00 | 00:31:50 | 00:00:00 | |
| IW2NTF | 2026-09-01 11:06:47 | 45.53450 | 8.65463 | 17° | 22km/h | 2041m | 8.1m/s | 11.7°C | 99.6% | 0hPa | 3V | 08:30:00 | 00:31:44 | 00:00:00 | |
| IW2NTF | 2026-09-01 11:06:41 | 45.53427 | 8.65450 | 12° | 18km/h | 1994m | 7.7m/s | 11.6°C | 98.2% | 0hPa | 3V | 08:30:00 | 00:31:38 | 00:00:00 | |
| IW2NTF | 2026-09-01 11:06:41 | 45.53421 | 8.65445 | 75° | 9km/h | 1982m | 5m/s | 11.8°C | 98% | 0hPa | 3V | 08:30:00 | 00:31:36 | 00:00:00 | |
| IW2NTF | 2026-09-01 11:06:41 | 45.53421 | 8.65444 | 247° | 7km/h | 1970m | 7.1m/s | 11.5°C | 94.6% | 0hPa | 3V | 08:30:00 | 00:31:34 | 00:00:00 | |
| IW2NTF | 2026-09-01 11:06:35 | 45.53424 | 8.65450 | 229° | 13km/h | 1958m | 4.7m/s | 11.6°C | 95.4% | 0hPa | 3V | 08:30:00 | 00:31:32 | 00:00:00 | |
| IW2NTF | 2026-09-01 11:06:35 | 45.53425 | 8.65461 | 289° | 22km/h | 1946m | 6.7m/s | 11.7°C | 94.9% | 0hPa | 3V | 08:30:00 | 00:31:30 | 00:00:00 | |
| IW2NTF | 2026-09-01 11:06:35 | 45.53418 | 8.65473 | 335° | 16km/h | 1934m | 6.8m/s | 12°C | 98.7% | 0hPa | 3V | 08:30:00 | 00:31:28 | 00:00:00 | |
| IW2NTF | 2026-09-01 11:06:27 | 45.53411 | 8.65474 | 0° | 13km/h | 1921m | 6.4m/s | 12.1°C | 97.7% | 0hPa | 3V | 08:30:00 | 00:31:26 | 00:00:00 | |
| IW2NTF | 2026-09-01 11:06:27 | 45.53406 | 8.65472 | 52° | 9km/h | 1908m | 5m/s | 12.3°C | 99.4% | 0hPa | 3V | 08:30:00 | 00:31:24 | 00:00:00 | |
| IW2NTF | 2026-09-01 11:06:27 | 45.53407 | 8.65470 | 215° | 7km/h | 1899m | 5.3m/s | 12.4°C | 99.7% | 0hPa | 3V | 08:30:00 | 00:31:22 | 00:00:00 | |
| IW2NTF | 2026-09-01 11:06:22 | 45.53411 | 8.65475 | 222° | 15km/h | 1889m | 4.6m/s | 12.5°C | 99.5% | 0hPa | 3V | 08:30:00 | 00:31:20 | 00:00:00 | |
| IW2NTF | 2026-09-01 11:06:22 | 45.53415 | 8.65487 | 260° | 20km/h | 1880m | 5.4m/s | 12.6°C | 99.6% | 0hPa | 3V | 08:30:00 | 00:31:18 | 00:00:00 | |
| IW2NTF | 2026-09-01 11:06:22 | 45.53413 | 8.65501 | 301° | 24km/h | 1867m | 6.1m/s | 12.6°C | 99.5% | 0hPa | 3V | 08:30:00 | 00:31:16 | 00:00:00 | |
| IW2NTF | 2026-09-01 11:06:16 | 45.53406 | 8.65506 | 25° | 13km/h | 1857m | 4.6m/s | 12.9°C | 99.4% | 0hPa | 3V | 08:30:00 | 00:31:14 | 00:00:00 | |
| IW2NTF | 2026-09-01 11:06:16 | 45.53402 | 8.65500 | 42° | 11km/h | 1849m | 3.9m/s | 12.8°C | 99.3% | 0hPa | 3V | 08:30:00 | 00:31:12 | 00:00:00 | |
| IW2NTF | 2026-09-01 11:06:16 | 45.53399 | 8.65497 | 111° | 4km/h | 1839m | 5m/s | 13.1°C | 99.2% | 0hPa | 3V | 08:30:00 | 00:31:10 | 00:00:00 | |
| IW2NTF | 2026-09-01 11:06:11 | 45.53402 | 8.65496 | 215° | 11km/h | 1831m | 4.4m/s | 12.9°C | 98.7% | 0hPa | 3V | 08:30:00 | 00:31:08 | 00:00:00 | |
| IW2NTF | 2026-09-01 11:06:11 | 45.53406 | 8.65509 | 259° | 27km/h | 1822m | 4.2m/s | 12.9°C | 99.5% | 0hPa | 3V | 08:30:00 | 00:31:06 | 00:00:00 | |
| IW2NTF | 2026-09-01 11:06:11 | 45.53404 | 8.65519 | 18° | 13km/h | 1809m | 7.7m/s | 13.1°C | 99.2% | 0hPa | 3V | 08:30:00 | 00:31:04 | 00:00:00 | |
| IW2NTF | 2026-09-01 11:06:04 | 45.53397 | 8.65515 | 16° | 13km/h | 1798m | 5.3m/s | 13.2°C | 99.5% | 0hPa | 3V | 08:30:00 | 00:31:02 | 00:00:00 | |
| IW2NTF | 2026-09-01 11:06:04 | 45.53395 | 8.65518 | 236° | 13km/h | 1785m | 5.8m/s | 13.3°C | 99.6% | 0hPa | 3V | 08:30:00 | 00:31:00 | 00:00:00 | |
| IW2NTF | 2026-09-01 11:06:04 | 45.53399 | 8.65520 | 217° | 7km/h | 1775m | 4.7m/s | 13.3°C | 99.5% | 0hPa | 3V | 08:30:00 | 00:30:58 | 00:00:00 | |
| IW2NTF | 2026-09-01 11:05:58 | 45.53400 | 8.65534 | 280° | 33km/h | 1766m | 4.4m/s | 13.3°C | 98.3% | 0hPa | 3V | 08:30:00 | 00:30:56 | 00:00:00 | |
| IW2NTF | 2026-09-01 11:05:58 | 45.53394 | 8.65547 | 329° | 15km/h | 1755m | 7.1m/s | 13.4°C | 99.2% | 0hPa | 3V | 08:30:00 | 00:30:54 | 00:00:00 | |
| IW2NTF | 2026-09-01 11:05:58 | 45.53389 | 8.65545 | 60° | 11km/h | 1744m | 4.1m/s | 13.5°C | 99.1% | 0hPa | 3V | 08:30:00 | 00:30:52 | 00:00:00 | |
| IW2NTF | 2026-09-01 11:05:52 | 45.53391 | 8.65541 | 184° | 7km/h | 1736m | 4.8m/s | 13.5°C | 97% | 0hPa | 3V | 08:30:00 | 00:30:50 | 00:00:00 | |
| IW2NTF | 2026-09-01 11:05:52 | 45.53395 | 8.65546 | 244° | 11km/h | 1727m | 4m/s | 13.6°C | 99.4% | 0hPa | 3V | 08:30:00 | 00:30:48 | 00:00:00 | |
| IW2NTF | 2026-09-01 11:05:52 | 45.53396 | 8.65554 | 267° | 15km/h | 1719m | 3.8m/s | 13.6°C | 95.7% | 0hPa | 3V | 08:30:00 | 00:30:46 | 00:00:00 | |
| IW2NTF | 2026-09-01 11:05:47 | 45.53394 | 8.65566 | 299° | 22km/h | 1711m | 3.6m/s | 13.7°C | 99.3% | 0hPa | 3V | 08:30:00 | 00:30:44 | 00:00:00 | |
| IW2NTF | 2026-09-01 11:05:47 | 45.53385 | 8.65576 | 347° | 26km/h | 1701m | 5.8m/s | 13.8°C | 99.4% | 0hPa | 3V | 08:30:00 | 00:30:42 | 00:00:00 | |
| IW2NTF | 2026-09-01 11:05:47 | 45.53377 | 8.65571 | 43° | 11km/h | 1691m | 4.8m/s | 13.9°C | 99.1% | 0hPa | 3V | 08:30:00 | 00:30:40 | 00:00:00 | |
| IW2NTF | 2026-09-01 11:05:41 | 45.53377 | 8.65566 | 150° | 11km/h | 1681m | 4.2m/s | 13.9°C | 99% | 0hPa | 3V | 08:30:00 | 00:30:38 | 00:00:00 | |
| IW2NTF | 2026-09-01 11:05:41 | 45.53377 | 8.65564 | 17° | 11km/h | 1672m | 5m/s | 13.9°C | 99% | 0hPa | 3V | 08:30:00 | 00:30:36 | 00:00:00 | |
| IW2NTF | 2026-09-01 11:05:41 | 45.53370 | 8.65559 | 10° | 20km/h | 1664m | 3.3m/s | 14°C | 98.8% | 0hPa | 3V | 08:30:00 | 00:30:34 | 00:00:00 | |
| IW2NTF | 2026-09-01 11:05:35 | 45.53358 | 8.65565 | 321° | 27km/h | 1657m | 3m/s | 14.1°C | 99.2% | 0hPa | 3V | 08:30:00 | 00:30:32 | 00:00:00 | |
| IW2NTF | 2026-09-01 11:05:35 | 45.53350 | 8.65577 | 305° | 24km/h | 1650m | 4.4m/s | 14.1°C | 98.8% | 0hPa | 3V | 08:30:00 | 00:30:30 | 00:00:00 | |
| IW2NTF | 2026-09-01 11:05:35 | 45.53342 | 8.65592 | 320° | 20km/h | 1640m | 6m/s | 14.1°C | 98.7% | 0hPa | 3V | 08:30:00 | 00:30:28 | 00:00:00 | |
| IW2NTF | 2026-09-01 11:05:26 | 45.53327 | 8.65594 | 63° | 9km/h | 1618m | 6.3m/s | 14.3°C | 97.1% | 0hPa | 3V | 08:30:00 | 00:30:24 | 00:00:00 | |
| IW2NTF | 2026-09-01 11:05:26 | 45.53331 | 8.65595 | 266° | 15km/h | 1608m | 5.2m/s | 14.4°C | 96.4% | 0hPa | 3V | 08:30:00 | 00:30:22 | 00:00:00 | |
| IW2NTF | 2026-09-01 11:05:26 | 45.53329 | 8.65604 | 306° | 16km/h | 1595m | 6.9m/s | 14.8°C | 89.7% | 0hPa | 3V | 08:30:00 | 00:30:20 | 00:00:00 | |
| IW2NTF | 2026-09-01 11:05:20 | 45.53323 | 8.65621 | 293° | 26km/h | 1584m | 4.7m/s | 14.8°C | 93% | 0hPa | 3V | 08:30:00 | 00:30:18 | 00:00:00 | |
| IW2NTF | 2026-09-01 11:05:20 | 45.53321 | 8.65631 | 219° | 9km/h | 1571m | 6.7m/s | 15°C | 88.6% | 0hPa | 3V | 08:30:00 | 00:30:16 | 00:00:00 | |
| IW2NTF | 2026-09-01 11:05:20 | 45.53323 | 8.65629 | 31° | 11km/h | 1560m | 6.4m/s | 14.9°C | 92.9% | 0hPa | 3V | 08:30:00 | 00:30:14 | 00:00:00 | |
| IW2NTF | 2026-09-01 11:05:14 | 45.53312 | 8.65632 | 326° | 18km/h | 1551m | 4.3m/s | 15.1°C | 91.6% | 0hPa | 3V | 08:30:00 | 00:30:12 | 00:00:00 | |
| IW2NTF | 2026-09-01 11:05:14 | 45.53309 | 8.65644 | 266° | 26km/h | 1540m | 5m/s | 15.2°C | 89.5% | 0hPa | 3V | 08:30:00 | 00:30:10 | 00:00:00 | |
| IW2NTF | 2026-09-01 11:05:14 | 45.53312 | 8.65653 | 206° | 7km/h | 1531m | 5.2m/s | 15.3°C | 90% | 0hPa | 3V | 08:30:00 | 00:30:08 | 00:00:00 | |
| IW2NTF | 2026-09-01 11:05:09 | 45.53313 | 8.65654 | 42° | 4km/h | 1522m | 4.2m/s | 15.4°C | 89.4% | 0hPa | 3V | 08:30:00 | 00:30:06 | 00:00:00 | |
| IW2NTF | 2026-09-01 11:05:09 | 45.53311 | 8.65648 | 45° | 9km/h | 1514m | 4.7m/s | 15.5°C | 89.1% | 0hPa | 3V | 08:30:00 | 00:30:04 | 00:00:00 | |
| IW2NTF | 2026-09-01 11:05:09 | 45.53303 | 8.65650 | 340° | 29km/h | 1502m | 6m/s | 15.6°C | 88.5% | 0hPa | 3V | 08:30:00 | 00:30:02 | 00:00:00 | |
| IW2NTF | 2026-09-01 11:05:02 | 45.53291 | 8.65659 | 303° | 16km/h | 1490m | 8.1m/s | 15.7°C | 88.2% | 0hPa | 3V | 08:30:00 | 00:30:00 | 00:00:00 | |
| IW2NTF | 2026-09-01 11:05:02 | 45.53294 | 8.65666 | 244° | 5km/h | 1478m | 5.5m/s | 15.9°C | 87% | 0hPa | 3V | 08:30:00 | 00:29:58 | 00:00:00 | |
| IW2NTF | 2026-09-01 11:05:02 | 45.53288 | 8.65668 | 349° | 24km/h | 1465m | 5.3m/s | 15.9°C | 87.9% | 0hPa | 3V | 08:30:00 | 00:29:56 | 00:00:00 | |
| IW2NTF | 2026-09-01 11:04:56 | 45.53278 | 8.65678 | 304° | 26km/h | 1455m | 5.8m/s | 16°C | 86.3% | 0hPa | 3V | 08:30:00 | 00:29:54 | 00:00:00 | |
| IW2NTF | 2026-09-01 11:04:56 | 45.53275 | 8.65694 | 265° | 16km/h | 1445m | 5.1m/s | 16.1°C | 86.2% | 0hPa | 3V | 08:30:00 | 00:29:52 | 00:00:00 | |
| IW2NTF | 2026-09-01 11:04:56 | 45.53277 | 8.65698 | 86° | 4km/h | 1435m | 4.9m/s | 16.2°C | 85.9% | 0hPa | 3V | 08:30:00 | 00:29:50 | 00:00:00 | |
| IW2NTF | 2026-09-01 11:04:51 | 45.53271 | 8.65696 | 8° | 16km/h | 1424m | 5.5m/s | 16.3°C | 85.9% | 0hPa | 3V | 08:30:00 | 00:29:48 | 00:00:00 | |
| IW2NTF | 2026-09-01 11:04:51 | 45.53263 | 8.65695 | 347° | 20km/h | 1415m | 4.5m/s | 16.3°C | 86.3% | 0hPa | 3V | 08:30:00 | 00:29:46 | 00:00:00 | |
| IW2NTF | 2026-09-01 11:04:51 | 45.53252 | 8.65700 | 341° | 24km/h | 1407m | 4.1m/s | 16.4°C | 86.2% | 0hPa | 3V | 08:30:00 | 00:29:44 | 00:00:00 | |
| IW2NTF | 2026-09-01 11:04:43 | 45.53241 | 8.65706 | 335° | 22km/h | 1398m | 5.2m/s | 16.4°C | 86.8% | 0hPa | 3V | 08:30:00 | 00:29:42 | 00:00:00 | |
| IW2NTF | 2026-09-01 11:04:43 | 45.53232 | 8.65709 | 357° | 16km/h | 1389m | 3.7m/s | 16.5°C | 86% | 0hPa | 3V | 08:30:00 | 00:29:40 | 00:00:00 | |
| IW2NTF | 2026-09-01 11:04:43 | 45.53221 | 8.65712 | 339° | 24km/h | 1381m | 4.9m/s | 16.6°C | 85.7% | 0hPa | 3V | 08:30:00 | 00:29:38 | 00:00:00 | |
| IW2NTF | 2026-09-01 11:04:38 | 45.53213 | 8.65720 | 322° | 18km/h | 1370m | 6.2m/s | 16.7°C | 84.6% | 0hPa | 3V | 08:30:00 | 00:29:36 | 00:00:00 | |
| IW2NTF | 2026-09-01 11:04:38 | 45.53206 | 8.65735 | 281° | 27km/h | 1360m | 5m/s | 16.7°C | 86.2% | 0hPa | 3V | 08:30:00 | 00:29:34 | 00:00:00 | |
| IW2NTF | 2026-09-01 11:04:38 | 45.53209 | 8.65745 | 172° | 16km/h | 1349m | 5.3m/s | 16.8°C | 86.1% | 0hPa | 3V | 08:30:00 | 00:29:32 | 00:00:00 | |
| IW2NTF | 2026-09-01 11:04:32 | 45.53209 | 8.65744 | 340° | 16km/h | 1337m | 8.1m/s | 17°C | 84.2% | 0hPa | 3V | 08:30:00 | 00:29:30 | 00:00:00 | |
| IW2NTF | 2026-09-01 11:04:32 | 45.53200 | 8.65749 | 347° | 22km/h | 1323m | 5m/s | 17.2°C | 83% | 0hPa | 3V | 08:30:00 | 00:29:28 | 00:00:00 | |
| IW2NTF | 2026-09-01 11:04:32 | 45.53188 | 8.65758 | 316° | 33km/h | 1316m | 3.6m/s | 17.2°C | 84.1% | 0hPa | 3V | 08:30:00 | 00:29:26 | 00:00:00 | |
| IW2NTF | 2026-09-01 11:04:27 | 45.53182 | 8.65773 | 283° | 18km/h | 1308m | 4.9m/s | 17.1°C | 85% | 0hPa | 3V | 08:30:00 | 00:29:24 | 00:00:00 | |
| IW2NTF | 2026-09-01 11:04:27 | 45.53180 | 8.65788 | 284° | 26km/h | 1299m | 3.6m/s | 17.1°C | 86% | 0hPa | 3V | 08:30:00 | 00:29:22 | 00:00:00 | |
| IW2NTF | 2026-09-01 11:04:27 | 45.53176 | 8.65794 | 58° | 16km/h | 1289m | 5.5m/s | 17.2°C | 87% | 0hPa | 3V | 08:30:00 | 00:29:20 | 00:00:00 | |
| IW2NTF | 2026-09-01 11:04:21 | 45.53171 | 8.65789 | 343° | 13km/h | 1280m | 5.5m/s | 17.1°C | 88.3% | 0hPa | 3V | 08:30:00 | 00:29:18 | 00:00:00 | |
| IW2NTF | 2026-09-01 11:04:21 | 45.53162 | 8.65795 | 324° | 24km/h | 1270m | 4.2m/s | 17.1°C | 89% | 0hPa | 3V | 08:30:00 | 00:29:16 | 00:00:00 | |
| IW2NTF | 2026-09-01 11:04:21 | 45.53156 | 8.65809 | 291° | 26km/h | 1264m | 3m/s | 17.2°C | 88.1% | 0hPa | 3V | 08:30:00 | 00:29:14 | 00:00:00 | |
| IW2NTF | 2026-09-01 11:04:13 | 45.53149 | 8.65822 | 323° | 22km/h | 1255m | 4.6m/s | 17.4°C | 0% | 0hPa | 3V | 08:30:00 | 00:29:12 | 00:00:00 | |
| IW2NTF | 2026-09-01 11:04:13 | 45.53138 | 8.65832 | 326° | 26km/h | 1248m | 2.6m/s | 17.5°C | 0% | 0hPa | 3V | 08:30:00 | 00:29:10 | 00:00:00 | |
| IW2NTF | 2026-09-01 11:04:13 | 45.53129 | 8.65843 | 322° | 22km/h | 1241m | 4m/s | 17.8°C | 0% | 0hPa | 3V | 08:30:00 | 00:29:08 | 00:00:00 | |
| IW2NTF | 2026-09-01 11:04:08 | 45.53119 | 8.65844 | 32° | 20km/h | 1233m | 3.6m/s | 17.9°C | 0% | 0hPa | 3V | 08:30:00 | 00:29:06 | 00:00:00 | |
| IW2NTF | 2026-09-01 11:04:08 | 45.53114 | 8.65842 | 294° | 11km/h | 1224m | 6.9m/s | 17.9°C | 0% | 0hPa | 3V | 08:30:00 | 00:29:04 | 00:00:00 | |
| IW2NTF | 2026-09-01 11:04:08 | 45.53112 | 8.65852 | 284° | 16km/h | 1213m | 4.3m/s | 18°C | 0% | 0hPa | 3V | 08:30:00 | 00:29:02 | 00:00:00 | |
| IW2NTF | 2026-09-01 11:04:02 | 45.53109 | 8.65867 | 299° | 27km/h | 1205m | 3.9m/s | 17.7°C | 0% | 0hPa | 3V | 08:30:00 | 00:29:00 | 00:00:00 | |
| IW2NTF | 2026-09-01 11:04:02 | 45.53100 | 8.65876 | 355° | 24km/h | 1195m | 5.1m/s | 0°C | 0% | 0hPa | 3V | 08:30:00 | 00:28:58 | 00:00:00 | |
| IW2NTF | 2026-09-01 11:04:02 | 45.53091 | 8.65871 | 63° | 13km/h | 1188m | 4.4m/s | 0°C | 0% | 0hPa | 3V | 08:30:00 | 00:28:56 | 00:00:00 | |
| IW2NTF | 2026-09-01 11:03:56 | 45.53092 | 8.65869 | 269° | 5km/h | 1177m | 6.4m/s | 0°C | 0% | 0hPa | 3V | 08:30:00 | 00:28:54 | 00:00:00 | |
| IW2NTF | 2026-09-01 11:03:56 | 45.53088 | 8.65878 | 325° | 18km/h | 1167m | 3.4m/s | 0°C | 0% | 0hPa | 3V | 00:00:00 | 00:28:52 | 00:00:00 | |
| IW2NTF | 2026-09-01 11:03:56 | 45.53080 | 8.65882 | 3° | 15km/h | 1159m | 4.4m/s | 0°C | 0% | 0hPa | 3V | 00:00:00 | 00:28:50 | 00:00:00 | |
| IW2NTF | 2026-09-01 11:03:50 | 45.53075 | 8.65878 | 45° | 11km/h | 1152m | 3.4m/s | 0°C | 0% | 0hPa | 3V | 00:00:00 | 00:28:48 | 00:00:00 | |
| IW2NTF | 2026-09-01 11:03:50 | 45.53075 | 8.65872 | 140° | 11km/h | 1145m | 3.8m/s | 0°C | 0% | 0hPa | 3V | 00:00:00 | 00:28:46 | 00:00:00 | |
| IW2NTF | 2026-09-01 11:03:50 | 45.53079 | 8.65872 | 242° | 9km/h | 1138m | 5.1m/s | 0°C | 0% | 0hPa | 3V | 00:00:00 | 00:28:44 | 00:00:00 | |
| IW2NTF | 2026-09-01 11:03:44 | 45.53080 | 8.65885 | 280° | 18km/h | 1131m | 3.1m/s | 0°C | 0% | 0hPa | 3V | 00:00:00 | 00:28:42 | 00:00:00 | |
| IW2NTF | 2026-09-01 11:03:44 | 45.53075 | 8.65893 | 338° | 22km/h | 1121m | 5.5m/s | 0°C | 0% | 0hPa | 3V | 00:00:00 | 00:28:40 | 00:00:00 | |
| IW2NTF | 2026-09-01 11:03:44 | 45.53065 | 8.65899 | 344° | 13km/h | 1113m | 6.3m/s | 0°C | 0% | 0hPa | 3V | 00:00:00 | 00:28:38 | 00:00:00 | |
| IW2NTF | 2026-09-01 11:03:39 | 45.53064 | 8.65895 | 117° | 4km/h | 1101m | 3.8m/s | 0°C | 0% | 0hPa | 3V | 00:00:00 | 00:28:36 | 00:00:00 | |
| IW2NTF | 2026-09-01 11:03:39 | 45.53067 | 8.65902 | 256° | 24km/h | 1091m | 3.4m/s | 0°C | 0% | 0hPa | 3V | 00:00:00 | 00:28:34 | 00:00:00 | |
| IW2NTF | 2026-09-01 11:03:39 | 45.53063 | 8.65913 | 321° | 15km/h | 1083m | 6.2m/s | 0°C | 0% | 0hPa | 3V | 00:00:00 | 00:28:32 | 00:00:00 | |
| IW2NTF | 2026-09-01 11:03:32 | 45.53054 | 8.65915 | 22° | 22km/h | 1073m | 4.5m/s | 0°C | 0% | 0hPa | 3V | 00:00:00 | 00:28:30 | 00:00:00 | |
| IW2NTF | 2026-09-01 11:03:32 | 45.53050 | 8.65911 | 255° | 4km/h | 1063m | 6.5m/s | 0°C | 0% | 0hPa | 3V | 00:00:00 | 00:28:28 | 00:00:00 | |
| IW2NTF | 2026-09-01 11:03:32 | 45.53051 | 8.65916 | 236° | 7km/h | 1052m | 4.4m/s | 0°C | 0% | 0hPa | 3V | 00:00:00 | 00:28:26 | 00:00:00 | |
| IW2NTF | 2026-09-01 11:03:26 | 45.53053 | 8.65926 | 272° | 20km/h | 1044m | 4m/s | 0°C | 0% | 0hPa | 3V | 00:00:00 | 00:28:24 | 00:00:00 | |
| IW2NTF | 2026-09-01 11:03:26 | 45.53049 | 8.65939 | 302° | 20km/h | 1036m | 4.3m/s | 0°C | 0% | 0hPa | 3V | 00:00:00 | 00:28:22 | 00:00:00 | |
| IW2NTF | 2026-09-01 11:03:26 | 45.53041 | 8.65954 | 317° | 29km/h | 1028m | 2.9m/s | 0°C | 0% | 0hPa | 3V | 00:00:00 | 00:28:20 | 00:00:00 | |
| IW2NTF | 2026-09-01 11:03:20 | 45.53031 | 8.65957 | 38° | 18km/h | 1019m | 4.9m/s | 0°C | 0% | 0hPa | 3V | 00:00:00 | 00:28:18 | 00:00:00 | |
| IW2NTF | 2026-09-01 11:03:20 | 45.53030 | 8.65957 | 239° | 16km/h | 1007m | 6.8m/s | 0°C | 0% | 0hPa | 3V | 00:00:00 | 00:28:16 | 00:00:00 | |
| IW2NTF | 2026-09-01 11:03:20 | 45.53031 | 8.65967 | 295° | 15km/h | 994m | 6.5m/s | 0°C | 0% | 0hPa | 3V | 00:00:00 | 00:28:14 | 00:00:00 | |
| IW2NTF | 2026-09-01 11:03:14 | 45.53030 | 8.65981 | 259° | 22km/h | 983m | 3.9m/s | 0°C | 0% | 0hPa | 3V | 00:00:00 | 00:28:12 | 00:00:00 | |
| IW2NTF | 2026-09-01 11:03:14 | 45.53035 | 8.65990 | 192° | 15km/h | 975m | 5.2m/s | 0°C | 0% | 0hPa | 3V | 00:00:00 | 00:28:10 | 00:00:00 | |
| IW2NTF | 2026-09-01 11:03:14 | 45.53037 | 8.65994 | 307° | 16km/h | 963m | 8.3m/s | 0°C | 0% | 0hPa | 3V | 00:00:00 | 00:28:08 | 00:00:00 | |
| IW2NTF | 2026-09-01 11:03:08 | 45.53029 | 8.66002 | 339° | 11km/h | 952m | 5.9m/s | 0°C | 0% | 0hPa | 3V | 00:00:00 | 00:28:06 | 00:00:00 | |
| IW2NTF | 2026-09-01 11:03:08 | 45.53025 | 8.65999 | 58° | 9km/h | 940m | 4.9m/s | 0°C | 0% | 0hPa | 3V | 00:00:00 | 00:28:04 | 00:00:00 | |
| IW2NTF | 2026-09-01 11:03:08 | 45.53027 | 8.65999 | 214° | 15km/h | 928m | 5.4m/s | 0°C | 0% | 0hPa | 3V | 00:00:00 | 00:28:02 | 00:00:00 | |
| IW2NTF | 2026-09-01 11:03:03 | 45.53030 | 8.66008 | 274° | 18km/h | 919m | 5m/s | 0°C | 0% | 0hPa | 3V | 00:00:00 | 00:28:00 | 00:00:00 | |
| IW2NTF | 2026-09-01 11:03:03 | 45.53023 | 8.66019 | 353° | 20km/h | 909m | 5m/s | 0°C | 0% | 0hPa | 3V | 00:00:00 | 00:27:58 | 00:00:00 | |
| IW2NTF | 2026-09-01 11:03:03 | 45.53016 | 8.66019 | 345° | 5km/h | 899m | 6.5m/s | 0°C | 0% | 0hPa | 3V | 00:00:00 | 00:27:56 | 00:00:00 | |
| IW2NTF | 2026-09-01 11:02:56 | 45.53017 | 8.66022 | 225° | 18km/h | 887m | 5.2m/s | 0°C | 0% | 0hPa | 3V | 00:00:00 | 00:27:54 | 00:00:00 | |
| IW2NTF | 2026-09-01 11:02:56 | 45.53020 | 8.66039 | 277° | 31km/h | 879m | 5m/s | 0°C | 0% | 0hPa | 3V | 00:00:00 | 00:27:52 | 00:00:00 | |
| IW2NTF | 2026-09-01 11:02:56 | 45.53016 | 8.66054 | 290° | 15km/h | 867m | 7.7m/s | 0°C | 0% | 0hPa | 3V | 00:00:00 | 00:27:50 | 00:00:00 | |
| IW2NTF | 2026-09-01 11:02:50 | 45.53015 | 8.66058 | 14° | 5km/h | 853m | 5.9m/s | 0°C | 0% | 0hPa | 3V | 00:00:00 | 00:27:48 | 00:00:00 | |
| IW2NTF | 2026-09-01 11:02:50 | 45.53011 | 8.66056 | 18° | 9km/h | 845m | 4.5m/s | 0°C | 0% | 0hPa | 3V | 00:00:00 | 00:27:46 | 00:00:00 | |
| IW2NTF | 2026-09-01 11:02:50 | 45.53002 | 8.66059 | 336° | 24km/h | 835m | 4.5m/s | 0°C | 0% | 0hPa | 3V | 00:00:00 | 00:27:44 | 00:00:00 | |
| IW2NTF | 2026-09-01 11:02:43 | 45.52995 | 8.66064 | 352° | 11km/h | 823m | 6.9m/s | 0°C | 0% | 0hPa | 3V | 00:00:00 | 00:27:42 | 00:00:00 |